<?xml version="1.0" encoding="UTF-8" standalone="no" ?>
<gpx xmlns="http://www.topografix.com/GPX/1/1" xmlns:xsi="http://www.w3.org/2001/XMLSchema-instance" xsi:schemaLocation="http://www.topografix.com/GPX/1/1 http://www.topografix.com/GPX/1/1/gpx.xsd" version="1.1" creator="VisuGPX - https://www.visugpx.com">
  <metadata>
    <name>Croisse Baulet, boucle depuis la Giettaz</name>
  </metadata>
  <trk>
    <name><![CDATA[2017-09-03 16:25:51-Course TT]]></name>
    <extensions>
      <line xmlns="http://www.topografix.com/GPX/gpx_style/0/2">
        <color>0000FF</color>
        <width>4</width>
      </line>
    </extensions>
    <trkseg>
      <trkpt lat="45.87947" lon="6.52563">
        <ele>1223.9</ele>
        <time>2017-09-03T10:02:39Z</time>
      </trkpt>
      <trkpt lat="45.87947" lon="6.52563">
        <ele>1329.16</ele>
        <time>2017-09-03T10:02:40Z</time>
      </trkpt>
      <trkpt lat="45.87946" lon="6.52563">
        <ele>1329.16</ele>
        <time>2017-09-03T10:02:41Z</time>
      </trkpt>
      <trkpt lat="45.87943" lon="6.52565">
        <ele>1329.16</ele>
        <time>2017-09-03T10:02:43Z</time>
      </trkpt>
      <trkpt lat="45.87939" lon="6.52566">
        <ele>1222.93</ele>
        <time>2017-09-03T10:02:44Z</time>
      </trkpt>
      <trkpt lat="45.87936" lon="6.52567">
        <ele>1222.93</ele>
        <time>2017-09-03T10:02:45Z</time>
      </trkpt>
      <trkpt lat="45.87934" lon="6.52568">
        <ele>1222.45</ele>
        <time>2017-09-03T10:02:46Z</time>
      </trkpt>
      <trkpt lat="45.87931" lon="6.52569">
        <ele>1221.97</ele>
        <time>2017-09-03T10:02:47Z</time>
      </trkpt>
      <trkpt lat="45.87926" lon="6.52572">
        <ele>1221.97</ele>
        <time>2017-09-03T10:02:49Z</time>
      </trkpt>
      <trkpt lat="45.8792" lon="6.52576">
        <ele>1221.97</ele>
        <time>2017-09-03T10:02:51Z</time>
      </trkpt>
      <trkpt lat="45.87914" lon="6.52579">
        <ele>1221.97</ele>
        <time>2017-09-03T10:02:53Z</time>
      </trkpt>
      <trkpt lat="45.87904" lon="6.5259">
        <ele>1221.49</ele>
        <time>2017-09-03T10:02:57Z</time>
      </trkpt>
      <trkpt lat="45.87891" lon="6.52597">
        <ele>1221.01</ele>
        <time>2017-09-03T10:03:02Z</time>
      </trkpt>
      <trkpt lat="45.8788" lon="6.526">
        <ele>1220.53</ele>
        <time>2017-09-03T10:03:06Z</time>
      </trkpt>
      <trkpt lat="45.87869" lon="6.52601">
        <ele>1219.57</ele>
        <time>2017-09-03T10:03:10Z</time>
      </trkpt>
      <trkpt lat="45.87861" lon="6.52605">
        <ele>1219.57</ele>
        <time>2017-09-03T10:03:13Z</time>
      </trkpt>
      <trkpt lat="45.87859" lon="6.52608">
        <ele>1219.57</ele>
        <time>2017-09-03T10:03:14Z</time>
      </trkpt>
      <trkpt lat="45.87857" lon="6.52611">
        <ele>1219.57</ele>
        <time>2017-09-03T10:03:15Z</time>
      </trkpt>
      <trkpt lat="45.87855" lon="6.52615">
        <ele>1219.57</ele>
        <time>2017-09-03T10:03:16Z</time>
      </trkpt>
      <trkpt lat="45.87853" lon="6.52618">
        <ele>1219.57</ele>
        <time>2017-09-03T10:03:17Z</time>
      </trkpt>
      <trkpt lat="45.8785" lon="6.52621">
        <ele>1219.57</ele>
        <time>2017-09-03T10:03:18Z</time>
      </trkpt>
      <trkpt lat="45.87848" lon="6.52624">
        <ele>1219.57</ele>
        <time>2017-09-03T10:03:19Z</time>
      </trkpt>
      <trkpt lat="45.87846" lon="6.52627">
        <ele>1220.05</ele>
        <time>2017-09-03T10:03:20Z</time>
      </trkpt>
      <trkpt lat="45.87845" lon="6.52631">
        <ele>1220.05</ele>
        <time>2017-09-03T10:03:21Z</time>
      </trkpt>
      <trkpt lat="45.87843" lon="6.52635">
        <ele>1220.05</ele>
        <time>2017-09-03T10:03:22Z</time>
      </trkpt>
      <trkpt lat="45.87842" lon="6.52638">
        <ele>1220.53</ele>
        <time>2017-09-03T10:03:23Z</time>
      </trkpt>
      <trkpt lat="45.87841" lon="6.52651">
        <ele>1221.01</ele>
        <time>2017-09-03T10:03:27Z</time>
      </trkpt>
      <trkpt lat="45.87839" lon="6.52662">
        <ele>1222.45</ele>
        <time>2017-09-03T10:03:31Z</time>
      </trkpt>
      <trkpt lat="45.87835" lon="6.52668">
        <ele>1223.42</ele>
        <time>2017-09-03T10:03:34Z</time>
      </trkpt>
      <trkpt lat="45.87831" lon="6.52675">
        <ele>1224.86</ele>
        <time>2017-09-03T10:03:37Z</time>
      </trkpt>
      <trkpt lat="45.87829" lon="6.52682">
        <ele>1226.3</ele>
        <time>2017-09-03T10:03:40Z</time>
      </trkpt>
      <trkpt lat="45.87829" lon="6.52685">
        <ele>1226.78</ele>
        <time>2017-09-03T10:03:41Z</time>
      </trkpt>
      <trkpt lat="45.8783" lon="6.52687">
        <ele>1227.26</ele>
        <time>2017-09-03T10:03:42Z</time>
      </trkpt>
      <trkpt lat="45.8783" lon="6.5269">
        <ele>1227.74</ele>
        <time>2017-09-03T10:03:43Z</time>
      </trkpt>
      <trkpt lat="45.8783" lon="6.52692">
        <ele>1228.22</ele>
        <time>2017-09-03T10:03:44Z</time>
      </trkpt>
      <trkpt lat="45.8783" lon="6.52694">
        <ele>1228.22</ele>
        <time>2017-09-03T10:03:45Z</time>
      </trkpt>
      <trkpt lat="45.8783" lon="6.52697">
        <ele>1228.7</ele>
        <time>2017-09-03T10:03:46Z</time>
      </trkpt>
      <trkpt lat="45.87834" lon="6.5271">
        <ele>1230.14</ele>
        <time>2017-09-03T10:03:51Z</time>
      </trkpt>
      <trkpt lat="45.87844" lon="6.52732">
        <ele>1231.59</ele>
        <time>2017-09-03T10:04:00Z</time>
      </trkpt>
      <trkpt lat="45.87848" lon="6.52746">
        <ele>1233.03</ele>
        <time>2017-09-03T10:04:21Z</time>
      </trkpt>
      <trkpt lat="45.87847" lon="6.52748">
        <ele>1233.51</ele>
        <time>2017-09-03T10:04:28Z</time>
      </trkpt>
      <trkpt lat="45.87844" lon="6.52746">
        <ele>1234.47</ele>
        <time>2017-09-03T10:04:41Z</time>
      </trkpt>
      <trkpt lat="45.87842" lon="6.52745">
        <ele>1235.43</ele>
        <time>2017-09-03T10:04:43Z</time>
      </trkpt>
      <trkpt lat="45.87827" lon="6.52737">
        <ele>1238.8</ele>
        <time>2017-09-03T10:04:52Z</time>
      </trkpt>
      <trkpt lat="45.87819" lon="6.52732">
        <ele>1241.2</ele>
        <time>2017-09-03T10:04:58Z</time>
      </trkpt>
      <trkpt lat="45.87807" lon="6.52723">
        <ele>1243.6</ele>
        <time>2017-09-03T10:05:05Z</time>
      </trkpt>
      <trkpt lat="45.87797" lon="6.52706">
        <ele>1245.04</ele>
        <time>2017-09-03T10:05:13Z</time>
      </trkpt>
      <trkpt lat="45.87785" lon="6.52683">
        <ele>1246.49</ele>
        <time>2017-09-03T10:05:23Z</time>
      </trkpt>
      <trkpt lat="45.87781" lon="6.52671">
        <ele>1246.01</ele>
        <time>2017-09-03T10:05:27Z</time>
      </trkpt>
      <trkpt lat="45.87781" lon="6.52668">
        <ele>1246.01</ele>
        <time>2017-09-03T10:05:28Z</time>
      </trkpt>
      <trkpt lat="45.8778" lon="6.52665">
        <ele>1246.01</ele>
        <time>2017-09-03T10:05:29Z</time>
      </trkpt>
      <trkpt lat="45.87779" lon="6.52662">
        <ele>1246.01</ele>
        <time>2017-09-03T10:05:30Z</time>
      </trkpt>
      <trkpt lat="45.87778" lon="6.5266">
        <ele>1245.53</ele>
        <time>2017-09-03T10:05:31Z</time>
      </trkpt>
      <trkpt lat="45.87777" lon="6.52657">
        <ele>1245.04</ele>
        <time>2017-09-03T10:05:32Z</time>
      </trkpt>
      <trkpt lat="45.87762" lon="6.52648">
        <ele>1243.6</ele>
        <time>2017-09-03T10:05:40Z</time>
      </trkpt>
      <trkpt lat="45.8776" lon="6.5265">
        <ele>1243.12</ele>
        <time>2017-09-03T10:05:41Z</time>
      </trkpt>
      <trkpt lat="45.87759" lon="6.52651">
        <ele>1243.12</ele>
        <time>2017-09-03T10:05:42Z</time>
      </trkpt>
      <trkpt lat="45.87757" lon="6.52653">
        <ele>1242.64</ele>
        <time>2017-09-03T10:05:43Z</time>
      </trkpt>
      <trkpt lat="45.87754" lon="6.52654">
        <ele>1242.64</ele>
        <time>2017-09-03T10:05:44Z</time>
      </trkpt>
      <trkpt lat="45.87752" lon="6.52655">
        <ele>1243.12</ele>
        <time>2017-09-03T10:05:45Z</time>
      </trkpt>
      <trkpt lat="45.8775" lon="6.52654">
        <ele>1243.12</ele>
        <time>2017-09-03T10:05:46Z</time>
      </trkpt>
      <trkpt lat="45.87748" lon="6.52654">
        <ele>1242.64</ele>
        <time>2017-09-03T10:05:47Z</time>
      </trkpt>
      <trkpt lat="45.87747" lon="6.52653">
        <ele>1242.64</ele>
        <time>2017-09-03T10:05:48Z</time>
      </trkpt>
      <trkpt lat="45.87747" lon="6.52651">
        <ele>1242.64</ele>
        <time>2017-09-03T10:05:49Z</time>
      </trkpt>
      <trkpt lat="45.87747" lon="6.52648">
        <ele>1242.64</ele>
        <time>2017-09-03T10:05:50Z</time>
      </trkpt>
      <trkpt lat="45.87747" lon="6.52644">
        <ele>1242.64</ele>
        <time>2017-09-03T10:05:51Z</time>
      </trkpt>
      <trkpt lat="45.87746" lon="6.5264">
        <ele>1242.64</ele>
        <time>2017-09-03T10:05:52Z</time>
      </trkpt>
      <trkpt lat="45.87745" lon="6.52636">
        <ele>1242.16</ele>
        <time>2017-09-03T10:05:53Z</time>
      </trkpt>
      <trkpt lat="45.87745" lon="6.52633">
        <ele>1242.16</ele>
        <time>2017-09-03T10:05:54Z</time>
      </trkpt>
      <trkpt lat="45.87743" lon="6.52628">
        <ele>1242.16</ele>
        <time>2017-09-03T10:05:55Z</time>
      </trkpt>
      <trkpt lat="45.87742" lon="6.52625">
        <ele>1241.68</ele>
        <time>2017-09-03T10:05:56Z</time>
      </trkpt>
      <trkpt lat="45.87741" lon="6.52621">
        <ele>1241.2</ele>
        <time>2017-09-03T10:05:57Z</time>
      </trkpt>
      <trkpt lat="45.87735" lon="6.52601">
        <ele>1240.24</ele>
        <time>2017-09-03T10:06:02Z</time>
      </trkpt>
      <trkpt lat="45.87734" lon="6.52598">
        <ele>1240.24</ele>
        <time>2017-09-03T10:06:03Z</time>
      </trkpt>
      <trkpt lat="45.87721" lon="6.52577">
        <ele>1237.83</ele>
        <time>2017-09-03T10:06:11Z</time>
      </trkpt>
      <trkpt lat="45.87704" lon="6.52554">
        <ele>1235.43</ele>
        <time>2017-09-03T10:06:19Z</time>
      </trkpt>
      <trkpt lat="45.87703" lon="6.52551">
        <ele>1235.43</ele>
        <time>2017-09-03T10:06:20Z</time>
      </trkpt>
      <trkpt lat="45.87694" lon="6.52521">
        <ele>1233.99</ele>
        <time>2017-09-03T10:06:28Z</time>
      </trkpt>
      <trkpt lat="45.87689" lon="6.52516">
        <ele>1233.03</ele>
        <time>2017-09-03T10:06:31Z</time>
      </trkpt>
      <trkpt lat="45.87688" lon="6.52516">
        <ele>1233.03</ele>
        <time>2017-09-03T10:06:32Z</time>
      </trkpt>
      <trkpt lat="45.8768" lon="6.5252">
        <ele>1231.11</ele>
        <time>2017-09-03T10:06:39Z</time>
      </trkpt>
      <trkpt lat="45.87679" lon="6.5252">
        <ele>1231.11</ele>
        <time>2017-09-03T10:06:40Z</time>
      </trkpt>
      <trkpt lat="45.87679" lon="6.52519">
        <ele>1231.11</ele>
        <time>2017-09-03T10:06:44Z</time>
      </trkpt>
      <trkpt lat="45.8768" lon="6.5252">
        <ele>1231.11</ele>
        <time>2017-09-03T10:06:46Z</time>
      </trkpt>
      <trkpt lat="45.87681" lon="6.52521">
        <ele>1231.11</ele>
        <time>2017-09-03T10:06:48Z</time>
      </trkpt>
      <trkpt lat="45.87682" lon="6.52523">
        <ele>1231.11</ele>
        <time>2017-09-03T10:06:50Z</time>
      </trkpt>
      <trkpt lat="45.87682" lon="6.52523">
        <ele>1231.11</ele>
        <time>2017-09-03T10:06:51Z</time>
      </trkpt>
      <trkpt lat="45.87682" lon="6.52523">
        <ele>1230.62</ele>
        <time>2017-09-03T10:06:52Z</time>
      </trkpt>
      <trkpt lat="45.87682" lon="6.52523">
        <ele>1230.62</ele>
        <time>2017-09-03T10:06:55Z</time>
      </trkpt>
      <trkpt lat="45.87681" lon="6.52522">
        <ele>1230.62</ele>
        <time>2017-09-03T10:06:57Z</time>
      </trkpt>
      <trkpt lat="45.87678" lon="6.52525">
        <ele>1230.62</ele>
        <time>2017-09-03T10:06:59Z</time>
      </trkpt>
      <trkpt lat="45.87677" lon="6.52526">
        <ele>1230.62</ele>
        <time>2017-09-03T10:07:00Z</time>
      </trkpt>
      <trkpt lat="45.87674" lon="6.52526">
        <ele>1230.62</ele>
        <time>2017-09-03T10:07:01Z</time>
      </trkpt>
      <trkpt lat="45.87673" lon="6.52526">
        <ele>1230.62</ele>
        <time>2017-09-03T10:07:02Z</time>
      </trkpt>
      <trkpt lat="45.8767" lon="6.52524">
        <ele>1231.11</ele>
        <time>2017-09-03T10:07:03Z</time>
      </trkpt>
      <trkpt lat="45.87669" lon="6.52521">
        <ele>1231.59</ele>
        <time>2017-09-03T10:07:04Z</time>
      </trkpt>
      <trkpt lat="45.87668" lon="6.52518">
        <ele>1231.59</ele>
        <time>2017-09-03T10:07:05Z</time>
      </trkpt>
      <trkpt lat="45.87668" lon="6.52514">
        <ele>1231.59</ele>
        <time>2017-09-03T10:07:06Z</time>
      </trkpt>
      <trkpt lat="45.87668" lon="6.52511">
        <ele>1231.11</ele>
        <time>2017-09-03T10:07:07Z</time>
      </trkpt>
      <trkpt lat="45.87668" lon="6.52499">
        <ele>1230.14</ele>
        <time>2017-09-03T10:07:10Z</time>
      </trkpt>
      <trkpt lat="45.87663" lon="6.52471">
        <ele>1228.22</ele>
        <time>2017-09-03T10:07:18Z</time>
      </trkpt>
      <trkpt lat="45.87646" lon="6.52457">
        <ele>1226.3</ele>
        <time>2017-09-03T10:07:30Z</time>
      </trkpt>
      <trkpt lat="45.87645" lon="6.52455">
        <ele>1226.3</ele>
        <time>2017-09-03T10:07:34Z</time>
      </trkpt>
      <trkpt lat="45.87646" lon="6.52455">
        <ele>1226.3</ele>
        <time>2017-09-03T10:07:38Z</time>
      </trkpt>
      <trkpt lat="45.87648" lon="6.52455">
        <ele>1226.3</ele>
        <time>2017-09-03T10:07:39Z</time>
      </trkpt>
      <trkpt lat="45.87654" lon="6.52458">
        <ele>1226.3</ele>
        <time>2017-09-03T10:07:47Z</time>
      </trkpt>
      <trkpt lat="45.87661" lon="6.52468">
        <ele>1227.74</ele>
        <time>2017-09-03T10:07:59Z</time>
      </trkpt>
      <trkpt lat="45.87663" lon="6.52478">
        <ele>1228.7</ele>
        <time>2017-09-03T10:08:05Z</time>
      </trkpt>
      <trkpt lat="45.87662" lon="6.5248">
        <ele>1228.7</ele>
        <time>2017-09-03T10:08:06Z</time>
      </trkpt>
      <trkpt lat="45.87662" lon="6.52482">
        <ele>1228.7</ele>
        <time>2017-09-03T10:08:07Z</time>
      </trkpt>
      <trkpt lat="45.87662" lon="6.5249">
        <ele>1229.18</ele>
        <time>2017-09-03T10:08:11Z</time>
      </trkpt>
      <trkpt lat="45.87662" lon="6.52492">
        <ele>1229.18</ele>
        <time>2017-09-03T10:08:12Z</time>
      </trkpt>
      <trkpt lat="45.87662" lon="6.52494">
        <ele>1229.18</ele>
        <time>2017-09-03T10:08:13Z</time>
      </trkpt>
      <trkpt lat="45.87662" lon="6.5251">
        <ele>1230.14</ele>
        <time>2017-09-03T10:08:18Z</time>
      </trkpt>
      <trkpt lat="45.87665" lon="6.52516">
        <ele>1231.59</ele>
        <time>2017-09-03T10:08:22Z</time>
      </trkpt>
      <trkpt lat="45.87668" lon="6.52516">
        <ele>1231.59</ele>
        <time>2017-09-03T10:08:23Z</time>
      </trkpt>
      <trkpt lat="45.8767" lon="6.52516">
        <ele>1231.59</ele>
        <time>2017-09-03T10:08:24Z</time>
      </trkpt>
      <trkpt lat="45.8768" lon="6.52514">
        <ele>1231.59</ele>
        <time>2017-09-03T10:08:28Z</time>
      </trkpt>
      <trkpt lat="45.8769" lon="6.52514">
        <ele>1232.55</ele>
        <time>2017-09-03T10:08:32Z</time>
      </trkpt>
      <trkpt lat="45.87695" lon="6.52521">
        <ele>1233.03</ele>
        <time>2017-09-03T10:08:35Z</time>
      </trkpt>
      <trkpt lat="45.87698" lon="6.52539">
        <ele>1233.99</ele>
        <time>2017-09-03T10:08:41Z</time>
      </trkpt>
      <trkpt lat="45.877" lon="6.52554">
        <ele>1234.95</ele>
        <time>2017-09-03T10:08:48Z</time>
      </trkpt>
      <trkpt lat="45.87704" lon="6.52556">
        <ele>1235.43</ele>
        <time>2017-09-03T10:08:50Z</time>
      </trkpt>
      <trkpt lat="45.87707" lon="6.52557">
        <ele>1235.43</ele>
        <time>2017-09-03T10:08:51Z</time>
      </trkpt>
      <trkpt lat="45.87708" lon="6.52558">
        <ele>1235.91</ele>
        <time>2017-09-03T10:08:52Z</time>
      </trkpt>
      <trkpt lat="45.8771" lon="6.52562">
        <ele>1235.91</ele>
        <time>2017-09-03T10:08:54Z</time>
      </trkpt>
      <trkpt lat="45.87711" lon="6.52564">
        <ele>1236.39</ele>
        <time>2017-09-03T10:08:55Z</time>
      </trkpt>
      <trkpt lat="45.87719" lon="6.52583">
        <ele>1237.83</ele>
        <time>2017-09-03T10:09:05Z</time>
      </trkpt>
      <trkpt lat="45.87719" lon="6.52587">
        <ele>1238.32</ele>
        <time>2017-09-03T10:09:07Z</time>
      </trkpt>
      <trkpt lat="45.87719" lon="6.52589">
        <ele>1238.32</ele>
        <time>2017-09-03T10:09:08Z</time>
      </trkpt>
      <trkpt lat="45.87721" lon="6.52591">
        <ele>1238.8</ele>
        <time>2017-09-03T10:09:09Z</time>
      </trkpt>
      <trkpt lat="45.87722" lon="6.52594">
        <ele>1238.8</ele>
        <time>2017-09-03T10:09:10Z</time>
      </trkpt>
      <trkpt lat="45.87722" lon="6.52596">
        <ele>1238.8</ele>
        <time>2017-09-03T10:09:11Z</time>
      </trkpt>
      <trkpt lat="45.87722" lon="6.52599">
        <ele>1239.28</ele>
        <time>2017-09-03T10:09:12Z</time>
      </trkpt>
      <trkpt lat="45.87723" lon="6.52601">
        <ele>1239.76</ele>
        <time>2017-09-03T10:09:13Z</time>
      </trkpt>
      <trkpt lat="45.87724" lon="6.52604">
        <ele>1239.76</ele>
        <time>2017-09-03T10:09:14Z</time>
      </trkpt>
      <trkpt lat="45.87738" lon="6.52639">
        <ele>1242.16</ele>
        <time>2017-09-03T10:09:26Z</time>
      </trkpt>
      <trkpt lat="45.87742" lon="6.5265">
        <ele>1242.64</ele>
        <time>2017-09-03T10:09:31Z</time>
      </trkpt>
      <trkpt lat="45.87744" lon="6.5265">
        <ele>1242.64</ele>
        <time>2017-09-03T10:09:32Z</time>
      </trkpt>
      <trkpt lat="45.87745" lon="6.52651">
        <ele>1242.64</ele>
        <time>2017-09-03T10:09:33Z</time>
      </trkpt>
      <trkpt lat="45.87747" lon="6.52653">
        <ele>1243.12</ele>
        <time>2017-09-03T10:09:35Z</time>
      </trkpt>
      <trkpt lat="45.87749" lon="6.52653">
        <ele>1243.12</ele>
        <time>2017-09-03T10:09:36Z</time>
      </trkpt>
      <trkpt lat="45.87751" lon="6.52653">
        <ele>1243.12</ele>
        <time>2017-09-03T10:09:37Z</time>
      </trkpt>
      <trkpt lat="45.87754" lon="6.52653">
        <ele>1242.64</ele>
        <time>2017-09-03T10:09:38Z</time>
      </trkpt>
      <trkpt lat="45.87756" lon="6.52652">
        <ele>1242.64</ele>
        <time>2017-09-03T10:09:39Z</time>
      </trkpt>
      <trkpt lat="45.87757" lon="6.52651">
        <ele>1242.64</ele>
        <time>2017-09-03T10:09:40Z</time>
      </trkpt>
      <trkpt lat="45.87759" lon="6.52651">
        <ele>1242.64</ele>
        <time>2017-09-03T10:09:41Z</time>
      </trkpt>
      <trkpt lat="45.87761" lon="6.52651">
        <ele>1242.64</ele>
        <time>2017-09-03T10:09:42Z</time>
      </trkpt>
      <trkpt lat="45.87762" lon="6.52649">
        <ele>1242.64</ele>
        <time>2017-09-03T10:09:43Z</time>
      </trkpt>
      <trkpt lat="45.87764" lon="6.52648">
        <ele>1243.12</ele>
        <time>2017-09-03T10:09:44Z</time>
      </trkpt>
      <trkpt lat="45.87765" lon="6.52647">
        <ele>1243.6</ele>
        <time>2017-09-03T10:09:45Z</time>
      </trkpt>
      <trkpt lat="45.87767" lon="6.52648">
        <ele>1243.6</ele>
        <time>2017-09-03T10:09:46Z</time>
      </trkpt>
      <trkpt lat="45.87768" lon="6.52649">
        <ele>1243.6</ele>
        <time>2017-09-03T10:09:47Z</time>
      </trkpt>
      <trkpt lat="45.87768" lon="6.52651">
        <ele>1243.6</ele>
        <time>2017-09-03T10:09:48Z</time>
      </trkpt>
      <trkpt lat="45.87769" lon="6.52653">
        <ele>1244.08</ele>
        <time>2017-09-03T10:09:49Z</time>
      </trkpt>
      <trkpt lat="45.87771" lon="6.52655">
        <ele>1244.08</ele>
        <time>2017-09-03T10:09:50Z</time>
      </trkpt>
      <trkpt lat="45.87773" lon="6.52657">
        <ele>1244.08</ele>
        <time>2017-09-03T10:09:51Z</time>
      </trkpt>
      <trkpt lat="45.87774" lon="6.52659">
        <ele>1244.08</ele>
        <time>2017-09-03T10:09:52Z</time>
      </trkpt>
      <trkpt lat="45.87778" lon="6.52668">
        <ele>1245.53</ele>
        <time>2017-09-03T10:10:10Z</time>
      </trkpt>
      <trkpt lat="45.87775" lon="6.52665">
        <ele>1245.53</ele>
        <time>2017-09-03T10:10:14Z</time>
      </trkpt>
      <trkpt lat="45.87774" lon="6.52664">
        <ele>1245.53</ele>
        <time>2017-09-03T10:10:17Z</time>
      </trkpt>
      <trkpt lat="45.87773" lon="6.52665">
        <ele>1245.53</ele>
        <time>2017-09-03T10:10:19Z</time>
      </trkpt>
      <trkpt lat="45.87773" lon="6.52668">
        <ele>1245.53</ele>
        <time>2017-09-03T10:10:22Z</time>
      </trkpt>
      <trkpt lat="45.87773" lon="6.52668">
        <ele>1245.53</ele>
        <time>2017-09-03T10:10:26Z</time>
      </trkpt>
      <trkpt lat="45.87773" lon="6.52668">
        <ele>1245.53</ele>
        <time>2017-09-03T10:10:31Z</time>
      </trkpt>
      <trkpt lat="45.87786" lon="6.52679">
        <ele>1245.53</ele>
        <time>2017-09-03T10:10:36Z</time>
      </trkpt>
      <trkpt lat="45.87789" lon="6.5268">
        <ele>1245.53</ele>
        <time>2017-09-03T10:10:39Z</time>
      </trkpt>
      <trkpt lat="45.87788" lon="6.52681">
        <ele>1245.53</ele>
        <time>2017-09-03T10:10:42Z</time>
      </trkpt>
      <trkpt lat="45.87787" lon="6.52682">
        <ele>1245.53</ele>
        <time>2017-09-03T10:10:43Z</time>
      </trkpt>
      <trkpt lat="45.87787" lon="6.52684">
        <ele>1245.53</ele>
        <time>2017-09-03T10:10:44Z</time>
      </trkpt>
      <trkpt lat="45.87796" lon="6.52698">
        <ele>1246.49</ele>
        <time>2017-09-03T10:10:52Z</time>
      </trkpt>
      <trkpt lat="45.87811" lon="6.52717">
        <ele>1245.53</ele>
        <time>2017-09-03T10:11:01Z</time>
      </trkpt>
      <trkpt lat="45.87821" lon="6.52731">
        <ele>1243.6</ele>
        <time>2017-09-03T10:11:07Z</time>
      </trkpt>
      <trkpt lat="45.87822" lon="6.52732">
        <ele>1243.12</ele>
        <time>2017-09-03T10:11:08Z</time>
      </trkpt>
      <trkpt lat="45.87824" lon="6.52733">
        <ele>1242.64</ele>
        <time>2017-09-03T10:11:09Z</time>
      </trkpt>
      <trkpt lat="45.87836" lon="6.52741">
        <ele>1239.28</ele>
        <time>2017-09-03T10:11:15Z</time>
      </trkpt>
      <trkpt lat="45.87845" lon="6.52746">
        <ele>1236.39</ele>
        <time>2017-09-03T10:11:20Z</time>
      </trkpt>
      <trkpt lat="45.87852" lon="6.52747">
        <ele>1234.47</ele>
        <time>2017-09-03T10:11:24Z</time>
      </trkpt>
      <trkpt lat="45.87853" lon="6.52748">
        <ele>1234.47</ele>
        <time>2017-09-03T10:11:25Z</time>
      </trkpt>
      <trkpt lat="45.87854" lon="6.5275">
        <ele>1234.47</ele>
        <time>2017-09-03T10:11:28Z</time>
      </trkpt>
      <trkpt lat="45.87855" lon="6.52752">
        <ele>1234.47</ele>
        <time>2017-09-03T10:11:29Z</time>
      </trkpt>
      <trkpt lat="45.87856" lon="6.52753">
        <ele>1234.47</ele>
        <time>2017-09-03T10:11:30Z</time>
      </trkpt>
      <trkpt lat="45.87856" lon="6.52755">
        <ele>1234.95</ele>
        <time>2017-09-03T10:11:31Z</time>
      </trkpt>
      <trkpt lat="45.87857" lon="6.52757">
        <ele>1235.43</ele>
        <time>2017-09-03T10:11:32Z</time>
      </trkpt>
      <trkpt lat="45.87858" lon="6.52759">
        <ele>1235.43</ele>
        <time>2017-09-03T10:11:33Z</time>
      </trkpt>
      <trkpt lat="45.87859" lon="6.52761">
        <ele>1235.91</ele>
        <time>2017-09-03T10:11:34Z</time>
      </trkpt>
      <trkpt lat="45.8786" lon="6.52762">
        <ele>1235.91</ele>
        <time>2017-09-03T10:11:35Z</time>
      </trkpt>
      <trkpt lat="45.87865" lon="6.52774">
        <ele>1237.35</ele>
        <time>2017-09-03T10:11:40Z</time>
      </trkpt>
      <trkpt lat="45.87867" lon="6.52778">
        <ele>1237.83</ele>
        <time>2017-09-03T10:11:42Z</time>
      </trkpt>
      <trkpt lat="45.87868" lon="6.52779">
        <ele>1238.32</ele>
        <time>2017-09-03T10:11:43Z</time>
      </trkpt>
      <trkpt lat="45.87869" lon="6.52781">
        <ele>1238.8</ele>
        <time>2017-09-03T10:11:44Z</time>
      </trkpt>
      <trkpt lat="45.8787" lon="6.52784">
        <ele>1238.8</ele>
        <time>2017-09-03T10:11:45Z</time>
      </trkpt>
      <trkpt lat="45.8787" lon="6.52786">
        <ele>1239.28</ele>
        <time>2017-09-03T10:11:46Z</time>
      </trkpt>
      <trkpt lat="45.87871" lon="6.52788">
        <ele>1239.76</ele>
        <time>2017-09-03T10:11:47Z</time>
      </trkpt>
      <trkpt lat="45.87872" lon="6.5279">
        <ele>1240.24</ele>
        <time>2017-09-03T10:11:48Z</time>
      </trkpt>
      <trkpt lat="45.87873" lon="6.52792">
        <ele>1240.24</ele>
        <time>2017-09-03T10:11:49Z</time>
      </trkpt>
      <trkpt lat="45.87875" lon="6.52799">
        <ele>1241.68</ele>
        <time>2017-09-03T10:11:53Z</time>
      </trkpt>
      <trkpt lat="45.87876" lon="6.52806">
        <ele>1242.64</ele>
        <time>2017-09-03T10:11:56Z</time>
      </trkpt>
      <trkpt lat="45.87877" lon="6.52816">
        <ele>1244.56</ele>
        <time>2017-09-03T10:12:01Z</time>
      </trkpt>
      <trkpt lat="45.87879" lon="6.52824">
        <ele>1246.01</ele>
        <time>2017-09-03T10:12:05Z</time>
      </trkpt>
      <trkpt lat="45.87881" lon="6.52834">
        <ele>1248.41</ele>
        <time>2017-09-03T10:12:10Z</time>
      </trkpt>
      <trkpt lat="45.87882" lon="6.52847">
        <ele>1250.33</ele>
        <time>2017-09-03T10:12:16Z</time>
      </trkpt>
      <trkpt lat="45.87884" lon="6.52866">
        <ele>1253.7</ele>
        <time>2017-09-03T10:12:26Z</time>
      </trkpt>
      <trkpt lat="45.87884" lon="6.52888">
        <ele>1256.58</ele>
        <time>2017-09-03T10:12:37Z</time>
      </trkpt>
      <trkpt lat="45.87884" lon="6.52893">
        <ele>1258.02</ele>
        <time>2017-09-03T10:12:40Z</time>
      </trkpt>
      <trkpt lat="45.87884" lon="6.52895">
        <ele>1258.02</ele>
        <time>2017-09-03T10:12:41Z</time>
      </trkpt>
      <trkpt lat="45.87884" lon="6.52897">
        <ele>1258.5</ele>
        <time>2017-09-03T10:12:42Z</time>
      </trkpt>
      <trkpt lat="45.87883" lon="6.529">
        <ele>1258.98</ele>
        <time>2017-09-03T10:12:43Z</time>
      </trkpt>
      <trkpt lat="45.87883" lon="6.52902">
        <ele>1258.98</ele>
        <time>2017-09-03T10:12:44Z</time>
      </trkpt>
      <trkpt lat="45.87883" lon="6.52903">
        <ele>1259.46</ele>
        <time>2017-09-03T10:12:45Z</time>
      </trkpt>
      <trkpt lat="45.87882" lon="6.52904">
        <ele>1259.94</ele>
        <time>2017-09-03T10:12:46Z</time>
      </trkpt>
      <trkpt lat="45.87881" lon="6.52906">
        <ele>1259.94</ele>
        <time>2017-09-03T10:12:47Z</time>
      </trkpt>
      <trkpt lat="45.87881" lon="6.52908">
        <ele>1260.43</ele>
        <time>2017-09-03T10:12:48Z</time>
      </trkpt>
      <trkpt lat="45.87881" lon="6.5291">
        <ele>1260.91</ele>
        <time>2017-09-03T10:12:49Z</time>
      </trkpt>
      <trkpt lat="45.8788" lon="6.52911">
        <ele>1260.91</ele>
        <time>2017-09-03T10:12:50Z</time>
      </trkpt>
      <trkpt lat="45.8788" lon="6.52913">
        <ele>1261.39</ele>
        <time>2017-09-03T10:12:51Z</time>
      </trkpt>
      <trkpt lat="45.8788" lon="6.52914">
        <ele>1261.87</ele>
        <time>2017-09-03T10:12:52Z</time>
      </trkpt>
      <trkpt lat="45.87879" lon="6.52915">
        <ele>1262.35</ele>
        <time>2017-09-03T10:12:53Z</time>
      </trkpt>
      <trkpt lat="45.87879" lon="6.52916">
        <ele>1262.35</ele>
        <time>2017-09-03T10:12:54Z</time>
      </trkpt>
      <trkpt lat="45.87873" lon="6.52937">
        <ele>1265.23</ele>
        <time>2017-09-03T10:13:05Z</time>
      </trkpt>
      <trkpt lat="45.87873" lon="6.52939">
        <ele>1265.71</ele>
        <time>2017-09-03T10:13:06Z</time>
      </trkpt>
      <trkpt lat="45.87872" lon="6.52942">
        <ele>1265.71</ele>
        <time>2017-09-03T10:13:07Z</time>
      </trkpt>
      <trkpt lat="45.87872" lon="6.52944">
        <ele>1266.19</ele>
        <time>2017-09-03T10:13:08Z</time>
      </trkpt>
      <trkpt lat="45.87872" lon="6.52947">
        <ele>1266.19</ele>
        <time>2017-09-03T10:13:09Z</time>
      </trkpt>
      <trkpt lat="45.87871" lon="6.52949">
        <ele>1266.19</ele>
        <time>2017-09-03T10:13:10Z</time>
      </trkpt>
      <trkpt lat="45.87871" lon="6.52952">
        <ele>1266.19</ele>
        <time>2017-09-03T10:13:11Z</time>
      </trkpt>
      <trkpt lat="45.87871" lon="6.52955">
        <ele>1266.19</ele>
        <time>2017-09-03T10:13:12Z</time>
      </trkpt>
      <trkpt lat="45.87874" lon="6.52981">
        <ele>1268.12</ele>
        <time>2017-09-03T10:13:22Z</time>
      </trkpt>
      <trkpt lat="45.87872" lon="6.52993">
        <ele>1268.6</ele>
        <time>2017-09-03T10:13:26Z</time>
      </trkpt>
      <trkpt lat="45.87872" lon="6.52996">
        <ele>1269.08</ele>
        <time>2017-09-03T10:13:27Z</time>
      </trkpt>
      <trkpt lat="45.87871" lon="6.52999">
        <ele>1269.08</ele>
        <time>2017-09-03T10:13:28Z</time>
      </trkpt>
      <trkpt lat="45.87871" lon="6.53001">
        <ele>1269.08</ele>
        <time>2017-09-03T10:13:29Z</time>
      </trkpt>
      <trkpt lat="45.87872" lon="6.53004">
        <ele>1269.56</ele>
        <time>2017-09-03T10:13:30Z</time>
      </trkpt>
      <trkpt lat="45.87872" lon="6.53007">
        <ele>1269.56</ele>
        <time>2017-09-03T10:13:31Z</time>
      </trkpt>
      <trkpt lat="45.87872" lon="6.5301">
        <ele>1270.04</ele>
        <time>2017-09-03T10:13:32Z</time>
      </trkpt>
      <trkpt lat="45.87873" lon="6.53013">
        <ele>1270.04</ele>
        <time>2017-09-03T10:13:33Z</time>
      </trkpt>
      <trkpt lat="45.87873" lon="6.53016">
        <ele>1270.04</ele>
        <time>2017-09-03T10:13:34Z</time>
      </trkpt>
      <trkpt lat="45.87871" lon="6.53038">
        <ele>1271.48</ele>
        <time>2017-09-03T10:13:41Z</time>
      </trkpt>
      <trkpt lat="45.87871" lon="6.53042">
        <ele>1271.48</ele>
        <time>2017-09-03T10:13:42Z</time>
      </trkpt>
      <trkpt lat="45.87871" lon="6.53044">
        <ele>1271.48</ele>
        <time>2017-09-03T10:13:43Z</time>
      </trkpt>
      <trkpt lat="45.8787" lon="6.53072">
        <ele>1273.4</ele>
        <time>2017-09-03T10:13:53Z</time>
      </trkpt>
      <trkpt lat="45.87872" lon="6.53091">
        <ele>1274.85</ele>
        <time>2017-09-03T10:13:59Z</time>
      </trkpt>
      <trkpt lat="45.87873" lon="6.53093">
        <ele>1274.85</ele>
        <time>2017-09-03T10:14:00Z</time>
      </trkpt>
      <trkpt lat="45.87873" lon="6.53097">
        <ele>1275.33</ele>
        <time>2017-09-03T10:14:01Z</time>
      </trkpt>
      <trkpt lat="45.87873" lon="6.531">
        <ele>1275.33</ele>
        <time>2017-09-03T10:14:02Z</time>
      </trkpt>
      <trkpt lat="45.87874" lon="6.53102">
        <ele>1275.33</ele>
        <time>2017-09-03T10:14:03Z</time>
      </trkpt>
      <trkpt lat="45.87874" lon="6.53105">
        <ele>1275.33</ele>
        <time>2017-09-03T10:14:04Z</time>
      </trkpt>
      <trkpt lat="45.87875" lon="6.53108">
        <ele>1275.81</ele>
        <time>2017-09-03T10:14:05Z</time>
      </trkpt>
      <trkpt lat="45.87875" lon="6.53111">
        <ele>1275.81</ele>
        <time>2017-09-03T10:14:06Z</time>
      </trkpt>
      <trkpt lat="45.87876" lon="6.53124">
        <ele>1276.29</ele>
        <time>2017-09-03T10:14:11Z</time>
      </trkpt>
      <trkpt lat="45.87876" lon="6.53127">
        <ele>1276.29</ele>
        <time>2017-09-03T10:14:12Z</time>
      </trkpt>
      <trkpt lat="45.87876" lon="6.5313">
        <ele>1276.77</ele>
        <time>2017-09-03T10:14:13Z</time>
      </trkpt>
      <trkpt lat="45.87877" lon="6.53133">
        <ele>1276.77</ele>
        <time>2017-09-03T10:14:14Z</time>
      </trkpt>
      <trkpt lat="45.87877" lon="6.53136">
        <ele>1276.77</ele>
        <time>2017-09-03T10:14:15Z</time>
      </trkpt>
      <trkpt lat="45.87877" lon="6.53139">
        <ele>1276.77</ele>
        <time>2017-09-03T10:14:16Z</time>
      </trkpt>
      <trkpt lat="45.87878" lon="6.53142">
        <ele>1276.77</ele>
        <time>2017-09-03T10:14:17Z</time>
      </trkpt>
      <trkpt lat="45.87879" lon="6.53145">
        <ele>1277.25</ele>
        <time>2017-09-03T10:14:18Z</time>
      </trkpt>
      <trkpt lat="45.87879" lon="6.53148">
        <ele>1277.25</ele>
        <time>2017-09-03T10:14:19Z</time>
      </trkpt>
      <trkpt lat="45.8788" lon="6.53156">
        <ele>1277.73</ele>
        <time>2017-09-03T10:14:22Z</time>
      </trkpt>
      <trkpt lat="45.87881" lon="6.53157">
        <ele>1277.73</ele>
        <time>2017-09-03T10:14:23Z</time>
      </trkpt>
      <trkpt lat="45.87881" lon="6.53159">
        <ele>1278.21</ele>
        <time>2017-09-03T10:14:24Z</time>
      </trkpt>
      <trkpt lat="45.87881" lon="6.5316">
        <ele>1278.21</ele>
        <time>2017-09-03T10:14:25Z</time>
      </trkpt>
      <trkpt lat="45.8788" lon="6.53161">
        <ele>1278.69</ele>
        <time>2017-09-03T10:14:26Z</time>
      </trkpt>
      <trkpt lat="45.87878" lon="6.53166">
        <ele>1278.21</ele>
        <time>2017-09-03T10:14:35Z</time>
      </trkpt>
      <trkpt lat="45.87878" lon="6.53167">
        <ele>1278.21</ele>
        <time>2017-09-03T10:14:39Z</time>
      </trkpt>
      <trkpt lat="45.87878" lon="6.53171">
        <ele>1278.69</ele>
        <time>2017-09-03T10:14:43Z</time>
      </trkpt>
      <trkpt lat="45.87877" lon="6.53175">
        <ele>1279.17</ele>
        <time>2017-09-03T10:14:48Z</time>
      </trkpt>
      <trkpt lat="45.87876" lon="6.5318">
        <ele>1279.65</ele>
        <time>2017-09-03T10:14:52Z</time>
      </trkpt>
      <trkpt lat="45.87875" lon="6.53185">
        <ele>1280.13</ele>
        <time>2017-09-03T10:14:55Z</time>
      </trkpt>
      <trkpt lat="45.87874" lon="6.53188">
        <ele>1279.65</ele>
        <time>2017-09-03T10:14:59Z</time>
      </trkpt>
      <trkpt lat="45.87875" lon="6.53189">
        <ele>1279.65</ele>
        <time>2017-09-03T10:15:04Z</time>
      </trkpt>
      <trkpt lat="45.87875" lon="6.5319">
        <ele>1279.65</ele>
        <time>2017-09-03T10:15:06Z</time>
      </trkpt>
      <trkpt lat="45.87875" lon="6.53191">
        <ele>1280.13</ele>
        <time>2017-09-03T10:15:09Z</time>
      </trkpt>
      <trkpt lat="45.87874" lon="6.53193">
        <ele>1280.13</ele>
        <time>2017-09-03T10:15:13Z</time>
      </trkpt>
      <trkpt lat="45.87872" lon="6.53203">
        <ele>1280.61</ele>
        <time>2017-09-03T10:15:21Z</time>
      </trkpt>
      <trkpt lat="45.87871" lon="6.53204">
        <ele>1280.61</ele>
        <time>2017-09-03T10:15:24Z</time>
      </trkpt>
      <trkpt lat="45.87871" lon="6.53206">
        <ele>1280.61</ele>
        <time>2017-09-03T10:15:25Z</time>
      </trkpt>
      <trkpt lat="45.8787" lon="6.53207">
        <ele>1280.61</ele>
        <time>2017-09-03T10:15:26Z</time>
      </trkpt>
      <trkpt lat="45.8787" lon="6.53209">
        <ele>1280.61</ele>
        <time>2017-09-03T10:15:27Z</time>
      </trkpt>
      <trkpt lat="45.87869" lon="6.5321">
        <ele>1280.61</ele>
        <time>2017-09-03T10:15:28Z</time>
      </trkpt>
      <trkpt lat="45.87869" lon="6.53212">
        <ele>1281.09</ele>
        <time>2017-09-03T10:15:29Z</time>
      </trkpt>
      <trkpt lat="45.87863" lon="6.53233">
        <ele>1281.57</ele>
        <time>2017-09-03T10:15:37Z</time>
      </trkpt>
      <trkpt lat="45.8786" lon="6.53241">
        <ele>1282.54</ele>
        <time>2017-09-03T10:15:40Z</time>
      </trkpt>
      <trkpt lat="45.87857" lon="6.53253">
        <ele>1283.02</ele>
        <time>2017-09-03T10:15:44Z</time>
      </trkpt>
      <trkpt lat="45.87854" lon="6.53267">
        <ele>1283.5</ele>
        <time>2017-09-03T10:15:48Z</time>
      </trkpt>
      <trkpt lat="45.87851" lon="6.5328">
        <ele>1284.46</ele>
        <time>2017-09-03T10:15:52Z</time>
      </trkpt>
      <trkpt lat="45.87846" lon="6.53297">
        <ele>1284.94</ele>
        <time>2017-09-03T10:15:57Z</time>
      </trkpt>
      <trkpt lat="45.87841" lon="6.53312">
        <ele>1285.9</ele>
        <time>2017-09-03T10:16:02Z</time>
      </trkpt>
      <trkpt lat="45.8784" lon="6.53314">
        <ele>1285.9</ele>
        <time>2017-09-03T10:16:03Z</time>
      </trkpt>
      <trkpt lat="45.8784" lon="6.53317">
        <ele>1285.9</ele>
        <time>2017-09-03T10:16:04Z</time>
      </trkpt>
      <trkpt lat="45.87839" lon="6.53319">
        <ele>1286.38</ele>
        <time>2017-09-03T10:16:05Z</time>
      </trkpt>
      <trkpt lat="45.87838" lon="6.53322">
        <ele>1286.38</ele>
        <time>2017-09-03T10:16:06Z</time>
      </trkpt>
      <trkpt lat="45.87834" lon="6.53344">
        <ele>1286.86</ele>
        <time>2017-09-03T10:16:12Z</time>
      </trkpt>
      <trkpt lat="45.87831" lon="6.5336">
        <ele>1287.82</ele>
        <time>2017-09-03T10:16:17Z</time>
      </trkpt>
      <trkpt lat="45.87825" lon="6.53379">
        <ele>1289.27</ele>
        <time>2017-09-03T10:16:24Z</time>
      </trkpt>
      <trkpt lat="45.87824" lon="6.53381">
        <ele>1289.27</ele>
        <time>2017-09-03T10:16:25Z</time>
      </trkpt>
      <trkpt lat="45.87823" lon="6.53383">
        <ele>1289.75</ele>
        <time>2017-09-03T10:16:26Z</time>
      </trkpt>
      <trkpt lat="45.87822" lon="6.53386">
        <ele>1290.23</ele>
        <time>2017-09-03T10:16:27Z</time>
      </trkpt>
      <trkpt lat="45.87821" lon="6.53388">
        <ele>1290.23</ele>
        <time>2017-09-03T10:16:28Z</time>
      </trkpt>
      <trkpt lat="45.87809" lon="6.53413">
        <ele>1292.15</ele>
        <time>2017-09-03T10:16:37Z</time>
      </trkpt>
      <trkpt lat="45.87803" lon="6.53429">
        <ele>1293.59</ele>
        <time>2017-09-03T10:16:43Z</time>
      </trkpt>
      <trkpt lat="45.87802" lon="6.53428">
        <ele>1293.59</ele>
        <time>2017-09-03T10:16:44Z</time>
      </trkpt>
      <trkpt lat="45.87801" lon="6.53426">
        <ele>1293.59</ele>
        <time>2017-09-03T10:16:45Z</time>
      </trkpt>
      <trkpt lat="45.87801" lon="6.53423">
        <ele>1294.07</ele>
        <time>2017-09-03T10:16:46Z</time>
      </trkpt>
      <trkpt lat="45.87801" lon="6.5342">
        <ele>1294.55</ele>
        <time>2017-09-03T10:16:47Z</time>
      </trkpt>
      <trkpt lat="45.87802" lon="6.53417">
        <ele>1294.55</ele>
        <time>2017-09-03T10:16:48Z</time>
      </trkpt>
      <trkpt lat="45.87801" lon="6.53415">
        <ele>1295.03</ele>
        <time>2017-09-03T10:16:49Z</time>
      </trkpt>
      <trkpt lat="45.87802" lon="6.53412">
        <ele>1295.03</ele>
        <time>2017-09-03T10:16:50Z</time>
      </trkpt>
      <trkpt lat="45.87803" lon="6.53409">
        <ele>1295.03</ele>
        <time>2017-09-03T10:16:51Z</time>
      </trkpt>
      <trkpt lat="45.87804" lon="6.53405">
        <ele>1295.03</ele>
        <time>2017-09-03T10:16:52Z</time>
      </trkpt>
      <trkpt lat="45.87806" lon="6.53402">
        <ele>1295.03</ele>
        <time>2017-09-03T10:16:53Z</time>
      </trkpt>
      <trkpt lat="45.8781" lon="6.53375">
        <ele>1296.48</ele>
        <time>2017-09-03T10:17:02Z</time>
      </trkpt>
      <trkpt lat="45.87812" lon="6.53345">
        <ele>1298.4</ele>
        <time>2017-09-03T10:17:12Z</time>
      </trkpt>
      <trkpt lat="45.87812" lon="6.53328">
        <ele>1299.84</ele>
        <time>2017-09-03T10:17:19Z</time>
      </trkpt>
      <trkpt lat="45.87812" lon="6.53326">
        <ele>1300.32</ele>
        <time>2017-09-03T10:17:20Z</time>
      </trkpt>
      <trkpt lat="45.87812" lon="6.53323">
        <ele>1300.32</ele>
        <time>2017-09-03T10:17:21Z</time>
      </trkpt>
      <trkpt lat="45.87812" lon="6.5332">
        <ele>1300.32</ele>
        <time>2017-09-03T10:17:22Z</time>
      </trkpt>
      <trkpt lat="45.87813" lon="6.53318">
        <ele>1300.8</ele>
        <time>2017-09-03T10:17:23Z</time>
      </trkpt>
      <trkpt lat="45.87812" lon="6.53315">
        <ele>1300.8</ele>
        <time>2017-09-03T10:17:24Z</time>
      </trkpt>
      <trkpt lat="45.87817" lon="6.53288">
        <ele>1303.69</ele>
        <time>2017-09-03T10:17:35Z</time>
      </trkpt>
      <trkpt lat="45.87818" lon="6.53277">
        <ele>1304.65</ele>
        <time>2017-09-03T10:17:39Z</time>
      </trkpt>
      <trkpt lat="45.87818" lon="6.53274">
        <ele>1304.65</ele>
        <time>2017-09-03T10:17:40Z</time>
      </trkpt>
      <trkpt lat="45.87818" lon="6.53272">
        <ele>1305.13</ele>
        <time>2017-09-03T10:17:41Z</time>
      </trkpt>
      <trkpt lat="45.87818" lon="6.5327">
        <ele>1305.13</ele>
        <time>2017-09-03T10:17:42Z</time>
      </trkpt>
      <trkpt lat="45.87817" lon="6.53267">
        <ele>1305.61</ele>
        <time>2017-09-03T10:17:43Z</time>
      </trkpt>
      <trkpt lat="45.87817" lon="6.53265">
        <ele>1305.61</ele>
        <time>2017-09-03T10:17:44Z</time>
      </trkpt>
      <trkpt lat="45.87817" lon="6.53263">
        <ele>1306.09</ele>
        <time>2017-09-03T10:17:45Z</time>
      </trkpt>
      <trkpt lat="45.8781" lon="6.53236">
        <ele>1308.97</ele>
        <time>2017-09-03T10:17:56Z</time>
      </trkpt>
      <trkpt lat="45.87798" lon="6.53215">
        <ele>1311.38</ele>
        <time>2017-09-03T10:18:07Z</time>
      </trkpt>
      <trkpt lat="45.87786" lon="6.53194">
        <ele>1314.74</ele>
        <time>2017-09-03T10:18:19Z</time>
      </trkpt>
      <trkpt lat="45.87778" lon="6.53169">
        <ele>1317.14</ele>
        <time>2017-09-03T10:18:29Z</time>
      </trkpt>
      <trkpt lat="45.87777" lon="6.5314">
        <ele>1320.03</ele>
        <time>2017-09-03T10:18:41Z</time>
      </trkpt>
      <trkpt lat="45.87775" lon="6.53125">
        <ele>1320.99</ele>
        <time>2017-09-03T10:18:48Z</time>
      </trkpt>
      <trkpt lat="45.87775" lon="6.53123">
        <ele>1321.47</ele>
        <time>2017-09-03T10:18:49Z</time>
      </trkpt>
      <trkpt lat="45.87777" lon="6.53115">
        <ele>1322.91</ele>
        <time>2017-09-03T10:18:54Z</time>
      </trkpt>
      <trkpt lat="45.87777" lon="6.53114">
        <ele>1322.91</ele>
        <time>2017-09-03T10:18:55Z</time>
      </trkpt>
      <trkpt lat="45.87777" lon="6.53112">
        <ele>1323.39</ele>
        <time>2017-09-03T10:18:56Z</time>
      </trkpt>
      <trkpt lat="45.87776" lon="6.5311">
        <ele>1323.39</ele>
        <time>2017-09-03T10:18:57Z</time>
      </trkpt>
      <trkpt lat="45.87775" lon="6.53108">
        <ele>1323.87</ele>
        <time>2017-09-03T10:18:58Z</time>
      </trkpt>
      <trkpt lat="45.87774" lon="6.53107">
        <ele>1324.35</ele>
        <time>2017-09-03T10:18:59Z</time>
      </trkpt>
      <trkpt lat="45.87774" lon="6.53105">
        <ele>1324.35</ele>
        <time>2017-09-03T10:19:00Z</time>
      </trkpt>
      <trkpt lat="45.87773" lon="6.53103">
        <ele>1324.83</ele>
        <time>2017-09-03T10:19:01Z</time>
      </trkpt>
      <trkpt lat="45.87761" lon="6.5308">
        <ele>1327.72</ele>
        <time>2017-09-03T10:19:12Z</time>
      </trkpt>
      <trkpt lat="45.87746" lon="6.53057">
        <ele>1330.6</ele>
        <time>2017-09-03T10:19:24Z</time>
      </trkpt>
      <trkpt lat="45.87734" lon="6.53033">
        <ele>1333.01</ele>
        <time>2017-09-03T10:19:36Z</time>
      </trkpt>
      <trkpt lat="45.87734" lon="6.53031">
        <ele>1333.01</ele>
        <time>2017-09-03T10:19:37Z</time>
      </trkpt>
      <trkpt lat="45.87733" lon="6.53029">
        <ele>1333.49</ele>
        <time>2017-09-03T10:19:38Z</time>
      </trkpt>
      <trkpt lat="45.87732" lon="6.53026">
        <ele>1333.97</ele>
        <time>2017-09-03T10:19:39Z</time>
      </trkpt>
      <trkpt lat="45.87731" lon="6.53022">
        <ele>1333.97</ele>
        <time>2017-09-03T10:19:40Z</time>
      </trkpt>
      <trkpt lat="45.87729" lon="6.53019">
        <ele>1333.97</ele>
        <time>2017-09-03T10:19:41Z</time>
      </trkpt>
      <trkpt lat="45.87727" lon="6.53017">
        <ele>1334.45</ele>
        <time>2017-09-03T10:19:42Z</time>
      </trkpt>
      <trkpt lat="45.87726" lon="6.53014">
        <ele>1334.45</ele>
        <time>2017-09-03T10:19:43Z</time>
      </trkpt>
      <trkpt lat="45.87717" lon="6.52989">
        <ele>1336.85</ele>
        <time>2017-09-03T10:19:54Z</time>
      </trkpt>
      <trkpt lat="45.87706" lon="6.5297">
        <ele>1338.29</ele>
        <time>2017-09-03T10:20:04Z</time>
      </trkpt>
      <trkpt lat="45.87696" lon="6.5295">
        <ele>1340.7</ele>
        <time>2017-09-03T10:20:15Z</time>
      </trkpt>
      <trkpt lat="45.87681" lon="6.52938">
        <ele>1342.62</ele>
        <time>2017-09-03T10:20:27Z</time>
      </trkpt>
      <trkpt lat="45.87663" lon="6.52938">
        <ele>1345.5</ele>
        <time>2017-09-03T10:20:38Z</time>
      </trkpt>
      <trkpt lat="45.87649" lon="6.52942">
        <ele>1346.94</ele>
        <time>2017-09-03T10:20:45Z</time>
      </trkpt>
      <trkpt lat="45.87628" lon="6.52932">
        <ele>1349.35</ele>
        <time>2017-09-03T10:20:56Z</time>
      </trkpt>
      <trkpt lat="45.87609" lon="6.52928">
        <ele>1351.75</ele>
        <time>2017-09-03T10:21:06Z</time>
      </trkpt>
      <trkpt lat="45.87588" lon="6.52922">
        <ele>1354.63</ele>
        <time>2017-09-03T10:21:18Z</time>
      </trkpt>
      <trkpt lat="45.87564" lon="6.5292">
        <ele>1357.04</ele>
        <time>2017-09-03T10:21:30Z</time>
      </trkpt>
      <trkpt lat="45.87562" lon="6.52919">
        <ele>1357.04</ele>
        <time>2017-09-03T10:21:31Z</time>
      </trkpt>
      <trkpt lat="45.8756" lon="6.52919">
        <ele>1357.52</ele>
        <time>2017-09-03T10:21:32Z</time>
      </trkpt>
      <trkpt lat="45.87558" lon="6.52919">
        <ele>1358</ele>
        <time>2017-09-03T10:21:33Z</time>
      </trkpt>
      <trkpt lat="45.87557" lon="6.52918">
        <ele>1358</ele>
        <time>2017-09-03T10:21:34Z</time>
      </trkpt>
      <trkpt lat="45.87555" lon="6.52917">
        <ele>1358.48</ele>
        <time>2017-09-03T10:21:35Z</time>
      </trkpt>
      <trkpt lat="45.87553" lon="6.52915">
        <ele>1358.48</ele>
        <time>2017-09-03T10:21:36Z</time>
      </trkpt>
      <trkpt lat="45.87541" lon="6.52905">
        <ele>1359.92</ele>
        <time>2017-09-03T10:21:43Z</time>
      </trkpt>
      <trkpt lat="45.87539" lon="6.52902">
        <ele>1360.4</ele>
        <time>2017-09-03T10:21:44Z</time>
      </trkpt>
      <trkpt lat="45.87538" lon="6.529">
        <ele>1360.4</ele>
        <time>2017-09-03T10:21:45Z</time>
      </trkpt>
      <trkpt lat="45.87538" lon="6.52897">
        <ele>1360.4</ele>
        <time>2017-09-03T10:21:46Z</time>
      </trkpt>
      <trkpt lat="45.87537" lon="6.52894">
        <ele>1360.88</ele>
        <time>2017-09-03T10:21:47Z</time>
      </trkpt>
      <trkpt lat="45.87536" lon="6.52892">
        <ele>1360.88</ele>
        <time>2017-09-03T10:21:48Z</time>
      </trkpt>
      <trkpt lat="45.87535" lon="6.52889">
        <ele>1361.36</ele>
        <time>2017-09-03T10:21:49Z</time>
      </trkpt>
      <trkpt lat="45.87523" lon="6.52866">
        <ele>1362.81</ele>
        <time>2017-09-03T10:21:59Z</time>
      </trkpt>
      <trkpt lat="45.87507" lon="6.52858">
        <ele>1365.69</ele>
        <time>2017-09-03T10:22:10Z</time>
      </trkpt>
      <trkpt lat="45.87488" lon="6.52856">
        <ele>1368.09</ele>
        <time>2017-09-03T10:22:22Z</time>
      </trkpt>
      <trkpt lat="45.87486" lon="6.52855">
        <ele>1368.57</ele>
        <time>2017-09-03T10:22:23Z</time>
      </trkpt>
      <trkpt lat="45.87484" lon="6.52855">
        <ele>1368.57</ele>
        <time>2017-09-03T10:22:24Z</time>
      </trkpt>
      <trkpt lat="45.87483" lon="6.52854">
        <ele>1368.57</ele>
        <time>2017-09-03T10:22:25Z</time>
      </trkpt>
      <trkpt lat="45.87481" lon="6.52853">
        <ele>1369.05</ele>
        <time>2017-09-03T10:22:26Z</time>
      </trkpt>
      <trkpt lat="45.87479" lon="6.52852">
        <ele>1369.54</ele>
        <time>2017-09-03T10:22:27Z</time>
      </trkpt>
      <trkpt lat="45.8747" lon="6.5284">
        <ele>1370.98</ele>
        <time>2017-09-03T10:22:33Z</time>
      </trkpt>
      <trkpt lat="45.8747" lon="6.52838">
        <ele>1370.98</ele>
        <time>2017-09-03T10:22:34Z</time>
      </trkpt>
      <trkpt lat="45.87469" lon="6.52835">
        <ele>1370.98</ele>
        <time>2017-09-03T10:22:35Z</time>
      </trkpt>
      <trkpt lat="45.87468" lon="6.52832">
        <ele>1371.46</ele>
        <time>2017-09-03T10:22:36Z</time>
      </trkpt>
      <trkpt lat="45.87468" lon="6.52829">
        <ele>1371.46</ele>
        <time>2017-09-03T10:22:37Z</time>
      </trkpt>
      <trkpt lat="45.87467" lon="6.52826">
        <ele>1371.94</ele>
        <time>2017-09-03T10:22:38Z</time>
      </trkpt>
      <trkpt lat="45.87467" lon="6.52824">
        <ele>1371.94</ele>
        <time>2017-09-03T10:22:39Z</time>
      </trkpt>
      <trkpt lat="45.87466" lon="6.52821">
        <ele>1371.94</ele>
        <time>2017-09-03T10:22:40Z</time>
      </trkpt>
      <trkpt lat="45.87466" lon="6.52819">
        <ele>1372.42</ele>
        <time>2017-09-03T10:22:41Z</time>
      </trkpt>
      <trkpt lat="45.87465" lon="6.52816">
        <ele>1372.42</ele>
        <time>2017-09-03T10:22:42Z</time>
      </trkpt>
      <trkpt lat="45.87456" lon="6.52801">
        <ele>1374.82</ele>
        <time>2017-09-03T10:22:54Z</time>
      </trkpt>
      <trkpt lat="45.87455" lon="6.52798">
        <ele>1375.3</ele>
        <time>2017-09-03T10:22:57Z</time>
      </trkpt>
      <trkpt lat="45.87454" lon="6.52797">
        <ele>1375.3</ele>
        <time>2017-09-03T10:22:58Z</time>
      </trkpt>
      <trkpt lat="45.87447" lon="6.52789">
        <ele>1376.75</ele>
        <time>2017-09-03T10:23:06Z</time>
      </trkpt>
      <trkpt lat="45.87433" lon="6.52781">
        <ele>1377.23</ele>
        <time>2017-09-03T10:23:19Z</time>
      </trkpt>
      <trkpt lat="45.87411" lon="6.52772">
        <ele>1380.59</ele>
        <time>2017-09-03T10:23:33Z</time>
      </trkpt>
      <trkpt lat="45.87403" lon="6.52767">
        <ele>1381.55</ele>
        <time>2017-09-03T10:23:37Z</time>
      </trkpt>
      <trkpt lat="45.87401" lon="6.52766">
        <ele>1381.55</ele>
        <time>2017-09-03T10:23:38Z</time>
      </trkpt>
      <trkpt lat="45.87382" lon="6.5275">
        <ele>1383.96</ele>
        <time>2017-09-03T10:23:48Z</time>
      </trkpt>
      <trkpt lat="45.8738" lon="6.52729">
        <ele>1385.88</ele>
        <time>2017-09-03T10:23:57Z</time>
      </trkpt>
      <trkpt lat="45.8738" lon="6.52727">
        <ele>1386.36</ele>
        <time>2017-09-03T10:23:58Z</time>
      </trkpt>
      <trkpt lat="45.8738" lon="6.52725">
        <ele>1386.36</ele>
        <time>2017-09-03T10:23:59Z</time>
      </trkpt>
      <trkpt lat="45.87372" lon="6.527">
        <ele>1388.76</ele>
        <time>2017-09-03T10:24:10Z</time>
      </trkpt>
      <trkpt lat="45.87361" lon="6.52696">
        <ele>1390.2</ele>
        <time>2017-09-03T10:24:17Z</time>
      </trkpt>
      <trkpt lat="45.87342" lon="6.52704">
        <ele>1393.57</ele>
        <time>2017-09-03T10:24:30Z</time>
      </trkpt>
      <trkpt lat="45.87337" lon="6.52707">
        <ele>1394.05</ele>
        <time>2017-09-03T10:24:33Z</time>
      </trkpt>
      <trkpt lat="45.87336" lon="6.52709">
        <ele>1394.53</ele>
        <time>2017-09-03T10:24:34Z</time>
      </trkpt>
      <trkpt lat="45.87335" lon="6.52711">
        <ele>1395.01</ele>
        <time>2017-09-03T10:24:35Z</time>
      </trkpt>
      <trkpt lat="45.8733" lon="6.52734">
        <ele>1396.45</ele>
        <time>2017-09-03T10:24:44Z</time>
      </trkpt>
      <trkpt lat="45.87334" lon="6.52749">
        <ele>1397.89</ele>
        <time>2017-09-03T10:24:50Z</time>
      </trkpt>
      <trkpt lat="45.87339" lon="6.52758">
        <ele>1398.37</ele>
        <time>2017-09-03T10:24:55Z</time>
      </trkpt>
      <trkpt lat="45.8734" lon="6.5276">
        <ele>1398.86</ele>
        <time>2017-09-03T10:24:56Z</time>
      </trkpt>
      <trkpt lat="45.87341" lon="6.52762">
        <ele>1398.86</ele>
        <time>2017-09-03T10:24:57Z</time>
      </trkpt>
      <trkpt lat="45.87342" lon="6.52764">
        <ele>1399.34</ele>
        <time>2017-09-03T10:24:58Z</time>
      </trkpt>
      <trkpt lat="45.87343" lon="6.52765">
        <ele>1399.34</ele>
        <time>2017-09-03T10:24:59Z</time>
      </trkpt>
      <trkpt lat="45.87344" lon="6.52767">
        <ele>1399.82</ele>
        <time>2017-09-03T10:25:00Z</time>
      </trkpt>
      <trkpt lat="45.87345" lon="6.52768">
        <ele>1399.82</ele>
        <time>2017-09-03T10:25:01Z</time>
      </trkpt>
      <trkpt lat="45.87357" lon="6.52787">
        <ele>1401.74</ele>
        <time>2017-09-03T10:25:10Z</time>
      </trkpt>
      <trkpt lat="45.87358" lon="6.52789">
        <ele>1401.74</ele>
        <time>2017-09-03T10:25:11Z</time>
      </trkpt>
      <trkpt lat="45.87372" lon="6.52813">
        <ele>1403.66</ele>
        <time>2017-09-03T10:25:22Z</time>
      </trkpt>
      <trkpt lat="45.87389" lon="6.52834">
        <ele>1406.07</ele>
        <time>2017-09-03T10:25:33Z</time>
      </trkpt>
      <trkpt lat="45.87389" lon="6.52836">
        <ele>1406.55</ele>
        <time>2017-09-03T10:25:34Z</time>
      </trkpt>
      <trkpt lat="45.8739" lon="6.52838">
        <ele>1406.55</ele>
        <time>2017-09-03T10:25:35Z</time>
      </trkpt>
      <trkpt lat="45.87392" lon="6.5284">
        <ele>1407.03</ele>
        <time>2017-09-03T10:25:36Z</time>
      </trkpt>
      <trkpt lat="45.87394" lon="6.52842">
        <ele>1407.03</ele>
        <time>2017-09-03T10:25:37Z</time>
      </trkpt>
      <trkpt lat="45.87395" lon="6.52844">
        <ele>1407.03</ele>
        <time>2017-09-03T10:25:38Z</time>
      </trkpt>
      <trkpt lat="45.87406" lon="6.52863">
        <ele>1409.43</ele>
        <time>2017-09-03T10:25:48Z</time>
      </trkpt>
      <trkpt lat="45.87406" lon="6.52866">
        <ele>1409.43</ele>
        <time>2017-09-03T10:25:49Z</time>
      </trkpt>
      <trkpt lat="45.87406" lon="6.52869">
        <ele>1409.43</ele>
        <time>2017-09-03T10:25:50Z</time>
      </trkpt>
      <trkpt lat="45.87405" lon="6.52871">
        <ele>1409.91</ele>
        <time>2017-09-03T10:25:51Z</time>
      </trkpt>
      <trkpt lat="45.87404" lon="6.52872">
        <ele>1409.91</ele>
        <time>2017-09-03T10:25:52Z</time>
      </trkpt>
      <trkpt lat="45.87403" lon="6.52873">
        <ele>1410.39</ele>
        <time>2017-09-03T10:25:53Z</time>
      </trkpt>
      <trkpt lat="45.87401" lon="6.52873">
        <ele>1410.39</ele>
        <time>2017-09-03T10:25:54Z</time>
      </trkpt>
      <trkpt lat="45.874" lon="6.52872">
        <ele>1410.39</ele>
        <time>2017-09-03T10:25:55Z</time>
      </trkpt>
      <trkpt lat="45.87399" lon="6.52872">
        <ele>1410.87</ele>
        <time>2017-09-03T10:25:56Z</time>
      </trkpt>
      <trkpt lat="45.87397" lon="6.52872">
        <ele>1411.35</ele>
        <time>2017-09-03T10:25:57Z</time>
      </trkpt>
      <trkpt lat="45.87395" lon="6.52872">
        <ele>1411.83</ele>
        <time>2017-09-03T10:25:58Z</time>
      </trkpt>
      <trkpt lat="45.87393" lon="6.52871">
        <ele>1411.83</ele>
        <time>2017-09-03T10:25:59Z</time>
      </trkpt>
      <trkpt lat="45.87381" lon="6.52868">
        <ele>1413.28</ele>
        <time>2017-09-03T10:26:06Z</time>
      </trkpt>
      <trkpt lat="45.87361" lon="6.52866">
        <ele>1415.68</ele>
        <time>2017-09-03T10:26:16Z</time>
      </trkpt>
      <trkpt lat="45.8735" lon="6.52863">
        <ele>1417.6</ele>
        <time>2017-09-03T10:26:22Z</time>
      </trkpt>
      <trkpt lat="45.87349" lon="6.52862">
        <ele>1417.6</ele>
        <time>2017-09-03T10:26:23Z</time>
      </trkpt>
      <trkpt lat="45.87347" lon="6.52861">
        <ele>1417.6</ele>
        <time>2017-09-03T10:26:24Z</time>
      </trkpt>
      <trkpt lat="45.8733" lon="6.5285">
        <ele>1420.97</ele>
        <time>2017-09-03T10:26:35Z</time>
      </trkpt>
      <trkpt lat="45.87313" lon="6.52841">
        <ele>1423.85</ele>
        <time>2017-09-03T10:26:46Z</time>
      </trkpt>
      <trkpt lat="45.87308" lon="6.5284">
        <ele>1424.81</ele>
        <time>2017-09-03T10:26:49Z</time>
      </trkpt>
      <trkpt lat="45.87306" lon="6.52839">
        <ele>1424.81</ele>
        <time>2017-09-03T10:26:50Z</time>
      </trkpt>
      <trkpt lat="45.87305" lon="6.52838">
        <ele>1424.81</ele>
        <time>2017-09-03T10:26:51Z</time>
      </trkpt>
      <trkpt lat="45.87304" lon="6.52837">
        <ele>1424.81</ele>
        <time>2017-09-03T10:26:52Z</time>
      </trkpt>
      <trkpt lat="45.87303" lon="6.52835">
        <ele>1424.81</ele>
        <time>2017-09-03T10:26:53Z</time>
      </trkpt>
      <trkpt lat="45.87293" lon="6.52826">
        <ele>1424.81</ele>
        <time>2017-09-03T10:27:02Z</time>
      </trkpt>
      <trkpt lat="45.87292" lon="6.52826">
        <ele>1424.81</ele>
        <time>2017-09-03T10:27:03Z</time>
      </trkpt>
      <trkpt lat="45.87291" lon="6.52826">
        <ele>1424.81</ele>
        <time>2017-09-03T10:27:04Z</time>
      </trkpt>
      <trkpt lat="45.8729" lon="6.52826">
        <ele>1425.29</ele>
        <time>2017-09-03T10:27:05Z</time>
      </trkpt>
      <trkpt lat="45.87288" lon="6.52827">
        <ele>1425.29</ele>
        <time>2017-09-03T10:27:06Z</time>
      </trkpt>
      <trkpt lat="45.87287" lon="6.52827">
        <ele>1425.29</ele>
        <time>2017-09-03T10:27:07Z</time>
      </trkpt>
      <trkpt lat="45.87285" lon="6.52826">
        <ele>1425.77</ele>
        <time>2017-09-03T10:27:08Z</time>
      </trkpt>
      <trkpt lat="45.87284" lon="6.52826">
        <ele>1425.77</ele>
        <time>2017-09-03T10:27:09Z</time>
      </trkpt>
      <trkpt lat="45.87282" lon="6.52826">
        <ele>1425.77</ele>
        <time>2017-09-03T10:27:10Z</time>
      </trkpt>
      <trkpt lat="45.87281" lon="6.52825">
        <ele>1425.77</ele>
        <time>2017-09-03T10:27:11Z</time>
      </trkpt>
      <trkpt lat="45.8728" lon="6.52824">
        <ele>1425.77</ele>
        <time>2017-09-03T10:27:12Z</time>
      </trkpt>
      <trkpt lat="45.87278" lon="6.52823">
        <ele>1425.77</ele>
        <time>2017-09-03T10:27:13Z</time>
      </trkpt>
      <trkpt lat="45.87277" lon="6.52823">
        <ele>1425.77</ele>
        <time>2017-09-03T10:27:14Z</time>
      </trkpt>
      <trkpt lat="45.87276" lon="6.52822">
        <ele>1425.77</ele>
        <time>2017-09-03T10:27:15Z</time>
      </trkpt>
      <trkpt lat="45.87275" lon="6.52822">
        <ele>1426.25</ele>
        <time>2017-09-03T10:27:16Z</time>
      </trkpt>
      <trkpt lat="45.87273" lon="6.52821">
        <ele>1426.25</ele>
        <time>2017-09-03T10:27:17Z</time>
      </trkpt>
      <trkpt lat="45.87272" lon="6.52821">
        <ele>1426.25</ele>
        <time>2017-09-03T10:27:18Z</time>
      </trkpt>
      <trkpt lat="45.87266" lon="6.5282">
        <ele>1426.73</ele>
        <time>2017-09-03T10:27:22Z</time>
      </trkpt>
      <trkpt lat="45.8726" lon="6.52819">
        <ele>1427.21</ele>
        <time>2017-09-03T10:27:26Z</time>
      </trkpt>
      <trkpt lat="45.87253" lon="6.52818">
        <ele>1427.21</ele>
        <time>2017-09-03T10:27:31Z</time>
      </trkpt>
      <trkpt lat="45.87242" lon="6.52815">
        <ele>1428.18</ele>
        <time>2017-09-03T10:27:39Z</time>
      </trkpt>
      <trkpt lat="45.87241" lon="6.52814">
        <ele>1428.18</ele>
        <time>2017-09-03T10:27:40Z</time>
      </trkpt>
      <trkpt lat="45.87239" lon="6.52813">
        <ele>1428.66</ele>
        <time>2017-09-03T10:27:41Z</time>
      </trkpt>
      <trkpt lat="45.87237" lon="6.52813">
        <ele>1428.66</ele>
        <time>2017-09-03T10:27:42Z</time>
      </trkpt>
      <trkpt lat="45.87235" lon="6.52813">
        <ele>1428.66</ele>
        <time>2017-09-03T10:27:43Z</time>
      </trkpt>
      <trkpt lat="45.87233" lon="6.52812">
        <ele>1428.66</ele>
        <time>2017-09-03T10:27:44Z</time>
      </trkpt>
      <trkpt lat="45.87231" lon="6.52811">
        <ele>1429.14</ele>
        <time>2017-09-03T10:27:45Z</time>
      </trkpt>
      <trkpt lat="45.87228" lon="6.5281">
        <ele>1429.14</ele>
        <time>2017-09-03T10:27:46Z</time>
      </trkpt>
      <trkpt lat="45.87226" lon="6.52809">
        <ele>1429.14</ele>
        <time>2017-09-03T10:27:47Z</time>
      </trkpt>
      <trkpt lat="45.87209" lon="6.52795">
        <ele>1431.06</ele>
        <time>2017-09-03T10:27:57Z</time>
      </trkpt>
      <trkpt lat="45.87203" lon="6.52791">
        <ele>1431.54</ele>
        <time>2017-09-03T10:28:00Z</time>
      </trkpt>
      <trkpt lat="45.87201" lon="6.5279">
        <ele>1432.02</ele>
        <time>2017-09-03T10:28:01Z</time>
      </trkpt>
      <trkpt lat="45.87199" lon="6.52788">
        <ele>1432.02</ele>
        <time>2017-09-03T10:28:02Z</time>
      </trkpt>
      <trkpt lat="45.87197" lon="6.52788">
        <ele>1432.02</ele>
        <time>2017-09-03T10:28:03Z</time>
      </trkpt>
      <trkpt lat="45.87196" lon="6.52786">
        <ele>1432.5</ele>
        <time>2017-09-03T10:28:04Z</time>
      </trkpt>
      <trkpt lat="45.87193" lon="6.52786">
        <ele>1432.5</ele>
        <time>2017-09-03T10:28:05Z</time>
      </trkpt>
      <trkpt lat="45.87191" lon="6.52785">
        <ele>1432.98</ele>
        <time>2017-09-03T10:28:06Z</time>
      </trkpt>
      <trkpt lat="45.8719" lon="6.52783">
        <ele>1432.98</ele>
        <time>2017-09-03T10:28:07Z</time>
      </trkpt>
      <trkpt lat="45.87188" lon="6.52782">
        <ele>1432.98</ele>
        <time>2017-09-03T10:28:08Z</time>
      </trkpt>
      <trkpt lat="45.87186" lon="6.52781">
        <ele>1433.46</ele>
        <time>2017-09-03T10:28:09Z</time>
      </trkpt>
      <trkpt lat="45.87184" lon="6.52779">
        <ele>1433.94</ele>
        <time>2017-09-03T10:28:10Z</time>
      </trkpt>
      <trkpt lat="45.87175" lon="6.52777">
        <ele>1434.91</ele>
        <time>2017-09-03T10:28:15Z</time>
      </trkpt>
      <trkpt lat="45.87174" lon="6.52778">
        <ele>1435.39</ele>
        <time>2017-09-03T10:28:16Z</time>
      </trkpt>
      <trkpt lat="45.87173" lon="6.5278">
        <ele>1435.39</ele>
        <time>2017-09-03T10:28:17Z</time>
      </trkpt>
      <trkpt lat="45.87172" lon="6.52783">
        <ele>1435.87</ele>
        <time>2017-09-03T10:28:18Z</time>
      </trkpt>
      <trkpt lat="45.87172" lon="6.52786">
        <ele>1436.35</ele>
        <time>2017-09-03T10:28:19Z</time>
      </trkpt>
      <trkpt lat="45.87171" lon="6.52788">
        <ele>1436.83</ele>
        <time>2017-09-03T10:28:20Z</time>
      </trkpt>
      <trkpt lat="45.87173" lon="6.528">
        <ele>1437.79</ele>
        <time>2017-09-03T10:28:25Z</time>
      </trkpt>
      <trkpt lat="45.87176" lon="6.52802">
        <ele>1437.79</ele>
        <time>2017-09-03T10:28:26Z</time>
      </trkpt>
      <trkpt lat="45.87178" lon="6.52804">
        <ele>1437.79</ele>
        <time>2017-09-03T10:28:27Z</time>
      </trkpt>
      <trkpt lat="45.8718" lon="6.52806">
        <ele>1438.27</ele>
        <time>2017-09-03T10:28:28Z</time>
      </trkpt>
      <trkpt lat="45.87182" lon="6.52807">
        <ele>1438.27</ele>
        <time>2017-09-03T10:28:29Z</time>
      </trkpt>
      <trkpt lat="45.87183" lon="6.52809">
        <ele>1438.75</ele>
        <time>2017-09-03T10:28:30Z</time>
      </trkpt>
      <trkpt lat="45.87185" lon="6.52811">
        <ele>1438.75</ele>
        <time>2017-09-03T10:28:31Z</time>
      </trkpt>
      <trkpt lat="45.87186" lon="6.52813">
        <ele>1439.23</ele>
        <time>2017-09-03T10:28:32Z</time>
      </trkpt>
      <trkpt lat="45.87187" lon="6.52815">
        <ele>1439.23</ele>
        <time>2017-09-03T10:28:33Z</time>
      </trkpt>
      <trkpt lat="45.87206" lon="6.52833">
        <ele>1441.15</ele>
        <time>2017-09-03T10:28:44Z</time>
      </trkpt>
      <trkpt lat="45.87222" lon="6.52851">
        <ele>1444.04</ele>
        <time>2017-09-03T10:28:57Z</time>
      </trkpt>
      <trkpt lat="45.87225" lon="6.52852">
        <ele>1444.04</ele>
        <time>2017-09-03T10:28:59Z</time>
      </trkpt>
      <trkpt lat="45.87241" lon="6.52866">
        <ele>1446.92</ele>
        <time>2017-09-03T10:29:11Z</time>
      </trkpt>
      <trkpt lat="45.8725" lon="6.52872">
        <ele>1448.36</ele>
        <time>2017-09-03T10:29:17Z</time>
      </trkpt>
      <trkpt lat="45.87258" lon="6.5288">
        <ele>1449.81</ele>
        <time>2017-09-03T10:29:23Z</time>
      </trkpt>
      <trkpt lat="45.87259" lon="6.52881">
        <ele>1449.81</ele>
        <time>2017-09-03T10:29:24Z</time>
      </trkpt>
      <trkpt lat="45.8726" lon="6.52883">
        <ele>1450.29</ele>
        <time>2017-09-03T10:29:25Z</time>
      </trkpt>
      <trkpt lat="45.87261" lon="6.52884">
        <ele>1450.29</ele>
        <time>2017-09-03T10:29:26Z</time>
      </trkpt>
      <trkpt lat="45.87263" lon="6.52886">
        <ele>1450.77</ele>
        <time>2017-09-03T10:29:27Z</time>
      </trkpt>
      <trkpt lat="45.87265" lon="6.52887">
        <ele>1450.77</ele>
        <time>2017-09-03T10:29:28Z</time>
      </trkpt>
      <trkpt lat="45.87267" lon="6.52889">
        <ele>1451.25</ele>
        <time>2017-09-03T10:29:29Z</time>
      </trkpt>
      <trkpt lat="45.87268" lon="6.52891">
        <ele>1451.73</ele>
        <time>2017-09-03T10:29:30Z</time>
      </trkpt>
      <trkpt lat="45.87269" lon="6.52893">
        <ele>1452.21</ele>
        <time>2017-09-03T10:29:31Z</time>
      </trkpt>
      <trkpt lat="45.8727" lon="6.52894">
        <ele>1452.21</ele>
        <time>2017-09-03T10:29:32Z</time>
      </trkpt>
      <trkpt lat="45.87272" lon="6.52895">
        <ele>1452.21</ele>
        <time>2017-09-03T10:29:33Z</time>
      </trkpt>
      <trkpt lat="45.87273" lon="6.52897">
        <ele>1452.21</ele>
        <time>2017-09-03T10:29:34Z</time>
      </trkpt>
      <trkpt lat="45.87273" lon="6.52898">
        <ele>1452.69</ele>
        <time>2017-09-03T10:29:35Z</time>
      </trkpt>
      <trkpt lat="45.87275" lon="6.529">
        <ele>1453.17</ele>
        <time>2017-09-03T10:29:36Z</time>
      </trkpt>
      <trkpt lat="45.87283" lon="6.52909">
        <ele>1455.09</ele>
        <time>2017-09-03T10:29:43Z</time>
      </trkpt>
      <trkpt lat="45.87284" lon="6.52911">
        <ele>1455.57</ele>
        <time>2017-09-03T10:29:44Z</time>
      </trkpt>
      <trkpt lat="45.87285" lon="6.52912">
        <ele>1455.57</ele>
        <time>2017-09-03T10:29:45Z</time>
      </trkpt>
      <trkpt lat="45.87286" lon="6.52913">
        <ele>1455.57</ele>
        <time>2017-09-03T10:29:46Z</time>
      </trkpt>
      <trkpt lat="45.87286" lon="6.52915">
        <ele>1456.05</ele>
        <time>2017-09-03T10:29:47Z</time>
      </trkpt>
      <trkpt lat="45.87288" lon="6.52916">
        <ele>1456.05</ele>
        <time>2017-09-03T10:29:48Z</time>
      </trkpt>
      <trkpt lat="45.87289" lon="6.52918">
        <ele>1456.05</ele>
        <time>2017-09-03T10:29:49Z</time>
      </trkpt>
      <trkpt lat="45.8729" lon="6.52921">
        <ele>1456.53</ele>
        <time>2017-09-03T10:29:50Z</time>
      </trkpt>
      <trkpt lat="45.87293" lon="6.52928">
        <ele>1457.5</ele>
        <time>2017-09-03T10:29:53Z</time>
      </trkpt>
      <trkpt lat="45.87294" lon="6.5293">
        <ele>1457.98</ele>
        <time>2017-09-03T10:29:54Z</time>
      </trkpt>
      <trkpt lat="45.87295" lon="6.52932">
        <ele>1457.98</ele>
        <time>2017-09-03T10:29:55Z</time>
      </trkpt>
      <trkpt lat="45.87296" lon="6.52934">
        <ele>1457.98</ele>
        <time>2017-09-03T10:29:56Z</time>
      </trkpt>
      <trkpt lat="45.87296" lon="6.52937">
        <ele>1458.46</ele>
        <time>2017-09-03T10:29:57Z</time>
      </trkpt>
      <trkpt lat="45.87298" lon="6.52939">
        <ele>1458.46</ele>
        <time>2017-09-03T10:29:58Z</time>
      </trkpt>
      <trkpt lat="45.87299" lon="6.52941">
        <ele>1458.94</ele>
        <time>2017-09-03T10:29:59Z</time>
      </trkpt>
      <trkpt lat="45.873" lon="6.52943">
        <ele>1459.42</ele>
        <time>2017-09-03T10:30:00Z</time>
      </trkpt>
      <trkpt lat="45.87301" lon="6.52945">
        <ele>1459.42</ele>
        <time>2017-09-03T10:30:01Z</time>
      </trkpt>
      <trkpt lat="45.87302" lon="6.52947">
        <ele>1459.9</ele>
        <time>2017-09-03T10:30:02Z</time>
      </trkpt>
      <trkpt lat="45.87303" lon="6.52949">
        <ele>1459.9</ele>
        <time>2017-09-03T10:30:03Z</time>
      </trkpt>
      <trkpt lat="45.87307" lon="6.52956">
        <ele>1460.86</ele>
        <time>2017-09-03T10:30:07Z</time>
      </trkpt>
      <trkpt lat="45.87308" lon="6.52957">
        <ele>1461.34</ele>
        <time>2017-09-03T10:30:08Z</time>
      </trkpt>
      <trkpt lat="45.87308" lon="6.52959">
        <ele>1461.34</ele>
        <time>2017-09-03T10:30:09Z</time>
      </trkpt>
      <trkpt lat="45.87309" lon="6.5296">
        <ele>1461.82</ele>
        <time>2017-09-03T10:30:10Z</time>
      </trkpt>
      <trkpt lat="45.8731" lon="6.52961">
        <ele>1461.82</ele>
        <time>2017-09-03T10:30:11Z</time>
      </trkpt>
      <trkpt lat="45.8731" lon="6.52964">
        <ele>1461.82</ele>
        <time>2017-09-03T10:30:12Z</time>
      </trkpt>
      <trkpt lat="45.87311" lon="6.52965">
        <ele>1462.3</ele>
        <time>2017-09-03T10:30:13Z</time>
      </trkpt>
      <trkpt lat="45.87312" lon="6.52966">
        <ele>1462.78</ele>
        <time>2017-09-03T10:30:14Z</time>
      </trkpt>
      <trkpt lat="45.87313" lon="6.52968">
        <ele>1462.78</ele>
        <time>2017-09-03T10:30:15Z</time>
      </trkpt>
      <trkpt lat="45.87325" lon="6.52986">
        <ele>1466.15</ele>
        <time>2017-09-03T10:30:27Z</time>
      </trkpt>
      <trkpt lat="45.87325" lon="6.52987">
        <ele>1466.63</ele>
        <time>2017-09-03T10:30:28Z</time>
      </trkpt>
      <trkpt lat="45.87326" lon="6.52989">
        <ele>1466.63</ele>
        <time>2017-09-03T10:30:29Z</time>
      </trkpt>
      <trkpt lat="45.87326" lon="6.5299">
        <ele>1467.11</ele>
        <time>2017-09-03T10:30:30Z</time>
      </trkpt>
      <trkpt lat="45.87327" lon="6.52991">
        <ele>1467.11</ele>
        <time>2017-09-03T10:30:31Z</time>
      </trkpt>
      <trkpt lat="45.87329" lon="6.52992">
        <ele>1467.59</ele>
        <time>2017-09-03T10:30:32Z</time>
      </trkpt>
      <trkpt lat="45.8733" lon="6.52993">
        <ele>1467.59</ele>
        <time>2017-09-03T10:30:33Z</time>
      </trkpt>
      <trkpt lat="45.8733" lon="6.52995">
        <ele>1468.07</ele>
        <time>2017-09-03T10:30:34Z</time>
      </trkpt>
      <trkpt lat="45.87331" lon="6.52997">
        <ele>1468.07</ele>
        <time>2017-09-03T10:30:35Z</time>
      </trkpt>
      <trkpt lat="45.87332" lon="6.52999">
        <ele>1468.55</ele>
        <time>2017-09-03T10:30:36Z</time>
      </trkpt>
      <trkpt lat="45.87333" lon="6.53001">
        <ele>1468.55</ele>
        <time>2017-09-03T10:30:37Z</time>
      </trkpt>
      <trkpt lat="45.87336" lon="6.53006">
        <ele>1469.51</ele>
        <time>2017-09-03T10:30:40Z</time>
      </trkpt>
      <trkpt lat="45.87341" lon="6.5301">
        <ele>1471.44</ele>
        <time>2017-09-03T10:30:45Z</time>
      </trkpt>
      <trkpt lat="45.87342" lon="6.53011">
        <ele>1471.44</ele>
        <time>2017-09-03T10:30:46Z</time>
      </trkpt>
      <trkpt lat="45.87343" lon="6.53012">
        <ele>1471.44</ele>
        <time>2017-09-03T10:30:47Z</time>
      </trkpt>
      <trkpt lat="45.87345" lon="6.53016">
        <ele>1472.4</ele>
        <time>2017-09-03T10:30:49Z</time>
      </trkpt>
      <trkpt lat="45.87346" lon="6.53018">
        <ele>1472.4</ele>
        <time>2017-09-03T10:30:50Z</time>
      </trkpt>
      <trkpt lat="45.87347" lon="6.53019">
        <ele>1472.4</ele>
        <time>2017-09-03T10:30:51Z</time>
      </trkpt>
      <trkpt lat="45.87349" lon="6.5302">
        <ele>1472.88</ele>
        <time>2017-09-03T10:30:52Z</time>
      </trkpt>
      <trkpt lat="45.8735" lon="6.53021">
        <ele>1473.36</ele>
        <time>2017-09-03T10:30:53Z</time>
      </trkpt>
      <trkpt lat="45.87351" lon="6.53022">
        <ele>1473.36</ele>
        <time>2017-09-03T10:30:54Z</time>
      </trkpt>
      <trkpt lat="45.87365" lon="6.53039">
        <ele>1476.24</ele>
        <time>2017-09-03T10:31:05Z</time>
      </trkpt>
      <trkpt lat="45.87366" lon="6.53041">
        <ele>1476.24</ele>
        <time>2017-09-03T10:31:06Z</time>
      </trkpt>
      <trkpt lat="45.87367" lon="6.53043">
        <ele>1476.72</ele>
        <time>2017-09-03T10:31:07Z</time>
      </trkpt>
      <trkpt lat="45.87369" lon="6.53044">
        <ele>1476.72</ele>
        <time>2017-09-03T10:31:08Z</time>
      </trkpt>
      <trkpt lat="45.8737" lon="6.53046">
        <ele>1477.2</ele>
        <time>2017-09-03T10:31:09Z</time>
      </trkpt>
      <trkpt lat="45.87371" lon="6.53048">
        <ele>1477.2</ele>
        <time>2017-09-03T10:31:10Z</time>
      </trkpt>
      <trkpt lat="45.87375" lon="6.53055">
        <ele>1478.16</ele>
        <time>2017-09-03T10:31:14Z</time>
      </trkpt>
      <trkpt lat="45.87376" lon="6.53057">
        <ele>1478.65</ele>
        <time>2017-09-03T10:31:15Z</time>
      </trkpt>
      <trkpt lat="45.87377" lon="6.53059">
        <ele>1478.65</ele>
        <time>2017-09-03T10:31:16Z</time>
      </trkpt>
      <trkpt lat="45.87378" lon="6.53061">
        <ele>1479.13</ele>
        <time>2017-09-03T10:31:17Z</time>
      </trkpt>
      <trkpt lat="45.87379" lon="6.53063">
        <ele>1479.13</ele>
        <time>2017-09-03T10:31:18Z</time>
      </trkpt>
      <trkpt lat="45.87389" lon="6.53089">
        <ele>1482.49</ele>
        <time>2017-09-03T10:31:31Z</time>
      </trkpt>
      <trkpt lat="45.87391" lon="6.53095">
        <ele>1482.97</ele>
        <time>2017-09-03T10:31:34Z</time>
      </trkpt>
      <trkpt lat="45.87391" lon="6.53097">
        <ele>1483.45</ele>
        <time>2017-09-03T10:31:35Z</time>
      </trkpt>
      <trkpt lat="45.87399" lon="6.53123">
        <ele>1486.82</ele>
        <time>2017-09-03T10:31:48Z</time>
      </trkpt>
      <trkpt lat="45.87403" lon="6.53128">
        <ele>1487.78</ele>
        <time>2017-09-03T10:31:52Z</time>
      </trkpt>
      <trkpt lat="45.87405" lon="6.5313">
        <ele>1487.78</ele>
        <time>2017-09-03T10:31:54Z</time>
      </trkpt>
      <trkpt lat="45.87407" lon="6.53131">
        <ele>1488.26</ele>
        <time>2017-09-03T10:31:55Z</time>
      </trkpt>
      <trkpt lat="45.87414" lon="6.53138">
        <ele>1489.7</ele>
        <time>2017-09-03T10:32:01Z</time>
      </trkpt>
      <trkpt lat="45.87416" lon="6.5314">
        <ele>1490.18</ele>
        <time>2017-09-03T10:32:02Z</time>
      </trkpt>
      <trkpt lat="45.87421" lon="6.53145">
        <ele>1490.66</ele>
        <time>2017-09-03T10:32:06Z</time>
      </trkpt>
      <trkpt lat="45.87422" lon="6.53146">
        <ele>1491.14</ele>
        <time>2017-09-03T10:32:07Z</time>
      </trkpt>
      <trkpt lat="45.87424" lon="6.53147">
        <ele>1491.62</ele>
        <time>2017-09-03T10:32:08Z</time>
      </trkpt>
      <trkpt lat="45.87425" lon="6.53148">
        <ele>1491.62</ele>
        <time>2017-09-03T10:32:09Z</time>
      </trkpt>
      <trkpt lat="45.87426" lon="6.5315">
        <ele>1491.62</ele>
        <time>2017-09-03T10:32:10Z</time>
      </trkpt>
      <trkpt lat="45.87436" lon="6.53165">
        <ele>1494.03</ele>
        <time>2017-09-03T10:32:19Z</time>
      </trkpt>
      <trkpt lat="45.87437" lon="6.53167">
        <ele>1494.03</ele>
        <time>2017-09-03T10:32:20Z</time>
      </trkpt>
      <trkpt lat="45.87438" lon="6.53169">
        <ele>1494.03</ele>
        <time>2017-09-03T10:32:21Z</time>
      </trkpt>
      <trkpt lat="45.87439" lon="6.5317">
        <ele>1494.51</ele>
        <time>2017-09-03T10:32:22Z</time>
      </trkpt>
      <trkpt lat="45.87441" lon="6.53171">
        <ele>1494.51</ele>
        <time>2017-09-03T10:32:23Z</time>
      </trkpt>
      <trkpt lat="45.87442" lon="6.53173">
        <ele>1494.51</ele>
        <time>2017-09-03T10:32:24Z</time>
      </trkpt>
      <trkpt lat="45.87444" lon="6.53174">
        <ele>1494.99</ele>
        <time>2017-09-03T10:32:25Z</time>
      </trkpt>
      <trkpt lat="45.87445" lon="6.53175">
        <ele>1494.99</ele>
        <time>2017-09-03T10:32:26Z</time>
      </trkpt>
      <trkpt lat="45.87447" lon="6.53179">
        <ele>1495.47</ele>
        <time>2017-09-03T10:32:28Z</time>
      </trkpt>
      <trkpt lat="45.87448" lon="6.53181">
        <ele>1495.95</ele>
        <time>2017-09-03T10:32:29Z</time>
      </trkpt>
      <trkpt lat="45.87449" lon="6.53182">
        <ele>1496.43</ele>
        <time>2017-09-03T10:32:30Z</time>
      </trkpt>
      <trkpt lat="45.8745" lon="6.53184">
        <ele>1496.43</ele>
        <time>2017-09-03T10:32:31Z</time>
      </trkpt>
      <trkpt lat="45.87451" lon="6.53187">
        <ele>1496.91</ele>
        <time>2017-09-03T10:32:32Z</time>
      </trkpt>
      <trkpt lat="45.87452" lon="6.53188">
        <ele>1496.91</ele>
        <time>2017-09-03T10:32:33Z</time>
      </trkpt>
      <trkpt lat="45.87452" lon="6.5319">
        <ele>1497.39</ele>
        <time>2017-09-03T10:32:34Z</time>
      </trkpt>
      <trkpt lat="45.87453" lon="6.53192">
        <ele>1497.39</ele>
        <time>2017-09-03T10:32:35Z</time>
      </trkpt>
      <trkpt lat="45.87453" lon="6.53194">
        <ele>1497.87</ele>
        <time>2017-09-03T10:32:36Z</time>
      </trkpt>
      <trkpt lat="45.87455" lon="6.53199">
        <ele>1498.83</ele>
        <time>2017-09-03T10:32:39Z</time>
      </trkpt>
      <trkpt lat="45.87455" lon="6.53201">
        <ele>1498.83</ele>
        <time>2017-09-03T10:32:40Z</time>
      </trkpt>
      <trkpt lat="45.87456" lon="6.53203">
        <ele>1499.31</ele>
        <time>2017-09-03T10:32:41Z</time>
      </trkpt>
      <trkpt lat="45.87457" lon="6.53205">
        <ele>1499.79</ele>
        <time>2017-09-03T10:32:42Z</time>
      </trkpt>
      <trkpt lat="45.87457" lon="6.53206">
        <ele>1499.79</ele>
        <time>2017-09-03T10:32:43Z</time>
      </trkpt>
      <trkpt lat="45.87458" lon="6.53208">
        <ele>1499.79</ele>
        <time>2017-09-03T10:32:44Z</time>
      </trkpt>
      <trkpt lat="45.87458" lon="6.5321">
        <ele>1500.27</ele>
        <time>2017-09-03T10:32:45Z</time>
      </trkpt>
      <trkpt lat="45.87459" lon="6.53211">
        <ele>1500.76</ele>
        <time>2017-09-03T10:32:46Z</time>
      </trkpt>
      <trkpt lat="45.8746" lon="6.53213">
        <ele>1501.24</ele>
        <time>2017-09-03T10:32:47Z</time>
      </trkpt>
      <trkpt lat="45.87463" lon="6.53228">
        <ele>1503.16</ele>
        <time>2017-09-03T10:32:55Z</time>
      </trkpt>
      <trkpt lat="45.87463" lon="6.5323">
        <ele>1503.64</ele>
        <time>2017-09-03T10:32:56Z</time>
      </trkpt>
      <trkpt lat="45.87463" lon="6.53232">
        <ele>1503.64</ele>
        <time>2017-09-03T10:32:57Z</time>
      </trkpt>
      <trkpt lat="45.87463" lon="6.53234">
        <ele>1503.64</ele>
        <time>2017-09-03T10:32:58Z</time>
      </trkpt>
      <trkpt lat="45.87463" lon="6.53235">
        <ele>1504.12</ele>
        <time>2017-09-03T10:32:59Z</time>
      </trkpt>
      <trkpt lat="45.87464" lon="6.53239">
        <ele>1504.6</ele>
        <time>2017-09-03T10:33:01Z</time>
      </trkpt>
      <trkpt lat="45.87464" lon="6.5324">
        <ele>1504.6</ele>
        <time>2017-09-03T10:33:02Z</time>
      </trkpt>
      <trkpt lat="45.87462" lon="6.53268">
        <ele>1507.97</ele>
        <time>2017-09-03T10:33:15Z</time>
      </trkpt>
      <trkpt lat="45.8746" lon="6.53295">
        <ele>1511.33</ele>
        <time>2017-09-03T10:33:27Z</time>
      </trkpt>
      <trkpt lat="45.87457" lon="6.53325">
        <ele>1513.73</ele>
        <time>2017-09-03T10:33:39Z</time>
      </trkpt>
      <trkpt lat="45.87458" lon="6.53353">
        <ele>1515.66</ele>
        <time>2017-09-03T10:33:50Z</time>
      </trkpt>
      <trkpt lat="45.87456" lon="6.5336">
        <ele>1515.66</ele>
        <time>2017-09-03T10:33:53Z</time>
      </trkpt>
      <trkpt lat="45.87454" lon="6.53361">
        <ele>1516.14</ele>
        <time>2017-09-03T10:33:54Z</time>
      </trkpt>
      <trkpt lat="45.87453" lon="6.53361">
        <ele>1516.62</ele>
        <time>2017-09-03T10:33:55Z</time>
      </trkpt>
      <trkpt lat="45.87451" lon="6.5336">
        <ele>1516.62</ele>
        <time>2017-09-03T10:33:56Z</time>
      </trkpt>
      <trkpt lat="45.8745" lon="6.53359">
        <ele>1517.1</ele>
        <time>2017-09-03T10:33:57Z</time>
      </trkpt>
      <trkpt lat="45.87449" lon="6.53357">
        <ele>1517.1</ele>
        <time>2017-09-03T10:33:58Z</time>
      </trkpt>
      <trkpt lat="45.87448" lon="6.53355">
        <ele>1517.58</ele>
        <time>2017-09-03T10:33:59Z</time>
      </trkpt>
      <trkpt lat="45.87448" lon="6.53352">
        <ele>1517.58</ele>
        <time>2017-09-03T10:34:00Z</time>
      </trkpt>
      <trkpt lat="45.87447" lon="6.53347">
        <ele>1517.58</ele>
        <time>2017-09-03T10:34:02Z</time>
      </trkpt>
      <trkpt lat="45.87447" lon="6.53344">
        <ele>1517.58</ele>
        <time>2017-09-03T10:34:03Z</time>
      </trkpt>
      <trkpt lat="45.87442" lon="6.53313">
        <ele>1519.98</ele>
        <time>2017-09-03T10:34:14Z</time>
      </trkpt>
      <trkpt lat="45.87442" lon="6.53306">
        <ele>1520.46</ele>
        <time>2017-09-03T10:34:17Z</time>
      </trkpt>
      <trkpt lat="45.87442" lon="6.53304">
        <ele>1520.94</ele>
        <time>2017-09-03T10:34:18Z</time>
      </trkpt>
      <trkpt lat="45.87441" lon="6.53302">
        <ele>1520.94</ele>
        <time>2017-09-03T10:34:19Z</time>
      </trkpt>
      <trkpt lat="45.87441" lon="6.53299">
        <ele>1520.94</ele>
        <time>2017-09-03T10:34:20Z</time>
      </trkpt>
      <trkpt lat="45.87441" lon="6.53296">
        <ele>1521.42</ele>
        <time>2017-09-03T10:34:21Z</time>
      </trkpt>
      <trkpt lat="45.8744" lon="6.53294">
        <ele>1521.42</ele>
        <time>2017-09-03T10:34:22Z</time>
      </trkpt>
      <trkpt lat="45.8744" lon="6.53292">
        <ele>1521.9</ele>
        <time>2017-09-03T10:34:23Z</time>
      </trkpt>
      <trkpt lat="45.87439" lon="6.5329">
        <ele>1522.39</ele>
        <time>2017-09-03T10:34:24Z</time>
      </trkpt>
      <trkpt lat="45.87439" lon="6.53287">
        <ele>1522.39</ele>
        <time>2017-09-03T10:34:25Z</time>
      </trkpt>
      <trkpt lat="45.87439" lon="6.53285">
        <ele>1522.87</ele>
        <time>2017-09-03T10:34:26Z</time>
      </trkpt>
      <trkpt lat="45.87439" lon="6.53283">
        <ele>1522.87</ele>
        <time>2017-09-03T10:34:27Z</time>
      </trkpt>
      <trkpt lat="45.87436" lon="6.53271">
        <ele>1524.31</ele>
        <time>2017-09-03T10:34:36Z</time>
      </trkpt>
      <trkpt lat="45.87428" lon="6.53257">
        <ele>1525.27</ele>
        <time>2017-09-03T10:34:47Z</time>
      </trkpt>
      <trkpt lat="45.87423" lon="6.53252">
        <ele>1525.75</ele>
        <time>2017-09-03T10:34:53Z</time>
      </trkpt>
      <trkpt lat="45.8742" lon="6.53249">
        <ele>1525.75</ele>
        <time>2017-09-03T10:34:57Z</time>
      </trkpt>
      <trkpt lat="45.87416" lon="6.53246">
        <ele>1525.75</ele>
        <time>2017-09-03T10:35:01Z</time>
      </trkpt>
      <trkpt lat="45.87408" lon="6.53242">
        <ele>1526.71</ele>
        <time>2017-09-03T10:35:08Z</time>
      </trkpt>
      <trkpt lat="45.87401" lon="6.53239">
        <ele>1526.23</ele>
        <time>2017-09-03T10:35:15Z</time>
      </trkpt>
      <trkpt lat="45.87398" lon="6.53241">
        <ele>1526.23</ele>
        <time>2017-09-03T10:35:21Z</time>
      </trkpt>
      <trkpt lat="45.87398" lon="6.53244">
        <ele>1526.23</ele>
        <time>2017-09-03T10:35:26Z</time>
      </trkpt>
      <trkpt lat="45.87399" lon="6.53244">
        <ele>1526.23</ele>
        <time>2017-09-03T10:35:35Z</time>
      </trkpt>
      <trkpt lat="45.87399" lon="6.53243">
        <ele>1527.19</ele>
        <time>2017-09-03T10:35:44Z</time>
      </trkpt>
      <trkpt lat="45.87398" lon="6.53242">
        <ele>1526.71</ele>
        <time>2017-09-03T10:35:56Z</time>
      </trkpt>
      <trkpt lat="45.87395" lon="6.53239">
        <ele>1526.71</ele>
        <time>2017-09-03T10:35:59Z</time>
      </trkpt>
      <trkpt lat="45.87395" lon="6.53238">
        <ele>1526.71</ele>
        <time>2017-09-03T10:36:00Z</time>
      </trkpt>
      <trkpt lat="45.87394" lon="6.53237">
        <ele>1526.71</ele>
        <time>2017-09-03T10:36:04Z</time>
      </trkpt>
      <trkpt lat="45.87394" lon="6.53238">
        <ele>1526.71</ele>
        <time>2017-09-03T10:36:09Z</time>
      </trkpt>
      <trkpt lat="45.87388" lon="6.53237">
        <ele>1527.19</ele>
        <time>2017-09-03T10:36:24Z</time>
      </trkpt>
      <trkpt lat="45.87388" lon="6.53236">
        <ele>1527.19</ele>
        <time>2017-09-03T10:36:25Z</time>
      </trkpt>
      <trkpt lat="45.87387" lon="6.53236">
        <ele>1527.19</ele>
        <time>2017-09-03T10:36:26Z</time>
      </trkpt>
      <trkpt lat="45.87372" lon="6.53232">
        <ele>1528.63</ele>
        <time>2017-09-03T10:36:39Z</time>
      </trkpt>
      <trkpt lat="45.8737" lon="6.53232">
        <ele>1529.11</ele>
        <time>2017-09-03T10:36:41Z</time>
      </trkpt>
      <trkpt lat="45.87369" lon="6.53232">
        <ele>1529.59</ele>
        <time>2017-09-03T10:36:42Z</time>
      </trkpt>
      <trkpt lat="45.87368" lon="6.53232">
        <ele>1529.59</ele>
        <time>2017-09-03T10:36:43Z</time>
      </trkpt>
      <trkpt lat="45.87367" lon="6.53232">
        <ele>1530.08</ele>
        <time>2017-09-03T10:36:44Z</time>
      </trkpt>
      <trkpt lat="45.87365" lon="6.53231">
        <ele>1530.08</ele>
        <time>2017-09-03T10:36:45Z</time>
      </trkpt>
      <trkpt lat="45.87364" lon="6.53231">
        <ele>1530.08</ele>
        <time>2017-09-03T10:36:46Z</time>
      </trkpt>
      <trkpt lat="45.87363" lon="6.5323">
        <ele>1530.56</ele>
        <time>2017-09-03T10:36:47Z</time>
      </trkpt>
      <trkpt lat="45.87362" lon="6.53229">
        <ele>1530.56</ele>
        <time>2017-09-03T10:36:48Z</time>
      </trkpt>
      <trkpt lat="45.87361" lon="6.53228">
        <ele>1530.56</ele>
        <time>2017-09-03T10:36:49Z</time>
      </trkpt>
      <trkpt lat="45.8736" lon="6.53227">
        <ele>1530.56</ele>
        <time>2017-09-03T10:36:50Z</time>
      </trkpt>
      <trkpt lat="45.8736" lon="6.53226">
        <ele>1531.04</ele>
        <time>2017-09-03T10:36:51Z</time>
      </trkpt>
      <trkpt lat="45.87359" lon="6.53225">
        <ele>1531.04</ele>
        <time>2017-09-03T10:36:52Z</time>
      </trkpt>
      <trkpt lat="45.87358" lon="6.53224">
        <ele>1531.04</ele>
        <time>2017-09-03T10:36:53Z</time>
      </trkpt>
      <trkpt lat="45.87357" lon="6.53223">
        <ele>1531.52</ele>
        <time>2017-09-03T10:36:54Z</time>
      </trkpt>
      <trkpt lat="45.87357" lon="6.53221">
        <ele>1531.52</ele>
        <time>2017-09-03T10:36:55Z</time>
      </trkpt>
      <trkpt lat="45.87356" lon="6.53219">
        <ele>1531.52</ele>
        <time>2017-09-03T10:36:56Z</time>
      </trkpt>
      <trkpt lat="45.87352" lon="6.53212">
        <ele>1532</ele>
        <time>2017-09-03T10:37:01Z</time>
      </trkpt>
      <trkpt lat="45.87344" lon="6.53205">
        <ele>1532.96</ele>
        <time>2017-09-03T10:37:06Z</time>
      </trkpt>
      <trkpt lat="45.8734" lon="6.53201">
        <ele>1533.44</ele>
        <time>2017-09-03T10:37:09Z</time>
      </trkpt>
      <trkpt lat="45.87333" lon="6.53197">
        <ele>1534.4</ele>
        <time>2017-09-03T10:37:13Z</time>
      </trkpt>
      <trkpt lat="45.87328" lon="6.53195">
        <ele>1535.36</ele>
        <time>2017-09-03T10:37:16Z</time>
      </trkpt>
      <trkpt lat="45.87319" lon="6.53189">
        <ele>1536.8</ele>
        <time>2017-09-03T10:37:22Z</time>
      </trkpt>
      <trkpt lat="45.87301" lon="6.53176">
        <ele>1539.21</ele>
        <time>2017-09-03T10:37:34Z</time>
      </trkpt>
      <trkpt lat="45.87283" lon="6.53165">
        <ele>1542.09</ele>
        <time>2017-09-03T10:37:46Z</time>
      </trkpt>
      <trkpt lat="45.87265" lon="6.53154">
        <ele>1544.5</ele>
        <time>2017-09-03T10:37:58Z</time>
      </trkpt>
      <trkpt lat="45.87246" lon="6.53145">
        <ele>1546.9</ele>
        <time>2017-09-03T10:38:10Z</time>
      </trkpt>
      <trkpt lat="45.87236" lon="6.53139">
        <ele>1548.82</ele>
        <time>2017-09-03T10:38:17Z</time>
      </trkpt>
      <trkpt lat="45.87234" lon="6.53139">
        <ele>1548.82</ele>
        <time>2017-09-03T10:38:18Z</time>
      </trkpt>
      <trkpt lat="45.87216" lon="6.53131">
        <ele>1551.22</ele>
        <time>2017-09-03T10:38:29Z</time>
      </trkpt>
      <trkpt lat="45.87199" lon="6.53123">
        <ele>1553.63</ele>
        <time>2017-09-03T10:38:40Z</time>
      </trkpt>
      <trkpt lat="45.87182" lon="6.5311">
        <ele>1556.51</ele>
        <time>2017-09-03T10:38:52Z</time>
      </trkpt>
      <trkpt lat="45.87164" lon="6.53103">
        <ele>1559.4</ele>
        <time>2017-09-03T10:39:05Z</time>
      </trkpt>
      <trkpt lat="45.87146" lon="6.53095">
        <ele>1560.84</ele>
        <time>2017-09-03T10:39:16Z</time>
      </trkpt>
      <trkpt lat="45.87124" lon="6.53084">
        <ele>1563.72</ele>
        <time>2017-09-03T10:39:28Z</time>
      </trkpt>
      <trkpt lat="45.87102" lon="6.53077">
        <ele>1566.12</ele>
        <time>2017-09-03T10:39:40Z</time>
      </trkpt>
      <trkpt lat="45.87097" lon="6.53072">
        <ele>1567.09</ele>
        <time>2017-09-03T10:39:44Z</time>
      </trkpt>
      <trkpt lat="45.87096" lon="6.53072">
        <ele>1567.09</ele>
        <time>2017-09-03T10:39:45Z</time>
      </trkpt>
      <trkpt lat="45.87076" lon="6.5306">
        <ele>1569.97</ele>
        <time>2017-09-03T10:39:59Z</time>
      </trkpt>
      <trkpt lat="45.8706" lon="6.53045">
        <ele>1571.41</ele>
        <time>2017-09-03T10:40:09Z</time>
      </trkpt>
      <trkpt lat="45.87054" lon="6.53037">
        <ele>1572.85</ele>
        <time>2017-09-03T10:40:15Z</time>
      </trkpt>
      <trkpt lat="45.87042" lon="6.53022">
        <ele>1575.26</ele>
        <time>2017-09-03T10:40:24Z</time>
      </trkpt>
      <trkpt lat="45.87026" lon="6.53007">
        <ele>1577.18</ele>
        <time>2017-09-03T10:40:36Z</time>
      </trkpt>
      <trkpt lat="45.87008" lon="6.53002">
        <ele>1580.54</ele>
        <time>2017-09-03T10:40:49Z</time>
      </trkpt>
      <trkpt lat="45.87007" lon="6.53002">
        <ele>1580.54</ele>
        <time>2017-09-03T10:40:50Z</time>
      </trkpt>
      <trkpt lat="45.87006" lon="6.53001">
        <ele>1581.03</ele>
        <time>2017-09-03T10:40:51Z</time>
      </trkpt>
      <trkpt lat="45.87004" lon="6.53">
        <ele>1581.03</ele>
        <time>2017-09-03T10:40:52Z</time>
      </trkpt>
      <trkpt lat="45.87003" lon="6.52999">
        <ele>1581.03</ele>
        <time>2017-09-03T10:40:53Z</time>
      </trkpt>
      <trkpt lat="45.87001" lon="6.52997">
        <ele>1581.51</ele>
        <time>2017-09-03T10:40:54Z</time>
      </trkpt>
      <trkpt lat="45.86999" lon="6.52995">
        <ele>1581.51</ele>
        <time>2017-09-03T10:40:55Z</time>
      </trkpt>
      <trkpt lat="45.86998" lon="6.52993">
        <ele>1581.51</ele>
        <time>2017-09-03T10:40:56Z</time>
      </trkpt>
      <trkpt lat="45.86996" lon="6.52991">
        <ele>1581.99</ele>
        <time>2017-09-03T10:40:57Z</time>
      </trkpt>
      <trkpt lat="45.86996" lon="6.5299">
        <ele>1581.99</ele>
        <time>2017-09-03T10:40:58Z</time>
      </trkpt>
      <trkpt lat="45.86995" lon="6.52988">
        <ele>1581.99</ele>
        <time>2017-09-03T10:40:59Z</time>
      </trkpt>
      <trkpt lat="45.86994" lon="6.52986">
        <ele>1582.47</ele>
        <time>2017-09-03T10:41:00Z</time>
      </trkpt>
      <trkpt lat="45.86993" lon="6.52985">
        <ele>1582.47</ele>
        <time>2017-09-03T10:41:01Z</time>
      </trkpt>
      <trkpt lat="45.86992" lon="6.52984">
        <ele>1582.95</ele>
        <time>2017-09-03T10:41:02Z</time>
      </trkpt>
      <trkpt lat="45.86991" lon="6.52982">
        <ele>1583.43</ele>
        <time>2017-09-03T10:41:03Z</time>
      </trkpt>
      <trkpt lat="45.86989" lon="6.52981">
        <ele>1583.43</ele>
        <time>2017-09-03T10:41:04Z</time>
      </trkpt>
      <trkpt lat="45.8697" lon="6.52965">
        <ele>1585.83</ele>
        <time>2017-09-03T10:41:16Z</time>
      </trkpt>
      <trkpt lat="45.86951" lon="6.52956">
        <ele>1588.24</ele>
        <time>2017-09-03T10:41:28Z</time>
      </trkpt>
      <trkpt lat="45.86929" lon="6.52951">
        <ele>1591.12</ele>
        <time>2017-09-03T10:41:40Z</time>
      </trkpt>
      <trkpt lat="45.86909" lon="6.52945">
        <ele>1594</ele>
        <time>2017-09-03T10:41:52Z</time>
      </trkpt>
      <trkpt lat="45.86906" lon="6.52944">
        <ele>1594</ele>
        <time>2017-09-03T10:41:54Z</time>
      </trkpt>
      <trkpt lat="45.86904" lon="6.52944">
        <ele>1594.48</ele>
        <time>2017-09-03T10:41:55Z</time>
      </trkpt>
      <trkpt lat="45.86888" lon="6.52929">
        <ele>1596.89</ele>
        <time>2017-09-03T10:42:06Z</time>
      </trkpt>
      <trkpt lat="45.86881" lon="6.52915">
        <ele>1598.81</ele>
        <time>2017-09-03T10:42:13Z</time>
      </trkpt>
      <trkpt lat="45.8688" lon="6.52913">
        <ele>1598.81</ele>
        <time>2017-09-03T10:42:14Z</time>
      </trkpt>
      <trkpt lat="45.86864" lon="6.52901">
        <ele>1601.21</ele>
        <time>2017-09-03T10:42:26Z</time>
      </trkpt>
      <trkpt lat="45.86859" lon="6.52898">
        <ele>1602.17</ele>
        <time>2017-09-03T10:42:29Z</time>
      </trkpt>
      <trkpt lat="45.86858" lon="6.52897">
        <ele>1602.66</ele>
        <time>2017-09-03T10:42:30Z</time>
      </trkpt>
      <trkpt lat="45.86857" lon="6.52895">
        <ele>1602.66</ele>
        <time>2017-09-03T10:42:31Z</time>
      </trkpt>
      <trkpt lat="45.86841" lon="6.5288">
        <ele>1605.54</ele>
        <time>2017-09-03T10:42:43Z</time>
      </trkpt>
      <trkpt lat="45.86839" lon="6.52879">
        <ele>1606.02</ele>
        <time>2017-09-03T10:42:44Z</time>
      </trkpt>
      <trkpt lat="45.86838" lon="6.52878">
        <ele>1606.02</ele>
        <time>2017-09-03T10:42:45Z</time>
      </trkpt>
      <trkpt lat="45.86828" lon="6.52872">
        <ele>1606.98</ele>
        <time>2017-09-03T10:42:51Z</time>
      </trkpt>
      <trkpt lat="45.86827" lon="6.52871">
        <ele>1607.46</ele>
        <time>2017-09-03T10:42:52Z</time>
      </trkpt>
      <trkpt lat="45.86826" lon="6.5287">
        <ele>1607.46</ele>
        <time>2017-09-03T10:42:53Z</time>
      </trkpt>
      <trkpt lat="45.86824" lon="6.5287">
        <ele>1607.94</ele>
        <time>2017-09-03T10:42:54Z</time>
      </trkpt>
      <trkpt lat="45.86823" lon="6.5287">
        <ele>1607.94</ele>
        <time>2017-09-03T10:42:55Z</time>
      </trkpt>
      <trkpt lat="45.86821" lon="6.52869">
        <ele>1607.94</ele>
        <time>2017-09-03T10:42:56Z</time>
      </trkpt>
      <trkpt lat="45.86814" lon="6.52866">
        <ele>1608.42</ele>
        <time>2017-09-03T10:43:00Z</time>
      </trkpt>
      <trkpt lat="45.86813" lon="6.52865">
        <ele>1608.9</ele>
        <time>2017-09-03T10:43:01Z</time>
      </trkpt>
      <trkpt lat="45.86811" lon="6.52863">
        <ele>1608.9</ele>
        <time>2017-09-03T10:43:02Z</time>
      </trkpt>
      <trkpt lat="45.86795" lon="6.52839">
        <ele>1610.83</ele>
        <time>2017-09-03T10:43:14Z</time>
      </trkpt>
      <trkpt lat="45.8678" lon="6.52819">
        <ele>1612.75</ele>
        <time>2017-09-03T10:43:24Z</time>
      </trkpt>
      <trkpt lat="45.86763" lon="6.528">
        <ele>1614.19</ele>
        <time>2017-09-03T10:43:35Z</time>
      </trkpt>
      <trkpt lat="45.86746" lon="6.52787">
        <ele>1615.63</ele>
        <time>2017-09-03T10:43:45Z</time>
      </trkpt>
      <trkpt lat="45.86733" lon="6.52768">
        <ele>1617.07</ele>
        <time>2017-09-03T10:43:55Z</time>
      </trkpt>
      <trkpt lat="45.86726" lon="6.52754">
        <ele>1619</ele>
        <time>2017-09-03T10:44:04Z</time>
      </trkpt>
      <trkpt lat="45.86726" lon="6.52753">
        <ele>1618.52</ele>
        <time>2017-09-03T10:44:05Z</time>
      </trkpt>
      <trkpt lat="45.86725" lon="6.52751">
        <ele>1618.52</ele>
        <time>2017-09-03T10:44:06Z</time>
      </trkpt>
      <trkpt lat="45.86724" lon="6.5275">
        <ele>1618.52</ele>
        <time>2017-09-03T10:44:07Z</time>
      </trkpt>
      <trkpt lat="45.86723" lon="6.52748">
        <ele>1618.52</ele>
        <time>2017-09-03T10:44:08Z</time>
      </trkpt>
      <trkpt lat="45.86721" lon="6.52743">
        <ele>1619</ele>
        <time>2017-09-03T10:44:14Z</time>
      </trkpt>
      <trkpt lat="45.86722" lon="6.52741">
        <ele>1619</ele>
        <time>2017-09-03T10:44:21Z</time>
      </trkpt>
      <trkpt lat="45.86719" lon="6.52735">
        <ele>1618.52</ele>
        <time>2017-09-03T10:44:30Z</time>
      </trkpt>
      <trkpt lat="45.86718" lon="6.52735">
        <ele>1618.52</ele>
        <time>2017-09-03T10:44:35Z</time>
      </trkpt>
      <trkpt lat="45.86718" lon="6.52734">
        <ele>1618.52</ele>
        <time>2017-09-03T10:44:37Z</time>
      </trkpt>
      <trkpt lat="45.86718" lon="6.52733">
        <ele>1618.52</ele>
        <time>2017-09-03T10:44:39Z</time>
      </trkpt>
      <trkpt lat="45.86716" lon="6.52731">
        <ele>1618.52</ele>
        <time>2017-09-03T10:44:43Z</time>
      </trkpt>
      <trkpt lat="45.86715" lon="6.52729">
        <ele>1618.52</ele>
        <time>2017-09-03T10:44:49Z</time>
      </trkpt>
      <trkpt lat="45.86713" lon="6.52729">
        <ele>1619</ele>
        <time>2017-09-03T10:44:52Z</time>
      </trkpt>
      <trkpt lat="45.86708" lon="6.52723">
        <ele>1618.04</ele>
        <time>2017-09-03T10:44:58Z</time>
      </trkpt>
      <trkpt lat="45.86706" lon="6.52719">
        <ele>1618.04</ele>
        <time>2017-09-03T10:45:02Z</time>
      </trkpt>
      <trkpt lat="45.86703" lon="6.52716">
        <ele>1618.04</ele>
        <time>2017-09-03T10:45:05Z</time>
      </trkpt>
      <trkpt lat="45.86698" lon="6.5271">
        <ele>1618.04</ele>
        <time>2017-09-03T10:45:11Z</time>
      </trkpt>
      <trkpt lat="45.86697" lon="6.52709">
        <ele>1617.56</ele>
        <time>2017-09-03T10:45:20Z</time>
      </trkpt>
      <trkpt lat="45.86692" lon="6.52703">
        <ele>1618.04</ele>
        <time>2017-09-03T10:45:27Z</time>
      </trkpt>
      <trkpt lat="45.86692" lon="6.52701">
        <ele>1618.04</ele>
        <time>2017-09-03T10:45:28Z</time>
      </trkpt>
      <trkpt lat="45.86691" lon="6.527">
        <ele>1618.04</ele>
        <time>2017-09-03T10:45:29Z</time>
      </trkpt>
      <trkpt lat="45.8669" lon="6.52698">
        <ele>1618.04</ele>
        <time>2017-09-03T10:45:30Z</time>
      </trkpt>
      <trkpt lat="45.86689" lon="6.52697">
        <ele>1617.56</ele>
        <time>2017-09-03T10:45:31Z</time>
      </trkpt>
      <trkpt lat="45.86689" lon="6.52695">
        <ele>1617.56</ele>
        <time>2017-09-03T10:45:32Z</time>
      </trkpt>
      <trkpt lat="45.86688" lon="6.52694">
        <ele>1617.56</ele>
        <time>2017-09-03T10:45:33Z</time>
      </trkpt>
      <trkpt lat="45.86687" lon="6.52692">
        <ele>1617.56</ele>
        <time>2017-09-03T10:45:34Z</time>
      </trkpt>
      <trkpt lat="45.86686" lon="6.52691">
        <ele>1617.07</ele>
        <time>2017-09-03T10:45:35Z</time>
      </trkpt>
      <trkpt lat="45.86685" lon="6.5269">
        <ele>1616.59</ele>
        <time>2017-09-03T10:45:36Z</time>
      </trkpt>
      <trkpt lat="45.86684" lon="6.52689">
        <ele>1616.59</ele>
        <time>2017-09-03T10:45:37Z</time>
      </trkpt>
      <trkpt lat="45.86683" lon="6.52688">
        <ele>1616.59</ele>
        <time>2017-09-03T10:45:38Z</time>
      </trkpt>
      <trkpt lat="45.86683" lon="6.52687">
        <ele>1616.59</ele>
        <time>2017-09-03T10:45:39Z</time>
      </trkpt>
      <trkpt lat="45.86682" lon="6.52685">
        <ele>1616.59</ele>
        <time>2017-09-03T10:45:40Z</time>
      </trkpt>
      <trkpt lat="45.86681" lon="6.52684">
        <ele>1616.11</ele>
        <time>2017-09-03T10:45:41Z</time>
      </trkpt>
      <trkpt lat="45.8668" lon="6.52683">
        <ele>1616.11</ele>
        <time>2017-09-03T10:45:42Z</time>
      </trkpt>
      <trkpt lat="45.86679" lon="6.52682">
        <ele>1616.11</ele>
        <time>2017-09-03T10:45:43Z</time>
      </trkpt>
      <trkpt lat="45.86674" lon="6.52672">
        <ele>1615.63</ele>
        <time>2017-09-03T10:45:59Z</time>
      </trkpt>
      <trkpt lat="45.86674" lon="6.52671">
        <ele>1615.63</ele>
        <time>2017-09-03T10:46:05Z</time>
      </trkpt>
      <trkpt lat="45.86675" lon="6.52671">
        <ele>1615.63</ele>
        <time>2017-09-03T10:46:14Z</time>
      </trkpt>
      <trkpt lat="45.86673" lon="6.52669">
        <ele>1615.63</ele>
        <time>2017-09-03T10:46:35Z</time>
      </trkpt>
      <trkpt lat="45.86668" lon="6.52665">
        <ele>1616.11</ele>
        <time>2017-09-03T10:46:43Z</time>
      </trkpt>
      <trkpt lat="45.86668" lon="6.52665">
        <ele>1616.11</ele>
        <time>2017-09-03T10:46:44Z</time>
      </trkpt>
      <trkpt lat="45.86666" lon="6.52664">
        <ele>1616.59</ele>
        <time>2017-09-03T10:46:47Z</time>
      </trkpt>
      <trkpt lat="45.86666" lon="6.52665">
        <ele>1616.11</ele>
        <time>2017-09-03T10:46:57Z</time>
      </trkpt>
      <trkpt lat="45.86665" lon="6.52665">
        <ele>1616.11</ele>
        <time>2017-09-03T10:47:06Z</time>
      </trkpt>
      <trkpt lat="45.86664" lon="6.52659">
        <ele>1616.59</ele>
        <time>2017-09-03T10:47:25Z</time>
      </trkpt>
      <trkpt lat="45.86664" lon="6.52658">
        <ele>1616.59</ele>
        <time>2017-09-03T10:47:26Z</time>
      </trkpt>
      <trkpt lat="45.86663" lon="6.52655">
        <ele>1616.59</ele>
        <time>2017-09-03T10:47:35Z</time>
      </trkpt>
      <trkpt lat="45.86654" lon="6.52642">
        <ele>1617.56</ele>
        <time>2017-09-03T10:47:46Z</time>
      </trkpt>
      <trkpt lat="45.86645" lon="6.52636">
        <ele>1619</ele>
        <time>2017-09-03T10:47:59Z</time>
      </trkpt>
      <trkpt lat="45.86641" lon="6.52634">
        <ele>1619</ele>
        <time>2017-09-03T10:48:01Z</time>
      </trkpt>
      <trkpt lat="45.86638" lon="6.52632">
        <ele>1619</ele>
        <time>2017-09-03T10:48:03Z</time>
      </trkpt>
      <trkpt lat="45.86635" lon="6.5263">
        <ele>1619.48</ele>
        <time>2017-09-03T10:48:05Z</time>
      </trkpt>
      <trkpt lat="45.86632" lon="6.52627">
        <ele>1619.96</ele>
        <time>2017-09-03T10:48:07Z</time>
      </trkpt>
      <trkpt lat="45.86626" lon="6.52625">
        <ele>1620.44</ele>
        <time>2017-09-03T10:48:10Z</time>
      </trkpt>
      <trkpt lat="45.86616" lon="6.52618">
        <ele>1621.4</ele>
        <time>2017-09-03T10:48:16Z</time>
      </trkpt>
      <trkpt lat="45.86607" lon="6.52609">
        <ele>1622.84</ele>
        <time>2017-09-03T10:48:22Z</time>
      </trkpt>
      <trkpt lat="45.86599" lon="6.52602">
        <ele>1624.28</ele>
        <time>2017-09-03T10:48:27Z</time>
      </trkpt>
      <trkpt lat="45.86594" lon="6.52594">
        <ele>1625.25</ele>
        <time>2017-09-03T10:48:31Z</time>
      </trkpt>
      <trkpt lat="45.8659" lon="6.52584">
        <ele>1626.21</ele>
        <time>2017-09-03T10:48:36Z</time>
      </trkpt>
      <trkpt lat="45.86588" lon="6.52576">
        <ele>1627.65</ele>
        <time>2017-09-03T10:48:40Z</time>
      </trkpt>
      <trkpt lat="45.86587" lon="6.52573">
        <ele>1627.65</ele>
        <time>2017-09-03T10:48:41Z</time>
      </trkpt>
      <trkpt lat="45.86587" lon="6.52571">
        <ele>1628.13</ele>
        <time>2017-09-03T10:48:42Z</time>
      </trkpt>
      <trkpt lat="45.86586" lon="6.52569">
        <ele>1628.13</ele>
        <time>2017-09-03T10:48:43Z</time>
      </trkpt>
      <trkpt lat="45.86586" lon="6.52566">
        <ele>1628.61</ele>
        <time>2017-09-03T10:48:44Z</time>
      </trkpt>
      <trkpt lat="45.86585" lon="6.52563">
        <ele>1628.61</ele>
        <time>2017-09-03T10:48:45Z</time>
      </trkpt>
      <trkpt lat="45.86585" lon="6.52552">
        <ele>1630.05</ele>
        <time>2017-09-03T10:48:50Z</time>
      </trkpt>
      <trkpt lat="45.8658" lon="6.52538">
        <ele>1631.49</ele>
        <time>2017-09-03T10:48:56Z</time>
      </trkpt>
      <trkpt lat="45.86579" lon="6.52523">
        <ele>1631.98</ele>
        <time>2017-09-03T10:49:02Z</time>
      </trkpt>
      <trkpt lat="45.86579" lon="6.5252">
        <ele>1632.46</ele>
        <time>2017-09-03T10:49:03Z</time>
      </trkpt>
      <trkpt lat="45.8658" lon="6.52518">
        <ele>1632.46</ele>
        <time>2017-09-03T10:49:04Z</time>
      </trkpt>
      <trkpt lat="45.86581" lon="6.52516">
        <ele>1632.94</ele>
        <time>2017-09-03T10:49:05Z</time>
      </trkpt>
      <trkpt lat="45.86581" lon="6.52513">
        <ele>1632.94</ele>
        <time>2017-09-03T10:49:06Z</time>
      </trkpt>
      <trkpt lat="45.86582" lon="6.5251">
        <ele>1632.94</ele>
        <time>2017-09-03T10:49:07Z</time>
      </trkpt>
      <trkpt lat="45.86582" lon="6.52508">
        <ele>1633.42</ele>
        <time>2017-09-03T10:49:08Z</time>
      </trkpt>
      <trkpt lat="45.86582" lon="6.52505">
        <ele>1633.42</ele>
        <time>2017-09-03T10:49:09Z</time>
      </trkpt>
      <trkpt lat="45.86583" lon="6.52502">
        <ele>1633.9</ele>
        <time>2017-09-03T10:49:10Z</time>
      </trkpt>
      <trkpt lat="45.86583" lon="6.525">
        <ele>1633.9</ele>
        <time>2017-09-03T10:49:11Z</time>
      </trkpt>
      <trkpt lat="45.86583" lon="6.52497">
        <ele>1633.9</ele>
        <time>2017-09-03T10:49:12Z</time>
      </trkpt>
      <trkpt lat="45.86574" lon="6.52471">
        <ele>1636.78</ele>
        <time>2017-09-03T10:49:23Z</time>
      </trkpt>
      <trkpt lat="45.86562" lon="6.52451">
        <ele>1638.22</ele>
        <time>2017-09-03T10:49:33Z</time>
      </trkpt>
      <trkpt lat="45.86545" lon="6.52439">
        <ele>1639.19</ele>
        <time>2017-09-03T10:49:44Z</time>
      </trkpt>
      <trkpt lat="45.86531" lon="6.52419">
        <ele>1640.63</ele>
        <time>2017-09-03T10:49:54Z</time>
      </trkpt>
      <trkpt lat="45.86522" lon="6.52408">
        <ele>1642.07</ele>
        <time>2017-09-03T10:50:01Z</time>
      </trkpt>
      <trkpt lat="45.86521" lon="6.52405">
        <ele>1642.55</ele>
        <time>2017-09-03T10:50:03Z</time>
      </trkpt>
      <trkpt lat="45.8652" lon="6.52404">
        <ele>1642.55</ele>
        <time>2017-09-03T10:50:04Z</time>
      </trkpt>
      <trkpt lat="45.8652" lon="6.52401">
        <ele>1642.55</ele>
        <time>2017-09-03T10:50:05Z</time>
      </trkpt>
      <trkpt lat="45.86517" lon="6.5239">
        <ele>1643.51</ele>
        <time>2017-09-03T10:50:09Z</time>
      </trkpt>
      <trkpt lat="45.86516" lon="6.52388">
        <ele>1643.99</ele>
        <time>2017-09-03T10:50:10Z</time>
      </trkpt>
      <trkpt lat="45.86516" lon="6.52385">
        <ele>1643.99</ele>
        <time>2017-09-03T10:50:11Z</time>
      </trkpt>
      <trkpt lat="45.86515" lon="6.52384">
        <ele>1643.99</ele>
        <time>2017-09-03T10:50:12Z</time>
      </trkpt>
      <trkpt lat="45.86515" lon="6.52382">
        <ele>1644.47</ele>
        <time>2017-09-03T10:50:13Z</time>
      </trkpt>
      <trkpt lat="45.86514" lon="6.5238">
        <ele>1644.95</ele>
        <time>2017-09-03T10:50:14Z</time>
      </trkpt>
      <trkpt lat="45.86509" lon="6.52362">
        <ele>1646.88</ele>
        <time>2017-09-03T10:50:22Z</time>
      </trkpt>
      <trkpt lat="45.86507" lon="6.52357">
        <ele>1647.36</ele>
        <time>2017-09-03T10:50:24Z</time>
      </trkpt>
      <trkpt lat="45.86498" lon="6.5233">
        <ele>1647.84</ele>
        <time>2017-09-03T10:50:35Z</time>
      </trkpt>
      <trkpt lat="45.86488" lon="6.52305">
        <ele>1647.84</ele>
        <time>2017-09-03T10:50:44Z</time>
      </trkpt>
      <trkpt lat="45.86481" lon="6.5229">
        <ele>1647.84</ele>
        <time>2017-09-03T10:50:51Z</time>
      </trkpt>
      <trkpt lat="45.86478" lon="6.5227">
        <ele>1647.84</ele>
        <time>2017-09-03T10:50:58Z</time>
      </trkpt>
      <trkpt lat="45.86475" lon="6.52257">
        <ele>1649.28</ele>
        <time>2017-09-03T10:51:03Z</time>
      </trkpt>
      <trkpt lat="45.86475" lon="6.5225">
        <ele>1650.24</ele>
        <time>2017-09-03T10:51:06Z</time>
      </trkpt>
      <trkpt lat="45.86472" lon="6.52232">
        <ele>1653.6</ele>
        <time>2017-09-03T10:51:16Z</time>
      </trkpt>
      <trkpt lat="45.8647" lon="6.52223">
        <ele>1654.57</ele>
        <time>2017-09-03T10:51:26Z</time>
      </trkpt>
      <trkpt lat="45.86469" lon="6.52222">
        <ele>1654.57</ele>
        <time>2017-09-03T10:51:27Z</time>
      </trkpt>
      <trkpt lat="45.86467" lon="6.52218">
        <ele>1654.57</ele>
        <time>2017-09-03T10:51:29Z</time>
      </trkpt>
      <trkpt lat="45.86466" lon="6.52216">
        <ele>1654.09</ele>
        <time>2017-09-03T10:51:30Z</time>
      </trkpt>
      <trkpt lat="45.86465" lon="6.52213">
        <ele>1654.09</ele>
        <time>2017-09-03T10:51:31Z</time>
      </trkpt>
      <trkpt lat="45.86464" lon="6.52211">
        <ele>1654.09</ele>
        <time>2017-09-03T10:51:32Z</time>
      </trkpt>
      <trkpt lat="45.86463" lon="6.5221">
        <ele>1654.09</ele>
        <time>2017-09-03T10:51:33Z</time>
      </trkpt>
      <trkpt lat="45.86461" lon="6.52209">
        <ele>1654.57</ele>
        <time>2017-09-03T10:51:34Z</time>
      </trkpt>
      <trkpt lat="45.86459" lon="6.52207">
        <ele>1654.57</ele>
        <time>2017-09-03T10:51:35Z</time>
      </trkpt>
      <trkpt lat="45.86458" lon="6.52205">
        <ele>1654.57</ele>
        <time>2017-09-03T10:51:36Z</time>
      </trkpt>
      <trkpt lat="45.86457" lon="6.52204">
        <ele>1654.57</ele>
        <time>2017-09-03T10:51:37Z</time>
      </trkpt>
      <trkpt lat="45.86443" lon="6.5219">
        <ele>1656.49</ele>
        <time>2017-09-03T10:51:46Z</time>
      </trkpt>
      <trkpt lat="45.86442" lon="6.52189">
        <ele>1656.97</ele>
        <time>2017-09-03T10:51:47Z</time>
      </trkpt>
      <trkpt lat="45.86442" lon="6.52187">
        <ele>1656.97</ele>
        <time>2017-09-03T10:51:48Z</time>
      </trkpt>
      <trkpt lat="45.8644" lon="6.52186">
        <ele>1657.45</ele>
        <time>2017-09-03T10:51:49Z</time>
      </trkpt>
      <trkpt lat="45.86438" lon="6.52185">
        <ele>1657.93</ele>
        <time>2017-09-03T10:51:50Z</time>
      </trkpt>
      <trkpt lat="45.86424" lon="6.52179">
        <ele>1659.85</ele>
        <time>2017-09-03T10:52:00Z</time>
      </trkpt>
      <trkpt lat="45.86406" lon="6.52179">
        <ele>1662.74</ele>
        <time>2017-09-03T10:52:11Z</time>
      </trkpt>
      <trkpt lat="45.86394" lon="6.52176">
        <ele>1665.14</ele>
        <time>2017-09-03T10:52:18Z</time>
      </trkpt>
      <trkpt lat="45.86387" lon="6.52171">
        <ele>1665.62</ele>
        <time>2017-09-03T10:52:24Z</time>
      </trkpt>
      <trkpt lat="45.86386" lon="6.5217">
        <ele>1665.62</ele>
        <time>2017-09-03T10:52:25Z</time>
      </trkpt>
      <trkpt lat="45.86385" lon="6.52168">
        <ele>1665.62</ele>
        <time>2017-09-03T10:52:26Z</time>
      </trkpt>
      <trkpt lat="45.86385" lon="6.52167">
        <ele>1665.62</ele>
        <time>2017-09-03T10:52:27Z</time>
      </trkpt>
      <trkpt lat="45.86382" lon="6.52163">
        <ele>1666.1</ele>
        <time>2017-09-03T10:52:31Z</time>
      </trkpt>
      <trkpt lat="45.86381" lon="6.52162">
        <ele>1666.1</ele>
        <time>2017-09-03T10:52:32Z</time>
      </trkpt>
      <trkpt lat="45.8638" lon="6.5216">
        <ele>1666.1</ele>
        <time>2017-09-03T10:52:33Z</time>
      </trkpt>
      <trkpt lat="45.86379" lon="6.52158">
        <ele>1666.1</ele>
        <time>2017-09-03T10:52:34Z</time>
      </trkpt>
      <trkpt lat="45.86378" lon="6.52155">
        <ele>1666.1</ele>
        <time>2017-09-03T10:52:35Z</time>
      </trkpt>
      <trkpt lat="45.86369" lon="6.52127">
        <ele>1667.54</ele>
        <time>2017-09-03T10:52:45Z</time>
      </trkpt>
      <trkpt lat="45.86363" lon="6.52111">
        <ele>1670.91</ele>
        <time>2017-09-03T10:52:54Z</time>
      </trkpt>
      <trkpt lat="45.86363" lon="6.52109">
        <ele>1670.91</ele>
        <time>2017-09-03T10:52:55Z</time>
      </trkpt>
      <trkpt lat="45.86363" lon="6.52107">
        <ele>1670.91</ele>
        <time>2017-09-03T10:52:56Z</time>
      </trkpt>
      <trkpt lat="45.86363" lon="6.52105">
        <ele>1670.91</ele>
        <time>2017-09-03T10:52:57Z</time>
      </trkpt>
      <trkpt lat="45.86357" lon="6.52084">
        <ele>1673.31</ele>
        <time>2017-09-03T10:53:08Z</time>
      </trkpt>
      <trkpt lat="45.86356" lon="6.52081">
        <ele>1673.79</ele>
        <time>2017-09-03T10:53:10Z</time>
      </trkpt>
      <trkpt lat="45.86355" lon="6.52079">
        <ele>1674.27</ele>
        <time>2017-09-03T10:53:11Z</time>
      </trkpt>
      <trkpt lat="45.86354" lon="6.52078">
        <ele>1675.23</ele>
        <time>2017-09-03T10:53:12Z</time>
      </trkpt>
      <trkpt lat="45.86353" lon="6.52077">
        <ele>1675.23</ele>
        <time>2017-09-03T10:53:13Z</time>
      </trkpt>
      <trkpt lat="45.86352" lon="6.52076">
        <ele>1676.2</ele>
        <time>2017-09-03T10:53:14Z</time>
      </trkpt>
      <trkpt lat="45.86333" lon="6.52068">
        <ele>1676.2</ele>
        <time>2017-09-03T10:53:26Z</time>
      </trkpt>
      <trkpt lat="45.8633" lon="6.52069">
        <ele>1676.2</ele>
        <time>2017-09-03T10:53:27Z</time>
      </trkpt>
      <trkpt lat="45.86328" lon="6.5207">
        <ele>1676.2</ele>
        <time>2017-09-03T10:53:28Z</time>
      </trkpt>
      <trkpt lat="45.86325" lon="6.5207">
        <ele>1676.2</ele>
        <time>2017-09-03T10:53:29Z</time>
      </trkpt>
      <trkpt lat="45.86306" lon="6.52066">
        <ele>1674.75</ele>
        <time>2017-09-03T10:53:38Z</time>
      </trkpt>
      <trkpt lat="45.86301" lon="6.52064">
        <ele>1674.75</ele>
        <time>2017-09-03T10:53:43Z</time>
      </trkpt>
      <trkpt lat="45.86301" lon="6.52063">
        <ele>1674.75</ele>
        <time>2017-09-03T10:53:44Z</time>
      </trkpt>
      <trkpt lat="45.863" lon="6.52061">
        <ele>1674.75</ele>
        <time>2017-09-03T10:53:45Z</time>
      </trkpt>
      <trkpt lat="45.86298" lon="6.52056">
        <ele>1674.27</ele>
        <time>2017-09-03T10:53:49Z</time>
      </trkpt>
      <trkpt lat="45.86295" lon="6.52053">
        <ele>1674.27</ele>
        <time>2017-09-03T10:53:54Z</time>
      </trkpt>
      <trkpt lat="45.86296" lon="6.52053">
        <ele>1673.79</ele>
        <time>2017-09-03T10:53:59Z</time>
      </trkpt>
      <trkpt lat="45.86296" lon="6.52053">
        <ele>1674.27</ele>
        <time>2017-09-03T10:54:04Z</time>
      </trkpt>
      <trkpt lat="45.86296" lon="6.52051">
        <ele>1673.79</ele>
        <time>2017-09-03T10:54:08Z</time>
      </trkpt>
      <trkpt lat="45.86299" lon="6.52057">
        <ele>1673.79</ele>
        <time>2017-09-03T10:54:16Z</time>
      </trkpt>
      <trkpt lat="45.86302" lon="6.52063">
        <ele>1674.27</ele>
        <time>2017-09-03T10:54:20Z</time>
      </trkpt>
      <trkpt lat="45.86303" lon="6.52066">
        <ele>1674.27</ele>
        <time>2017-09-03T10:54:23Z</time>
      </trkpt>
      <trkpt lat="45.86305" lon="6.52068">
        <ele>1674.75</ele>
        <time>2017-09-03T10:54:25Z</time>
      </trkpt>
      <trkpt lat="45.86306" lon="6.52072">
        <ele>1675.23</ele>
        <time>2017-09-03T10:54:29Z</time>
      </trkpt>
      <trkpt lat="45.86313" lon="6.52085">
        <ele>1678.12</ele>
        <time>2017-09-03T10:54:44Z</time>
      </trkpt>
      <trkpt lat="45.86316" lon="6.52091">
        <ele>1679.08</ele>
        <time>2017-09-03T10:54:49Z</time>
      </trkpt>
      <trkpt lat="45.86318" lon="6.52094">
        <ele>1680.04</ele>
        <time>2017-09-03T10:54:52Z</time>
      </trkpt>
      <trkpt lat="45.8632" lon="6.52096">
        <ele>1681</ele>
        <time>2017-09-03T10:54:54Z</time>
      </trkpt>
      <trkpt lat="45.86324" lon="6.52104">
        <ele>1682.44</ele>
        <time>2017-09-03T10:54:59Z</time>
      </trkpt>
      <trkpt lat="45.86334" lon="6.52114">
        <ele>1683.89</ele>
        <time>2017-09-03T10:55:06Z</time>
      </trkpt>
      <trkpt lat="45.8634" lon="6.52122">
        <ele>1684.37</ele>
        <time>2017-09-03T10:55:10Z</time>
      </trkpt>
      <trkpt lat="45.8634" lon="6.52123">
        <ele>1684.37</ele>
        <time>2017-09-03T10:55:11Z</time>
      </trkpt>
      <trkpt lat="45.86341" lon="6.52129">
        <ele>1684.85</ele>
        <time>2017-09-03T10:55:16Z</time>
      </trkpt>
      <trkpt lat="45.86342" lon="6.5213">
        <ele>1684.85</ele>
        <time>2017-09-03T10:55:17Z</time>
      </trkpt>
      <trkpt lat="45.86343" lon="6.52131">
        <ele>1684.85</ele>
        <time>2017-09-03T10:55:18Z</time>
      </trkpt>
      <trkpt lat="45.86343" lon="6.52132">
        <ele>1685.33</ele>
        <time>2017-09-03T10:55:19Z</time>
      </trkpt>
      <trkpt lat="45.86343" lon="6.52133">
        <ele>1685.33</ele>
        <time>2017-09-03T10:55:20Z</time>
      </trkpt>
      <trkpt lat="45.86349" lon="6.52144">
        <ele>1685.81</ele>
        <time>2017-09-03T10:55:37Z</time>
      </trkpt>
      <trkpt lat="45.8635" lon="6.52144">
        <ele>1685.81</ele>
        <time>2017-09-03T10:55:43Z</time>
      </trkpt>
      <trkpt lat="45.86351" lon="6.52151">
        <ele>1685.81</ele>
        <time>2017-09-03T10:55:51Z</time>
      </trkpt>
      <trkpt lat="45.86351" lon="6.52152">
        <ele>1686.29</ele>
        <time>2017-09-03T10:55:55Z</time>
      </trkpt>
      <trkpt lat="45.86351" lon="6.52153">
        <ele>1686.29</ele>
        <time>2017-09-03T10:55:59Z</time>
      </trkpt>
      <trkpt lat="45.86347" lon="6.52157">
        <ele>1687.25</ele>
        <time>2017-09-03T10:56:16Z</time>
      </trkpt>
      <trkpt lat="45.86345" lon="6.52159">
        <ele>1687.73</ele>
        <time>2017-09-03T10:56:19Z</time>
      </trkpt>
      <trkpt lat="45.86342" lon="6.52159">
        <ele>1688.69</ele>
        <time>2017-09-03T10:56:29Z</time>
      </trkpt>
      <trkpt lat="45.8634" lon="6.52157">
        <ele>1688.69</ele>
        <time>2017-09-03T10:56:35Z</time>
      </trkpt>
      <trkpt lat="45.86337" lon="6.52159">
        <ele>1690.62</ele>
        <time>2017-09-03T10:56:45Z</time>
      </trkpt>
      <trkpt lat="45.8633" lon="6.52165">
        <ele>1693.02</ele>
        <time>2017-09-03T10:56:59Z</time>
      </trkpt>
      <trkpt lat="45.86328" lon="6.52169">
        <ele>1695.42</ele>
        <time>2017-09-03T10:57:06Z</time>
      </trkpt>
      <trkpt lat="45.86326" lon="6.52174">
        <ele>1697.83</ele>
        <time>2017-09-03T10:57:14Z</time>
      </trkpt>
      <trkpt lat="45.86323" lon="6.52181">
        <ele>1699.27</ele>
        <time>2017-09-03T10:57:22Z</time>
      </trkpt>
      <trkpt lat="45.86321" lon="6.52183">
        <ele>1700.71</ele>
        <time>2017-09-03T10:57:26Z</time>
      </trkpt>
      <trkpt lat="45.86319" lon="6.52187">
        <ele>1701.67</ele>
        <time>2017-09-03T10:57:31Z</time>
      </trkpt>
      <trkpt lat="45.86315" lon="6.52191">
        <ele>1703.59</ele>
        <time>2017-09-03T10:57:42Z</time>
      </trkpt>
      <trkpt lat="45.86314" lon="6.52205">
        <ele>1706.48</ele>
        <time>2017-09-03T10:57:56Z</time>
      </trkpt>
      <trkpt lat="45.86313" lon="6.5221">
        <ele>1707.92</ele>
        <time>2017-09-03T10:58:05Z</time>
      </trkpt>
      <trkpt lat="45.86316" lon="6.52212">
        <ele>1707.92</ele>
        <time>2017-09-03T10:58:10Z</time>
      </trkpt>
      <trkpt lat="45.86318" lon="6.52215">
        <ele>1708.4</ele>
        <time>2017-09-03T10:58:13Z</time>
      </trkpt>
      <trkpt lat="45.86317" lon="6.52217">
        <ele>1708.4</ele>
        <time>2017-09-03T10:58:15Z</time>
      </trkpt>
      <trkpt lat="45.86317" lon="6.52223">
        <ele>1709.84</ele>
        <time>2017-09-03T10:58:21Z</time>
      </trkpt>
      <trkpt lat="45.86317" lon="6.52224">
        <ele>1709.84</ele>
        <time>2017-09-03T10:58:22Z</time>
      </trkpt>
      <trkpt lat="45.86314" lon="6.5223">
        <ele>1711.28</ele>
        <time>2017-09-03T10:58:31Z</time>
      </trkpt>
      <trkpt lat="45.86314" lon="6.52235">
        <ele>1713.21</ele>
        <time>2017-09-03T10:58:40Z</time>
      </trkpt>
      <trkpt lat="45.86313" lon="6.52236">
        <ele>1713.21</ele>
        <time>2017-09-03T10:58:43Z</time>
      </trkpt>
      <trkpt lat="45.86306" lon="6.52237">
        <ele>1715.61</ele>
        <time>2017-09-03T10:58:51Z</time>
      </trkpt>
      <trkpt lat="45.86304" lon="6.52238">
        <ele>1716.09</ele>
        <time>2017-09-03T10:58:55Z</time>
      </trkpt>
      <trkpt lat="45.86295" lon="6.52246">
        <ele>1718.97</ele>
        <time>2017-09-03T10:59:15Z</time>
      </trkpt>
      <trkpt lat="45.8629" lon="6.52249">
        <ele>1722.34</ele>
        <time>2017-09-03T10:59:26Z</time>
      </trkpt>
      <trkpt lat="45.86287" lon="6.52247">
        <ele>1723.78</ele>
        <time>2017-09-03T10:59:32Z</time>
      </trkpt>
      <trkpt lat="45.86275" lon="6.52246">
        <ele>1726.67</ele>
        <time>2017-09-03T10:59:47Z</time>
      </trkpt>
      <trkpt lat="45.86265" lon="6.52248">
        <ele>1729.55</ele>
        <time>2017-09-03T11:00:04Z</time>
      </trkpt>
      <trkpt lat="45.86263" lon="6.52252">
        <ele>1730.99</ele>
        <time>2017-09-03T11:00:12Z</time>
      </trkpt>
      <trkpt lat="45.86257" lon="6.52264">
        <ele>1734.36</ele>
        <time>2017-09-03T11:00:30Z</time>
      </trkpt>
      <trkpt lat="45.86254" lon="6.52268">
        <ele>1737.24</ele>
        <time>2017-09-03T11:00:44Z</time>
      </trkpt>
      <trkpt lat="45.86253" lon="6.5227">
        <ele>1738.2</ele>
        <time>2017-09-03T11:00:47Z</time>
      </trkpt>
      <trkpt lat="45.86249" lon="6.52269">
        <ele>1740.12</ele>
        <time>2017-09-03T11:00:53Z</time>
      </trkpt>
      <trkpt lat="45.86247" lon="6.52268">
        <ele>1740.6</ele>
        <time>2017-09-03T11:00:55Z</time>
      </trkpt>
      <trkpt lat="45.86242" lon="6.52272">
        <ele>1743.49</ele>
        <time>2017-09-03T11:01:06Z</time>
      </trkpt>
      <trkpt lat="45.86242" lon="6.52285">
        <ele>1746.85</ele>
        <time>2017-09-03T11:01:18Z</time>
      </trkpt>
      <trkpt lat="45.8624" lon="6.52295">
        <ele>1749.74</ele>
        <time>2017-09-03T11:01:33Z</time>
      </trkpt>
      <trkpt lat="45.86238" lon="6.52302">
        <ele>1750.22</ele>
        <time>2017-09-03T11:01:39Z</time>
      </trkpt>
      <trkpt lat="45.86237" lon="6.5232">
        <ele>1750.22</ele>
        <time>2017-09-03T11:01:52Z</time>
      </trkpt>
      <trkpt lat="45.86237" lon="6.52323">
        <ele>1750.7</ele>
        <time>2017-09-03T11:01:53Z</time>
      </trkpt>
      <trkpt lat="45.86238" lon="6.52327">
        <ele>1750.7</ele>
        <time>2017-09-03T11:01:54Z</time>
      </trkpt>
      <trkpt lat="45.86237" lon="6.52335">
        <ele>1751.18</ele>
        <time>2017-09-03T11:01:58Z</time>
      </trkpt>
      <trkpt lat="45.86238" lon="6.52338">
        <ele>1751.18</ele>
        <time>2017-09-03T11:01:59Z</time>
      </trkpt>
      <trkpt lat="45.86238" lon="6.52341">
        <ele>1751.18</ele>
        <time>2017-09-03T11:02:00Z</time>
      </trkpt>
      <trkpt lat="45.86237" lon="6.52353">
        <ele>1752.62</ele>
        <time>2017-09-03T11:02:11Z</time>
      </trkpt>
      <trkpt lat="45.86236" lon="6.52354">
        <ele>1752.62</ele>
        <time>2017-09-03T11:02:14Z</time>
      </trkpt>
      <trkpt lat="45.86236" lon="6.52356">
        <ele>1752.62</ele>
        <time>2017-09-03T11:02:15Z</time>
      </trkpt>
      <trkpt lat="45.86235" lon="6.52358">
        <ele>1753.1</ele>
        <time>2017-09-03T11:02:16Z</time>
      </trkpt>
      <trkpt lat="45.86235" lon="6.5236">
        <ele>1753.58</ele>
        <time>2017-09-03T11:02:17Z</time>
      </trkpt>
      <trkpt lat="45.86234" lon="6.52361">
        <ele>1753.58</ele>
        <time>2017-09-03T11:02:18Z</time>
      </trkpt>
      <trkpt lat="45.86233" lon="6.52361">
        <ele>1753.58</ele>
        <time>2017-09-03T11:02:19Z</time>
      </trkpt>
      <trkpt lat="45.86232" lon="6.52365">
        <ele>1754.06</ele>
        <time>2017-09-03T11:02:22Z</time>
      </trkpt>
      <trkpt lat="45.86236" lon="6.52374">
        <ele>1756.47</ele>
        <time>2017-09-03T11:02:39Z</time>
      </trkpt>
      <trkpt lat="45.86237" lon="6.52374">
        <ele>1756.47</ele>
        <time>2017-09-03T11:02:40Z</time>
      </trkpt>
      <trkpt lat="45.86238" lon="6.52375">
        <ele>1756.47</ele>
        <time>2017-09-03T11:02:41Z</time>
      </trkpt>
      <trkpt lat="45.86239" lon="6.52376">
        <ele>1756.47</ele>
        <time>2017-09-03T11:02:42Z</time>
      </trkpt>
      <trkpt lat="45.86241" lon="6.52377">
        <ele>1756.47</ele>
        <time>2017-09-03T11:02:44Z</time>
      </trkpt>
      <trkpt lat="45.86242" lon="6.52378">
        <ele>1756.47</ele>
        <time>2017-09-03T11:02:45Z</time>
      </trkpt>
      <trkpt lat="45.8625" lon="6.52377">
        <ele>1757.43</ele>
        <time>2017-09-03T11:02:52Z</time>
      </trkpt>
      <trkpt lat="45.86252" lon="6.52382">
        <ele>1758.39</ele>
        <time>2017-09-03T11:03:02Z</time>
      </trkpt>
      <trkpt lat="45.86247" lon="6.5238">
        <ele>1756.95</ele>
        <time>2017-09-03T11:03:11Z</time>
      </trkpt>
      <trkpt lat="45.86246" lon="6.52381">
        <ele>1756.95</ele>
        <time>2017-09-03T11:03:12Z</time>
      </trkpt>
      <trkpt lat="45.86245" lon="6.52381">
        <ele>1756.95</ele>
        <time>2017-09-03T11:03:13Z</time>
      </trkpt>
      <trkpt lat="45.86243" lon="6.52383">
        <ele>1756.95</ele>
        <time>2017-09-03T11:03:16Z</time>
      </trkpt>
      <trkpt lat="45.86242" lon="6.52385">
        <ele>1757.43</ele>
        <time>2017-09-03T11:03:19Z</time>
      </trkpt>
      <trkpt lat="45.86241" lon="6.52397">
        <ele>1758.87</ele>
        <time>2017-09-03T11:03:32Z</time>
      </trkpt>
      <trkpt lat="45.86235" lon="6.52424">
        <ele>1761.27</ele>
        <time>2017-09-03T11:03:58Z</time>
      </trkpt>
      <trkpt lat="45.8623" lon="6.52433">
        <ele>1762.71</ele>
        <time>2017-09-03T11:04:13Z</time>
      </trkpt>
      <trkpt lat="45.86221" lon="6.52439">
        <ele>1763.2</ele>
        <time>2017-09-03T11:04:31Z</time>
      </trkpt>
      <trkpt lat="45.86221" lon="6.52439">
        <ele>1763.2</ele>
        <time>2017-09-03T11:04:34Z</time>
      </trkpt>
      <trkpt lat="45.86221" lon="6.52439">
        <ele>1763.2</ele>
        <time>2017-09-03T11:04:38Z</time>
      </trkpt>
      <trkpt lat="45.8622" lon="6.52439">
        <ele>1763.2</ele>
        <time>2017-09-03T11:04:41Z</time>
      </trkpt>
      <trkpt lat="45.86222" lon="6.52442">
        <ele>1763.2</ele>
        <time>2017-09-03T11:04:50Z</time>
      </trkpt>
      <trkpt lat="45.86222" lon="6.52444">
        <ele>1763.2</ele>
        <time>2017-09-03T11:04:51Z</time>
      </trkpt>
      <trkpt lat="45.86226" lon="6.52458">
        <ele>1764.16</ele>
        <time>2017-09-03T11:04:57Z</time>
      </trkpt>
      <trkpt lat="45.86227" lon="6.52469">
        <ele>1764.64</ele>
        <time>2017-09-03T11:05:01Z</time>
      </trkpt>
      <trkpt lat="45.86227" lon="6.52473">
        <ele>1765.12</ele>
        <time>2017-09-03T11:05:03Z</time>
      </trkpt>
      <trkpt lat="45.86228" lon="6.52483">
        <ele>1767.52</ele>
        <time>2017-09-03T11:05:09Z</time>
      </trkpt>
      <trkpt lat="45.86228" lon="6.52485">
        <ele>1767.52</ele>
        <time>2017-09-03T11:05:10Z</time>
      </trkpt>
      <trkpt lat="45.86227" lon="6.5249">
        <ele>1768</ele>
        <time>2017-09-03T11:05:14Z</time>
      </trkpt>
      <trkpt lat="45.86224" lon="6.52494">
        <ele>1769.92</ele>
        <time>2017-09-03T11:05:19Z</time>
      </trkpt>
      <trkpt lat="45.86224" lon="6.52495">
        <ele>1769.92</ele>
        <time>2017-09-03T11:05:20Z</time>
      </trkpt>
      <trkpt lat="45.86224" lon="6.52498">
        <ele>1770.41</ele>
        <time>2017-09-03T11:05:24Z</time>
      </trkpt>
      <trkpt lat="45.86226" lon="6.52501">
        <ele>1772.33</ele>
        <time>2017-09-03T11:05:29Z</time>
      </trkpt>
      <trkpt lat="45.86228" lon="6.52508">
        <ele>1773.77</ele>
        <time>2017-09-03T11:05:36Z</time>
      </trkpt>
      <trkpt lat="45.86229" lon="6.52513">
        <ele>1774.73</ele>
        <time>2017-09-03T11:05:41Z</time>
      </trkpt>
      <trkpt lat="45.86239" lon="6.52533">
        <ele>1775.21</ele>
        <time>2017-09-03T11:06:08Z</time>
      </trkpt>
      <trkpt lat="45.8624" lon="6.52534">
        <ele>1774.25</ele>
        <time>2017-09-03T11:06:12Z</time>
      </trkpt>
      <trkpt lat="45.86242" lon="6.52538">
        <ele>1773.77</ele>
        <time>2017-09-03T11:06:16Z</time>
      </trkpt>
      <trkpt lat="45.86245" lon="6.5254">
        <ele>1772.81</ele>
        <time>2017-09-03T11:06:20Z</time>
      </trkpt>
      <trkpt lat="45.86246" lon="6.5254">
        <ele>1772.81</ele>
        <time>2017-09-03T11:06:21Z</time>
      </trkpt>
      <trkpt lat="45.86246" lon="6.52542">
        <ele>1772.81</ele>
        <time>2017-09-03T11:06:22Z</time>
      </trkpt>
      <trkpt lat="45.86247" lon="6.52543">
        <ele>1772.81</ele>
        <time>2017-09-03T11:06:23Z</time>
      </trkpt>
      <trkpt lat="45.86247" lon="6.52544">
        <ele>1772.81</ele>
        <time>2017-09-03T11:06:24Z</time>
      </trkpt>
      <trkpt lat="45.86248" lon="6.52546">
        <ele>1772.33</ele>
        <time>2017-09-03T11:06:25Z</time>
      </trkpt>
      <trkpt lat="45.86248" lon="6.52555">
        <ele>1772.33</ele>
        <time>2017-09-03T11:06:31Z</time>
      </trkpt>
      <trkpt lat="45.86247" lon="6.52561">
        <ele>1772.81</ele>
        <time>2017-09-03T11:06:35Z</time>
      </trkpt>
      <trkpt lat="45.86246" lon="6.52564">
        <ele>1773.29</ele>
        <time>2017-09-03T11:06:37Z</time>
      </trkpt>
      <trkpt lat="45.86245" lon="6.52566">
        <ele>1773.77</ele>
        <time>2017-09-03T11:06:40Z</time>
      </trkpt>
      <trkpt lat="45.86245" lon="6.52568">
        <ele>1773.77</ele>
        <time>2017-09-03T11:06:41Z</time>
      </trkpt>
      <trkpt lat="45.86246" lon="6.52575">
        <ele>1775.21</ele>
        <time>2017-09-03T11:06:48Z</time>
      </trkpt>
      <trkpt lat="45.86247" lon="6.52576">
        <ele>1775.21</ele>
        <time>2017-09-03T11:06:49Z</time>
      </trkpt>
      <trkpt lat="45.86247" lon="6.52578">
        <ele>1775.21</ele>
        <time>2017-09-03T11:06:50Z</time>
      </trkpt>
      <trkpt lat="45.86245" lon="6.52582">
        <ele>1775.21</ele>
        <time>2017-09-03T11:06:54Z</time>
      </trkpt>
      <trkpt lat="45.86245" lon="6.52583">
        <ele>1775.69</ele>
        <time>2017-09-03T11:06:55Z</time>
      </trkpt>
      <trkpt lat="45.86245" lon="6.52586">
        <ele>1776.17</ele>
        <time>2017-09-03T11:06:59Z</time>
      </trkpt>
      <trkpt lat="45.86244" lon="6.5259">
        <ele>1776.17</ele>
        <time>2017-09-03T11:07:02Z</time>
      </trkpt>
      <trkpt lat="45.86243" lon="6.52591">
        <ele>1776.17</ele>
        <time>2017-09-03T11:07:03Z</time>
      </trkpt>
      <trkpt lat="45.86242" lon="6.52592">
        <ele>1776.17</ele>
        <time>2017-09-03T11:07:04Z</time>
      </trkpt>
      <trkpt lat="45.86241" lon="6.52592">
        <ele>1776.65</ele>
        <time>2017-09-03T11:07:05Z</time>
      </trkpt>
      <trkpt lat="45.8624" lon="6.52593">
        <ele>1776.65</ele>
        <time>2017-09-03T11:07:06Z</time>
      </trkpt>
      <trkpt lat="45.8624" lon="6.52593">
        <ele>1777.13</ele>
        <time>2017-09-03T11:07:07Z</time>
      </trkpt>
      <trkpt lat="45.86233" lon="6.52594">
        <ele>1779.54</ele>
        <time>2017-09-03T11:07:16Z</time>
      </trkpt>
      <trkpt lat="45.8623" lon="6.52598">
        <ele>1780.5</ele>
        <time>2017-09-03T11:07:20Z</time>
      </trkpt>
      <trkpt lat="45.86229" lon="6.52601">
        <ele>1781.46</ele>
        <time>2017-09-03T11:07:24Z</time>
      </trkpt>
      <trkpt lat="45.86226" lon="6.52607">
        <ele>1783.86</ele>
        <time>2017-09-03T11:07:31Z</time>
      </trkpt>
      <trkpt lat="45.86224" lon="6.52614">
        <ele>1785.79</ele>
        <time>2017-09-03T11:07:39Z</time>
      </trkpt>
      <trkpt lat="45.86221" lon="6.52619">
        <ele>1787.71</ele>
        <time>2017-09-03T11:07:46Z</time>
      </trkpt>
      <trkpt lat="45.86217" lon="6.52625">
        <ele>1789.63</ele>
        <time>2017-09-03T11:07:54Z</time>
      </trkpt>
      <trkpt lat="45.86214" lon="6.52631">
        <ele>1793</ele>
        <time>2017-09-03T11:08:06Z</time>
      </trkpt>
      <trkpt lat="45.8621" lon="6.52636">
        <ele>1795.88</ele>
        <time>2017-09-03T11:08:16Z</time>
      </trkpt>
      <trkpt lat="45.86207" lon="6.52645">
        <ele>1797.8</ele>
        <time>2017-09-03T11:08:25Z</time>
      </trkpt>
      <trkpt lat="45.86207" lon="6.52647">
        <ele>1797.8</ele>
        <time>2017-09-03T11:08:26Z</time>
      </trkpt>
      <trkpt lat="45.86207" lon="6.52648">
        <ele>1797.8</ele>
        <time>2017-09-03T11:08:27Z</time>
      </trkpt>
      <trkpt lat="45.86202" lon="6.52663">
        <ele>1799.73</ele>
        <time>2017-09-03T11:08:41Z</time>
      </trkpt>
      <trkpt lat="45.86201" lon="6.52666">
        <ele>1799.73</ele>
        <time>2017-09-03T11:08:42Z</time>
      </trkpt>
      <trkpt lat="45.86201" lon="6.52668">
        <ele>1799.73</ele>
        <time>2017-09-03T11:08:43Z</time>
      </trkpt>
      <trkpt lat="45.86201" lon="6.52671">
        <ele>1799.73</ele>
        <time>2017-09-03T11:08:44Z</time>
      </trkpt>
      <trkpt lat="45.86201" lon="6.52673">
        <ele>1799.73</ele>
        <time>2017-09-03T11:08:45Z</time>
      </trkpt>
      <trkpt lat="45.862" lon="6.52675">
        <ele>1799.73</ele>
        <time>2017-09-03T11:08:46Z</time>
      </trkpt>
      <trkpt lat="45.862" lon="6.52677">
        <ele>1799.73</ele>
        <time>2017-09-03T11:08:47Z</time>
      </trkpt>
      <trkpt lat="45.862" lon="6.52679">
        <ele>1800.21</ele>
        <time>2017-09-03T11:08:49Z</time>
      </trkpt>
      <trkpt lat="45.86199" lon="6.5268">
        <ele>1799.73</ele>
        <time>2017-09-03T11:08:50Z</time>
      </trkpt>
      <trkpt lat="45.86198" lon="6.52681">
        <ele>1799.73</ele>
        <time>2017-09-03T11:08:51Z</time>
      </trkpt>
      <trkpt lat="45.86196" lon="6.52684">
        <ele>1800.69</ele>
        <time>2017-09-03T11:08:57Z</time>
      </trkpt>
      <trkpt lat="45.86194" lon="6.52688">
        <ele>1802.13</ele>
        <time>2017-09-03T11:09:02Z</time>
      </trkpt>
      <trkpt lat="45.86185" lon="6.52694">
        <ele>1803.57</ele>
        <time>2017-09-03T11:09:14Z</time>
      </trkpt>
      <trkpt lat="45.86184" lon="6.52695">
        <ele>1803.57</ele>
        <time>2017-09-03T11:09:15Z</time>
      </trkpt>
      <trkpt lat="45.86183" lon="6.52696">
        <ele>1803.57</ele>
        <time>2017-09-03T11:09:16Z</time>
      </trkpt>
      <trkpt lat="45.86183" lon="6.52697">
        <ele>1803.57</ele>
        <time>2017-09-03T11:09:17Z</time>
      </trkpt>
      <trkpt lat="45.86182" lon="6.52698">
        <ele>1803.57</ele>
        <time>2017-09-03T11:09:18Z</time>
      </trkpt>
      <trkpt lat="45.86181" lon="6.52699">
        <ele>1803.57</ele>
        <time>2017-09-03T11:09:19Z</time>
      </trkpt>
      <trkpt lat="45.8618" lon="6.527">
        <ele>1803.09</ele>
        <time>2017-09-03T11:09:20Z</time>
      </trkpt>
      <trkpt lat="45.86179" lon="6.527">
        <ele>1803.09</ele>
        <time>2017-09-03T11:09:21Z</time>
      </trkpt>
      <trkpt lat="45.86178" lon="6.52701">
        <ele>1803.09</ele>
        <time>2017-09-03T11:09:22Z</time>
      </trkpt>
      <trkpt lat="45.86177" lon="6.52701">
        <ele>1802.61</ele>
        <time>2017-09-03T11:09:23Z</time>
      </trkpt>
      <trkpt lat="45.86177" lon="6.52702">
        <ele>1802.61</ele>
        <time>2017-09-03T11:09:24Z</time>
      </trkpt>
      <trkpt lat="45.86176" lon="6.52702">
        <ele>1802.61</ele>
        <time>2017-09-03T11:09:25Z</time>
      </trkpt>
      <trkpt lat="45.86175" lon="6.52703">
        <ele>1802.61</ele>
        <time>2017-09-03T11:09:26Z</time>
      </trkpt>
      <trkpt lat="45.86173" lon="6.52703">
        <ele>1802.61</ele>
        <time>2017-09-03T11:09:28Z</time>
      </trkpt>
      <trkpt lat="45.86171" lon="6.52703">
        <ele>1802.13</ele>
        <time>2017-09-03T11:09:32Z</time>
      </trkpt>
      <trkpt lat="45.8617" lon="6.52704">
        <ele>1802.13</ele>
        <time>2017-09-03T11:09:37Z</time>
      </trkpt>
      <trkpt lat="45.8617" lon="6.52704">
        <ele>1801.65</ele>
        <time>2017-09-03T11:09:41Z</time>
      </trkpt>
      <trkpt lat="45.8617" lon="6.52705">
        <ele>1802.13</ele>
        <time>2017-09-03T11:09:43Z</time>
      </trkpt>
      <trkpt lat="45.86171" lon="6.52708">
        <ele>1801.65</ele>
        <time>2017-09-03T11:09:45Z</time>
      </trkpt>
      <trkpt lat="45.86171" lon="6.5271">
        <ele>1801.65</ele>
        <time>2017-09-03T11:09:46Z</time>
      </trkpt>
      <trkpt lat="45.86168" lon="6.52727">
        <ele>1799.73</ele>
        <time>2017-09-03T11:09:52Z</time>
      </trkpt>
      <trkpt lat="45.86166" lon="6.52751">
        <ele>1800.21</ele>
        <time>2017-09-03T11:10:03Z</time>
      </trkpt>
      <trkpt lat="45.86171" lon="6.5278">
        <ele>1800.21</ele>
        <time>2017-09-03T11:10:23Z</time>
      </trkpt>
      <trkpt lat="45.86173" lon="6.52788">
        <ele>1800.21</ele>
        <time>2017-09-03T11:10:26Z</time>
      </trkpt>
      <trkpt lat="45.86175" lon="6.52793">
        <ele>1800.21</ele>
        <time>2017-09-03T11:10:28Z</time>
      </trkpt>
      <trkpt lat="45.86177" lon="6.52801">
        <ele>1801.17</ele>
        <time>2017-09-03T11:10:31Z</time>
      </trkpt>
      <trkpt lat="45.86179" lon="6.52806">
        <ele>1801.17</ele>
        <time>2017-09-03T11:10:34Z</time>
      </trkpt>
      <trkpt lat="45.86182" lon="6.52807">
        <ele>1802.13</ele>
        <time>2017-09-03T11:10:40Z</time>
      </trkpt>
      <trkpt lat="45.86184" lon="6.52812">
        <ele>1801.65</ele>
        <time>2017-09-03T11:10:44Z</time>
      </trkpt>
      <trkpt lat="45.86184" lon="6.52814">
        <ele>1801.17</ele>
        <time>2017-09-03T11:10:45Z</time>
      </trkpt>
      <trkpt lat="45.86184" lon="6.52816">
        <ele>1801.17</ele>
        <time>2017-09-03T11:10:47Z</time>
      </trkpt>
      <trkpt lat="45.86185" lon="6.52823">
        <ele>1802.13</ele>
        <time>2017-09-03T11:10:54Z</time>
      </trkpt>
      <trkpt lat="45.86182" lon="6.52832">
        <ele>1803.57</ele>
        <time>2017-09-03T11:11:01Z</time>
      </trkpt>
      <trkpt lat="45.86179" lon="6.5284">
        <ele>1806.45</ele>
        <time>2017-09-03T11:11:13Z</time>
      </trkpt>
      <trkpt lat="45.86181" lon="6.52848">
        <ele>1808.38</ele>
        <time>2017-09-03T11:11:22Z</time>
      </trkpt>
      <trkpt lat="45.86182" lon="6.52862">
        <ele>1811.74</ele>
        <time>2017-09-03T11:11:41Z</time>
      </trkpt>
      <trkpt lat="45.86178" lon="6.52865">
        <ele>1813.66</ele>
        <time>2017-09-03T11:11:49Z</time>
      </trkpt>
      <trkpt lat="45.86173" lon="6.52871">
        <ele>1817.03</ele>
        <time>2017-09-03T11:12:02Z</time>
      </trkpt>
      <trkpt lat="45.86171" lon="6.52877">
        <ele>1819.91</ele>
        <time>2017-09-03T11:12:14Z</time>
      </trkpt>
      <trkpt lat="45.86173" lon="6.52884">
        <ele>1821.84</ele>
        <time>2017-09-03T11:12:22Z</time>
      </trkpt>
      <trkpt lat="45.86173" lon="6.52885">
        <ele>1821.84</ele>
        <time>2017-09-03T11:12:23Z</time>
      </trkpt>
      <trkpt lat="45.86175" lon="6.52886">
        <ele>1822.32</ele>
        <time>2017-09-03T11:12:24Z</time>
      </trkpt>
      <trkpt lat="45.86175" lon="6.52887">
        <ele>1822.32</ele>
        <time>2017-09-03T11:12:25Z</time>
      </trkpt>
      <trkpt lat="45.86176" lon="6.52889">
        <ele>1822.32</ele>
        <time>2017-09-03T11:12:26Z</time>
      </trkpt>
      <trkpt lat="45.86177" lon="6.5289">
        <ele>1821.84</ele>
        <time>2017-09-03T11:12:27Z</time>
      </trkpt>
      <trkpt lat="45.86187" lon="6.52908">
        <ele>1824.24</ele>
        <time>2017-09-03T11:12:37Z</time>
      </trkpt>
      <trkpt lat="45.86201" lon="6.52925">
        <ele>1825.68</ele>
        <time>2017-09-03T11:12:47Z</time>
      </trkpt>
      <trkpt lat="45.86215" lon="6.52945">
        <ele>1827.12</ele>
        <time>2017-09-03T11:12:58Z</time>
      </trkpt>
      <trkpt lat="45.86226" lon="6.52967">
        <ele>1829.05</ele>
        <time>2017-09-03T11:13:09Z</time>
      </trkpt>
      <trkpt lat="45.86233" lon="6.52977">
        <ele>1829.05</ele>
        <time>2017-09-03T11:13:21Z</time>
      </trkpt>
      <trkpt lat="45.86247" lon="6.52997">
        <ele>1830.01</ele>
        <time>2017-09-03T11:13:32Z</time>
      </trkpt>
      <trkpt lat="45.86258" lon="6.53017">
        <ele>1830.97</ele>
        <time>2017-09-03T11:13:49Z</time>
      </trkpt>
      <trkpt lat="45.86258" lon="6.53018">
        <ele>1830.49</ele>
        <time>2017-09-03T11:13:57Z</time>
      </trkpt>
      <trkpt lat="45.86258" lon="6.53018">
        <ele>1830.49</ele>
        <time>2017-09-03T11:14:02Z</time>
      </trkpt>
      <trkpt lat="45.86255" lon="6.53017">
        <ele>1830.49</ele>
        <time>2017-09-03T11:14:06Z</time>
      </trkpt>
      <trkpt lat="45.86254" lon="6.53017">
        <ele>1830.49</ele>
        <time>2017-09-03T11:14:07Z</time>
      </trkpt>
      <trkpt lat="45.86253" lon="6.53016">
        <ele>1830.49</ele>
        <time>2017-09-03T11:14:08Z</time>
      </trkpt>
      <trkpt lat="45.86252" lon="6.53016">
        <ele>1830.97</ele>
        <time>2017-09-03T11:14:09Z</time>
      </trkpt>
      <trkpt lat="45.86252" lon="6.53015">
        <ele>1830.97</ele>
        <time>2017-09-03T11:14:10Z</time>
      </trkpt>
      <trkpt lat="45.86251" lon="6.53015">
        <ele>1830.97</ele>
        <time>2017-09-03T11:14:11Z</time>
      </trkpt>
      <trkpt lat="45.8625" lon="6.53014">
        <ele>1830.97</ele>
        <time>2017-09-03T11:14:12Z</time>
      </trkpt>
      <trkpt lat="45.86248" lon="6.53013">
        <ele>1830.97</ele>
        <time>2017-09-03T11:14:14Z</time>
      </trkpt>
      <trkpt lat="45.86246" lon="6.53012">
        <ele>1831.45</ele>
        <time>2017-09-03T11:14:16Z</time>
      </trkpt>
      <trkpt lat="45.86243" lon="6.5301">
        <ele>1831.93</ele>
        <time>2017-09-03T11:14:18Z</time>
      </trkpt>
      <trkpt lat="45.86227" lon="6.53003">
        <ele>1834.33</ele>
        <time>2017-09-03T11:14:28Z</time>
      </trkpt>
      <trkpt lat="45.86226" lon="6.53002">
        <ele>1834.81</ele>
        <time>2017-09-03T11:14:29Z</time>
      </trkpt>
      <trkpt lat="45.86219" lon="6.52997">
        <ele>1836.26</ele>
        <time>2017-09-03T11:14:34Z</time>
      </trkpt>
      <trkpt lat="45.86213" lon="6.52995">
        <ele>1837.7</ele>
        <time>2017-09-03T11:14:39Z</time>
      </trkpt>
      <trkpt lat="45.86207" lon="6.52991">
        <ele>1839.62</ele>
        <time>2017-09-03T11:14:44Z</time>
      </trkpt>
      <trkpt lat="45.86205" lon="6.5299">
        <ele>1840.1</ele>
        <time>2017-09-03T11:14:45Z</time>
      </trkpt>
      <trkpt lat="45.86204" lon="6.5299">
        <ele>1840.58</ele>
        <time>2017-09-03T11:14:46Z</time>
      </trkpt>
      <trkpt lat="45.86204" lon="6.52989">
        <ele>1840.58</ele>
        <time>2017-09-03T11:14:47Z</time>
      </trkpt>
      <trkpt lat="45.86202" lon="6.52989">
        <ele>1841.06</ele>
        <time>2017-09-03T11:14:48Z</time>
      </trkpt>
      <trkpt lat="45.86201" lon="6.52987">
        <ele>1841.54</ele>
        <time>2017-09-03T11:14:49Z</time>
      </trkpt>
      <trkpt lat="45.862" lon="6.52987">
        <ele>1842.02</ele>
        <time>2017-09-03T11:14:50Z</time>
      </trkpt>
      <trkpt lat="45.86199" lon="6.52987">
        <ele>1842.5</ele>
        <time>2017-09-03T11:14:51Z</time>
      </trkpt>
      <trkpt lat="45.86198" lon="6.52986">
        <ele>1842.98</ele>
        <time>2017-09-03T11:14:52Z</time>
      </trkpt>
      <trkpt lat="45.86196" lon="6.52986">
        <ele>1842.98</ele>
        <time>2017-09-03T11:14:53Z</time>
      </trkpt>
      <trkpt lat="45.86195" lon="6.52985">
        <ele>1843.47</ele>
        <time>2017-09-03T11:14:54Z</time>
      </trkpt>
      <trkpt lat="45.86192" lon="6.52984">
        <ele>1844.43</ele>
        <time>2017-09-03T11:14:56Z</time>
      </trkpt>
      <trkpt lat="45.86186" lon="6.5298">
        <ele>1845.87</ele>
        <time>2017-09-03T11:15:01Z</time>
      </trkpt>
      <trkpt lat="45.86179" lon="6.52975">
        <ele>1847.79</ele>
        <time>2017-09-03T11:15:07Z</time>
      </trkpt>
      <trkpt lat="45.86168" lon="6.5297">
        <ele>1851.16</ele>
        <time>2017-09-03T11:15:16Z</time>
      </trkpt>
      <trkpt lat="45.86153" lon="6.52966">
        <ele>1854.04</ele>
        <time>2017-09-03T11:15:27Z</time>
      </trkpt>
      <trkpt lat="45.86141" lon="6.52968">
        <ele>1857.4</ele>
        <time>2017-09-03T11:15:38Z</time>
      </trkpt>
      <trkpt lat="45.86129" lon="6.52968">
        <ele>1859.81</ele>
        <time>2017-09-03T11:15:50Z</time>
      </trkpt>
      <trkpt lat="45.86117" lon="6.52964">
        <ele>1862.69</ele>
        <time>2017-09-03T11:16:04Z</time>
      </trkpt>
      <trkpt lat="45.86106" lon="6.52962">
        <ele>1864.61</ele>
        <time>2017-09-03T11:16:16Z</time>
      </trkpt>
      <trkpt lat="45.86095" lon="6.52958">
        <ele>1867.98</ele>
        <time>2017-09-03T11:16:28Z</time>
      </trkpt>
      <trkpt lat="45.86086" lon="6.52957">
        <ele>1869.9</ele>
        <time>2017-09-03T11:16:37Z</time>
      </trkpt>
      <trkpt lat="45.86078" lon="6.52953">
        <ele>1872.3</ele>
        <time>2017-09-03T11:16:47Z</time>
      </trkpt>
      <trkpt lat="45.86068" lon="6.5295">
        <ele>1875.19</ele>
        <time>2017-09-03T11:17:00Z</time>
      </trkpt>
      <trkpt lat="45.86056" lon="6.52949">
        <ele>1878.55</ele>
        <time>2017-09-03T11:17:15Z</time>
      </trkpt>
      <trkpt lat="45.86054" lon="6.52956">
        <ele>1880.96</ele>
        <time>2017-09-03T11:17:25Z</time>
      </trkpt>
      <trkpt lat="45.86053" lon="6.5296">
        <ele>1881.44</ele>
        <time>2017-09-03T11:17:28Z</time>
      </trkpt>
      <trkpt lat="45.86053" lon="6.52961">
        <ele>1881.44</ele>
        <time>2017-09-03T11:17:29Z</time>
      </trkpt>
      <trkpt lat="45.86052" lon="6.52962">
        <ele>1881.92</ele>
        <time>2017-09-03T11:17:30Z</time>
      </trkpt>
      <trkpt lat="45.86052" lon="6.52968">
        <ele>1882.88</ele>
        <time>2017-09-03T11:17:35Z</time>
      </trkpt>
      <trkpt lat="45.86049" lon="6.52981">
        <ele>1885.76</ele>
        <time>2017-09-03T11:17:48Z</time>
      </trkpt>
      <trkpt lat="45.86049" lon="6.52984">
        <ele>1886.72</ele>
        <time>2017-09-03T11:17:50Z</time>
      </trkpt>
      <trkpt lat="45.8605" lon="6.52985">
        <ele>1886.72</ele>
        <time>2017-09-03T11:17:51Z</time>
      </trkpt>
      <trkpt lat="45.8605" lon="6.52987">
        <ele>1886.72</ele>
        <time>2017-09-03T11:17:52Z</time>
      </trkpt>
      <trkpt lat="45.86051" lon="6.52989">
        <ele>1886.72</ele>
        <time>2017-09-03T11:17:53Z</time>
      </trkpt>
      <trkpt lat="45.86052" lon="6.52991">
        <ele>1886.72</ele>
        <time>2017-09-03T11:17:54Z</time>
      </trkpt>
      <trkpt lat="45.86053" lon="6.52994">
        <ele>1886.72</ele>
        <time>2017-09-03T11:17:55Z</time>
      </trkpt>
      <trkpt lat="45.86066" lon="6.53015">
        <ele>1888.17</ele>
        <time>2017-09-03T11:18:04Z</time>
      </trkpt>
      <trkpt lat="45.86078" lon="6.53034">
        <ele>1890.09</ele>
        <time>2017-09-03T11:18:13Z</time>
      </trkpt>
      <trkpt lat="45.86091" lon="6.53054">
        <ele>1892.49</ele>
        <time>2017-09-03T11:18:23Z</time>
      </trkpt>
      <trkpt lat="45.86099" lon="6.53068">
        <ele>1894.42</ele>
        <time>2017-09-03T11:18:30Z</time>
      </trkpt>
      <trkpt lat="45.86108" lon="6.53083">
        <ele>1897.3</ele>
        <time>2017-09-03T11:18:39Z</time>
      </trkpt>
      <trkpt lat="45.86114" lon="6.53095">
        <ele>1899.7</ele>
        <time>2017-09-03T11:18:46Z</time>
      </trkpt>
      <trkpt lat="45.86122" lon="6.53111">
        <ele>1903.07</ele>
        <time>2017-09-03T11:18:56Z</time>
      </trkpt>
      <trkpt lat="45.86128" lon="6.53128">
        <ele>1906.43</ele>
        <time>2017-09-03T11:19:06Z</time>
      </trkpt>
      <trkpt lat="45.86135" lon="6.53144">
        <ele>1909.32</ele>
        <time>2017-09-03T11:19:16Z</time>
      </trkpt>
      <trkpt lat="45.86145" lon="6.53165">
        <ele>1912.2</ele>
        <time>2017-09-03T11:19:29Z</time>
      </trkpt>
      <trkpt lat="45.86146" lon="6.53169">
        <ele>1913.16</ele>
        <time>2017-09-03T11:19:31Z</time>
      </trkpt>
      <trkpt lat="45.86146" lon="6.53171">
        <ele>1913.16</ele>
        <time>2017-09-03T11:19:32Z</time>
      </trkpt>
      <trkpt lat="45.86156" lon="6.53195">
        <ele>1915.56</ele>
        <time>2017-09-03T11:19:44Z</time>
      </trkpt>
      <trkpt lat="45.86162" lon="6.53223">
        <ele>1917.49</ele>
        <time>2017-09-03T11:19:55Z</time>
      </trkpt>
      <trkpt lat="45.86166" lon="6.53249">
        <ele>1919.41</ele>
        <time>2017-09-03T11:20:05Z</time>
      </trkpt>
      <trkpt lat="45.86175" lon="6.53276">
        <ele>1920.37</ele>
        <time>2017-09-03T11:20:15Z</time>
      </trkpt>
      <trkpt lat="45.86181" lon="6.5329">
        <ele>1920.85</ele>
        <time>2017-09-03T11:20:23Z</time>
      </trkpt>
      <trkpt lat="45.86182" lon="6.53291">
        <ele>1920.85</ele>
        <time>2017-09-03T11:20:24Z</time>
      </trkpt>
      <trkpt lat="45.86183" lon="6.53292">
        <ele>1920.37</ele>
        <time>2017-09-03T11:20:25Z</time>
      </trkpt>
      <trkpt lat="45.86185" lon="6.53294">
        <ele>1920.37</ele>
        <time>2017-09-03T11:20:29Z</time>
      </trkpt>
      <trkpt lat="45.86186" lon="6.53294">
        <ele>1920.37</ele>
        <time>2017-09-03T11:20:32Z</time>
      </trkpt>
      <trkpt lat="45.86185" lon="6.53294">
        <ele>1919.89</ele>
        <time>2017-09-03T11:20:36Z</time>
      </trkpt>
      <trkpt lat="45.86184" lon="6.53294">
        <ele>1919.89</ele>
        <time>2017-09-03T11:20:40Z</time>
      </trkpt>
      <trkpt lat="45.86184" lon="6.53295">
        <ele>1919.89</ele>
        <time>2017-09-03T11:20:44Z</time>
      </trkpt>
      <trkpt lat="45.86184" lon="6.53295">
        <ele>1919.89</ele>
        <time>2017-09-03T11:20:47Z</time>
      </trkpt>
      <trkpt lat="45.86184" lon="6.53294">
        <ele>1919.89</ele>
        <time>2017-09-03T11:20:48Z</time>
      </trkpt>
      <trkpt lat="45.86184" lon="6.53294">
        <ele>1919.89</ele>
        <time>2017-09-03T11:20:52Z</time>
      </trkpt>
      <trkpt lat="45.86184" lon="6.53294">
        <ele>1919.89</ele>
        <time>2017-09-03T11:20:56Z</time>
      </trkpt>
      <trkpt lat="45.86183" lon="6.53294">
        <ele>1919.89</ele>
        <time>2017-09-03T11:21:00Z</time>
      </trkpt>
      <trkpt lat="45.86183" lon="6.53294">
        <ele>1919.89</ele>
        <time>2017-09-03T11:21:04Z</time>
      </trkpt>
      <trkpt lat="45.86184" lon="6.53294">
        <ele>1919.89</ele>
        <time>2017-09-03T11:21:10Z</time>
      </trkpt>
      <trkpt lat="45.86181" lon="6.53294">
        <ele>1919.89</ele>
        <time>2017-09-03T11:21:16Z</time>
      </trkpt>
      <trkpt lat="45.8618" lon="6.53294">
        <ele>1919.89</ele>
        <time>2017-09-03T11:21:17Z</time>
      </trkpt>
      <trkpt lat="45.86179" lon="6.53294">
        <ele>1919.89</ele>
        <time>2017-09-03T11:21:18Z</time>
      </trkpt>
      <trkpt lat="45.86178" lon="6.53294">
        <ele>1919.89</ele>
        <time>2017-09-03T11:21:19Z</time>
      </trkpt>
      <trkpt lat="45.86178" lon="6.53295">
        <ele>1919.41</ele>
        <time>2017-09-03T11:21:20Z</time>
      </trkpt>
      <trkpt lat="45.86176" lon="6.53301">
        <ele>1918.45</ele>
        <time>2017-09-03T11:21:26Z</time>
      </trkpt>
      <trkpt lat="45.86176" lon="6.53302">
        <ele>1918.45</ele>
        <time>2017-09-03T11:21:27Z</time>
      </trkpt>
      <trkpt lat="45.86177" lon="6.53305">
        <ele>1917.97</ele>
        <time>2017-09-03T11:21:30Z</time>
      </trkpt>
      <trkpt lat="45.86177" lon="6.5331">
        <ele>1917.01</ele>
        <time>2017-09-03T11:21:33Z</time>
      </trkpt>
      <trkpt lat="45.86177" lon="6.53319">
        <ele>1915.56</ele>
        <time>2017-09-03T11:21:38Z</time>
      </trkpt>
      <trkpt lat="45.86179" lon="6.53329">
        <ele>1912.68</ele>
        <time>2017-09-03T11:21:42Z</time>
      </trkpt>
      <trkpt lat="45.8618" lon="6.53345">
        <ele>1909.32</ele>
        <time>2017-09-03T11:21:48Z</time>
      </trkpt>
      <trkpt lat="45.86181" lon="6.53359">
        <ele>1905.47</ele>
        <time>2017-09-03T11:21:53Z</time>
      </trkpt>
      <trkpt lat="45.86185" lon="6.53373">
        <ele>1902.11</ele>
        <time>2017-09-03T11:21:58Z</time>
      </trkpt>
      <trkpt lat="45.86186" lon="6.53382">
        <ele>1900.18</ele>
        <time>2017-09-03T11:22:01Z</time>
      </trkpt>
      <trkpt lat="45.86185" lon="6.53403">
        <ele>1896.82</ele>
        <time>2017-09-03T11:22:07Z</time>
      </trkpt>
      <trkpt lat="45.86182" lon="6.53419">
        <ele>1893.45</ele>
        <time>2017-09-03T11:22:11Z</time>
      </trkpt>
      <trkpt lat="45.86181" lon="6.53439">
        <ele>1890.09</ele>
        <time>2017-09-03T11:22:15Z</time>
      </trkpt>
      <trkpt lat="45.86181" lon="6.53464">
        <ele>1887.69</ele>
        <time>2017-09-03T11:22:20Z</time>
      </trkpt>
      <trkpt lat="45.86184" lon="6.53493">
        <ele>1886.24</ele>
        <time>2017-09-03T11:22:26Z</time>
      </trkpt>
      <trkpt lat="45.8619" lon="6.53522">
        <ele>1885.28</ele>
        <time>2017-09-03T11:22:33Z</time>
      </trkpt>
      <trkpt lat="45.86198" lon="6.53549">
        <ele>1882.4</ele>
        <time>2017-09-03T11:22:40Z</time>
      </trkpt>
      <trkpt lat="45.86203" lon="6.53568">
        <ele>1879.03</ele>
        <time>2017-09-03T11:22:45Z</time>
      </trkpt>
      <trkpt lat="45.86205" lon="6.53588">
        <ele>1876.15</ele>
        <time>2017-09-03T11:22:50Z</time>
      </trkpt>
      <trkpt lat="45.86208" lon="6.53612">
        <ele>1872.79</ele>
        <time>2017-09-03T11:22:56Z</time>
      </trkpt>
      <trkpt lat="45.86214" lon="6.53634">
        <ele>1869.42</ele>
        <time>2017-09-03T11:23:01Z</time>
      </trkpt>
      <trkpt lat="45.86218" lon="6.53652">
        <ele>1868.46</ele>
        <time>2017-09-03T11:23:05Z</time>
      </trkpt>
      <trkpt lat="45.86225" lon="6.53681">
        <ele>1866.06</ele>
        <time>2017-09-03T11:23:12Z</time>
      </trkpt>
      <trkpt lat="45.8623" lon="6.53709">
        <ele>1864.61</ele>
        <time>2017-09-03T11:23:19Z</time>
      </trkpt>
      <trkpt lat="45.86233" lon="6.5374">
        <ele>1863.17</ele>
        <time>2017-09-03T11:23:27Z</time>
      </trkpt>
      <trkpt lat="45.86228" lon="6.53769">
        <ele>1862.21</ele>
        <time>2017-09-03T11:23:34Z</time>
      </trkpt>
      <trkpt lat="45.86226" lon="6.53798">
        <ele>1860.77</ele>
        <time>2017-09-03T11:23:41Z</time>
      </trkpt>
      <trkpt lat="45.86223" lon="6.53829">
        <ele>1858.37</ele>
        <time>2017-09-03T11:23:49Z</time>
      </trkpt>
      <trkpt lat="45.86217" lon="6.53858">
        <ele>1856.44</ele>
        <time>2017-09-03T11:23:56Z</time>
      </trkpt>
      <trkpt lat="45.86212" lon="6.53885">
        <ele>1854.52</ele>
        <time>2017-09-03T11:24:03Z</time>
      </trkpt>
      <trkpt lat="45.8621" lon="6.53915">
        <ele>1852.6</ele>
        <time>2017-09-03T11:24:11Z</time>
      </trkpt>
      <trkpt lat="45.86214" lon="6.53943">
        <ele>1849.71</ele>
        <time>2017-09-03T11:24:18Z</time>
      </trkpt>
      <trkpt lat="45.86224" lon="6.53968">
        <ele>1847.79</ele>
        <time>2017-09-03T11:24:25Z</time>
      </trkpt>
      <trkpt lat="45.86233" lon="6.53992">
        <ele>1844.91</ele>
        <time>2017-09-03T11:24:32Z</time>
      </trkpt>
      <trkpt lat="45.86237" lon="6.54017">
        <ele>1842.98</ele>
        <time>2017-09-03T11:24:38Z</time>
      </trkpt>
      <trkpt lat="45.86241" lon="6.54048">
        <ele>1840.58</ele>
        <time>2017-09-03T11:24:45Z</time>
      </trkpt>
      <trkpt lat="45.86249" lon="6.5408">
        <ele>1838.18</ele>
        <time>2017-09-03T11:24:52Z</time>
      </trkpt>
      <trkpt lat="45.86258" lon="6.54108">
        <ele>1835.77</ele>
        <time>2017-09-03T11:24:59Z</time>
      </trkpt>
      <trkpt lat="45.86268" lon="6.54136">
        <ele>1833.85</ele>
        <time>2017-09-03T11:25:06Z</time>
      </trkpt>
      <trkpt lat="45.86277" lon="6.5416">
        <ele>1831.45</ele>
        <time>2017-09-03T11:25:13Z</time>
      </trkpt>
      <trkpt lat="45.86279" lon="6.54168">
        <ele>1830.49</ele>
        <time>2017-09-03T11:25:15Z</time>
      </trkpt>
      <trkpt lat="45.8629" lon="6.54191">
        <ele>1827.6</ele>
        <time>2017-09-03T11:25:22Z</time>
      </trkpt>
      <trkpt lat="45.8629" lon="6.5422">
        <ele>1824.24</ele>
        <time>2017-09-03T11:25:29Z</time>
      </trkpt>
      <trkpt lat="45.86289" lon="6.54232">
        <ele>1822.8</ele>
        <time>2017-09-03T11:25:32Z</time>
      </trkpt>
      <trkpt lat="45.86287" lon="6.54262">
        <ele>1821.35</ele>
        <time>2017-09-03T11:25:39Z</time>
      </trkpt>
      <trkpt lat="45.86287" lon="6.54293">
        <ele>1819.91</ele>
        <time>2017-09-03T11:25:46Z</time>
      </trkpt>
      <trkpt lat="45.86287" lon="6.54322">
        <ele>1817.51</ele>
        <time>2017-09-03T11:25:53Z</time>
      </trkpt>
      <trkpt lat="45.86288" lon="6.54346">
        <ele>1813.66</ele>
        <time>2017-09-03T11:25:59Z</time>
      </trkpt>
      <trkpt lat="45.86288" lon="6.54357">
        <ele>1812.22</ele>
        <time>2017-09-03T11:26:02Z</time>
      </trkpt>
      <trkpt lat="45.86288" lon="6.54376">
        <ele>1810.3</ele>
        <time>2017-09-03T11:26:06Z</time>
      </trkpt>
      <trkpt lat="45.86286" lon="6.54406">
        <ele>1807.9</ele>
        <time>2017-09-03T11:26:13Z</time>
      </trkpt>
      <trkpt lat="45.86288" lon="6.54436">
        <ele>1806.94</ele>
        <time>2017-09-03T11:26:20Z</time>
      </trkpt>
      <trkpt lat="45.86289" lon="6.54465">
        <ele>1806.94</ele>
        <time>2017-09-03T11:26:27Z</time>
      </trkpt>
      <trkpt lat="45.8629" lon="6.54494">
        <ele>1807.42</ele>
        <time>2017-09-03T11:26:34Z</time>
      </trkpt>
      <trkpt lat="45.86292" lon="6.54518">
        <ele>1807.42</ele>
        <time>2017-09-03T11:26:40Z</time>
      </trkpt>
      <trkpt lat="45.86294" lon="6.54546">
        <ele>1808.38</ele>
        <time>2017-09-03T11:26:48Z</time>
      </trkpt>
      <trkpt lat="45.86293" lon="6.54566">
        <ele>1810.3</ele>
        <time>2017-09-03T11:26:54Z</time>
      </trkpt>
      <trkpt lat="45.86291" lon="6.54584">
        <ele>1812.22</ele>
        <time>2017-09-03T11:27:00Z</time>
      </trkpt>
      <trkpt lat="45.86286" lon="6.54611">
        <ele>1814.15</ele>
        <time>2017-09-03T11:27:09Z</time>
      </trkpt>
      <trkpt lat="45.86283" lon="6.54632">
        <ele>1816.07</ele>
        <time>2017-09-03T11:27:17Z</time>
      </trkpt>
      <trkpt lat="45.86281" lon="6.54659">
        <ele>1817.99</ele>
        <time>2017-09-03T11:27:26Z</time>
      </trkpt>
      <trkpt lat="45.86277" lon="6.54687">
        <ele>1818.95</ele>
        <time>2017-09-03T11:27:35Z</time>
      </trkpt>
      <trkpt lat="45.86273" lon="6.54714">
        <ele>1819.43</ele>
        <time>2017-09-03T11:27:43Z</time>
      </trkpt>
      <trkpt lat="45.86274" lon="6.54742">
        <ele>1819.43</ele>
        <time>2017-09-03T11:27:51Z</time>
      </trkpt>
      <trkpt lat="45.86274" lon="6.5477">
        <ele>1819.43</ele>
        <time>2017-09-03T11:27:59Z</time>
      </trkpt>
      <trkpt lat="45.86271" lon="6.54798">
        <ele>1819.43</ele>
        <time>2017-09-03T11:28:07Z</time>
      </trkpt>
      <trkpt lat="45.86267" lon="6.54826">
        <ele>1819.91</ele>
        <time>2017-09-03T11:28:15Z</time>
      </trkpt>
      <trkpt lat="45.86264" lon="6.54855">
        <ele>1819.91</ele>
        <time>2017-09-03T11:28:23Z</time>
      </trkpt>
      <trkpt lat="45.86262" lon="6.54883">
        <ele>1820.39</ele>
        <time>2017-09-03T11:28:31Z</time>
      </trkpt>
      <trkpt lat="45.8626" lon="6.54911">
        <ele>1821.35</ele>
        <time>2017-09-03T11:28:39Z</time>
      </trkpt>
      <trkpt lat="45.86256" lon="6.54938">
        <ele>1822.8</ele>
        <time>2017-09-03T11:28:48Z</time>
      </trkpt>
      <trkpt lat="45.86253" lon="6.54961">
        <ele>1826.16</ele>
        <time>2017-09-03T11:28:57Z</time>
      </trkpt>
      <trkpt lat="45.8625" lon="6.54986">
        <ele>1828.56</ele>
        <time>2017-09-03T11:29:08Z</time>
      </trkpt>
      <trkpt lat="45.86249" lon="6.54992">
        <ele>1830.01</ele>
        <time>2017-09-03T11:29:11Z</time>
      </trkpt>
      <trkpt lat="45.86241" lon="6.55018">
        <ele>1829.05</ele>
        <time>2017-09-03T11:29:21Z</time>
      </trkpt>
      <trkpt lat="45.8623" lon="6.55042">
        <ele>1826.64</ele>
        <time>2017-09-03T11:29:30Z</time>
      </trkpt>
      <trkpt lat="45.8622" lon="6.55064">
        <ele>1824.24</ele>
        <time>2017-09-03T11:29:38Z</time>
      </trkpt>
      <trkpt lat="45.86212" lon="6.55079">
        <ele>1822.32</ele>
        <time>2017-09-03T11:29:44Z</time>
      </trkpt>
      <trkpt lat="45.86207" lon="6.55093">
        <ele>1819.91</ele>
        <time>2017-09-03T11:29:49Z</time>
      </trkpt>
      <trkpt lat="45.86198" lon="6.55109">
        <ele>1817.03</ele>
        <time>2017-09-03T11:29:55Z</time>
      </trkpt>
      <trkpt lat="45.86184" lon="6.55122">
        <ele>1814.15</ele>
        <time>2017-09-03T11:30:01Z</time>
      </trkpt>
      <trkpt lat="45.86171" lon="6.55137">
        <ele>1811.74</ele>
        <time>2017-09-03T11:30:07Z</time>
      </trkpt>
      <trkpt lat="45.86155" lon="6.55158">
        <ele>1809.82</ele>
        <time>2017-09-03T11:30:14Z</time>
      </trkpt>
      <trkpt lat="45.86142" lon="6.55179">
        <ele>1808.38</ele>
        <time>2017-09-03T11:30:21Z</time>
      </trkpt>
      <trkpt lat="45.86129" lon="6.55204">
        <ele>1807.42</ele>
        <time>2017-09-03T11:30:29Z</time>
      </trkpt>
      <trkpt lat="45.86121" lon="6.5523">
        <ele>1805.97</ele>
        <time>2017-09-03T11:30:36Z</time>
      </trkpt>
      <trkpt lat="45.86113" lon="6.55255">
        <ele>1803.57</ele>
        <time>2017-09-03T11:30:43Z</time>
      </trkpt>
      <trkpt lat="45.86105" lon="6.5528">
        <ele>1800.69</ele>
        <time>2017-09-03T11:30:50Z</time>
      </trkpt>
      <trkpt lat="45.86101" lon="6.55287">
        <ele>1800.21</ele>
        <time>2017-09-03T11:30:52Z</time>
      </trkpt>
      <trkpt lat="45.86093" lon="6.55315">
        <ele>1797.32</ele>
        <time>2017-09-03T11:30:59Z</time>
      </trkpt>
      <trkpt lat="45.86087" lon="6.55341">
        <ele>1794.44</ele>
        <time>2017-09-03T11:31:06Z</time>
      </trkpt>
      <trkpt lat="45.86083" lon="6.55371">
        <ele>1791.07</ele>
        <time>2017-09-03T11:31:13Z</time>
      </trkpt>
      <trkpt lat="45.86082" lon="6.55402">
        <ele>1788.67</ele>
        <time>2017-09-03T11:31:20Z</time>
      </trkpt>
      <trkpt lat="45.8608" lon="6.55434">
        <ele>1786.27</ele>
        <time>2017-09-03T11:31:27Z</time>
      </trkpt>
      <trkpt lat="45.86084" lon="6.5546">
        <ele>1784.82</ele>
        <time>2017-09-03T11:31:34Z</time>
      </trkpt>
      <trkpt lat="45.86091" lon="6.55488">
        <ele>1782.42</ele>
        <time>2017-09-03T11:31:41Z</time>
      </trkpt>
      <trkpt lat="45.86097" lon="6.55517">
        <ele>1779.54</ele>
        <time>2017-09-03T11:31:48Z</time>
      </trkpt>
      <trkpt lat="45.86101" lon="6.55536">
        <ele>1777.61</ele>
        <time>2017-09-03T11:31:53Z</time>
      </trkpt>
      <trkpt lat="45.86104" lon="6.55566">
        <ele>1774.73</ele>
        <time>2017-09-03T11:32:00Z</time>
      </trkpt>
      <trkpt lat="45.86105" lon="6.5559">
        <ele>1771.37</ele>
        <time>2017-09-03T11:32:06Z</time>
      </trkpt>
      <trkpt lat="45.86114" lon="6.55616">
        <ele>1768</ele>
        <time>2017-09-03T11:32:13Z</time>
      </trkpt>
      <trkpt lat="45.86129" lon="6.55634">
        <ele>1765.6</ele>
        <time>2017-09-03T11:32:20Z</time>
      </trkpt>
      <trkpt lat="45.86144" lon="6.55653">
        <ele>1762.71</ele>
        <time>2017-09-03T11:32:27Z</time>
      </trkpt>
      <trkpt lat="45.86158" lon="6.55671">
        <ele>1759.83</ele>
        <time>2017-09-03T11:32:33Z</time>
      </trkpt>
      <trkpt lat="45.8616" lon="6.55673">
        <ele>1759.35</ele>
        <time>2017-09-03T11:32:34Z</time>
      </trkpt>
      <trkpt lat="45.86175" lon="6.55694">
        <ele>1755.99</ele>
        <time>2017-09-03T11:32:41Z</time>
      </trkpt>
      <trkpt lat="45.86184" lon="6.55721">
        <ele>1754.06</ele>
        <time>2017-09-03T11:32:48Z</time>
      </trkpt>
      <trkpt lat="45.8619" lon="6.55749">
        <ele>1751.18</ele>
        <time>2017-09-03T11:32:55Z</time>
      </trkpt>
      <trkpt lat="45.86191" lon="6.55753">
        <ele>1750.7</ele>
        <time>2017-09-03T11:32:56Z</time>
      </trkpt>
      <trkpt lat="45.86198" lon="6.55782">
        <ele>1748.78</ele>
        <time>2017-09-03T11:33:03Z</time>
      </trkpt>
      <trkpt lat="45.86206" lon="6.55809">
        <ele>1746.85</ele>
        <time>2017-09-03T11:33:10Z</time>
      </trkpt>
      <trkpt lat="45.86212" lon="6.55837">
        <ele>1744.45</ele>
        <time>2017-09-03T11:33:17Z</time>
      </trkpt>
      <trkpt lat="45.8622" lon="6.55865">
        <ele>1741.57</ele>
        <time>2017-09-03T11:33:24Z</time>
      </trkpt>
      <trkpt lat="45.86226" lon="6.55893">
        <ele>1738.68</ele>
        <time>2017-09-03T11:33:31Z</time>
      </trkpt>
      <trkpt lat="45.8623" lon="6.55923">
        <ele>1735.32</ele>
        <time>2017-09-03T11:33:38Z</time>
      </trkpt>
      <trkpt lat="45.86241" lon="6.55947">
        <ele>1733.39</ele>
        <time>2017-09-03T11:33:45Z</time>
      </trkpt>
      <trkpt lat="45.86254" lon="6.55967">
        <ele>1732.43</ele>
        <time>2017-09-03T11:33:52Z</time>
      </trkpt>
      <trkpt lat="45.86268" lon="6.55985">
        <ele>1730.99</ele>
        <time>2017-09-03T11:33:59Z</time>
      </trkpt>
      <trkpt lat="45.8628" lon="6.56007">
        <ele>1730.51</ele>
        <time>2017-09-03T11:34:06Z</time>
      </trkpt>
      <trkpt lat="45.86282" lon="6.56036">
        <ele>1730.99</ele>
        <time>2017-09-03T11:34:13Z</time>
      </trkpt>
      <trkpt lat="45.86285" lon="6.56055">
        <ele>1731.47</ele>
        <time>2017-09-03T11:34:18Z</time>
      </trkpt>
      <trkpt lat="45.86293" lon="6.56077">
        <ele>1732.43</ele>
        <time>2017-09-03T11:34:24Z</time>
      </trkpt>
      <trkpt lat="45.86298" lon="6.56091">
        <ele>1732.43</ele>
        <time>2017-09-03T11:34:28Z</time>
      </trkpt>
      <trkpt lat="45.863" lon="6.56101">
        <ele>1732.91</ele>
        <time>2017-09-03T11:34:31Z</time>
      </trkpt>
      <trkpt lat="45.86302" lon="6.56105">
        <ele>1733.39</ele>
        <time>2017-09-03T11:34:32Z</time>
      </trkpt>
      <trkpt lat="45.86303" lon="6.56108">
        <ele>1733.39</ele>
        <time>2017-09-03T11:34:33Z</time>
      </trkpt>
      <trkpt lat="45.86304" lon="6.56111">
        <ele>1733.39</ele>
        <time>2017-09-03T11:34:34Z</time>
      </trkpt>
      <trkpt lat="45.86305" lon="6.56115">
        <ele>1733.39</ele>
        <time>2017-09-03T11:34:35Z</time>
      </trkpt>
      <trkpt lat="45.86306" lon="6.56118">
        <ele>1733.88</ele>
        <time>2017-09-03T11:34:36Z</time>
      </trkpt>
      <trkpt lat="45.86314" lon="6.56146">
        <ele>1735.32</ele>
        <time>2017-09-03T11:34:44Z</time>
      </trkpt>
      <trkpt lat="45.86319" lon="6.56175">
        <ele>1736.76</ele>
        <time>2017-09-03T11:34:52Z</time>
      </trkpt>
      <trkpt lat="45.86319" lon="6.56204">
        <ele>1738.2</ele>
        <time>2017-09-03T11:35:00Z</time>
      </trkpt>
      <trkpt lat="45.86321" lon="6.56234">
        <ele>1739.16</ele>
        <time>2017-09-03T11:35:08Z</time>
      </trkpt>
      <trkpt lat="45.86327" lon="6.56265">
        <ele>1740.12</ele>
        <time>2017-09-03T11:35:17Z</time>
      </trkpt>
      <trkpt lat="45.86333" lon="6.5629">
        <ele>1741.08</ele>
        <time>2017-09-03T11:35:25Z</time>
      </trkpt>
      <trkpt lat="45.86336" lon="6.56317">
        <ele>1742.53</ele>
        <time>2017-09-03T11:35:33Z</time>
      </trkpt>
      <trkpt lat="45.86335" lon="6.56345">
        <ele>1744.93</ele>
        <time>2017-09-03T11:35:42Z</time>
      </trkpt>
      <trkpt lat="45.86335" lon="6.56371">
        <ele>1747.33</ele>
        <time>2017-09-03T11:35:51Z</time>
      </trkpt>
      <trkpt lat="45.86335" lon="6.56397">
        <ele>1750.22</ele>
        <time>2017-09-03T11:36:01Z</time>
      </trkpt>
      <trkpt lat="45.86339" lon="6.56413">
        <ele>1753.1</ele>
        <time>2017-09-03T11:36:11Z</time>
      </trkpt>
      <trkpt lat="45.86342" lon="6.56431">
        <ele>1755.99</ele>
        <time>2017-09-03T11:36:23Z</time>
      </trkpt>
      <trkpt lat="45.86346" lon="6.56452">
        <ele>1759.35</ele>
        <time>2017-09-03T11:36:35Z</time>
      </trkpt>
      <trkpt lat="45.86352" lon="6.56473">
        <ele>1762.23</ele>
        <time>2017-09-03T11:36:48Z</time>
      </trkpt>
      <trkpt lat="45.86355" lon="6.56489">
        <ele>1765.12</ele>
        <time>2017-09-03T11:36:59Z</time>
      </trkpt>
      <trkpt lat="45.86355" lon="6.5649">
        <ele>1765.6</ele>
        <time>2017-09-03T11:37:00Z</time>
      </trkpt>
      <trkpt lat="45.86355" lon="6.56492">
        <ele>1765.6</ele>
        <time>2017-09-03T11:37:01Z</time>
      </trkpt>
      <trkpt lat="45.86355" lon="6.56493">
        <ele>1765.6</ele>
        <time>2017-09-03T11:37:02Z</time>
      </trkpt>
      <trkpt lat="45.86355" lon="6.56495">
        <ele>1766.08</ele>
        <time>2017-09-03T11:37:03Z</time>
      </trkpt>
      <trkpt lat="45.86355" lon="6.56496">
        <ele>1766.08</ele>
        <time>2017-09-03T11:37:04Z</time>
      </trkpt>
      <trkpt lat="45.86356" lon="6.56498">
        <ele>1766.56</ele>
        <time>2017-09-03T11:37:05Z</time>
      </trkpt>
      <trkpt lat="45.86356" lon="6.565">
        <ele>1767.04</ele>
        <time>2017-09-03T11:37:06Z</time>
      </trkpt>
      <trkpt lat="45.86357" lon="6.56508">
        <ele>1768</ele>
        <time>2017-09-03T11:37:11Z</time>
      </trkpt>
      <trkpt lat="45.86356" lon="6.56509">
        <ele>1768.48</ele>
        <time>2017-09-03T11:37:12Z</time>
      </trkpt>
      <trkpt lat="45.86357" lon="6.56511">
        <ele>1768.96</ele>
        <time>2017-09-03T11:37:13Z</time>
      </trkpt>
      <trkpt lat="45.86356" lon="6.56514">
        <ele>1768.96</ele>
        <time>2017-09-03T11:37:15Z</time>
      </trkpt>
      <trkpt lat="45.86356" lon="6.56515">
        <ele>1769.44</ele>
        <time>2017-09-03T11:37:16Z</time>
      </trkpt>
      <trkpt lat="45.86355" lon="6.56516">
        <ele>1769.92</ele>
        <time>2017-09-03T11:37:17Z</time>
      </trkpt>
      <trkpt lat="45.86355" lon="6.56518">
        <ele>1770.41</ele>
        <time>2017-09-03T11:37:18Z</time>
      </trkpt>
      <trkpt lat="45.86354" lon="6.56519">
        <ele>1770.41</ele>
        <time>2017-09-03T11:37:19Z</time>
      </trkpt>
      <trkpt lat="45.86354" lon="6.56521">
        <ele>1770.89</ele>
        <time>2017-09-03T11:37:20Z</time>
      </trkpt>
      <trkpt lat="45.86354" lon="6.56522">
        <ele>1770.89</ele>
        <time>2017-09-03T11:37:21Z</time>
      </trkpt>
      <trkpt lat="45.86353" lon="6.56524">
        <ele>1771.37</ele>
        <time>2017-09-03T11:37:22Z</time>
      </trkpt>
      <trkpt lat="45.8635" lon="6.56538">
        <ele>1774.73</ele>
        <time>2017-09-03T11:37:33Z</time>
      </trkpt>
      <trkpt lat="45.86342" lon="6.5655">
        <ele>1777.61</ele>
        <time>2017-09-03T11:37:44Z</time>
      </trkpt>
      <trkpt lat="45.86337" lon="6.5656">
        <ele>1780.98</ele>
        <time>2017-09-03T11:37:55Z</time>
      </trkpt>
      <trkpt lat="45.86328" lon="6.56571">
        <ele>1783.86</ele>
        <time>2017-09-03T11:38:07Z</time>
      </trkpt>
      <trkpt lat="45.86322" lon="6.56581">
        <ele>1786.75</ele>
        <time>2017-09-03T11:38:18Z</time>
      </trkpt>
      <trkpt lat="45.86316" lon="6.56592">
        <ele>1790.11</ele>
        <time>2017-09-03T11:38:29Z</time>
      </trkpt>
      <trkpt lat="45.86313" lon="6.56599">
        <ele>1792.03</ele>
        <time>2017-09-03T11:38:36Z</time>
      </trkpt>
      <trkpt lat="45.86308" lon="6.5661">
        <ele>1795.4</ele>
        <time>2017-09-03T11:38:48Z</time>
      </trkpt>
      <trkpt lat="45.86304" lon="6.56623">
        <ele>1798.28</ele>
        <time>2017-09-03T11:39:01Z</time>
      </trkpt>
      <trkpt lat="45.86301" lon="6.56636">
        <ele>1801.17</ele>
        <time>2017-09-03T11:39:13Z</time>
      </trkpt>
      <trkpt lat="45.86297" lon="6.5665">
        <ele>1804.53</ele>
        <time>2017-09-03T11:39:25Z</time>
      </trkpt>
      <trkpt lat="45.86293" lon="6.56661">
        <ele>1807.42</ele>
        <time>2017-09-03T11:39:36Z</time>
      </trkpt>
      <trkpt lat="45.86291" lon="6.56665">
        <ele>1808.38</ele>
        <time>2017-09-03T11:39:40Z</time>
      </trkpt>
      <trkpt lat="45.86291" lon="6.56668">
        <ele>1809.34</ele>
        <time>2017-09-03T11:39:43Z</time>
      </trkpt>
      <trkpt lat="45.86291" lon="6.5667">
        <ele>1809.34</ele>
        <time>2017-09-03T11:39:44Z</time>
      </trkpt>
      <trkpt lat="45.86285" lon="6.56686">
        <ele>1812.7</ele>
        <time>2017-09-03T11:39:58Z</time>
      </trkpt>
      <trkpt lat="45.8628" lon="6.56698">
        <ele>1815.59</ele>
        <time>2017-09-03T11:40:12Z</time>
      </trkpt>
      <trkpt lat="45.86276" lon="6.56708">
        <ele>1817.99</ele>
        <time>2017-09-03T11:40:23Z</time>
      </trkpt>
      <trkpt lat="45.86275" lon="6.5671">
        <ele>1818.47</ele>
        <time>2017-09-03T11:40:25Z</time>
      </trkpt>
      <trkpt lat="45.86272" lon="6.56721">
        <ele>1821.84</ele>
        <time>2017-09-03T11:40:36Z</time>
      </trkpt>
      <trkpt lat="45.86268" lon="6.56734">
        <ele>1824.72</ele>
        <time>2017-09-03T11:40:48Z</time>
      </trkpt>
      <trkpt lat="45.8626" lon="6.56748">
        <ele>1828.08</ele>
        <time>2017-09-03T11:40:59Z</time>
      </trkpt>
      <trkpt lat="45.86253" lon="6.5676">
        <ele>1831.45</ele>
        <time>2017-09-03T11:41:11Z</time>
      </trkpt>
      <trkpt lat="45.86246" lon="6.56772">
        <ele>1834.33</ele>
        <time>2017-09-03T11:41:23Z</time>
      </trkpt>
      <trkpt lat="45.86241" lon="6.56783">
        <ele>1837.22</ele>
        <time>2017-09-03T11:41:33Z</time>
      </trkpt>
      <trkpt lat="45.86246" lon="6.56798">
        <ele>1839.14</ele>
        <time>2017-09-03T11:41:45Z</time>
      </trkpt>
      <trkpt lat="45.86247" lon="6.56799">
        <ele>1839.14</ele>
        <time>2017-09-03T11:41:46Z</time>
      </trkpt>
      <trkpt lat="45.86258" lon="6.56807">
        <ele>1839.14</ele>
        <time>2017-09-03T11:41:55Z</time>
      </trkpt>
      <trkpt lat="45.86259" lon="6.56808">
        <ele>1839.14</ele>
        <time>2017-09-03T11:41:56Z</time>
      </trkpt>
      <trkpt lat="45.8626" lon="6.56808">
        <ele>1839.14</ele>
        <time>2017-09-03T11:41:57Z</time>
      </trkpt>
      <trkpt lat="45.86261" lon="6.56807">
        <ele>1839.62</ele>
        <time>2017-09-03T11:42:04Z</time>
      </trkpt>
      <trkpt lat="45.86264" lon="6.56805">
        <ele>1839.62</ele>
        <time>2017-09-03T11:42:09Z</time>
      </trkpt>
      <trkpt lat="45.86269" lon="6.56807">
        <ele>1840.1</ele>
        <time>2017-09-03T11:42:14Z</time>
      </trkpt>
      <trkpt lat="45.86273" lon="6.56811">
        <ele>1840.1</ele>
        <time>2017-09-03T11:42:18Z</time>
      </trkpt>
      <trkpt lat="45.86277" lon="6.56814">
        <ele>1839.62</ele>
        <time>2017-09-03T11:42:21Z</time>
      </trkpt>
      <trkpt lat="45.86278" lon="6.56814">
        <ele>1839.62</ele>
        <time>2017-09-03T11:42:22Z</time>
      </trkpt>
      <trkpt lat="45.86279" lon="6.56814">
        <ele>1839.62</ele>
        <time>2017-09-03T11:42:23Z</time>
      </trkpt>
      <trkpt lat="45.86282" lon="6.56815">
        <ele>1839.62</ele>
        <time>2017-09-03T11:42:26Z</time>
      </trkpt>
      <trkpt lat="45.86285" lon="6.56814">
        <ele>1839.62</ele>
        <time>2017-09-03T11:42:29Z</time>
      </trkpt>
      <trkpt lat="45.86286" lon="6.56815">
        <ele>1839.62</ele>
        <time>2017-09-03T11:42:30Z</time>
      </trkpt>
      <trkpt lat="45.86287" lon="6.56815">
        <ele>1839.62</ele>
        <time>2017-09-03T11:42:31Z</time>
      </trkpt>
      <trkpt lat="45.8629" lon="6.56815">
        <ele>1839.14</ele>
        <time>2017-09-03T11:42:38Z</time>
      </trkpt>
      <trkpt lat="45.86292" lon="6.56815">
        <ele>1838.66</ele>
        <time>2017-09-03T11:42:44Z</time>
      </trkpt>
      <trkpt lat="45.86293" lon="6.56814">
        <ele>1839.14</ele>
        <time>2017-09-03T11:42:45Z</time>
      </trkpt>
      <trkpt lat="45.86294" lon="6.56814">
        <ele>1839.14</ele>
        <time>2017-09-03T11:42:46Z</time>
      </trkpt>
      <trkpt lat="45.86295" lon="6.56814">
        <ele>1839.14</ele>
        <time>2017-09-03T11:42:47Z</time>
      </trkpt>
      <trkpt lat="45.86296" lon="6.56815">
        <ele>1839.14</ele>
        <time>2017-09-03T11:42:48Z</time>
      </trkpt>
      <trkpt lat="45.86304" lon="6.56822">
        <ele>1838.18</ele>
        <time>2017-09-03T11:42:56Z</time>
      </trkpt>
      <trkpt lat="45.86309" lon="6.56825">
        <ele>1835.77</ele>
        <time>2017-09-03T11:43:00Z</time>
      </trkpt>
      <trkpt lat="45.86314" lon="6.56833">
        <ele>1834.33</ele>
        <time>2017-09-03T11:43:06Z</time>
      </trkpt>
      <trkpt lat="45.86322" lon="6.56844">
        <ele>1831.45</ele>
        <time>2017-09-03T11:43:18Z</time>
      </trkpt>
      <trkpt lat="45.86325" lon="6.56847">
        <ele>1830.49</ele>
        <time>2017-09-03T11:43:22Z</time>
      </trkpt>
      <trkpt lat="45.86326" lon="6.56847">
        <ele>1830.49</ele>
        <time>2017-09-03T11:43:23Z</time>
      </trkpt>
      <trkpt lat="45.86327" lon="6.56848">
        <ele>1830.49</ele>
        <time>2017-09-03T11:43:24Z</time>
      </trkpt>
      <trkpt lat="45.86328" lon="6.56849">
        <ele>1830.01</ele>
        <time>2017-09-03T11:43:25Z</time>
      </trkpt>
      <trkpt lat="45.86329" lon="6.5685">
        <ele>1830.01</ele>
        <time>2017-09-03T11:43:26Z</time>
      </trkpt>
      <trkpt lat="45.8633" lon="6.56851">
        <ele>1829.53</ele>
        <time>2017-09-03T11:43:27Z</time>
      </trkpt>
      <trkpt lat="45.86331" lon="6.56852">
        <ele>1829.05</ele>
        <time>2017-09-03T11:43:28Z</time>
      </trkpt>
      <trkpt lat="45.86345" lon="6.56863">
        <ele>1825.68</ele>
        <time>2017-09-03T11:43:37Z</time>
      </trkpt>
      <trkpt lat="45.86356" lon="6.56868">
        <ele>1824.24</ele>
        <time>2017-09-03T11:43:41Z</time>
      </trkpt>
      <trkpt lat="45.86366" lon="6.56875">
        <ele>1821.35</ele>
        <time>2017-09-03T11:43:45Z</time>
      </trkpt>
      <trkpt lat="45.86376" lon="6.56883">
        <ele>1819.43</ele>
        <time>2017-09-03T11:43:49Z</time>
      </trkpt>
      <trkpt lat="45.86394" lon="6.56902">
        <ele>1816.07</ele>
        <time>2017-09-03T11:43:57Z</time>
      </trkpt>
      <trkpt lat="45.864" lon="6.56908">
        <ele>1814.63</ele>
        <time>2017-09-03T11:44:00Z</time>
      </trkpt>
      <trkpt lat="45.86402" lon="6.56909">
        <ele>1814.15</ele>
        <time>2017-09-03T11:44:01Z</time>
      </trkpt>
      <trkpt lat="45.86404" lon="6.5691">
        <ele>1813.18</ele>
        <time>2017-09-03T11:44:02Z</time>
      </trkpt>
      <trkpt lat="45.86407" lon="6.56913">
        <ele>1812.7</ele>
        <time>2017-09-03T11:44:03Z</time>
      </trkpt>
      <trkpt lat="45.86409" lon="6.56915">
        <ele>1812.22</ele>
        <time>2017-09-03T11:44:04Z</time>
      </trkpt>
      <trkpt lat="45.8641" lon="6.56917">
        <ele>1811.26</ele>
        <time>2017-09-03T11:44:05Z</time>
      </trkpt>
      <trkpt lat="45.86412" lon="6.56918">
        <ele>1810.78</ele>
        <time>2017-09-03T11:44:06Z</time>
      </trkpt>
      <trkpt lat="45.86415" lon="6.56918">
        <ele>1810.3</ele>
        <time>2017-09-03T11:44:07Z</time>
      </trkpt>
      <trkpt lat="45.86417" lon="6.56918">
        <ele>1809.34</ele>
        <time>2017-09-03T11:44:08Z</time>
      </trkpt>
      <trkpt lat="45.86418" lon="6.56916">
        <ele>1808.38</ele>
        <time>2017-09-03T11:44:09Z</time>
      </trkpt>
      <trkpt lat="45.8642" lon="6.56914">
        <ele>1807.9</ele>
        <time>2017-09-03T11:44:10Z</time>
      </trkpt>
      <trkpt lat="45.86427" lon="6.569">
        <ele>1805.01</ele>
        <time>2017-09-03T11:44:15Z</time>
      </trkpt>
      <trkpt lat="45.86431" lon="6.56889">
        <ele>1801.65</ele>
        <time>2017-09-03T11:44:19Z</time>
      </trkpt>
      <trkpt lat="45.86436" lon="6.56877">
        <ele>1798.28</ele>
        <time>2017-09-03T11:44:23Z</time>
      </trkpt>
      <trkpt lat="45.86444" lon="6.56865">
        <ele>1794.44</ele>
        <time>2017-09-03T11:44:28Z</time>
      </trkpt>
      <trkpt lat="45.86458" lon="6.5686">
        <ele>1791.07</ele>
        <time>2017-09-03T11:44:33Z</time>
      </trkpt>
      <trkpt lat="45.86469" lon="6.56857">
        <ele>1788.19</ele>
        <time>2017-09-03T11:44:37Z</time>
      </trkpt>
      <trkpt lat="45.8648" lon="6.56855">
        <ele>1784.82</ele>
        <time>2017-09-03T11:44:41Z</time>
      </trkpt>
      <trkpt lat="45.8649" lon="6.56854">
        <ele>1781.94</ele>
        <time>2017-09-03T11:44:45Z</time>
      </trkpt>
      <trkpt lat="45.86503" lon="6.56855">
        <ele>1778.1</ele>
        <time>2017-09-03T11:44:50Z</time>
      </trkpt>
      <trkpt lat="45.86514" lon="6.56855">
        <ele>1774.73</ele>
        <time>2017-09-03T11:44:54Z</time>
      </trkpt>
      <trkpt lat="45.86527" lon="6.56852">
        <ele>1771.37</ele>
        <time>2017-09-03T11:44:59Z</time>
      </trkpt>
      <trkpt lat="45.8653" lon="6.56851">
        <ele>1771.37</ele>
        <time>2017-09-03T11:45:00Z</time>
      </trkpt>
      <trkpt lat="45.86541" lon="6.5685">
        <ele>1768</ele>
        <time>2017-09-03T11:45:04Z</time>
      </trkpt>
      <trkpt lat="45.86557" lon="6.56845">
        <ele>1764.64</ele>
        <time>2017-09-03T11:45:10Z</time>
      </trkpt>
      <trkpt lat="45.86576" lon="6.56837">
        <ele>1761.75</ele>
        <time>2017-09-03T11:45:16Z</time>
      </trkpt>
      <trkpt lat="45.86595" lon="6.5683">
        <ele>1759.35</ele>
        <time>2017-09-03T11:45:22Z</time>
      </trkpt>
      <trkpt lat="45.86615" lon="6.56819">
        <ele>1757.91</ele>
        <time>2017-09-03T11:45:29Z</time>
      </trkpt>
      <trkpt lat="45.86635" lon="6.5681">
        <ele>1756.47</ele>
        <time>2017-09-03T11:45:36Z</time>
      </trkpt>
      <trkpt lat="45.86652" lon="6.56797">
        <ele>1753.58</ele>
        <time>2017-09-03T11:45:43Z</time>
      </trkpt>
      <trkpt lat="45.86662" lon="6.56788">
        <ele>1750.7</ele>
        <time>2017-09-03T11:45:47Z</time>
      </trkpt>
      <trkpt lat="45.8668" lon="6.56779">
        <ele>1747.33</ele>
        <time>2017-09-03T11:45:53Z</time>
      </trkpt>
      <trkpt lat="45.86703" lon="6.56776">
        <ele>1743.97</ele>
        <time>2017-09-03T11:46:00Z</time>
      </trkpt>
      <trkpt lat="45.86723" lon="6.56774">
        <ele>1741.57</ele>
        <time>2017-09-03T11:46:07Z</time>
      </trkpt>
      <trkpt lat="45.8674" lon="6.56771">
        <ele>1738.68</ele>
        <time>2017-09-03T11:46:13Z</time>
      </trkpt>
      <trkpt lat="45.8676" lon="6.56774">
        <ele>1735.32</ele>
        <time>2017-09-03T11:46:20Z</time>
      </trkpt>
      <trkpt lat="45.8678" lon="6.56769">
        <ele>1732.43</ele>
        <time>2017-09-03T11:46:28Z</time>
      </trkpt>
      <trkpt lat="45.86795" lon="6.56756">
        <ele>1729.07</ele>
        <time>2017-09-03T11:46:35Z</time>
      </trkpt>
      <trkpt lat="45.86808" lon="6.56745">
        <ele>1726.18</ele>
        <time>2017-09-03T11:46:41Z</time>
      </trkpt>
      <trkpt lat="45.8682" lon="6.56726">
        <ele>1722.82</ele>
        <time>2017-09-03T11:46:47Z</time>
      </trkpt>
      <trkpt lat="45.86822" lon="6.56723">
        <ele>1722.82</ele>
        <time>2017-09-03T11:46:48Z</time>
      </trkpt>
      <trkpt lat="45.86837" lon="6.567">
        <ele>1720.42</ele>
        <time>2017-09-03T11:46:56Z</time>
      </trkpt>
      <trkpt lat="45.86853" lon="6.56682">
        <ele>1718.97</ele>
        <time>2017-09-03T11:47:03Z</time>
      </trkpt>
      <trkpt lat="45.86871" lon="6.56676">
        <ele>1720.42</ele>
        <time>2017-09-03T11:47:11Z</time>
      </trkpt>
      <trkpt lat="45.86882" lon="6.56674">
        <ele>1722.34</ele>
        <time>2017-09-03T11:47:16Z</time>
      </trkpt>
      <trkpt lat="45.86889" lon="6.56673">
        <ele>1724.26</ele>
        <time>2017-09-03T11:47:20Z</time>
      </trkpt>
      <trkpt lat="45.86896" lon="6.56673">
        <ele>1725.7</ele>
        <time>2017-09-03T11:47:25Z</time>
      </trkpt>
      <trkpt lat="45.869" lon="6.56673">
        <ele>1726.67</ele>
        <time>2017-09-03T11:47:28Z</time>
      </trkpt>
      <trkpt lat="45.86909" lon="6.56668">
        <ele>1729.07</ele>
        <time>2017-09-03T11:47:37Z</time>
      </trkpt>
      <trkpt lat="45.86916" lon="6.56664">
        <ele>1732.43</ele>
        <time>2017-09-03T11:47:47Z</time>
      </trkpt>
      <trkpt lat="45.86922" lon="6.56663">
        <ele>1735.8</ele>
        <time>2017-09-03T11:47:58Z</time>
      </trkpt>
      <trkpt lat="45.8693" lon="6.56661">
        <ele>1739.16</ele>
        <time>2017-09-03T11:48:09Z</time>
      </trkpt>
      <trkpt lat="45.8694" lon="6.56663">
        <ele>1742.05</ele>
        <time>2017-09-03T11:48:21Z</time>
      </trkpt>
      <trkpt lat="45.8695" lon="6.56661">
        <ele>1745.41</ele>
        <time>2017-09-03T11:48:35Z</time>
      </trkpt>
      <trkpt lat="45.8697" lon="6.5666">
        <ele>1747.81</ele>
        <time>2017-09-03T11:48:48Z</time>
      </trkpt>
      <trkpt lat="45.86989" lon="6.56652">
        <ele>1750.7</ele>
        <time>2017-09-03T11:48:59Z</time>
      </trkpt>
      <trkpt lat="45.87006" lon="6.56647">
        <ele>1753.58</ele>
        <time>2017-09-03T11:49:10Z</time>
      </trkpt>
      <trkpt lat="45.8701" lon="6.56647">
        <ele>1754.06</ele>
        <time>2017-09-03T11:49:12Z</time>
      </trkpt>
      <trkpt lat="45.87011" lon="6.56648">
        <ele>1754.54</ele>
        <time>2017-09-03T11:49:13Z</time>
      </trkpt>
      <trkpt lat="45.87012" lon="6.56648">
        <ele>1755.02</ele>
        <time>2017-09-03T11:49:14Z</time>
      </trkpt>
      <trkpt lat="45.87013" lon="6.56647">
        <ele>1755.02</ele>
        <time>2017-09-03T11:49:15Z</time>
      </trkpt>
      <trkpt lat="45.87014" lon="6.56648">
        <ele>1755.5</ele>
        <time>2017-09-03T11:49:16Z</time>
      </trkpt>
      <trkpt lat="45.87015" lon="6.56647">
        <ele>1755.99</ele>
        <time>2017-09-03T11:49:17Z</time>
      </trkpt>
      <trkpt lat="45.87016" lon="6.56647">
        <ele>1755.99</ele>
        <time>2017-09-03T11:49:18Z</time>
      </trkpt>
      <trkpt lat="45.87017" lon="6.56647">
        <ele>1756.47</ele>
        <time>2017-09-03T11:49:19Z</time>
      </trkpt>
      <trkpt lat="45.87019" lon="6.56647">
        <ele>1756.47</ele>
        <time>2017-09-03T11:49:20Z</time>
      </trkpt>
      <trkpt lat="45.8702" lon="6.56648">
        <ele>1756.95</ele>
        <time>2017-09-03T11:49:21Z</time>
      </trkpt>
      <trkpt lat="45.87028" lon="6.56643">
        <ele>1759.83</ele>
        <time>2017-09-03T11:49:32Z</time>
      </trkpt>
      <trkpt lat="45.8703" lon="6.56641">
        <ele>1760.79</ele>
        <time>2017-09-03T11:49:35Z</time>
      </trkpt>
      <trkpt lat="45.8703" lon="6.5664">
        <ele>1760.79</ele>
        <time>2017-09-03T11:49:36Z</time>
      </trkpt>
      <trkpt lat="45.8703" lon="6.56639">
        <ele>1761.27</ele>
        <time>2017-09-03T11:49:37Z</time>
      </trkpt>
      <trkpt lat="45.87031" lon="6.56639">
        <ele>1761.75</ele>
        <time>2017-09-03T11:49:38Z</time>
      </trkpt>
      <trkpt lat="45.87031" lon="6.56638">
        <ele>1761.75</ele>
        <time>2017-09-03T11:49:39Z</time>
      </trkpt>
      <trkpt lat="45.87038" lon="6.56626">
        <ele>1764.64</ele>
        <time>2017-09-03T11:49:51Z</time>
      </trkpt>
      <trkpt lat="45.87055" lon="6.56615">
        <ele>1768</ele>
        <time>2017-09-03T11:50:08Z</time>
      </trkpt>
      <trkpt lat="45.87066" lon="6.56612">
        <ele>1768</ele>
        <time>2017-09-03T11:50:15Z</time>
      </trkpt>
      <trkpt lat="45.87085" lon="6.56608">
        <ele>1768.48</ele>
        <time>2017-09-03T11:50:24Z</time>
      </trkpt>
      <trkpt lat="45.87107" lon="6.56609">
        <ele>1768.96</ele>
        <time>2017-09-03T11:50:34Z</time>
      </trkpt>
      <trkpt lat="45.87109" lon="6.5661">
        <ele>1768.96</ele>
        <time>2017-09-03T11:50:35Z</time>
      </trkpt>
      <trkpt lat="45.87111" lon="6.56613">
        <ele>1768.48</ele>
        <time>2017-09-03T11:50:36Z</time>
      </trkpt>
      <trkpt lat="45.87114" lon="6.56616">
        <ele>1768</ele>
        <time>2017-09-03T11:50:37Z</time>
      </trkpt>
      <trkpt lat="45.87115" lon="6.5662">
        <ele>1768</ele>
        <time>2017-09-03T11:50:38Z</time>
      </trkpt>
      <trkpt lat="45.87116" lon="6.56623">
        <ele>1768</ele>
        <time>2017-09-03T11:50:39Z</time>
      </trkpt>
      <trkpt lat="45.87117" lon="6.56627">
        <ele>1767.52</ele>
        <time>2017-09-03T11:50:40Z</time>
      </trkpt>
      <trkpt lat="45.87119" lon="6.5663">
        <ele>1767.04</ele>
        <time>2017-09-03T11:50:41Z</time>
      </trkpt>
      <trkpt lat="45.8712" lon="6.56633">
        <ele>1766.56</ele>
        <time>2017-09-03T11:50:42Z</time>
      </trkpt>
      <trkpt lat="45.87122" lon="6.56634">
        <ele>1766.08</ele>
        <time>2017-09-03T11:50:43Z</time>
      </trkpt>
      <trkpt lat="45.87124" lon="6.56635">
        <ele>1765.6</ele>
        <time>2017-09-03T11:50:44Z</time>
      </trkpt>
      <trkpt lat="45.87126" lon="6.56635">
        <ele>1765.12</ele>
        <time>2017-09-03T11:50:45Z</time>
      </trkpt>
      <trkpt lat="45.8715" lon="6.56643">
        <ele>1762.71</ele>
        <time>2017-09-03T11:50:53Z</time>
      </trkpt>
      <trkpt lat="45.87171" lon="6.56643">
        <ele>1762.23</ele>
        <time>2017-09-03T11:51:01Z</time>
      </trkpt>
      <trkpt lat="45.87187" lon="6.56645">
        <ele>1762.23</ele>
        <time>2017-09-03T11:51:07Z</time>
      </trkpt>
      <trkpt lat="45.8721" lon="6.56648">
        <ele>1760.79</ele>
        <time>2017-09-03T11:51:14Z</time>
      </trkpt>
      <trkpt lat="45.8723" lon="6.56659">
        <ele>1759.83</ele>
        <time>2017-09-03T11:51:21Z</time>
      </trkpt>
      <trkpt lat="45.87246" lon="6.56674">
        <ele>1760.79</ele>
        <time>2017-09-03T11:51:28Z</time>
      </trkpt>
      <trkpt lat="45.87255" lon="6.56699">
        <ele>1762.23</ele>
        <time>2017-09-03T11:51:36Z</time>
      </trkpt>
      <trkpt lat="45.87266" lon="6.56724">
        <ele>1762.23</ele>
        <time>2017-09-03T11:51:44Z</time>
      </trkpt>
      <trkpt lat="45.87268" lon="6.56725">
        <ele>1762.23</ele>
        <time>2017-09-03T11:51:45Z</time>
      </trkpt>
      <trkpt lat="45.8727" lon="6.56727">
        <ele>1761.27</ele>
        <time>2017-09-03T11:51:46Z</time>
      </trkpt>
      <trkpt lat="45.87271" lon="6.56728">
        <ele>1760.79</ele>
        <time>2017-09-03T11:51:47Z</time>
      </trkpt>
      <trkpt lat="45.87273" lon="6.56729">
        <ele>1760.31</ele>
        <time>2017-09-03T11:51:48Z</time>
      </trkpt>
      <trkpt lat="45.87275" lon="6.5673">
        <ele>1759.83</ele>
        <time>2017-09-03T11:51:49Z</time>
      </trkpt>
      <trkpt lat="45.87277" lon="6.56731">
        <ele>1759.35</ele>
        <time>2017-09-03T11:51:50Z</time>
      </trkpt>
      <trkpt lat="45.87285" lon="6.56737">
        <ele>1755.99</ele>
        <time>2017-09-03T11:51:53Z</time>
      </trkpt>
      <trkpt lat="45.873" lon="6.56746">
        <ele>1752.62</ele>
        <time>2017-09-03T11:51:58Z</time>
      </trkpt>
      <trkpt lat="45.87313" lon="6.5675">
        <ele>1750.7</ele>
        <time>2017-09-03T11:52:02Z</time>
      </trkpt>
      <trkpt lat="45.87331" lon="6.56762">
        <ele>1747.81</ele>
        <time>2017-09-03T11:52:08Z</time>
      </trkpt>
      <trkpt lat="45.87348" lon="6.56776">
        <ele>1745.89</ele>
        <time>2017-09-03T11:52:14Z</time>
      </trkpt>
      <trkpt lat="45.87366" lon="6.56789">
        <ele>1745.89</ele>
        <time>2017-09-03T11:52:21Z</time>
      </trkpt>
      <trkpt lat="45.87368" lon="6.5679">
        <ele>1745.89</ele>
        <time>2017-09-03T11:52:22Z</time>
      </trkpt>
      <trkpt lat="45.8737" lon="6.5679">
        <ele>1745.89</ele>
        <time>2017-09-03T11:52:23Z</time>
      </trkpt>
      <trkpt lat="45.87373" lon="6.56791">
        <ele>1745.89</ele>
        <time>2017-09-03T11:52:24Z</time>
      </trkpt>
      <trkpt lat="45.87375" lon="6.56792">
        <ele>1746.37</ele>
        <time>2017-09-03T11:52:25Z</time>
      </trkpt>
      <trkpt lat="45.87378" lon="6.56792">
        <ele>1746.37</ele>
        <time>2017-09-03T11:52:26Z</time>
      </trkpt>
      <trkpt lat="45.8738" lon="6.56792">
        <ele>1745.89</ele>
        <time>2017-09-03T11:52:27Z</time>
      </trkpt>
      <trkpt lat="45.87382" lon="6.56792">
        <ele>1745.89</ele>
        <time>2017-09-03T11:52:28Z</time>
      </trkpt>
      <trkpt lat="45.87384" lon="6.56792">
        <ele>1745.41</ele>
        <time>2017-09-03T11:52:29Z</time>
      </trkpt>
      <trkpt lat="45.87386" lon="6.56792">
        <ele>1744.93</ele>
        <time>2017-09-03T11:52:30Z</time>
      </trkpt>
      <trkpt lat="45.87389" lon="6.56792">
        <ele>1744.45</ele>
        <time>2017-09-03T11:52:31Z</time>
      </trkpt>
      <trkpt lat="45.87391" lon="6.56792">
        <ele>1743.97</ele>
        <time>2017-09-03T11:52:32Z</time>
      </trkpt>
      <trkpt lat="45.87405" lon="6.56794">
        <ele>1740.6</ele>
        <time>2017-09-03T11:52:38Z</time>
      </trkpt>
      <trkpt lat="45.87418" lon="6.56808">
        <ele>1737.24</ele>
        <time>2017-09-03T11:52:44Z</time>
      </trkpt>
      <trkpt lat="45.87428" lon="6.56821">
        <ele>1733.88</ele>
        <time>2017-09-03T11:52:49Z</time>
      </trkpt>
      <trkpt lat="45.87436" lon="6.56839">
        <ele>1731.95</ele>
        <time>2017-09-03T11:52:54Z</time>
      </trkpt>
      <trkpt lat="45.87453" lon="6.56853">
        <ele>1729.07</ele>
        <time>2017-09-03T11:53:02Z</time>
      </trkpt>
      <trkpt lat="45.87472" lon="6.56852">
        <ele>1726.18</ele>
        <time>2017-09-03T11:53:08Z</time>
      </trkpt>
      <trkpt lat="45.87493" lon="6.56859">
        <ele>1724.74</ele>
        <time>2017-09-03T11:53:15Z</time>
      </trkpt>
      <trkpt lat="45.87514" lon="6.56856">
        <ele>1722.34</ele>
        <time>2017-09-03T11:53:23Z</time>
      </trkpt>
      <trkpt lat="45.87532" lon="6.56865">
        <ele>1721.38</ele>
        <time>2017-09-03T11:53:31Z</time>
      </trkpt>
      <trkpt lat="45.87545" lon="6.5687">
        <ele>1721.38</ele>
        <time>2017-09-03T11:53:50Z</time>
      </trkpt>
      <trkpt lat="45.87546" lon="6.5687">
        <ele>1721.38</ele>
        <time>2017-09-03T11:53:51Z</time>
      </trkpt>
      <trkpt lat="45.87552" lon="6.56873">
        <ele>1721.86</ele>
        <time>2017-09-03T11:53:55Z</time>
      </trkpt>
      <trkpt lat="45.87567" lon="6.56891">
        <ele>1725.22</ele>
        <time>2017-09-03T11:54:06Z</time>
      </trkpt>
      <trkpt lat="45.8757" lon="6.56912">
        <ele>1728.59</ele>
        <time>2017-09-03T11:54:14Z</time>
      </trkpt>
      <trkpt lat="45.87572" lon="6.5692">
        <ele>1730.51</ele>
        <time>2017-09-03T11:54:18Z</time>
      </trkpt>
      <trkpt lat="45.87573" lon="6.56923">
        <ele>1730.99</ele>
        <time>2017-09-03T11:54:20Z</time>
      </trkpt>
      <trkpt lat="45.87574" lon="6.56924">
        <ele>1731.47</ele>
        <time>2017-09-03T11:54:21Z</time>
      </trkpt>
      <trkpt lat="45.87575" lon="6.56925">
        <ele>1732.43</ele>
        <time>2017-09-03T11:54:22Z</time>
      </trkpt>
      <trkpt lat="45.87576" lon="6.56926">
        <ele>1732.91</ele>
        <time>2017-09-03T11:54:23Z</time>
      </trkpt>
      <trkpt lat="45.87577" lon="6.56927">
        <ele>1733.39</ele>
        <time>2017-09-03T11:54:24Z</time>
      </trkpt>
      <trkpt lat="45.87579" lon="6.56928">
        <ele>1733.88</ele>
        <time>2017-09-03T11:54:25Z</time>
      </trkpt>
      <trkpt lat="45.8758" lon="6.56929">
        <ele>1734.36</ele>
        <time>2017-09-03T11:54:26Z</time>
      </trkpt>
      <trkpt lat="45.87582" lon="6.5693">
        <ele>1734.84</ele>
        <time>2017-09-03T11:54:27Z</time>
      </trkpt>
      <trkpt lat="45.87584" lon="6.56931">
        <ele>1734.84</ele>
        <time>2017-09-03T11:54:28Z</time>
      </trkpt>
      <trkpt lat="45.87585" lon="6.56931">
        <ele>1735.32</ele>
        <time>2017-09-03T11:54:29Z</time>
      </trkpt>
      <trkpt lat="45.87587" lon="6.56932">
        <ele>1735.8</ele>
        <time>2017-09-03T11:54:30Z</time>
      </trkpt>
      <trkpt lat="45.87589" lon="6.56933">
        <ele>1736.28</ele>
        <time>2017-09-03T11:54:31Z</time>
      </trkpt>
      <trkpt lat="45.87591" lon="6.56934">
        <ele>1736.76</ele>
        <time>2017-09-03T11:54:32Z</time>
      </trkpt>
      <trkpt lat="45.87592" lon="6.56934">
        <ele>1737.24</ele>
        <time>2017-09-03T11:54:33Z</time>
      </trkpt>
      <trkpt lat="45.87594" lon="6.56935">
        <ele>1737.72</ele>
        <time>2017-09-03T11:54:34Z</time>
      </trkpt>
      <trkpt lat="45.87595" lon="6.56936">
        <ele>1738.2</ele>
        <time>2017-09-03T11:54:35Z</time>
      </trkpt>
      <trkpt lat="45.87597" lon="6.56938">
        <ele>1738.68</ele>
        <time>2017-09-03T11:54:36Z</time>
      </trkpt>
      <trkpt lat="45.87598" lon="6.56939">
        <ele>1739.16</ele>
        <time>2017-09-03T11:54:37Z</time>
      </trkpt>
      <trkpt lat="45.876" lon="6.5694">
        <ele>1739.64</ele>
        <time>2017-09-03T11:54:38Z</time>
      </trkpt>
      <trkpt lat="45.87601" lon="6.56942">
        <ele>1739.64</ele>
        <time>2017-09-03T11:54:39Z</time>
      </trkpt>
      <trkpt lat="45.87602" lon="6.56943">
        <ele>1740.12</ele>
        <time>2017-09-03T11:54:40Z</time>
      </trkpt>
      <trkpt lat="45.87604" lon="6.56945">
        <ele>1740.6</ele>
        <time>2017-09-03T11:54:41Z</time>
      </trkpt>
      <trkpt lat="45.87605" lon="6.56946">
        <ele>1741.08</ele>
        <time>2017-09-03T11:54:42Z</time>
      </trkpt>
      <trkpt lat="45.87607" lon="6.56948">
        <ele>1741.57</ele>
        <time>2017-09-03T11:54:43Z</time>
      </trkpt>
      <trkpt lat="45.87611" lon="6.56964">
        <ele>1744.45</ele>
        <time>2017-09-03T11:54:51Z</time>
      </trkpt>
      <trkpt lat="45.87612" lon="6.56967">
        <ele>1744.93</ele>
        <time>2017-09-03T11:54:53Z</time>
      </trkpt>
      <trkpt lat="45.87612" lon="6.56969">
        <ele>1745.41</ele>
        <time>2017-09-03T11:54:54Z</time>
      </trkpt>
      <trkpt lat="45.87613" lon="6.5697">
        <ele>1745.41</ele>
        <time>2017-09-03T11:54:55Z</time>
      </trkpt>
      <trkpt lat="45.87624" lon="6.56988">
        <ele>1747.81</ele>
        <time>2017-09-03T11:55:06Z</time>
      </trkpt>
      <trkpt lat="45.87627" lon="6.57006">
        <ele>1750.7</ele>
        <time>2017-09-03T11:55:16Z</time>
      </trkpt>
      <trkpt lat="45.87629" lon="6.57012">
        <ele>1752.14</ele>
        <time>2017-09-03T11:55:21Z</time>
      </trkpt>
      <trkpt lat="45.8763" lon="6.57013">
        <ele>1752.62</ele>
        <time>2017-09-03T11:55:22Z</time>
      </trkpt>
      <trkpt lat="45.87633" lon="6.57018">
        <ele>1754.06</ele>
        <time>2017-09-03T11:55:28Z</time>
      </trkpt>
      <trkpt lat="45.8764" lon="6.5703">
        <ele>1757.43</ele>
        <time>2017-09-03T11:55:39Z</time>
      </trkpt>
      <trkpt lat="45.8764" lon="6.57032">
        <ele>1757.43</ele>
        <time>2017-09-03T11:55:40Z</time>
      </trkpt>
      <trkpt lat="45.87645" lon="6.57051">
        <ele>1760.79</ele>
        <time>2017-09-03T11:55:53Z</time>
      </trkpt>
      <trkpt lat="45.87652" lon="6.57064">
        <ele>1763.68</ele>
        <time>2017-09-03T11:56:03Z</time>
      </trkpt>
      <trkpt lat="45.87665" lon="6.57082">
        <ele>1765.6</ele>
        <time>2017-09-03T11:56:13Z</time>
      </trkpt>
      <trkpt lat="45.87682" lon="6.57097">
        <ele>1767.04</ele>
        <time>2017-09-03T11:56:22Z</time>
      </trkpt>
      <trkpt lat="45.87698" lon="6.57116">
        <ele>1767.52</ele>
        <time>2017-09-03T11:56:32Z</time>
      </trkpt>
      <trkpt lat="45.87699" lon="6.57117">
        <ele>1768</ele>
        <time>2017-09-03T11:56:33Z</time>
      </trkpt>
      <trkpt lat="45.87701" lon="6.57138">
        <ele>1767.04</ele>
        <time>2017-09-03T11:56:41Z</time>
      </trkpt>
      <trkpt lat="45.87714" lon="6.5716">
        <ele>1763.68</ele>
        <time>2017-09-03T11:56:51Z</time>
      </trkpt>
      <trkpt lat="45.87724" lon="6.57165">
        <ele>1760.79</ele>
        <time>2017-09-03T11:56:56Z</time>
      </trkpt>
      <trkpt lat="45.87738" lon="6.57155">
        <ele>1757.91</ele>
        <time>2017-09-03T11:57:02Z</time>
      </trkpt>
      <trkpt lat="45.87743" lon="6.57153">
        <ele>1757.43</ele>
        <time>2017-09-03T11:57:04Z</time>
      </trkpt>
      <trkpt lat="45.87761" lon="6.57149">
        <ele>1753.58</ele>
        <time>2017-09-03T11:57:10Z</time>
      </trkpt>
      <trkpt lat="45.87777" lon="6.57148">
        <ele>1750.7</ele>
        <time>2017-09-03T11:57:15Z</time>
      </trkpt>
      <trkpt lat="45.87798" lon="6.57145">
        <ele>1749.74</ele>
        <time>2017-09-03T11:57:21Z</time>
      </trkpt>
      <trkpt lat="45.87819" lon="6.57146">
        <ele>1747.81</ele>
        <time>2017-09-03T11:57:29Z</time>
      </trkpt>
      <trkpt lat="45.8783" lon="6.57147">
        <ele>1744.93</ele>
        <time>2017-09-03T11:57:34Z</time>
      </trkpt>
      <trkpt lat="45.87841" lon="6.57148">
        <ele>1741.57</ele>
        <time>2017-09-03T11:57:39Z</time>
      </trkpt>
      <trkpt lat="45.87853" lon="6.5715">
        <ele>1738.2</ele>
        <time>2017-09-03T11:57:44Z</time>
      </trkpt>
      <trkpt lat="45.87872" lon="6.57154">
        <ele>1734.84</ele>
        <time>2017-09-03T11:57:50Z</time>
      </trkpt>
      <trkpt lat="45.87889" lon="6.57152">
        <ele>1730.99</ele>
        <time>2017-09-03T11:57:56Z</time>
      </trkpt>
      <trkpt lat="45.87909" lon="6.57144">
        <ele>1727.63</ele>
        <time>2017-09-03T11:58:03Z</time>
      </trkpt>
      <trkpt lat="45.87928" lon="6.57141">
        <ele>1724.74</ele>
        <time>2017-09-03T11:58:09Z</time>
      </trkpt>
      <trkpt lat="45.87946" lon="6.57145">
        <ele>1724.26</ele>
        <time>2017-09-03T11:58:17Z</time>
      </trkpt>
      <trkpt lat="45.87952" lon="6.57144">
        <ele>1724.74</ele>
        <time>2017-09-03T11:58:22Z</time>
      </trkpt>
      <trkpt lat="45.87953" lon="6.57143">
        <ele>1724.74</ele>
        <time>2017-09-03T11:58:23Z</time>
      </trkpt>
      <trkpt lat="45.87954" lon="6.57141">
        <ele>1724.74</ele>
        <time>2017-09-03T11:58:24Z</time>
      </trkpt>
      <trkpt lat="45.87955" lon="6.57138">
        <ele>1724.74</ele>
        <time>2017-09-03T11:58:25Z</time>
      </trkpt>
      <trkpt lat="45.87956" lon="6.57136">
        <ele>1724.74</ele>
        <time>2017-09-03T11:58:26Z</time>
      </trkpt>
      <trkpt lat="45.87958" lon="6.57135">
        <ele>1724.74</ele>
        <time>2017-09-03T11:58:27Z</time>
      </trkpt>
      <trkpt lat="45.8796" lon="6.57133">
        <ele>1724.26</ele>
        <time>2017-09-03T11:58:28Z</time>
      </trkpt>
      <trkpt lat="45.87962" lon="6.57131">
        <ele>1724.26</ele>
        <time>2017-09-03T11:58:29Z</time>
      </trkpt>
      <trkpt lat="45.87964" lon="6.57129">
        <ele>1724.26</ele>
        <time>2017-09-03T11:58:30Z</time>
      </trkpt>
      <trkpt lat="45.8798" lon="6.57114">
        <ele>1725.22</ele>
        <time>2017-09-03T11:58:38Z</time>
      </trkpt>
      <trkpt lat="45.87995" lon="6.571">
        <ele>1726.67</ele>
        <time>2017-09-03T11:58:47Z</time>
      </trkpt>
      <trkpt lat="45.88011" lon="6.57083">
        <ele>1728.59</ele>
        <time>2017-09-03T11:58:58Z</time>
      </trkpt>
      <trkpt lat="45.88031" lon="6.57074">
        <ele>1727.15</ele>
        <time>2017-09-03T11:59:06Z</time>
      </trkpt>
      <trkpt lat="45.88054" lon="6.57073">
        <ele>1725.22</ele>
        <time>2017-09-03T11:59:15Z</time>
      </trkpt>
      <trkpt lat="45.8807" lon="6.57074">
        <ele>1723.3</ele>
        <time>2017-09-03T11:59:20Z</time>
      </trkpt>
      <trkpt lat="45.88091" lon="6.5708">
        <ele>1720.42</ele>
        <time>2017-09-03T11:59:28Z</time>
      </trkpt>
      <trkpt lat="45.88112" lon="6.57084">
        <ele>1721.38</ele>
        <time>2017-09-03T11:59:37Z</time>
      </trkpt>
      <trkpt lat="45.88131" lon="6.57077">
        <ele>1723.78</ele>
        <time>2017-09-03T11:59:48Z</time>
      </trkpt>
      <trkpt lat="45.88139" lon="6.57074">
        <ele>1725.7</ele>
        <time>2017-09-03T11:59:54Z</time>
      </trkpt>
      <trkpt lat="45.88152" lon="6.57076">
        <ele>1728.59</ele>
        <time>2017-09-03T12:00:02Z</time>
      </trkpt>
      <trkpt lat="45.88163" lon="6.57064">
        <ele>1731.47</ele>
        <time>2017-09-03T12:00:12Z</time>
      </trkpt>
      <trkpt lat="45.88176" lon="6.57048">
        <ele>1732.43</ele>
        <time>2017-09-03T12:00:20Z</time>
      </trkpt>
      <trkpt lat="45.88179" lon="6.57047">
        <ele>1732.43</ele>
        <time>2017-09-03T12:00:21Z</time>
      </trkpt>
      <trkpt lat="45.88181" lon="6.57046">
        <ele>1732.43</ele>
        <time>2017-09-03T12:00:22Z</time>
      </trkpt>
      <trkpt lat="45.88183" lon="6.57044">
        <ele>1732.43</ele>
        <time>2017-09-03T12:00:23Z</time>
      </trkpt>
      <trkpt lat="45.88184" lon="6.57042">
        <ele>1732.43</ele>
        <time>2017-09-03T12:00:24Z</time>
      </trkpt>
      <trkpt lat="45.88186" lon="6.5704">
        <ele>1732.43</ele>
        <time>2017-09-03T12:00:25Z</time>
      </trkpt>
      <trkpt lat="45.88201" lon="6.5702">
        <ele>1735.32</ele>
        <time>2017-09-03T12:00:38Z</time>
      </trkpt>
      <trkpt lat="45.88217" lon="6.57003">
        <ele>1737.24</ele>
        <time>2017-09-03T12:00:49Z</time>
      </trkpt>
      <trkpt lat="45.88231" lon="6.56977">
        <ele>1737.24</ele>
        <time>2017-09-03T12:00:59Z</time>
      </trkpt>
      <trkpt lat="45.88236" lon="6.56957">
        <ele>1738.68</ele>
        <time>2017-09-03T12:01:06Z</time>
      </trkpt>
      <trkpt lat="45.88238" lon="6.56954">
        <ele>1738.68</ele>
        <time>2017-09-03T12:01:07Z</time>
      </trkpt>
      <trkpt lat="45.8824" lon="6.56952">
        <ele>1739.16</ele>
        <time>2017-09-03T12:01:08Z</time>
      </trkpt>
      <trkpt lat="45.88255" lon="6.56926">
        <ele>1739.64</ele>
        <time>2017-09-03T12:01:19Z</time>
      </trkpt>
      <trkpt lat="45.88268" lon="6.56907">
        <ele>1739.64</ele>
        <time>2017-09-03T12:01:28Z</time>
      </trkpt>
      <trkpt lat="45.88278" lon="6.56913">
        <ele>1739.64</ele>
        <time>2017-09-03T12:01:34Z</time>
      </trkpt>
      <trkpt lat="45.88279" lon="6.56913">
        <ele>1739.64</ele>
        <time>2017-09-03T12:01:35Z</time>
      </trkpt>
      <trkpt lat="45.8828" lon="6.56911">
        <ele>1739.64</ele>
        <time>2017-09-03T12:01:36Z</time>
      </trkpt>
      <trkpt lat="45.88279" lon="6.56904">
        <ele>1740.6</ele>
        <time>2017-09-03T12:01:41Z</time>
      </trkpt>
      <trkpt lat="45.88283" lon="6.56887">
        <ele>1741.57</ele>
        <time>2017-09-03T12:01:50Z</time>
      </trkpt>
      <trkpt lat="45.88283" lon="6.56885">
        <ele>1741.57</ele>
        <time>2017-09-03T12:01:51Z</time>
      </trkpt>
      <trkpt lat="45.88283" lon="6.56884">
        <ele>1741.57</ele>
        <time>2017-09-03T12:01:52Z</time>
      </trkpt>
      <trkpt lat="45.88282" lon="6.56871">
        <ele>1741.57</ele>
        <time>2017-09-03T12:01:59Z</time>
      </trkpt>
      <trkpt lat="45.88282" lon="6.56869">
        <ele>1742.05</ele>
        <time>2017-09-03T12:02:00Z</time>
      </trkpt>
      <trkpt lat="45.88283" lon="6.56868">
        <ele>1742.05</ele>
        <time>2017-09-03T12:02:01Z</time>
      </trkpt>
      <trkpt lat="45.88284" lon="6.56866">
        <ele>1742.05</ele>
        <time>2017-09-03T12:02:02Z</time>
      </trkpt>
      <trkpt lat="45.88285" lon="6.56864">
        <ele>1742.05</ele>
        <time>2017-09-03T12:02:03Z</time>
      </trkpt>
      <trkpt lat="45.8829" lon="6.56852">
        <ele>1743.49</ele>
        <time>2017-09-03T12:02:13Z</time>
      </trkpt>
      <trkpt lat="45.88291" lon="6.56849">
        <ele>1743.97</ele>
        <time>2017-09-03T12:02:16Z</time>
      </trkpt>
      <trkpt lat="45.88292" lon="6.56847">
        <ele>1744.45</ele>
        <time>2017-09-03T12:02:17Z</time>
      </trkpt>
      <trkpt lat="45.88292" lon="6.56846">
        <ele>1744.45</ele>
        <time>2017-09-03T12:02:18Z</time>
      </trkpt>
      <trkpt lat="45.88295" lon="6.5683">
        <ele>1747.81</ele>
        <time>2017-09-03T12:02:31Z</time>
      </trkpt>
      <trkpt lat="45.88296" lon="6.56824">
        <ele>1749.74</ele>
        <time>2017-09-03T12:02:40Z</time>
      </trkpt>
      <trkpt lat="45.88296" lon="6.56823">
        <ele>1749.74</ele>
        <time>2017-09-03T12:02:41Z</time>
      </trkpt>
      <trkpt lat="45.88299" lon="6.56817">
        <ele>1751.18</ele>
        <time>2017-09-03T12:02:48Z</time>
      </trkpt>
      <trkpt lat="45.88301" lon="6.56812">
        <ele>1752.62</ele>
        <time>2017-09-03T12:02:52Z</time>
      </trkpt>
      <trkpt lat="45.88302" lon="6.5681">
        <ele>1753.1</ele>
        <time>2017-09-03T12:02:54Z</time>
      </trkpt>
      <trkpt lat="45.88303" lon="6.56809">
        <ele>1753.58</ele>
        <time>2017-09-03T12:02:55Z</time>
      </trkpt>
      <trkpt lat="45.88311" lon="6.56802">
        <ele>1755.5</ele>
        <time>2017-09-03T12:03:04Z</time>
      </trkpt>
      <trkpt lat="45.88325" lon="6.5679">
        <ele>1758.39</ele>
        <time>2017-09-03T12:03:20Z</time>
      </trkpt>
      <trkpt lat="45.88326" lon="6.56779">
        <ele>1760.79</ele>
        <time>2017-09-03T12:03:29Z</time>
      </trkpt>
      <trkpt lat="45.88328" lon="6.56767">
        <ele>1763.68</ele>
        <time>2017-09-03T12:03:43Z</time>
      </trkpt>
      <trkpt lat="45.8833" lon="6.56762">
        <ele>1765.12</ele>
        <time>2017-09-03T12:03:48Z</time>
      </trkpt>
      <trkpt lat="45.88338" lon="6.56761">
        <ele>1767.04</ele>
        <time>2017-09-03T12:03:54Z</time>
      </trkpt>
      <trkpt lat="45.88339" lon="6.56761">
        <ele>1767.04</ele>
        <time>2017-09-03T12:03:55Z</time>
      </trkpt>
      <trkpt lat="45.88343" lon="6.56755">
        <ele>1768.48</ele>
        <time>2017-09-03T12:04:02Z</time>
      </trkpt>
      <trkpt lat="45.88344" lon="6.56755">
        <ele>1768.96</ele>
        <time>2017-09-03T12:04:03Z</time>
      </trkpt>
      <trkpt lat="45.8835" lon="6.5675">
        <ele>1771.85</ele>
        <time>2017-09-03T12:04:14Z</time>
      </trkpt>
      <trkpt lat="45.88357" lon="6.56741">
        <ele>1775.21</ele>
        <time>2017-09-03T12:04:27Z</time>
      </trkpt>
      <trkpt lat="45.88359" lon="6.56733">
        <ele>1778.1</ele>
        <time>2017-09-03T12:04:40Z</time>
      </trkpt>
      <trkpt lat="45.88354" lon="6.56719">
        <ele>1780.98</ele>
        <time>2017-09-03T12:04:54Z</time>
      </trkpt>
      <trkpt lat="45.88354" lon="6.56716">
        <ele>1781.46</ele>
        <time>2017-09-03T12:04:56Z</time>
      </trkpt>
      <trkpt lat="45.88353" lon="6.56703">
        <ele>1784.34</ele>
        <time>2017-09-03T12:05:08Z</time>
      </trkpt>
      <trkpt lat="45.88353" lon="6.56703">
        <ele>1784.34</ele>
        <time>2017-09-03T12:05:09Z</time>
      </trkpt>
      <trkpt lat="45.88356" lon="6.56687">
        <ele>1787.23</ele>
        <time>2017-09-03T12:05:21Z</time>
      </trkpt>
      <trkpt lat="45.88351" lon="6.56663">
        <ele>1790.59</ele>
        <time>2017-09-03T12:05:35Z</time>
      </trkpt>
      <trkpt lat="45.8835" lon="6.56655">
        <ele>1791.55</ele>
        <time>2017-09-03T12:05:39Z</time>
      </trkpt>
      <trkpt lat="45.88342" lon="6.56633">
        <ele>1793.96</ele>
        <time>2017-09-03T12:05:54Z</time>
      </trkpt>
      <trkpt lat="45.88341" lon="6.56628">
        <ele>1795.4</ele>
        <time>2017-09-03T12:06:00Z</time>
      </trkpt>
      <trkpt lat="45.88341" lon="6.56626">
        <ele>1796.36</ele>
        <time>2017-09-03T12:06:02Z</time>
      </trkpt>
      <trkpt lat="45.88338" lon="6.5661">
        <ele>1799.24</ele>
        <time>2017-09-03T12:06:14Z</time>
      </trkpt>
      <trkpt lat="45.8834" lon="6.56602">
        <ele>1801.65</ele>
        <time>2017-09-03T12:06:23Z</time>
      </trkpt>
      <trkpt lat="45.88347" lon="6.56582">
        <ele>1805.01</ele>
        <time>2017-09-03T12:06:38Z</time>
      </trkpt>
      <trkpt lat="45.88347" lon="6.5656">
        <ele>1807.9</ele>
        <time>2017-09-03T12:06:51Z</time>
      </trkpt>
      <trkpt lat="45.88348" lon="6.56557">
        <ele>1808.86</ele>
        <time>2017-09-03T12:06:53Z</time>
      </trkpt>
      <trkpt lat="45.88348" lon="6.56555">
        <ele>1809.34</ele>
        <time>2017-09-03T12:06:54Z</time>
      </trkpt>
      <trkpt lat="45.88349" lon="6.56551">
        <ele>1810.78</ele>
        <time>2017-09-03T12:06:59Z</time>
      </trkpt>
      <trkpt lat="45.88351" lon="6.56544">
        <ele>1812.7</ele>
        <time>2017-09-03T12:07:05Z</time>
      </trkpt>
      <trkpt lat="45.88353" lon="6.5654">
        <ele>1813.66</ele>
        <time>2017-09-03T12:07:09Z</time>
      </trkpt>
      <trkpt lat="45.88353" lon="6.56539">
        <ele>1813.66</ele>
        <time>2017-09-03T12:07:10Z</time>
      </trkpt>
      <trkpt lat="45.88356" lon="6.56536">
        <ele>1815.11</ele>
        <time>2017-09-03T12:07:15Z</time>
      </trkpt>
      <trkpt lat="45.88349" lon="6.56526">
        <ele>1816.55</ele>
        <time>2017-09-03T12:07:21Z</time>
      </trkpt>
      <trkpt lat="45.88353" lon="6.56527">
        <ele>1817.03</ele>
        <time>2017-09-03T12:07:22Z</time>
      </trkpt>
      <trkpt lat="45.88355" lon="6.56527">
        <ele>1817.03</ele>
        <time>2017-09-03T12:07:23Z</time>
      </trkpt>
      <trkpt lat="45.88356" lon="6.56527">
        <ele>1817.03</ele>
        <time>2017-09-03T12:07:24Z</time>
      </trkpt>
      <trkpt lat="45.88361" lon="6.56518">
        <ele>1820.39</ele>
        <time>2017-09-03T12:07:37Z</time>
      </trkpt>
      <trkpt lat="45.88364" lon="6.56504">
        <ele>1823.76</ele>
        <time>2017-09-03T12:07:51Z</time>
      </trkpt>
      <trkpt lat="45.88366" lon="6.56486">
        <ele>1826.64</ele>
        <time>2017-09-03T12:08:06Z</time>
      </trkpt>
      <trkpt lat="45.88372" lon="6.56474">
        <ele>1829.05</ele>
        <time>2017-09-03T12:08:19Z</time>
      </trkpt>
      <trkpt lat="45.88379" lon="6.56465">
        <ele>1832.41</ele>
        <time>2017-09-03T12:08:28Z</time>
      </trkpt>
      <trkpt lat="45.88388" lon="6.56453">
        <ele>1835.29</ele>
        <time>2017-09-03T12:08:41Z</time>
      </trkpt>
      <trkpt lat="45.88394" lon="6.56443">
        <ele>1838.66</ele>
        <time>2017-09-03T12:08:52Z</time>
      </trkpt>
      <trkpt lat="45.88402" lon="6.56437">
        <ele>1841.54</ele>
        <time>2017-09-03T12:09:03Z</time>
      </trkpt>
      <trkpt lat="45.8841" lon="6.56434">
        <ele>1844.91</ele>
        <time>2017-09-03T12:09:15Z</time>
      </trkpt>
      <trkpt lat="45.88417" lon="6.56429">
        <ele>1847.79</ele>
        <time>2017-09-03T12:09:27Z</time>
      </trkpt>
      <trkpt lat="45.88423" lon="6.56424">
        <ele>1851.16</ele>
        <time>2017-09-03T12:09:38Z</time>
      </trkpt>
      <trkpt lat="45.88427" lon="6.56428">
        <ele>1852.6</ele>
        <time>2017-09-03T12:09:45Z</time>
      </trkpt>
      <trkpt lat="45.88437" lon="6.56429">
        <ele>1855.48</ele>
        <time>2017-09-03T12:09:58Z</time>
      </trkpt>
      <trkpt lat="45.88439" lon="6.56428">
        <ele>1855.96</ele>
        <time>2017-09-03T12:10:00Z</time>
      </trkpt>
      <trkpt lat="45.88441" lon="6.56416">
        <ele>1858.85</ele>
        <time>2017-09-03T12:10:12Z</time>
      </trkpt>
      <trkpt lat="45.88441" lon="6.56415">
        <ele>1859.33</ele>
        <time>2017-09-03T12:10:13Z</time>
      </trkpt>
      <trkpt lat="45.88445" lon="6.56411">
        <ele>1860.77</ele>
        <time>2017-09-03T12:10:20Z</time>
      </trkpt>
      <trkpt lat="45.88446" lon="6.56411">
        <ele>1860.77</ele>
        <time>2017-09-03T12:10:21Z</time>
      </trkpt>
      <trkpt lat="45.88452" lon="6.56408">
        <ele>1864.13</ele>
        <time>2017-09-03T12:10:32Z</time>
      </trkpt>
      <trkpt lat="45.88456" lon="6.56409">
        <ele>1865.58</ele>
        <time>2017-09-03T12:10:39Z</time>
      </trkpt>
      <trkpt lat="45.88464" lon="6.56412">
        <ele>1869.42</ele>
        <time>2017-09-03T12:10:53Z</time>
      </trkpt>
      <trkpt lat="45.8847" lon="6.5641">
        <ele>1872.3</ele>
        <time>2017-09-03T12:11:06Z</time>
      </trkpt>
      <trkpt lat="45.88468" lon="6.56402">
        <ele>1874.23</ele>
        <time>2017-09-03T12:11:16Z</time>
      </trkpt>
      <trkpt lat="45.88466" lon="6.56396">
        <ele>1875.19</ele>
        <time>2017-09-03T12:11:21Z</time>
      </trkpt>
      <trkpt lat="45.88466" lon="6.56386">
        <ele>1878.55</ele>
        <time>2017-09-03T12:11:32Z</time>
      </trkpt>
      <trkpt lat="45.88467" lon="6.56385">
        <ele>1879.03</ele>
        <time>2017-09-03T12:11:33Z</time>
      </trkpt>
      <trkpt lat="45.88467" lon="6.56384">
        <ele>1879.03</ele>
        <time>2017-09-03T12:11:34Z</time>
      </trkpt>
      <trkpt lat="45.88469" lon="6.56375">
        <ele>1881.92</ele>
        <time>2017-09-03T12:11:46Z</time>
      </trkpt>
      <trkpt lat="45.88473" lon="6.56367">
        <ele>1884.8</ele>
        <time>2017-09-03T12:11:58Z</time>
      </trkpt>
      <trkpt lat="45.88476" lon="6.56354">
        <ele>1888.17</ele>
        <time>2017-09-03T12:12:09Z</time>
      </trkpt>
      <trkpt lat="45.88482" lon="6.56344">
        <ele>1891.53</ele>
        <time>2017-09-03T12:12:22Z</time>
      </trkpt>
      <trkpt lat="45.88484" lon="6.56345">
        <ele>1892.01</ele>
        <time>2017-09-03T12:12:24Z</time>
      </trkpt>
      <trkpt lat="45.88489" lon="6.56339">
        <ele>1894.9</ele>
        <time>2017-09-03T12:12:35Z</time>
      </trkpt>
      <trkpt lat="45.88494" lon="6.56332">
        <ele>1897.78</ele>
        <time>2017-09-03T12:12:45Z</time>
      </trkpt>
      <trkpt lat="45.88497" lon="6.56326">
        <ele>1899.22</ele>
        <time>2017-09-03T12:12:53Z</time>
      </trkpt>
      <trkpt lat="45.88498" lon="6.56325">
        <ele>1899.7</ele>
        <time>2017-09-03T12:12:54Z</time>
      </trkpt>
      <trkpt lat="45.88508" lon="6.56315">
        <ele>1902.59</ele>
        <time>2017-09-03T12:13:08Z</time>
      </trkpt>
      <trkpt lat="45.88513" lon="6.56305">
        <ele>1905.95</ele>
        <time>2017-09-03T12:13:20Z</time>
      </trkpt>
      <trkpt lat="45.88515" lon="6.56291">
        <ele>1908.83</ele>
        <time>2017-09-03T12:13:34Z</time>
      </trkpt>
      <trkpt lat="45.88518" lon="6.56274">
        <ele>1911.72</ele>
        <time>2017-09-03T12:13:47Z</time>
      </trkpt>
      <trkpt lat="45.88519" lon="6.56272">
        <ele>1912.2</ele>
        <time>2017-09-03T12:13:48Z</time>
      </trkpt>
      <trkpt lat="45.88519" lon="6.56269">
        <ele>1912.2</ele>
        <time>2017-09-03T12:13:49Z</time>
      </trkpt>
      <trkpt lat="45.8852" lon="6.56267">
        <ele>1912.2</ele>
        <time>2017-09-03T12:13:50Z</time>
      </trkpt>
      <trkpt lat="45.8852" lon="6.56264">
        <ele>1912.68</ele>
        <time>2017-09-03T12:13:51Z</time>
      </trkpt>
      <trkpt lat="45.8852" lon="6.56261">
        <ele>1912.68</ele>
        <time>2017-09-03T12:13:52Z</time>
      </trkpt>
      <trkpt lat="45.88519" lon="6.56259">
        <ele>1913.16</ele>
        <time>2017-09-03T12:13:53Z</time>
      </trkpt>
      <trkpt lat="45.88518" lon="6.56257">
        <ele>1913.16</ele>
        <time>2017-09-03T12:13:54Z</time>
      </trkpt>
      <trkpt lat="45.88517" lon="6.56254">
        <ele>1913.64</ele>
        <time>2017-09-03T12:13:55Z</time>
      </trkpt>
      <trkpt lat="45.88515" lon="6.56251">
        <ele>1914.12</ele>
        <time>2017-09-03T12:13:56Z</time>
      </trkpt>
      <trkpt lat="45.88514" lon="6.56248">
        <ele>1914.12</ele>
        <time>2017-09-03T12:13:57Z</time>
      </trkpt>
      <trkpt lat="45.88514" lon="6.56225">
        <ele>1917.49</ele>
        <time>2017-09-03T12:14:07Z</time>
      </trkpt>
      <trkpt lat="45.88514" lon="6.5621">
        <ele>1920.37</ele>
        <time>2017-09-03T12:14:16Z</time>
      </trkpt>
      <trkpt lat="45.8851" lon="6.56196">
        <ele>1923.74</ele>
        <time>2017-09-03T12:14:28Z</time>
      </trkpt>
      <trkpt lat="45.88507" lon="6.56183">
        <ele>1926.62</ele>
        <time>2017-09-03T12:14:41Z</time>
      </trkpt>
      <trkpt lat="45.88504" lon="6.56172">
        <ele>1929.5</ele>
        <time>2017-09-03T12:14:52Z</time>
      </trkpt>
      <trkpt lat="45.88502" lon="6.56165">
        <ele>1931.43</ele>
        <time>2017-09-03T12:15:00Z</time>
      </trkpt>
      <trkpt lat="45.88501" lon="6.56164">
        <ele>1931.91</ele>
        <time>2017-09-03T12:15:01Z</time>
      </trkpt>
      <trkpt lat="45.88495" lon="6.56145">
        <ele>1935.27</ele>
        <time>2017-09-03T12:15:17Z</time>
      </trkpt>
      <trkpt lat="45.88491" lon="6.56135">
        <ele>1936.71</ele>
        <time>2017-09-03T12:15:24Z</time>
      </trkpt>
      <trkpt lat="45.88486" lon="6.56115">
        <ele>1940.08</ele>
        <time>2017-09-03T12:15:38Z</time>
      </trkpt>
      <trkpt lat="45.88485" lon="6.56105">
        <ele>1942</ele>
        <time>2017-09-03T12:15:45Z</time>
      </trkpt>
      <trkpt lat="45.88484" lon="6.56104">
        <ele>1942</ele>
        <time>2017-09-03T12:15:46Z</time>
      </trkpt>
      <trkpt lat="45.88484" lon="6.56103">
        <ele>1942</ele>
        <time>2017-09-03T12:15:47Z</time>
      </trkpt>
      <trkpt lat="45.88483" lon="6.56099">
        <ele>1942.96</ele>
        <time>2017-09-03T12:15:50Z</time>
      </trkpt>
      <trkpt lat="45.88483" lon="6.56098">
        <ele>1942.96</ele>
        <time>2017-09-03T12:15:51Z</time>
      </trkpt>
      <trkpt lat="45.88482" lon="6.56097">
        <ele>1943.44</ele>
        <time>2017-09-03T12:15:52Z</time>
      </trkpt>
      <trkpt lat="45.88482" lon="6.56096">
        <ele>1943.92</ele>
        <time>2017-09-03T12:15:53Z</time>
      </trkpt>
      <trkpt lat="45.88482" lon="6.56094">
        <ele>1944.4</ele>
        <time>2017-09-03T12:15:54Z</time>
      </trkpt>
      <trkpt lat="45.88482" lon="6.56093">
        <ele>1944.4</ele>
        <time>2017-09-03T12:15:55Z</time>
      </trkpt>
      <trkpt lat="45.88482" lon="6.56091">
        <ele>1944.4</ele>
        <time>2017-09-03T12:15:56Z</time>
      </trkpt>
      <trkpt lat="45.88482" lon="6.5609">
        <ele>1944.88</ele>
        <time>2017-09-03T12:15:57Z</time>
      </trkpt>
      <trkpt lat="45.88479" lon="6.56087">
        <ele>1946.33</ele>
        <time>2017-09-03T12:16:00Z</time>
      </trkpt>
      <trkpt lat="45.88478" lon="6.56086">
        <ele>1946.33</ele>
        <time>2017-09-03T12:16:01Z</time>
      </trkpt>
      <trkpt lat="45.88477" lon="6.56085">
        <ele>1946.81</ele>
        <time>2017-09-03T12:16:02Z</time>
      </trkpt>
      <trkpt lat="45.88475" lon="6.56083">
        <ele>1947.29</ele>
        <time>2017-09-03T12:16:04Z</time>
      </trkpt>
      <trkpt lat="45.88475" lon="6.56081">
        <ele>1947.77</ele>
        <time>2017-09-03T12:16:05Z</time>
      </trkpt>
      <trkpt lat="45.88475" lon="6.56079">
        <ele>1947.77</ele>
        <time>2017-09-03T12:16:06Z</time>
      </trkpt>
      <trkpt lat="45.88475" lon="6.56078">
        <ele>1947.77</ele>
        <time>2017-09-03T12:16:07Z</time>
      </trkpt>
      <trkpt lat="45.88475" lon="6.56076">
        <ele>1948.25</ele>
        <time>2017-09-03T12:16:08Z</time>
      </trkpt>
      <trkpt lat="45.88476" lon="6.56063">
        <ele>1951.61</ele>
        <time>2017-09-03T12:16:21Z</time>
      </trkpt>
      <trkpt lat="45.88478" lon="6.56051">
        <ele>1954.5</ele>
        <time>2017-09-03T12:16:33Z</time>
      </trkpt>
      <trkpt lat="45.88478" lon="6.5605">
        <ele>1954.98</ele>
        <time>2017-09-03T12:16:34Z</time>
      </trkpt>
      <trkpt lat="45.8848" lon="6.56043">
        <ele>1956.42</ele>
        <time>2017-09-03T12:16:40Z</time>
      </trkpt>
      <trkpt lat="45.88483" lon="6.56034">
        <ele>1958.82</ele>
        <time>2017-09-03T12:16:49Z</time>
      </trkpt>
      <trkpt lat="45.88491" lon="6.56018">
        <ele>1961.71</ele>
        <time>2017-09-03T12:17:02Z</time>
      </trkpt>
      <trkpt lat="45.88492" lon="6.56003">
        <ele>1965.07</ele>
        <time>2017-09-03T12:17:15Z</time>
      </trkpt>
      <trkpt lat="45.88498" lon="6.55987">
        <ele>1967.96</ele>
        <time>2017-09-03T12:17:28Z</time>
      </trkpt>
      <trkpt lat="45.88501" lon="6.55972">
        <ele>1971.32</ele>
        <time>2017-09-03T12:17:41Z</time>
      </trkpt>
      <trkpt lat="45.88504" lon="6.5596">
        <ele>1974.2</ele>
        <time>2017-09-03T12:17:53Z</time>
      </trkpt>
      <trkpt lat="45.88504" lon="6.55958">
        <ele>1974.69</ele>
        <time>2017-09-03T12:17:54Z</time>
      </trkpt>
      <trkpt lat="45.88505" lon="6.55957">
        <ele>1974.69</ele>
        <time>2017-09-03T12:17:55Z</time>
      </trkpt>
      <trkpt lat="45.88506" lon="6.55938">
        <ele>1977.57</ele>
        <time>2017-09-03T12:18:10Z</time>
      </trkpt>
      <trkpt lat="45.88506" lon="6.55937">
        <ele>1978.05</ele>
        <time>2017-09-03T12:18:11Z</time>
      </trkpt>
      <trkpt lat="45.88507" lon="6.55935">
        <ele>1979.01</ele>
        <time>2017-09-03T12:18:13Z</time>
      </trkpt>
      <trkpt lat="45.88511" lon="6.55925">
        <ele>1982.38</ele>
        <time>2017-09-03T12:18:24Z</time>
      </trkpt>
      <trkpt lat="45.88514" lon="6.55913">
        <ele>1985.26</ele>
        <time>2017-09-03T12:18:37Z</time>
      </trkpt>
      <trkpt lat="45.88518" lon="6.55904">
        <ele>1988.62</ele>
        <time>2017-09-03T12:18:48Z</time>
      </trkpt>
      <trkpt lat="45.88522" lon="6.55894">
        <ele>1991.99</ele>
        <time>2017-09-03T12:18:59Z</time>
      </trkpt>
      <trkpt lat="45.88524" lon="6.55878">
        <ele>1994.87</ele>
        <time>2017-09-03T12:19:13Z</time>
      </trkpt>
      <trkpt lat="45.88523" lon="6.55866">
        <ele>1997.28</ele>
        <time>2017-09-03T12:19:24Z</time>
      </trkpt>
      <trkpt lat="45.88523" lon="6.55865">
        <ele>1997.28</ele>
        <time>2017-09-03T12:19:25Z</time>
      </trkpt>
      <trkpt lat="45.88521" lon="6.55849">
        <ele>2000.16</ele>
        <time>2017-09-03T12:19:40Z</time>
      </trkpt>
      <trkpt lat="45.88524" lon="6.5585">
        <ele>2001.12</ele>
        <time>2017-09-03T12:19:43Z</time>
      </trkpt>
      <trkpt lat="45.88525" lon="6.55851">
        <ele>2001.6</ele>
        <time>2017-09-03T12:19:44Z</time>
      </trkpt>
      <trkpt lat="45.88529" lon="6.55857">
        <ele>2002.08</ele>
        <time>2017-09-03T12:19:49Z</time>
      </trkpt>
      <trkpt lat="45.88529" lon="6.55859">
        <ele>2002.56</ele>
        <time>2017-09-03T12:19:50Z</time>
      </trkpt>
      <trkpt lat="45.8853" lon="6.5586">
        <ele>2002.56</ele>
        <time>2017-09-03T12:19:51Z</time>
      </trkpt>
      <trkpt lat="45.88546" lon="6.55876">
        <ele>2004.01</ele>
        <time>2017-09-03T12:20:07Z</time>
      </trkpt>
      <trkpt lat="45.88551" lon="6.55877">
        <ele>2004.97</ele>
        <time>2017-09-03T12:20:12Z</time>
      </trkpt>
      <trkpt lat="45.88554" lon="6.55877">
        <ele>2005.93</ele>
        <time>2017-09-03T12:20:15Z</time>
      </trkpt>
      <trkpt lat="45.88574" lon="6.55874">
        <ele>2006.41</ele>
        <time>2017-09-03T12:20:27Z</time>
      </trkpt>
      <trkpt lat="45.88595" lon="6.55873">
        <ele>2006.89</ele>
        <time>2017-09-03T12:20:36Z</time>
      </trkpt>
      <trkpt lat="45.88615" lon="6.55878">
        <ele>2006.89</ele>
        <time>2017-09-03T12:20:44Z</time>
      </trkpt>
      <trkpt lat="45.88633" lon="6.55891">
        <ele>2004.97</ele>
        <time>2017-09-03T12:20:51Z</time>
      </trkpt>
      <trkpt lat="45.88653" lon="6.55894">
        <ele>2002.56</ele>
        <time>2017-09-03T12:20:58Z</time>
      </trkpt>
      <trkpt lat="45.88673" lon="6.55895">
        <ele>2000.16</ele>
        <time>2017-09-03T12:21:05Z</time>
      </trkpt>
      <trkpt lat="45.88693" lon="6.55891">
        <ele>1998.24</ele>
        <time>2017-09-03T12:21:12Z</time>
      </trkpt>
      <trkpt lat="45.88713" lon="6.55889">
        <ele>1995.35</ele>
        <time>2017-09-03T12:21:19Z</time>
      </trkpt>
      <trkpt lat="45.88719" lon="6.55889">
        <ele>1994.39</ele>
        <time>2017-09-03T12:21:21Z</time>
      </trkpt>
      <trkpt lat="45.88739" lon="6.55895">
        <ele>1993.43</ele>
        <time>2017-09-03T12:21:28Z</time>
      </trkpt>
      <trkpt lat="45.88751" lon="6.55894">
        <ele>1991.51</ele>
        <time>2017-09-03T12:21:33Z</time>
      </trkpt>
      <trkpt lat="45.88764" lon="6.5589">
        <ele>1988.14</ele>
        <time>2017-09-03T12:21:40Z</time>
      </trkpt>
      <trkpt lat="45.88774" lon="6.55888">
        <ele>1984.78</ele>
        <time>2017-09-03T12:21:45Z</time>
      </trkpt>
      <trkpt lat="45.88776" lon="6.55887">
        <ele>1984.3</ele>
        <time>2017-09-03T12:21:46Z</time>
      </trkpt>
      <trkpt lat="45.88778" lon="6.55888">
        <ele>1983.82</ele>
        <time>2017-09-03T12:21:47Z</time>
      </trkpt>
      <trkpt lat="45.88781" lon="6.55889">
        <ele>1983.34</ele>
        <time>2017-09-03T12:21:48Z</time>
      </trkpt>
      <trkpt lat="45.88783" lon="6.55888">
        <ele>1982.38</ele>
        <time>2017-09-03T12:21:49Z</time>
      </trkpt>
      <trkpt lat="45.88786" lon="6.55887">
        <ele>1982.38</ele>
        <time>2017-09-03T12:21:50Z</time>
      </trkpt>
      <trkpt lat="45.88787" lon="6.55886">
        <ele>1981.41</ele>
        <time>2017-09-03T12:21:51Z</time>
      </trkpt>
      <trkpt lat="45.88789" lon="6.55884">
        <ele>1980.93</ele>
        <time>2017-09-03T12:21:52Z</time>
      </trkpt>
      <trkpt lat="45.88791" lon="6.55884">
        <ele>1979.97</ele>
        <time>2017-09-03T12:21:53Z</time>
      </trkpt>
      <trkpt lat="45.88793" lon="6.55884">
        <ele>1979.97</ele>
        <time>2017-09-03T12:21:54Z</time>
      </trkpt>
      <trkpt lat="45.88795" lon="6.55885">
        <ele>1979.97</ele>
        <time>2017-09-03T12:21:55Z</time>
      </trkpt>
      <trkpt lat="45.88798" lon="6.55886">
        <ele>1979.49</ele>
        <time>2017-09-03T12:21:56Z</time>
      </trkpt>
      <trkpt lat="45.88801" lon="6.55886">
        <ele>1979.01</ele>
        <time>2017-09-03T12:21:57Z</time>
      </trkpt>
      <trkpt lat="45.88804" lon="6.55886">
        <ele>1979.01</ele>
        <time>2017-09-03T12:21:58Z</time>
      </trkpt>
      <trkpt lat="45.88806" lon="6.55886">
        <ele>1978.53</ele>
        <time>2017-09-03T12:21:59Z</time>
      </trkpt>
      <trkpt lat="45.88826" lon="6.55889">
        <ele>1975.17</ele>
        <time>2017-09-03T12:22:06Z</time>
      </trkpt>
      <trkpt lat="45.88845" lon="6.55898">
        <ele>1971.8</ele>
        <time>2017-09-03T12:22:13Z</time>
      </trkpt>
      <trkpt lat="45.88866" lon="6.55907">
        <ele>1969.4</ele>
        <time>2017-09-03T12:22:20Z</time>
      </trkpt>
      <trkpt lat="45.88884" lon="6.55911">
        <ele>1969.4</ele>
        <time>2017-09-03T12:22:29Z</time>
      </trkpt>
      <trkpt lat="45.88886" lon="6.55911">
        <ele>1968.92</ele>
        <time>2017-09-03T12:22:30Z</time>
      </trkpt>
      <trkpt lat="45.88888" lon="6.5591">
        <ele>1968.44</ele>
        <time>2017-09-03T12:22:31Z</time>
      </trkpt>
      <trkpt lat="45.88906" lon="6.55909">
        <ele>1965.55</ele>
        <time>2017-09-03T12:22:38Z</time>
      </trkpt>
      <trkpt lat="45.88925" lon="6.5591">
        <ele>1963.15</ele>
        <time>2017-09-03T12:22:45Z</time>
      </trkpt>
      <trkpt lat="45.88945" lon="6.5591">
        <ele>1961.71</ele>
        <time>2017-09-03T12:22:53Z</time>
      </trkpt>
      <trkpt lat="45.88964" lon="6.55912">
        <ele>1958.34</ele>
        <time>2017-09-03T12:23:00Z</time>
      </trkpt>
      <trkpt lat="45.88967" lon="6.55912">
        <ele>1958.34</ele>
        <time>2017-09-03T12:23:01Z</time>
      </trkpt>
      <trkpt lat="45.88988" lon="6.55911">
        <ele>1956.9</ele>
        <time>2017-09-03T12:23:09Z</time>
      </trkpt>
      <trkpt lat="45.89007" lon="6.55918">
        <ele>1954.02</ele>
        <time>2017-09-03T12:23:16Z</time>
      </trkpt>
      <trkpt lat="45.89027" lon="6.5592">
        <ele>1951.61</ele>
        <time>2017-09-03T12:23:23Z</time>
      </trkpt>
      <trkpt lat="45.89047" lon="6.55918">
        <ele>1952.09</ele>
        <time>2017-09-03T12:23:30Z</time>
      </trkpt>
      <trkpt lat="45.89065" lon="6.5592">
        <ele>1953.06</ele>
        <time>2017-09-03T12:23:39Z</time>
      </trkpt>
      <trkpt lat="45.89081" lon="6.55928">
        <ele>1950.17</ele>
        <time>2017-09-03T12:23:46Z</time>
      </trkpt>
      <trkpt lat="45.891" lon="6.55937">
        <ele>1946.81</ele>
        <time>2017-09-03T12:23:53Z</time>
      </trkpt>
      <trkpt lat="45.89121" lon="6.55934">
        <ele>1944.4</ele>
        <time>2017-09-03T12:24:00Z</time>
      </trkpt>
      <trkpt lat="45.8914" lon="6.55926">
        <ele>1942.48</ele>
        <time>2017-09-03T12:24:07Z</time>
      </trkpt>
      <trkpt lat="45.89159" lon="6.55919">
        <ele>1941.04</ele>
        <time>2017-09-03T12:24:14Z</time>
      </trkpt>
      <trkpt lat="45.89179" lon="6.55918">
        <ele>1939.12</ele>
        <time>2017-09-03T12:24:22Z</time>
      </trkpt>
      <trkpt lat="45.892" lon="6.55918">
        <ele>1936.23</ele>
        <time>2017-09-03T12:24:30Z</time>
      </trkpt>
      <trkpt lat="45.89219" lon="6.55917">
        <ele>1933.83</ele>
        <time>2017-09-03T12:24:37Z</time>
      </trkpt>
      <trkpt lat="45.89232" lon="6.55909">
        <ele>1931.91</ele>
        <time>2017-09-03T12:24:42Z</time>
      </trkpt>
      <trkpt lat="45.89251" lon="6.559">
        <ele>1931.91</ele>
        <time>2017-09-03T12:24:50Z</time>
      </trkpt>
      <trkpt lat="45.89272" lon="6.55897">
        <ele>1929.98</ele>
        <time>2017-09-03T12:24:57Z</time>
      </trkpt>
      <trkpt lat="45.89293" lon="6.55903">
        <ele>1928.54</ele>
        <time>2017-09-03T12:25:05Z</time>
      </trkpt>
      <trkpt lat="45.89298" lon="6.55902">
        <ele>1929.02</ele>
        <time>2017-09-03T12:25:10Z</time>
      </trkpt>
      <trkpt lat="45.89299" lon="6.55901">
        <ele>1929.5</ele>
        <time>2017-09-03T12:25:11Z</time>
      </trkpt>
      <trkpt lat="45.893" lon="6.55901">
        <ele>1929.5</ele>
        <time>2017-09-03T12:25:12Z</time>
      </trkpt>
      <trkpt lat="45.893" lon="6.559">
        <ele>1929.98</ele>
        <time>2017-09-03T12:25:13Z</time>
      </trkpt>
      <trkpt lat="45.89301" lon="6.55899">
        <ele>1929.98</ele>
        <time>2017-09-03T12:25:14Z</time>
      </trkpt>
      <trkpt lat="45.89302" lon="6.55898">
        <ele>1929.98</ele>
        <time>2017-09-03T12:25:15Z</time>
      </trkpt>
      <trkpt lat="45.89311" lon="6.55892">
        <ele>1933.83</ele>
        <time>2017-09-03T12:25:25Z</time>
      </trkpt>
      <trkpt lat="45.89316" lon="6.55888">
        <ele>1936.23</ele>
        <time>2017-09-03T12:25:34Z</time>
      </trkpt>
      <trkpt lat="45.89323" lon="6.55885">
        <ele>1939.12</ele>
        <time>2017-09-03T12:25:45Z</time>
      </trkpt>
      <trkpt lat="45.89331" lon="6.5588">
        <ele>1942.48</ele>
        <time>2017-09-03T12:25:58Z</time>
      </trkpt>
      <trkpt lat="45.89334" lon="6.55875">
        <ele>1943.92</ele>
        <time>2017-09-03T12:26:04Z</time>
      </trkpt>
      <trkpt lat="45.89335" lon="6.55874">
        <ele>1943.92</ele>
        <time>2017-09-03T12:26:05Z</time>
      </trkpt>
      <trkpt lat="45.89344" lon="6.55865">
        <ele>1947.29</ele>
        <time>2017-09-03T12:26:19Z</time>
      </trkpt>
      <trkpt lat="45.89351" lon="6.55859">
        <ele>1950.17</ele>
        <time>2017-09-03T12:26:31Z</time>
      </trkpt>
      <trkpt lat="45.89357" lon="6.55859">
        <ele>1951.61</ele>
        <time>2017-09-03T12:26:37Z</time>
      </trkpt>
      <trkpt lat="45.89362" lon="6.55861">
        <ele>1953.06</ele>
        <time>2017-09-03T12:26:43Z</time>
      </trkpt>
      <trkpt lat="45.8937" lon="6.55868">
        <ele>1954.5</ele>
        <time>2017-09-03T12:26:50Z</time>
      </trkpt>
      <trkpt lat="45.89382" lon="6.55879">
        <ele>1957.38</ele>
        <time>2017-09-03T12:27:05Z</time>
      </trkpt>
      <trkpt lat="45.89391" lon="6.55889">
        <ele>1960.75</ele>
        <time>2017-09-03T12:27:18Z</time>
      </trkpt>
      <trkpt lat="45.89393" lon="6.55891">
        <ele>1961.23</ele>
        <time>2017-09-03T12:27:21Z</time>
      </trkpt>
      <trkpt lat="45.89394" lon="6.55891">
        <ele>1961.23</ele>
        <time>2017-09-03T12:27:22Z</time>
      </trkpt>
      <trkpt lat="45.89403" lon="6.55895">
        <ele>1963.63</ele>
        <time>2017-09-03T12:27:34Z</time>
      </trkpt>
      <trkpt lat="45.89404" lon="6.55895">
        <ele>1964.11</ele>
        <time>2017-09-03T12:27:35Z</time>
      </trkpt>
      <trkpt lat="45.89405" lon="6.55895">
        <ele>1964.59</ele>
        <time>2017-09-03T12:27:36Z</time>
      </trkpt>
      <trkpt lat="45.89417" lon="6.55899">
        <ele>1967.48</ele>
        <time>2017-09-03T12:27:48Z</time>
      </trkpt>
      <trkpt lat="45.89427" lon="6.55906">
        <ele>1970.84</ele>
        <time>2017-09-03T12:28:00Z</time>
      </trkpt>
      <trkpt lat="45.89428" lon="6.55906">
        <ele>1970.84</ele>
        <time>2017-09-03T12:28:01Z</time>
      </trkpt>
      <trkpt lat="45.89433" lon="6.55906">
        <ele>1972.28</ele>
        <time>2017-09-03T12:28:07Z</time>
      </trkpt>
      <trkpt lat="45.89434" lon="6.55906">
        <ele>1972.76</ele>
        <time>2017-09-03T12:28:08Z</time>
      </trkpt>
      <trkpt lat="45.89435" lon="6.55907">
        <ele>1972.76</ele>
        <time>2017-09-03T12:28:09Z</time>
      </trkpt>
      <trkpt lat="45.89436" lon="6.55907">
        <ele>1973.24</ele>
        <time>2017-09-03T12:28:11Z</time>
      </trkpt>
      <trkpt lat="45.89448" lon="6.55907">
        <ele>1976.61</ele>
        <time>2017-09-03T12:28:24Z</time>
      </trkpt>
      <trkpt lat="45.89464" lon="6.55907">
        <ele>1979.49</ele>
        <time>2017-09-03T12:28:39Z</time>
      </trkpt>
      <trkpt lat="45.89475" lon="6.55908">
        <ele>1981.41</ele>
        <time>2017-09-03T12:28:49Z</time>
      </trkpt>
      <trkpt lat="45.89477" lon="6.55908">
        <ele>1981.9</ele>
        <time>2017-09-03T12:28:52Z</time>
      </trkpt>
      <trkpt lat="45.89478" lon="6.55909">
        <ele>1982.38</ele>
        <time>2017-09-03T12:28:53Z</time>
      </trkpt>
      <trkpt lat="45.89479" lon="6.55909">
        <ele>1982.38</ele>
        <time>2017-09-03T12:28:54Z</time>
      </trkpt>
      <trkpt lat="45.89491" lon="6.5591">
        <ele>1985.26</ele>
        <time>2017-09-03T12:29:06Z</time>
      </trkpt>
      <trkpt lat="45.89501" lon="6.55908">
        <ele>1988.62</ele>
        <time>2017-09-03T12:29:18Z</time>
      </trkpt>
      <trkpt lat="45.8951" lon="6.55906">
        <ele>1991.51</ele>
        <time>2017-09-03T12:29:30Z</time>
      </trkpt>
      <trkpt lat="45.89519" lon="6.55906">
        <ele>1994.39</ele>
        <time>2017-09-03T12:29:42Z</time>
      </trkpt>
      <trkpt lat="45.89529" lon="6.55903">
        <ele>1997.76</ele>
        <time>2017-09-03T12:29:55Z</time>
      </trkpt>
      <trkpt lat="45.89541" lon="6.55904">
        <ele>2000.64</ele>
        <time>2017-09-03T12:30:08Z</time>
      </trkpt>
      <trkpt lat="45.89552" lon="6.559">
        <ele>2004.01</ele>
        <time>2017-09-03T12:30:22Z</time>
      </trkpt>
      <trkpt lat="45.89557" lon="6.55898">
        <ele>2005.45</ele>
        <time>2017-09-03T12:30:29Z</time>
      </trkpt>
      <trkpt lat="45.89558" lon="6.55897">
        <ele>2005.93</ele>
        <time>2017-09-03T12:30:30Z</time>
      </trkpt>
      <trkpt lat="45.89565" lon="6.55891">
        <ele>2008.81</ele>
        <time>2017-09-03T12:30:43Z</time>
      </trkpt>
      <trkpt lat="45.89572" lon="6.55882">
        <ele>2012.18</ele>
        <time>2017-09-03T12:30:57Z</time>
      </trkpt>
      <trkpt lat="45.89579" lon="6.55872">
        <ele>2015.06</ele>
        <time>2017-09-03T12:31:11Z</time>
      </trkpt>
      <trkpt lat="45.89589" lon="6.55862">
        <ele>2018.43</ele>
        <time>2017-09-03T12:31:25Z</time>
      </trkpt>
      <trkpt lat="45.89599" lon="6.55851">
        <ele>2021.31</ele>
        <time>2017-09-03T12:31:39Z</time>
      </trkpt>
      <trkpt lat="45.8961" lon="6.55838">
        <ele>2024.67</ele>
        <time>2017-09-03T12:31:53Z</time>
      </trkpt>
      <trkpt lat="45.89619" lon="6.55832">
        <ele>2028.04</ele>
        <time>2017-09-03T12:32:05Z</time>
      </trkpt>
      <trkpt lat="45.89627" lon="6.55826">
        <ele>2030.92</ele>
        <time>2017-09-03T12:32:18Z</time>
      </trkpt>
      <trkpt lat="45.89634" lon="6.55821">
        <ele>2034.29</ele>
        <time>2017-09-03T12:32:30Z</time>
      </trkpt>
      <trkpt lat="45.89643" lon="6.55813">
        <ele>2037.17</ele>
        <time>2017-09-03T12:32:43Z</time>
      </trkpt>
      <trkpt lat="45.89652" lon="6.55806">
        <ele>2039.57</ele>
        <time>2017-09-03T12:32:55Z</time>
      </trkpt>
      <trkpt lat="45.89653" lon="6.55805">
        <ele>2039.57</ele>
        <time>2017-09-03T12:32:56Z</time>
      </trkpt>
      <trkpt lat="45.89654" lon="6.55805">
        <ele>2039.57</ele>
        <time>2017-09-03T12:32:57Z</time>
      </trkpt>
      <trkpt lat="45.89661" lon="6.55794">
        <ele>2042.94</ele>
        <time>2017-09-03T12:33:10Z</time>
      </trkpt>
      <trkpt lat="45.89666" lon="6.55785">
        <ele>2046.3</ele>
        <time>2017-09-03T12:33:21Z</time>
      </trkpt>
      <trkpt lat="45.89667" lon="6.55774">
        <ele>2049.19</ele>
        <time>2017-09-03T12:33:33Z</time>
      </trkpt>
      <trkpt lat="45.89672" lon="6.55766">
        <ele>2052.55</ele>
        <time>2017-09-03T12:33:45Z</time>
      </trkpt>
      <trkpt lat="45.89681" lon="6.5575">
        <ele>2055.44</ele>
        <time>2017-09-03T12:34:00Z</time>
      </trkpt>
      <trkpt lat="45.89688" lon="6.55736">
        <ele>2058.32</ele>
        <time>2017-09-03T12:34:12Z</time>
      </trkpt>
      <trkpt lat="45.89688" lon="6.55735">
        <ele>2058.32</ele>
        <time>2017-09-03T12:34:13Z</time>
      </trkpt>
      <trkpt lat="45.89693" lon="6.55717">
        <ele>2061.2</ele>
        <time>2017-09-03T12:34:27Z</time>
      </trkpt>
      <trkpt lat="45.89696" lon="6.55708">
        <ele>2062.65</ele>
        <time>2017-09-03T12:34:33Z</time>
      </trkpt>
      <trkpt lat="45.89696" lon="6.55707">
        <ele>2063.13</ele>
        <time>2017-09-03T12:34:34Z</time>
      </trkpt>
      <trkpt lat="45.89697" lon="6.55704">
        <ele>2063.61</ele>
        <time>2017-09-03T12:34:36Z</time>
      </trkpt>
      <trkpt lat="45.89697" lon="6.55703">
        <ele>2063.61</ele>
        <time>2017-09-03T12:34:37Z</time>
      </trkpt>
      <trkpt lat="45.89702" lon="6.55692">
        <ele>2066.97</ele>
        <time>2017-09-03T12:34:48Z</time>
      </trkpt>
      <trkpt lat="45.89706" lon="6.55681">
        <ele>2069.86</ele>
        <time>2017-09-03T12:35:00Z</time>
      </trkpt>
      <trkpt lat="45.89707" lon="6.55677">
        <ele>2070.82</ele>
        <time>2017-09-03T12:35:05Z</time>
      </trkpt>
      <trkpt lat="45.89708" lon="6.55671">
        <ele>2071.78</ele>
        <time>2017-09-03T12:35:10Z</time>
      </trkpt>
      <trkpt lat="45.8971" lon="6.55659">
        <ele>2075.14</ele>
        <time>2017-09-03T12:35:23Z</time>
      </trkpt>
      <trkpt lat="45.89717" lon="6.55644">
        <ele>2078.51</ele>
        <time>2017-09-03T12:35:37Z</time>
      </trkpt>
      <trkpt lat="45.89719" lon="6.55638">
        <ele>2079.95</ele>
        <time>2017-09-03T12:35:44Z</time>
      </trkpt>
      <trkpt lat="45.89724" lon="6.55628">
        <ele>2083.31</ele>
        <time>2017-09-03T12:35:57Z</time>
      </trkpt>
      <trkpt lat="45.89727" lon="6.55618">
        <ele>2086.2</ele>
        <time>2017-09-03T12:36:10Z</time>
      </trkpt>
      <trkpt lat="45.89726" lon="6.55607">
        <ele>2088.6</ele>
        <time>2017-09-03T12:36:21Z</time>
      </trkpt>
      <trkpt lat="45.89732" lon="6.55602">
        <ele>2091.97</ele>
        <time>2017-09-03T12:36:33Z</time>
      </trkpt>
      <trkpt lat="45.89739" lon="6.55601">
        <ele>2094.37</ele>
        <time>2017-09-03T12:36:45Z</time>
      </trkpt>
      <trkpt lat="45.89739" lon="6.55592">
        <ele>2097.73</ele>
        <time>2017-09-03T12:36:59Z</time>
      </trkpt>
      <trkpt lat="45.89739" lon="6.5559">
        <ele>2097.73</ele>
        <time>2017-09-03T12:37:00Z</time>
      </trkpt>
      <trkpt lat="45.89739" lon="6.55575">
        <ele>2100.62</ele>
        <time>2017-09-03T12:37:14Z</time>
      </trkpt>
      <trkpt lat="45.89741" lon="6.5557">
        <ele>2102.06</ele>
        <time>2017-09-03T12:37:20Z</time>
      </trkpt>
      <trkpt lat="45.89743" lon="6.55558">
        <ele>2105.42</ele>
        <time>2017-09-03T12:37:32Z</time>
      </trkpt>
      <trkpt lat="45.89747" lon="6.55555">
        <ele>2108.79</ele>
        <time>2017-09-03T12:37:43Z</time>
      </trkpt>
      <trkpt lat="45.89756" lon="6.55559">
        <ele>2111.67</ele>
        <time>2017-09-03T12:37:56Z</time>
      </trkpt>
      <trkpt lat="45.89759" lon="6.55561">
        <ele>2113.12</ele>
        <time>2017-09-03T12:38:00Z</time>
      </trkpt>
      <trkpt lat="45.8977" lon="6.55565">
        <ele>2116</ele>
        <time>2017-09-03T12:38:15Z</time>
      </trkpt>
      <trkpt lat="45.89771" lon="6.55564">
        <ele>2116.96</ele>
        <time>2017-09-03T12:38:17Z</time>
      </trkpt>
      <trkpt lat="45.89778" lon="6.55561">
        <ele>2119.84</ele>
        <time>2017-09-03T12:38:29Z</time>
      </trkpt>
      <trkpt lat="45.89783" lon="6.55561">
        <ele>2121.77</ele>
        <time>2017-09-03T12:38:37Z</time>
      </trkpt>
      <trkpt lat="45.89795" lon="6.55561">
        <ele>2124.65</ele>
        <time>2017-09-03T12:38:52Z</time>
      </trkpt>
      <trkpt lat="45.89806" lon="6.55558">
        <ele>2128.02</ele>
        <time>2017-09-03T12:39:07Z</time>
      </trkpt>
      <trkpt lat="45.89813" lon="6.55553">
        <ele>2130.42</ele>
        <time>2017-09-03T12:39:19Z</time>
      </trkpt>
      <trkpt lat="45.89814" lon="6.55544">
        <ele>2133.3</ele>
        <time>2017-09-03T12:39:30Z</time>
      </trkpt>
      <trkpt lat="45.89817" lon="6.55531">
        <ele>2136.67</ele>
        <time>2017-09-03T12:39:43Z</time>
      </trkpt>
      <trkpt lat="45.89818" lon="6.55519">
        <ele>2139.55</ele>
        <time>2017-09-03T12:39:56Z</time>
      </trkpt>
      <trkpt lat="45.89818" lon="6.55518">
        <ele>2139.55</ele>
        <time>2017-09-03T12:39:57Z</time>
      </trkpt>
      <trkpt lat="45.89817" lon="6.55502">
        <ele>2142.92</ele>
        <time>2017-09-03T12:40:12Z</time>
      </trkpt>
      <trkpt lat="45.89818" lon="6.55485">
        <ele>2145.8</ele>
        <time>2017-09-03T12:40:27Z</time>
      </trkpt>
      <trkpt lat="45.8982" lon="6.55473">
        <ele>2149.16</ele>
        <time>2017-09-03T12:40:40Z</time>
      </trkpt>
      <trkpt lat="45.8982" lon="6.55463">
        <ele>2151.57</ele>
        <time>2017-09-03T12:40:50Z</time>
      </trkpt>
      <trkpt lat="45.89819" lon="6.55462">
        <ele>2151.57</ele>
        <time>2017-09-03T12:40:51Z</time>
      </trkpt>
      <trkpt lat="45.89818" lon="6.55451">
        <ele>2154.93</ele>
        <time>2017-09-03T12:41:03Z</time>
      </trkpt>
      <trkpt lat="45.89818" lon="6.55448">
        <ele>2155.41</ele>
        <time>2017-09-03T12:41:05Z</time>
      </trkpt>
      <trkpt lat="45.89818" lon="6.55447">
        <ele>2155.41</ele>
        <time>2017-09-03T12:41:06Z</time>
      </trkpt>
      <trkpt lat="45.89823" lon="6.55439">
        <ele>2158.3</ele>
        <time>2017-09-03T12:41:17Z</time>
      </trkpt>
      <trkpt lat="45.89822" lon="6.55433">
        <ele>2160.22</ele>
        <time>2017-09-03T12:41:25Z</time>
      </trkpt>
      <trkpt lat="45.89823" lon="6.55421">
        <ele>2163.1</ele>
        <time>2017-09-03T12:41:39Z</time>
      </trkpt>
      <trkpt lat="45.89823" lon="6.55409">
        <ele>2166.47</ele>
        <time>2017-09-03T12:41:54Z</time>
      </trkpt>
      <trkpt lat="45.89829" lon="6.55403">
        <ele>2169.35</ele>
        <time>2017-09-03T12:42:07Z</time>
      </trkpt>
      <trkpt lat="45.89836" lon="6.55395">
        <ele>2172.72</ele>
        <time>2017-09-03T12:42:21Z</time>
      </trkpt>
      <trkpt lat="45.89838" lon="6.55387">
        <ele>2175.6</ele>
        <time>2017-09-03T12:42:34Z</time>
      </trkpt>
      <trkpt lat="45.89836" lon="6.55384">
        <ele>2176.08</ele>
        <time>2017-09-03T12:42:38Z</time>
      </trkpt>
      <trkpt lat="45.89835" lon="6.55381">
        <ele>2177.04</ele>
        <time>2017-09-03T12:42:41Z</time>
      </trkpt>
      <trkpt lat="45.89839" lon="6.55374">
        <ele>2179.93</ele>
        <time>2017-09-03T12:42:54Z</time>
      </trkpt>
      <trkpt lat="45.89838" lon="6.55366">
        <ele>2182.81</ele>
        <time>2017-09-03T12:43:08Z</time>
      </trkpt>
      <trkpt lat="45.89839" lon="6.55358">
        <ele>2186.18</ele>
        <time>2017-09-03T12:43:22Z</time>
      </trkpt>
      <trkpt lat="45.8984" lon="6.55347">
        <ele>2189.54</ele>
        <time>2017-09-03T12:43:37Z</time>
      </trkpt>
      <trkpt lat="45.89841" lon="6.55342">
        <ele>2190.5</ele>
        <time>2017-09-03T12:43:43Z</time>
      </trkpt>
      <trkpt lat="45.89845" lon="6.55332">
        <ele>2193.87</ele>
        <time>2017-09-03T12:43:56Z</time>
      </trkpt>
      <trkpt lat="45.89849" lon="6.55324">
        <ele>2197.23</ele>
        <time>2017-09-03T12:44:08Z</time>
      </trkpt>
      <trkpt lat="45.89852" lon="6.55314">
        <ele>2200.11</ele>
        <time>2017-09-03T12:44:21Z</time>
      </trkpt>
      <trkpt lat="45.89852" lon="6.55312">
        <ele>2200.59</ele>
        <time>2017-09-03T12:44:22Z</time>
      </trkpt>
      <trkpt lat="45.89854" lon="6.55301">
        <ele>2203</ele>
        <time>2017-09-03T12:44:33Z</time>
      </trkpt>
      <trkpt lat="45.89854" lon="6.55293">
        <ele>2205.88</ele>
        <time>2017-09-03T12:44:46Z</time>
      </trkpt>
      <trkpt lat="45.89851" lon="6.55287">
        <ele>2207.81</ele>
        <time>2017-09-03T12:44:54Z</time>
      </trkpt>
      <trkpt lat="45.89848" lon="6.55276">
        <ele>2210.69</ele>
        <time>2017-09-03T12:45:07Z</time>
      </trkpt>
      <trkpt lat="45.89851" lon="6.55269">
        <ele>2213.09</ele>
        <time>2017-09-03T12:45:16Z</time>
      </trkpt>
      <trkpt lat="45.89858" lon="6.55264">
        <ele>2215.98</ele>
        <time>2017-09-03T12:45:29Z</time>
      </trkpt>
      <trkpt lat="45.89865" lon="6.55262">
        <ele>2219.34</ele>
        <time>2017-09-03T12:45:42Z</time>
      </trkpt>
      <trkpt lat="45.89867" lon="6.55256">
        <ele>2222.71</ele>
        <time>2017-09-03T12:45:57Z</time>
      </trkpt>
      <trkpt lat="45.8987" lon="6.55249">
        <ele>2225.59</ele>
        <time>2017-09-03T12:46:10Z</time>
      </trkpt>
      <trkpt lat="45.89871" lon="6.55245">
        <ele>2228.95</ele>
        <time>2017-09-03T12:46:21Z</time>
      </trkpt>
      <trkpt lat="45.89868" lon="6.55233">
        <ele>2231.84</ele>
        <time>2017-09-03T12:46:41Z</time>
      </trkpt>
      <trkpt lat="45.89865" lon="6.55231">
        <ele>2231.84</ele>
        <time>2017-09-03T12:46:44Z</time>
      </trkpt>
      <trkpt lat="45.89865" lon="6.55231">
        <ele>2232.32</ele>
        <time>2017-09-03T12:46:45Z</time>
      </trkpt>
      <trkpt lat="45.89864" lon="6.5523">
        <ele>2232.32</ele>
        <time>2017-09-03T12:46:46Z</time>
      </trkpt>
      <trkpt lat="45.89863" lon="6.5523">
        <ele>2232.32</ele>
        <time>2017-09-03T12:46:47Z</time>
      </trkpt>
      <trkpt lat="45.89862" lon="6.55229">
        <ele>2232.8</ele>
        <time>2017-09-03T12:46:48Z</time>
      </trkpt>
      <trkpt lat="45.89861" lon="6.55228">
        <ele>2232.8</ele>
        <time>2017-09-03T12:46:49Z</time>
      </trkpt>
      <trkpt lat="45.89851" lon="6.5522">
        <ele>2233.28</ele>
        <time>2017-09-03T12:47:01Z</time>
      </trkpt>
      <trkpt lat="45.89847" lon="6.55218">
        <ele>2232.8</ele>
        <time>2017-09-03T12:47:08Z</time>
      </trkpt>
      <trkpt lat="45.89847" lon="6.55219">
        <ele>2232.8</ele>
        <time>2017-09-03T12:47:15Z</time>
      </trkpt>
      <trkpt lat="45.89847" lon="6.55219">
        <ele>2232.32</ele>
        <time>2017-09-03T12:47:22Z</time>
      </trkpt>
      <trkpt lat="45.89847" lon="6.55219">
        <ele>2231.84</ele>
        <time>2017-09-03T12:47:24Z</time>
      </trkpt>
      <trkpt lat="45.89847" lon="6.55219">
        <ele>2231.84</ele>
        <time>2017-09-03T12:47:25Z</time>
      </trkpt>
      <trkpt lat="45.89847" lon="6.55219">
        <ele>2231.84</ele>
        <time>2017-09-03T12:47:29Z</time>
      </trkpt>
      <trkpt lat="45.89847" lon="6.55219">
        <ele>2231.84</ele>
        <time>2017-09-03T12:47:34Z</time>
      </trkpt>
      <trkpt lat="45.89847" lon="6.5522">
        <ele>2231.84</ele>
        <time>2017-09-03T12:47:38Z</time>
      </trkpt>
      <trkpt lat="45.89847" lon="6.5522">
        <ele>2231.84</ele>
        <time>2017-09-03T12:47:42Z</time>
      </trkpt>
      <trkpt lat="45.89847" lon="6.5522">
        <ele>2231.84</ele>
        <time>2017-09-03T12:47:45Z</time>
      </trkpt>
      <trkpt lat="45.89847" lon="6.55221">
        <ele>2231.84</ele>
        <time>2017-09-03T12:47:52Z</time>
      </trkpt>
      <trkpt lat="45.89847" lon="6.55221">
        <ele>2231.84</ele>
        <time>2017-09-03T12:48:03Z</time>
      </trkpt>
      <trkpt lat="45.89847" lon="6.5522">
        <ele>2231.84</ele>
        <time>2017-09-03T12:48:32Z</time>
      </trkpt>
      <trkpt lat="45.89847" lon="6.55219">
        <ele>2231.84</ele>
        <time>2017-09-03T12:48:37Z</time>
      </trkpt>
      <trkpt lat="45.89847" lon="6.5522">
        <ele>2231.84</ele>
        <time>2017-09-03T12:49:28Z</time>
      </trkpt>
      <trkpt lat="45.89847" lon="6.5522">
        <ele>2232.32</ele>
        <time>2017-09-03T12:49:52Z</time>
      </trkpt>
      <trkpt lat="45.89847" lon="6.55222">
        <ele>2233.76</ele>
        <time>2017-09-03T12:50:06Z</time>
      </trkpt>
      <trkpt lat="45.89847" lon="6.55222">
        <ele>2233.76</ele>
        <time>2017-09-03T12:50:07Z</time>
      </trkpt>
      <trkpt lat="45.89847" lon="6.55222">
        <ele>2233.76</ele>
        <time>2017-09-03T12:50:09Z</time>
      </trkpt>
      <trkpt lat="45.89846" lon="6.55222">
        <ele>2233.28</ele>
        <time>2017-09-03T12:50:11Z</time>
      </trkpt>
      <trkpt lat="45.89846" lon="6.55221">
        <ele>2232.8</ele>
        <time>2017-09-03T12:50:14Z</time>
      </trkpt>
      <trkpt lat="45.89845" lon="6.55221">
        <ele>2233.28</ele>
        <time>2017-09-03T12:50:29Z</time>
      </trkpt>
      <trkpt lat="45.89844" lon="6.55219">
        <ele>2233.28</ele>
        <time>2017-09-03T12:50:31Z</time>
      </trkpt>
      <trkpt lat="45.8984" lon="6.55212">
        <ele>2232.8</ele>
        <time>2017-09-03T12:50:46Z</time>
      </trkpt>
      <trkpt lat="45.89839" lon="6.55211">
        <ele>2232.8</ele>
        <time>2017-09-03T12:50:47Z</time>
      </trkpt>
      <trkpt lat="45.89838" lon="6.5521">
        <ele>2232.8</ele>
        <time>2017-09-03T12:50:48Z</time>
      </trkpt>
      <trkpt lat="45.89837" lon="6.55209">
        <ele>2232.32</ele>
        <time>2017-09-03T12:50:49Z</time>
      </trkpt>
      <trkpt lat="45.89837" lon="6.55208">
        <ele>2232.32</ele>
        <time>2017-09-03T12:50:50Z</time>
      </trkpt>
      <trkpt lat="45.89835" lon="6.55207">
        <ele>2232.32</ele>
        <time>2017-09-03T12:50:51Z</time>
      </trkpt>
      <trkpt lat="45.89818" lon="6.55193">
        <ele>2229.43</ele>
        <time>2017-09-03T12:50:59Z</time>
      </trkpt>
      <trkpt lat="45.89808" lon="6.55186">
        <ele>2227.51</ele>
        <time>2017-09-03T12:51:04Z</time>
      </trkpt>
      <trkpt lat="45.89802" lon="6.5518">
        <ele>2226.55</ele>
        <time>2017-09-03T12:51:09Z</time>
      </trkpt>
      <trkpt lat="45.898" lon="6.5518">
        <ele>2226.07</ele>
        <time>2017-09-03T12:51:10Z</time>
      </trkpt>
      <trkpt lat="45.89787" lon="6.5518">
        <ele>2223.19</ele>
        <time>2017-09-03T12:51:28Z</time>
      </trkpt>
      <trkpt lat="45.89786" lon="6.55182">
        <ele>2222.22</ele>
        <time>2017-09-03T12:51:29Z</time>
      </trkpt>
      <trkpt lat="45.89786" lon="6.55183">
        <ele>2222.22</ele>
        <time>2017-09-03T12:51:30Z</time>
      </trkpt>
      <trkpt lat="45.89786" lon="6.55185">
        <ele>2221.74</ele>
        <time>2017-09-03T12:51:31Z</time>
      </trkpt>
      <trkpt lat="45.89787" lon="6.55187">
        <ele>2220.78</ele>
        <time>2017-09-03T12:51:32Z</time>
      </trkpt>
      <trkpt lat="45.89787" lon="6.55189">
        <ele>2220.78</ele>
        <time>2017-09-03T12:51:33Z</time>
      </trkpt>
      <trkpt lat="45.89788" lon="6.5519">
        <ele>2219.82</ele>
        <time>2017-09-03T12:51:34Z</time>
      </trkpt>
      <trkpt lat="45.89788" lon="6.55192">
        <ele>2219.34</ele>
        <time>2017-09-03T12:51:35Z</time>
      </trkpt>
      <trkpt lat="45.89788" lon="6.55195">
        <ele>2218.38</ele>
        <time>2017-09-03T12:51:36Z</time>
      </trkpt>
      <trkpt lat="45.89788" lon="6.55197">
        <ele>2217.9</ele>
        <time>2017-09-03T12:51:37Z</time>
      </trkpt>
      <trkpt lat="45.89789" lon="6.55206">
        <ele>2215.5</ele>
        <time>2017-09-03T12:51:41Z</time>
      </trkpt>
      <trkpt lat="45.89791" lon="6.55217">
        <ele>2213.09</ele>
        <time>2017-09-03T12:51:45Z</time>
      </trkpt>
      <trkpt lat="45.89791" lon="6.55228">
        <ele>2209.73</ele>
        <time>2017-09-03T12:51:49Z</time>
      </trkpt>
      <trkpt lat="45.89793" lon="6.55248">
        <ele>2206.36</ele>
        <time>2017-09-03T12:51:57Z</time>
      </trkpt>
      <trkpt lat="45.89801" lon="6.55265">
        <ele>2203.48</ele>
        <time>2017-09-03T12:52:06Z</time>
      </trkpt>
      <trkpt lat="45.89802" lon="6.55267">
        <ele>2203</ele>
        <time>2017-09-03T12:52:07Z</time>
      </trkpt>
      <trkpt lat="45.89817" lon="6.55288">
        <ele>2200.59</ele>
        <time>2017-09-03T12:52:16Z</time>
      </trkpt>
      <trkpt lat="45.89829" lon="6.55307">
        <ele>2198.19</ele>
        <time>2017-09-03T12:52:23Z</time>
      </trkpt>
      <trkpt lat="45.8984" lon="6.55322">
        <ele>2196.27</ele>
        <time>2017-09-03T12:52:30Z</time>
      </trkpt>
      <trkpt lat="45.89847" lon="6.55348">
        <ele>2192.42</ele>
        <time>2017-09-03T12:52:41Z</time>
      </trkpt>
      <trkpt lat="45.89846" lon="6.55351">
        <ele>2190.98</ele>
        <time>2017-09-03T12:52:43Z</time>
      </trkpt>
      <trkpt lat="45.89842" lon="6.55361">
        <ele>2187.62</ele>
        <time>2017-09-03T12:52:55Z</time>
      </trkpt>
      <trkpt lat="45.89842" lon="6.55362">
        <ele>2187.14</ele>
        <time>2017-09-03T12:52:56Z</time>
      </trkpt>
      <trkpt lat="45.89842" lon="6.55366">
        <ele>2185.69</ele>
        <time>2017-09-03T12:52:59Z</time>
      </trkpt>
      <trkpt lat="45.89842" lon="6.55367">
        <ele>2184.73</ele>
        <time>2017-09-03T12:53:00Z</time>
      </trkpt>
      <trkpt lat="45.89842" lon="6.55369">
        <ele>2184.25</ele>
        <time>2017-09-03T12:53:01Z</time>
      </trkpt>
      <trkpt lat="45.89842" lon="6.55376">
        <ele>2181.85</ele>
        <time>2017-09-03T12:53:06Z</time>
      </trkpt>
      <trkpt lat="45.89842" lon="6.55378">
        <ele>2181.85</ele>
        <time>2017-09-03T12:53:07Z</time>
      </trkpt>
      <trkpt lat="45.89842" lon="6.5538">
        <ele>2181.37</ele>
        <time>2017-09-03T12:53:08Z</time>
      </trkpt>
      <trkpt lat="45.8984" lon="6.55381">
        <ele>2180.41</ele>
        <time>2017-09-03T12:53:09Z</time>
      </trkpt>
      <trkpt lat="45.89839" lon="6.55382">
        <ele>2179.93</ele>
        <time>2017-09-03T12:53:10Z</time>
      </trkpt>
      <trkpt lat="45.89838" lon="6.55383">
        <ele>2179.45</ele>
        <time>2017-09-03T12:53:11Z</time>
      </trkpt>
      <trkpt lat="45.89838" lon="6.55384">
        <ele>2178.97</ele>
        <time>2017-09-03T12:53:12Z</time>
      </trkpt>
      <trkpt lat="45.89838" lon="6.55387">
        <ele>2178</ele>
        <time>2017-09-03T12:53:13Z</time>
      </trkpt>
      <trkpt lat="45.89839" lon="6.55389">
        <ele>2177.52</ele>
        <time>2017-09-03T12:53:14Z</time>
      </trkpt>
      <trkpt lat="45.89839" lon="6.5539">
        <ele>2177.04</ele>
        <time>2017-09-03T12:53:15Z</time>
      </trkpt>
      <trkpt lat="45.89838" lon="6.55391">
        <ele>2176.56</ele>
        <time>2017-09-03T12:53:16Z</time>
      </trkpt>
      <trkpt lat="45.89837" lon="6.55392">
        <ele>2176.56</ele>
        <time>2017-09-03T12:53:17Z</time>
      </trkpt>
      <trkpt lat="45.89837" lon="6.55394">
        <ele>2176.08</ele>
        <time>2017-09-03T12:53:18Z</time>
      </trkpt>
      <trkpt lat="45.89833" lon="6.55398">
        <ele>2173.68</ele>
        <time>2017-09-03T12:53:22Z</time>
      </trkpt>
      <trkpt lat="45.89833" lon="6.55399">
        <ele>2173.2</ele>
        <time>2017-09-03T12:53:23Z</time>
      </trkpt>
      <trkpt lat="45.89834" lon="6.55401">
        <ele>2173.2</ele>
        <time>2017-09-03T12:53:24Z</time>
      </trkpt>
      <trkpt lat="45.89834" lon="6.55403">
        <ele>2172.24</ele>
        <time>2017-09-03T12:53:25Z</time>
      </trkpt>
      <trkpt lat="45.89834" lon="6.55405">
        <ele>2171.76</ele>
        <time>2017-09-03T12:53:26Z</time>
      </trkpt>
      <trkpt lat="45.89833" lon="6.55407">
        <ele>2171.27</ele>
        <time>2017-09-03T12:53:27Z</time>
      </trkpt>
      <trkpt lat="45.89832" lon="6.55409">
        <ele>2170.79</ele>
        <time>2017-09-03T12:53:28Z</time>
      </trkpt>
      <trkpt lat="45.8983" lon="6.5541">
        <ele>2170.31</ele>
        <time>2017-09-03T12:53:29Z</time>
      </trkpt>
      <trkpt lat="45.89829" lon="6.55412">
        <ele>2169.83</ele>
        <time>2017-09-03T12:53:30Z</time>
      </trkpt>
      <trkpt lat="45.89827" lon="6.55413">
        <ele>2169.35</ele>
        <time>2017-09-03T12:53:31Z</time>
      </trkpt>
      <trkpt lat="45.89825" lon="6.55413">
        <ele>2168.39</ele>
        <time>2017-09-03T12:53:32Z</time>
      </trkpt>
      <trkpt lat="45.89824" lon="6.55414">
        <ele>2167.91</ele>
        <time>2017-09-03T12:53:33Z</time>
      </trkpt>
      <trkpt lat="45.89824" lon="6.55416">
        <ele>2167.91</ele>
        <time>2017-09-03T12:53:34Z</time>
      </trkpt>
      <trkpt lat="45.89824" lon="6.55418">
        <ele>2167.43</ele>
        <time>2017-09-03T12:53:35Z</time>
      </trkpt>
      <trkpt lat="45.89824" lon="6.5542">
        <ele>2166.47</ele>
        <time>2017-09-03T12:53:36Z</time>
      </trkpt>
      <trkpt lat="45.89825" lon="6.55422">
        <ele>2165.51</ele>
        <time>2017-09-03T12:53:37Z</time>
      </trkpt>
      <trkpt lat="45.89825" lon="6.55424">
        <ele>2164.55</ele>
        <time>2017-09-03T12:53:38Z</time>
      </trkpt>
      <trkpt lat="45.89825" lon="6.55427">
        <ele>2164.06</ele>
        <time>2017-09-03T12:53:39Z</time>
      </trkpt>
      <trkpt lat="45.89824" lon="6.55429">
        <ele>2163.58</ele>
        <time>2017-09-03T12:53:40Z</time>
      </trkpt>
      <trkpt lat="45.89824" lon="6.5543">
        <ele>2163.1</ele>
        <time>2017-09-03T12:53:41Z</time>
      </trkpt>
      <trkpt lat="45.89825" lon="6.55432">
        <ele>2162.62</ele>
        <time>2017-09-03T12:53:42Z</time>
      </trkpt>
      <trkpt lat="45.89825" lon="6.55434">
        <ele>2162.14</ele>
        <time>2017-09-03T12:53:43Z</time>
      </trkpt>
      <trkpt lat="45.89825" lon="6.55436">
        <ele>2161.18</ele>
        <time>2017-09-03T12:53:44Z</time>
      </trkpt>
      <trkpt lat="45.89826" lon="6.55438">
        <ele>2160.7</ele>
        <time>2017-09-03T12:53:45Z</time>
      </trkpt>
      <trkpt lat="45.89826" lon="6.5544">
        <ele>2160.22</ele>
        <time>2017-09-03T12:53:46Z</time>
      </trkpt>
      <trkpt lat="45.89825" lon="6.55443">
        <ele>2159.74</ele>
        <time>2017-09-03T12:53:47Z</time>
      </trkpt>
      <trkpt lat="45.89824" lon="6.55445">
        <ele>2159.26</ele>
        <time>2017-09-03T12:53:48Z</time>
      </trkpt>
      <trkpt lat="45.89824" lon="6.55446">
        <ele>2158.78</ele>
        <time>2017-09-03T12:53:49Z</time>
      </trkpt>
      <trkpt lat="45.89824" lon="6.55449">
        <ele>2158.3</ele>
        <time>2017-09-03T12:53:50Z</time>
      </trkpt>
      <trkpt lat="45.89824" lon="6.55451">
        <ele>2157.34</ele>
        <time>2017-09-03T12:53:51Z</time>
      </trkpt>
      <trkpt lat="45.89824" lon="6.55453">
        <ele>2156.86</ele>
        <time>2017-09-03T12:53:52Z</time>
      </trkpt>
      <trkpt lat="45.89824" lon="6.55456">
        <ele>2156.37</ele>
        <time>2017-09-03T12:53:53Z</time>
      </trkpt>
      <trkpt lat="45.89824" lon="6.55467">
        <ele>2153.01</ele>
        <time>2017-09-03T12:53:57Z</time>
      </trkpt>
      <trkpt lat="45.89823" lon="6.55479">
        <ele>2149.65</ele>
        <time>2017-09-03T12:54:02Z</time>
      </trkpt>
      <trkpt lat="45.89821" lon="6.55493">
        <ele>2146.28</ele>
        <time>2017-09-03T12:54:07Z</time>
      </trkpt>
      <trkpt lat="45.8982" lon="6.55507">
        <ele>2143.4</ele>
        <time>2017-09-03T12:54:12Z</time>
      </trkpt>
      <trkpt lat="45.8982" lon="6.55523">
        <ele>2140.03</ele>
        <time>2017-09-03T12:54:19Z</time>
      </trkpt>
      <trkpt lat="45.89818" lon="6.5554">
        <ele>2136.67</ele>
        <time>2017-09-03T12:54:26Z</time>
      </trkpt>
      <trkpt lat="45.89817" lon="6.55549">
        <ele>2134.74</ele>
        <time>2017-09-03T12:54:30Z</time>
      </trkpt>
      <trkpt lat="45.89817" lon="6.55552">
        <ele>2133.78</ele>
        <time>2017-09-03T12:54:32Z</time>
      </trkpt>
      <trkpt lat="45.89816" lon="6.55554">
        <ele>2133.3</ele>
        <time>2017-09-03T12:54:33Z</time>
      </trkpt>
      <trkpt lat="45.89815" lon="6.55554">
        <ele>2133.3</ele>
        <time>2017-09-03T12:54:34Z</time>
      </trkpt>
      <trkpt lat="45.89814" lon="6.55555">
        <ele>2132.82</ele>
        <time>2017-09-03T12:54:35Z</time>
      </trkpt>
      <trkpt lat="45.89813" lon="6.55557">
        <ele>2132.82</ele>
        <time>2017-09-03T12:54:36Z</time>
      </trkpt>
      <trkpt lat="45.89812" lon="6.55558">
        <ele>2132.34</ele>
        <time>2017-09-03T12:54:37Z</time>
      </trkpt>
      <trkpt lat="45.89811" lon="6.55559">
        <ele>2131.38</ele>
        <time>2017-09-03T12:54:38Z</time>
      </trkpt>
      <trkpt lat="45.89809" lon="6.5556">
        <ele>2131.38</ele>
        <time>2017-09-03T12:54:39Z</time>
      </trkpt>
      <trkpt lat="45.89808" lon="6.55559">
        <ele>2130.9</ele>
        <time>2017-09-03T12:54:40Z</time>
      </trkpt>
      <trkpt lat="45.89806" lon="6.55559">
        <ele>2130.42</ele>
        <time>2017-09-03T12:54:41Z</time>
      </trkpt>
      <trkpt lat="45.89805" lon="6.55559">
        <ele>2129.94</ele>
        <time>2017-09-03T12:54:42Z</time>
      </trkpt>
      <trkpt lat="45.89804" lon="6.5556">
        <ele>2129.46</ele>
        <time>2017-09-03T12:54:43Z</time>
      </trkpt>
      <trkpt lat="45.89803" lon="6.55562">
        <ele>2128.98</ele>
        <time>2017-09-03T12:54:44Z</time>
      </trkpt>
      <trkpt lat="45.89801" lon="6.55563">
        <ele>2128.5</ele>
        <time>2017-09-03T12:54:45Z</time>
      </trkpt>
      <trkpt lat="45.898" lon="6.55564">
        <ele>2128.02</ele>
        <time>2017-09-03T12:54:46Z</time>
      </trkpt>
      <trkpt lat="45.89799" lon="6.55564">
        <ele>2127.53</ele>
        <time>2017-09-03T12:54:47Z</time>
      </trkpt>
      <trkpt lat="45.89797" lon="6.55563">
        <ele>2127.05</ele>
        <time>2017-09-03T12:54:48Z</time>
      </trkpt>
      <trkpt lat="45.89796" lon="6.55563">
        <ele>2126.57</ele>
        <time>2017-09-03T12:54:49Z</time>
      </trkpt>
      <trkpt lat="45.89792" lon="6.55562">
        <ele>2126.09</ele>
        <time>2017-09-03T12:54:51Z</time>
      </trkpt>
      <trkpt lat="45.8978" lon="6.55563">
        <ele>2122.73</ele>
        <time>2017-09-03T12:54:58Z</time>
      </trkpt>
      <trkpt lat="45.89777" lon="6.55561">
        <ele>2121.77</ele>
        <time>2017-09-03T12:55:00Z</time>
      </trkpt>
      <trkpt lat="45.89773" lon="6.55561">
        <ele>2120.81</ele>
        <time>2017-09-03T12:55:02Z</time>
      </trkpt>
      <trkpt lat="45.89772" lon="6.55562">
        <ele>2120.32</ele>
        <time>2017-09-03T12:55:03Z</time>
      </trkpt>
      <trkpt lat="45.89771" lon="6.55564">
        <ele>2119.84</ele>
        <time>2017-09-03T12:55:04Z</time>
      </trkpt>
      <trkpt lat="45.89769" lon="6.55565">
        <ele>2119.36</ele>
        <time>2017-09-03T12:55:05Z</time>
      </trkpt>
      <trkpt lat="45.89768" lon="6.55565">
        <ele>2118.4</ele>
        <time>2017-09-03T12:55:06Z</time>
      </trkpt>
      <trkpt lat="45.89766" lon="6.55565">
        <ele>2117.92</ele>
        <time>2017-09-03T12:55:07Z</time>
      </trkpt>
      <trkpt lat="45.89764" lon="6.55564">
        <ele>2116.96</ele>
        <time>2017-09-03T12:55:08Z</time>
      </trkpt>
      <trkpt lat="45.89762" lon="6.55563">
        <ele>2116.48</ele>
        <time>2017-09-03T12:55:09Z</time>
      </trkpt>
      <trkpt lat="45.89761" lon="6.55561">
        <ele>2116</ele>
        <time>2017-09-03T12:55:10Z</time>
      </trkpt>
      <trkpt lat="45.89759" lon="6.5556">
        <ele>2116</ele>
        <time>2017-09-03T12:55:11Z</time>
      </trkpt>
      <trkpt lat="45.89758" lon="6.55559">
        <ele>2115.04</ele>
        <time>2017-09-03T12:55:12Z</time>
      </trkpt>
      <trkpt lat="45.89756" lon="6.55559">
        <ele>2114.56</ele>
        <time>2017-09-03T12:55:13Z</time>
      </trkpt>
      <trkpt lat="45.89755" lon="6.55558">
        <ele>2114.56</ele>
        <time>2017-09-03T12:55:14Z</time>
      </trkpt>
      <trkpt lat="45.89754" lon="6.55558">
        <ele>2114.08</ele>
        <time>2017-09-03T12:55:15Z</time>
      </trkpt>
      <trkpt lat="45.89753" lon="6.55557">
        <ele>2113.6</ele>
        <time>2017-09-03T12:55:16Z</time>
      </trkpt>
      <trkpt lat="45.89751" lon="6.55556">
        <ele>2113.6</ele>
        <time>2017-09-03T12:55:17Z</time>
      </trkpt>
      <trkpt lat="45.8975" lon="6.55556">
        <ele>2113.12</ele>
        <time>2017-09-03T12:55:18Z</time>
      </trkpt>
      <trkpt lat="45.89748" lon="6.55555">
        <ele>2112.63</ele>
        <time>2017-09-03T12:55:19Z</time>
      </trkpt>
      <trkpt lat="45.89746" lon="6.55555">
        <ele>2111.67</ele>
        <time>2017-09-03T12:55:20Z</time>
      </trkpt>
      <trkpt lat="45.89744" lon="6.55554">
        <ele>2110.71</ele>
        <time>2017-09-03T12:55:22Z</time>
      </trkpt>
      <trkpt lat="45.89744" lon="6.55556">
        <ele>2108.79</ele>
        <time>2017-09-03T12:55:25Z</time>
      </trkpt>
      <trkpt lat="45.89744" lon="6.55558">
        <ele>2108.31</ele>
        <time>2017-09-03T12:55:26Z</time>
      </trkpt>
      <trkpt lat="45.89745" lon="6.5556">
        <ele>2107.83</ele>
        <time>2017-09-03T12:55:27Z</time>
      </trkpt>
      <trkpt lat="45.89745" lon="6.55562">
        <ele>2107.83</ele>
        <time>2017-09-03T12:55:28Z</time>
      </trkpt>
      <trkpt lat="45.89744" lon="6.55564">
        <ele>2106.87</ele>
        <time>2017-09-03T12:55:29Z</time>
      </trkpt>
      <trkpt lat="45.89743" lon="6.55566">
        <ele>2106.39</ele>
        <time>2017-09-03T12:55:30Z</time>
      </trkpt>
      <trkpt lat="45.89741" lon="6.55576">
        <ele>2103.5</ele>
        <time>2017-09-03T12:55:35Z</time>
      </trkpt>
      <trkpt lat="45.89739" lon="6.55584">
        <ele>2100.62</ele>
        <time>2017-09-03T12:55:39Z</time>
      </trkpt>
      <trkpt lat="45.89739" lon="6.55587">
        <ele>2100.62</ele>
        <time>2017-09-03T12:55:40Z</time>
      </trkpt>
      <trkpt lat="45.89739" lon="6.55594">
        <ele>2099.18</ele>
        <time>2017-09-03T12:55:44Z</time>
      </trkpt>
      <trkpt lat="45.8974" lon="6.55595">
        <ele>2099.18</ele>
        <time>2017-09-03T12:55:45Z</time>
      </trkpt>
      <trkpt lat="45.89741" lon="6.55596">
        <ele>2099.18</ele>
        <time>2017-09-03T12:55:46Z</time>
      </trkpt>
      <trkpt lat="45.89745" lon="6.55597">
        <ele>2098.7</ele>
        <time>2017-09-03T12:55:52Z</time>
      </trkpt>
      <trkpt lat="45.89752" lon="6.55598">
        <ele>2099.18</ele>
        <time>2017-09-03T12:55:58Z</time>
      </trkpt>
      <trkpt lat="45.89761" lon="6.55602">
        <ele>2098.7</ele>
        <time>2017-09-03T12:56:08Z</time>
      </trkpt>
      <trkpt lat="45.89769" lon="6.55605">
        <ele>2099.18</ele>
        <time>2017-09-03T12:56:16Z</time>
      </trkpt>
      <trkpt lat="45.89787" lon="6.55615">
        <ele>2097.73</ele>
        <time>2017-09-03T12:56:26Z</time>
      </trkpt>
      <trkpt lat="45.89802" lon="6.5562">
        <ele>2097.73</ele>
        <time>2017-09-03T12:56:33Z</time>
      </trkpt>
      <trkpt lat="45.8981" lon="6.55624">
        <ele>2098.7</ele>
        <time>2017-09-03T12:56:37Z</time>
      </trkpt>
      <trkpt lat="45.8982" lon="6.55628">
        <ele>2098.7</ele>
        <time>2017-09-03T12:56:42Z</time>
      </trkpt>
      <trkpt lat="45.89834" lon="6.55634">
        <ele>2097.25</ele>
        <time>2017-09-03T12:56:48Z</time>
      </trkpt>
      <trkpt lat="45.89854" lon="6.55627">
        <ele>2096.77</ele>
        <time>2017-09-03T12:56:58Z</time>
      </trkpt>
      <trkpt lat="45.89864" lon="6.55613">
        <ele>2093.41</ele>
        <time>2017-09-03T12:57:06Z</time>
      </trkpt>
      <trkpt lat="45.89865" lon="6.55613">
        <ele>2092.93</ele>
        <time>2017-09-03T12:57:07Z</time>
      </trkpt>
      <trkpt lat="45.89866" lon="6.55612">
        <ele>2091.97</ele>
        <time>2017-09-03T12:57:08Z</time>
      </trkpt>
      <trkpt lat="45.89876" lon="6.55603">
        <ele>2089.08</ele>
        <time>2017-09-03T12:57:14Z</time>
      </trkpt>
      <trkpt lat="45.89883" lon="6.55597">
        <ele>2086.2</ele>
        <time>2017-09-03T12:57:19Z</time>
      </trkpt>
      <trkpt lat="45.89888" lon="6.55591">
        <ele>2085.24</ele>
        <time>2017-09-03T12:57:22Z</time>
      </trkpt>
      <trkpt lat="45.89902" lon="6.55571">
        <ele>2082.83</ele>
        <time>2017-09-03T12:57:30Z</time>
      </trkpt>
      <trkpt lat="45.8992" lon="6.5556">
        <ele>2080.91</ele>
        <time>2017-09-03T12:57:38Z</time>
      </trkpt>
      <trkpt lat="45.89929" lon="6.55553">
        <ele>2078.51</ele>
        <time>2017-09-03T12:57:44Z</time>
      </trkpt>
      <trkpt lat="45.89941" lon="6.5554">
        <ele>2075.14</ele>
        <time>2017-09-03T12:57:52Z</time>
      </trkpt>
      <trkpt lat="45.89953" lon="6.55529">
        <ele>2071.78</ele>
        <time>2017-09-03T12:58:01Z</time>
      </trkpt>
      <trkpt lat="45.8996" lon="6.55514">
        <ele>2069.86</ele>
        <time>2017-09-03T12:58:09Z</time>
      </trkpt>
      <trkpt lat="45.89962" lon="6.55513">
        <ele>2069.86</ele>
        <time>2017-09-03T12:58:10Z</time>
      </trkpt>
      <trkpt lat="45.89963" lon="6.55514">
        <ele>2070.34</ele>
        <time>2017-09-03T12:58:11Z</time>
      </trkpt>
      <trkpt lat="45.89979" lon="6.5552">
        <ele>2067.45</ele>
        <time>2017-09-03T12:58:21Z</time>
      </trkpt>
      <trkpt lat="45.8998" lon="6.55521">
        <ele>2066.97</ele>
        <time>2017-09-03T12:58:22Z</time>
      </trkpt>
      <trkpt lat="45.89982" lon="6.55521">
        <ele>2066.97</ele>
        <time>2017-09-03T12:58:23Z</time>
      </trkpt>
      <trkpt lat="45.89983" lon="6.55522">
        <ele>2066.97</ele>
        <time>2017-09-03T12:58:24Z</time>
      </trkpt>
      <trkpt lat="45.89985" lon="6.55522">
        <ele>2066.49</ele>
        <time>2017-09-03T12:58:25Z</time>
      </trkpt>
      <trkpt lat="45.89987" lon="6.55522">
        <ele>2066.01</ele>
        <time>2017-09-03T12:58:26Z</time>
      </trkpt>
      <trkpt lat="45.89989" lon="6.55523">
        <ele>2065.53</ele>
        <time>2017-09-03T12:58:27Z</time>
      </trkpt>
      <trkpt lat="45.89991" lon="6.55525">
        <ele>2065.05</ele>
        <time>2017-09-03T12:58:28Z</time>
      </trkpt>
      <trkpt lat="45.9001" lon="6.55532">
        <ele>2062.17</ele>
        <time>2017-09-03T12:58:37Z</time>
      </trkpt>
      <trkpt lat="45.90016" lon="6.55534">
        <ele>2060.72</ele>
        <time>2017-09-03T12:58:41Z</time>
      </trkpt>
      <trkpt lat="45.9003" lon="6.55534">
        <ele>2057.84</ele>
        <time>2017-09-03T12:58:48Z</time>
      </trkpt>
      <trkpt lat="45.90049" lon="6.55547">
        <ele>2054.47</ele>
        <time>2017-09-03T12:58:58Z</time>
      </trkpt>
      <trkpt lat="45.90052" lon="6.55548">
        <ele>2053.99</ele>
        <time>2017-09-03T12:59:00Z</time>
      </trkpt>
      <trkpt lat="45.90053" lon="6.55548">
        <ele>2053.99</ele>
        <time>2017-09-03T12:59:01Z</time>
      </trkpt>
      <trkpt lat="45.90055" lon="6.55548">
        <ele>2053.03</ele>
        <time>2017-09-03T12:59:02Z</time>
      </trkpt>
      <trkpt lat="45.90056" lon="6.55548">
        <ele>2053.03</ele>
        <time>2017-09-03T12:59:03Z</time>
      </trkpt>
      <trkpt lat="45.90057" lon="6.55547">
        <ele>2052.55</ele>
        <time>2017-09-03T12:59:04Z</time>
      </trkpt>
      <trkpt lat="45.9006" lon="6.55548">
        <ele>2052.07</ele>
        <time>2017-09-03T12:59:05Z</time>
      </trkpt>
      <trkpt lat="45.90062" lon="6.55549">
        <ele>2051.59</ele>
        <time>2017-09-03T12:59:06Z</time>
      </trkpt>
      <trkpt lat="45.90077" lon="6.55556">
        <ele>2048.71</ele>
        <time>2017-09-03T12:59:14Z</time>
      </trkpt>
      <trkpt lat="45.90095" lon="6.55568">
        <ele>2046.3</ele>
        <time>2017-09-03T12:59:23Z</time>
      </trkpt>
      <trkpt lat="45.90097" lon="6.5557">
        <ele>2046.3</ele>
        <time>2017-09-03T12:59:24Z</time>
      </trkpt>
      <trkpt lat="45.90113" lon="6.55587">
        <ele>2042.46</ele>
        <time>2017-09-03T12:59:33Z</time>
      </trkpt>
      <trkpt lat="45.90115" lon="6.55589">
        <ele>2041.98</ele>
        <time>2017-09-03T12:59:35Z</time>
      </trkpt>
      <trkpt lat="45.90125" lon="6.55601">
        <ele>2038.61</ele>
        <time>2017-09-03T12:59:42Z</time>
      </trkpt>
      <trkpt lat="45.90129" lon="6.55606">
        <ele>2037.17</ele>
        <time>2017-09-03T12:59:45Z</time>
      </trkpt>
      <trkpt lat="45.90131" lon="6.55608">
        <ele>2036.21</ele>
        <time>2017-09-03T12:59:46Z</time>
      </trkpt>
      <trkpt lat="45.90145" lon="6.55619">
        <ele>2033.33</ele>
        <time>2017-09-03T12:59:55Z</time>
      </trkpt>
      <trkpt lat="45.90147" lon="6.55621">
        <ele>2033.33</ele>
        <time>2017-09-03T12:59:56Z</time>
      </trkpt>
      <trkpt lat="45.90164" lon="6.55639">
        <ele>2029.96</ele>
        <time>2017-09-03T13:00:04Z</time>
      </trkpt>
      <trkpt lat="45.90175" lon="6.55664">
        <ele>2028.04</ele>
        <time>2017-09-03T13:00:14Z</time>
      </trkpt>
      <trkpt lat="45.9018" lon="6.55684">
        <ele>2024.67</ele>
        <time>2017-09-03T13:00:21Z</time>
      </trkpt>
      <trkpt lat="45.90185" lon="6.557">
        <ele>2021.79</ele>
        <time>2017-09-03T13:00:28Z</time>
      </trkpt>
      <trkpt lat="45.90187" lon="6.55704">
        <ele>2020.83</ele>
        <time>2017-09-03T13:00:30Z</time>
      </trkpt>
      <trkpt lat="45.90189" lon="6.55708">
        <ele>2019.87</ele>
        <time>2017-09-03T13:00:32Z</time>
      </trkpt>
      <trkpt lat="45.9019" lon="6.55715">
        <ele>2017.94</ele>
        <time>2017-09-03T13:00:35Z</time>
      </trkpt>
      <trkpt lat="45.9019" lon="6.55718">
        <ele>2016.98</ele>
        <time>2017-09-03T13:00:36Z</time>
      </trkpt>
      <trkpt lat="45.90191" lon="6.55718">
        <ele>2016.02</ele>
        <time>2017-09-03T13:00:39Z</time>
      </trkpt>
      <trkpt lat="45.90192" lon="6.55717">
        <ele>2015.06</ele>
        <time>2017-09-03T13:00:40Z</time>
      </trkpt>
      <trkpt lat="45.90199" lon="6.55709">
        <ele>2011.7</ele>
        <time>2017-09-03T13:00:47Z</time>
      </trkpt>
      <trkpt lat="45.90205" lon="6.55703">
        <ele>2009.77</ele>
        <time>2017-09-03T13:00:52Z</time>
      </trkpt>
      <trkpt lat="45.9021" lon="6.55699">
        <ele>2007.85</ele>
        <time>2017-09-03T13:00:55Z</time>
      </trkpt>
      <trkpt lat="45.90212" lon="6.55698">
        <ele>2006.89</ele>
        <time>2017-09-03T13:00:56Z</time>
      </trkpt>
      <trkpt lat="45.9022" lon="6.55691">
        <ele>2004.01</ele>
        <time>2017-09-03T13:01:02Z</time>
      </trkpt>
      <trkpt lat="45.90222" lon="6.55691">
        <ele>2003.52</ele>
        <time>2017-09-03T13:01:03Z</time>
      </trkpt>
      <trkpt lat="45.90223" lon="6.55691">
        <ele>2003.04</ele>
        <time>2017-09-03T13:01:04Z</time>
      </trkpt>
      <trkpt lat="45.90225" lon="6.55691">
        <ele>2002.56</ele>
        <time>2017-09-03T13:01:05Z</time>
      </trkpt>
      <trkpt lat="45.90227" lon="6.55691">
        <ele>2002.08</ele>
        <time>2017-09-03T13:01:06Z</time>
      </trkpt>
      <trkpt lat="45.90229" lon="6.55691">
        <ele>2001.12</ele>
        <time>2017-09-03T13:01:07Z</time>
      </trkpt>
      <trkpt lat="45.90231" lon="6.55691">
        <ele>2000.16</ele>
        <time>2017-09-03T13:01:08Z</time>
      </trkpt>
      <trkpt lat="45.90233" lon="6.55692">
        <ele>2000.16</ele>
        <time>2017-09-03T13:01:09Z</time>
      </trkpt>
      <trkpt lat="45.90237" lon="6.55692">
        <ele>1999.2</ele>
        <time>2017-09-03T13:01:12Z</time>
      </trkpt>
      <trkpt lat="45.90238" lon="6.55691">
        <ele>1998.72</ele>
        <time>2017-09-03T13:01:13Z</time>
      </trkpt>
      <trkpt lat="45.9024" lon="6.55691">
        <ele>1998.24</ele>
        <time>2017-09-03T13:01:14Z</time>
      </trkpt>
      <trkpt lat="45.90241" lon="6.55692">
        <ele>1998.24</ele>
        <time>2017-09-03T13:01:15Z</time>
      </trkpt>
      <trkpt lat="45.90242" lon="6.55692">
        <ele>1997.76</ele>
        <time>2017-09-03T13:01:16Z</time>
      </trkpt>
      <trkpt lat="45.90243" lon="6.55692">
        <ele>1997.28</ele>
        <time>2017-09-03T13:01:17Z</time>
      </trkpt>
      <trkpt lat="45.90245" lon="6.55693">
        <ele>1996.8</ele>
        <time>2017-09-03T13:01:18Z</time>
      </trkpt>
      <trkpt lat="45.90246" lon="6.55693">
        <ele>1995.83</ele>
        <time>2017-09-03T13:01:19Z</time>
      </trkpt>
      <trkpt lat="45.90247" lon="6.55692">
        <ele>1995.35</ele>
        <time>2017-09-03T13:01:20Z</time>
      </trkpt>
      <trkpt lat="45.90249" lon="6.55692">
        <ele>1994.87</ele>
        <time>2017-09-03T13:01:21Z</time>
      </trkpt>
      <trkpt lat="45.9025" lon="6.55691">
        <ele>1994.39</ele>
        <time>2017-09-03T13:01:22Z</time>
      </trkpt>
      <trkpt lat="45.9026" lon="6.55687">
        <ele>1991.99</ele>
        <time>2017-09-03T13:01:28Z</time>
      </trkpt>
      <trkpt lat="45.90262" lon="6.55687">
        <ele>1991.99</ele>
        <time>2017-09-03T13:01:29Z</time>
      </trkpt>
      <trkpt lat="45.90263" lon="6.55686">
        <ele>1991.51</ele>
        <time>2017-09-03T13:01:30Z</time>
      </trkpt>
      <trkpt lat="45.90265" lon="6.55686">
        <ele>1991.03</ele>
        <time>2017-09-03T13:01:31Z</time>
      </trkpt>
      <trkpt lat="45.90267" lon="6.55687">
        <ele>1991.03</ele>
        <time>2017-09-03T13:01:32Z</time>
      </trkpt>
      <trkpt lat="45.90268" lon="6.55687">
        <ele>1990.55</ele>
        <time>2017-09-03T13:01:33Z</time>
      </trkpt>
      <trkpt lat="45.90269" lon="6.55687">
        <ele>1989.59</ele>
        <time>2017-09-03T13:01:34Z</time>
      </trkpt>
      <trkpt lat="45.90271" lon="6.55686">
        <ele>1989.1</ele>
        <time>2017-09-03T13:01:35Z</time>
      </trkpt>
      <trkpt lat="45.90273" lon="6.55686">
        <ele>1988.62</ele>
        <time>2017-09-03T13:01:36Z</time>
      </trkpt>
      <trkpt lat="45.90275" lon="6.55687">
        <ele>1988.62</ele>
        <time>2017-09-03T13:01:37Z</time>
      </trkpt>
      <trkpt lat="45.90276" lon="6.55688">
        <ele>1988.62</ele>
        <time>2017-09-03T13:01:38Z</time>
      </trkpt>
      <trkpt lat="45.90283" lon="6.55692">
        <ele>1987.66</ele>
        <time>2017-09-03T13:01:42Z</time>
      </trkpt>
      <trkpt lat="45.90284" lon="6.55693">
        <ele>1987.18</ele>
        <time>2017-09-03T13:01:43Z</time>
      </trkpt>
      <trkpt lat="45.90296" lon="6.55694">
        <ele>1985.26</ele>
        <time>2017-09-03T13:01:49Z</time>
      </trkpt>
      <trkpt lat="45.90315" lon="6.55696">
        <ele>1982.38</ele>
        <time>2017-09-03T13:02:00Z</time>
      </trkpt>
      <trkpt lat="45.90318" lon="6.55697">
        <ele>1981.41</ele>
        <time>2017-09-03T13:02:02Z</time>
      </trkpt>
      <trkpt lat="45.9032" lon="6.55697">
        <ele>1981.41</ele>
        <time>2017-09-03T13:02:03Z</time>
      </trkpt>
      <trkpt lat="45.90326" lon="6.55698">
        <ele>1979.97</ele>
        <time>2017-09-03T13:02:06Z</time>
      </trkpt>
      <trkpt lat="45.9034" lon="6.55699">
        <ele>1977.57</ele>
        <time>2017-09-03T13:02:19Z</time>
      </trkpt>
      <trkpt lat="45.90354" lon="6.55703">
        <ele>1974.2</ele>
        <time>2017-09-03T13:02:30Z</time>
      </trkpt>
      <trkpt lat="45.90359" lon="6.55705">
        <ele>1973.72</ele>
        <time>2017-09-03T13:02:33Z</time>
      </trkpt>
      <trkpt lat="45.9036" lon="6.55706">
        <ele>1972.76</ele>
        <time>2017-09-03T13:02:34Z</time>
      </trkpt>
      <trkpt lat="45.90361" lon="6.55707">
        <ele>1972.76</ele>
        <time>2017-09-03T13:02:35Z</time>
      </trkpt>
      <trkpt lat="45.90363" lon="6.55708">
        <ele>1972.28</ele>
        <time>2017-09-03T13:02:36Z</time>
      </trkpt>
      <trkpt lat="45.90365" lon="6.55708">
        <ele>1972.28</ele>
        <time>2017-09-03T13:02:37Z</time>
      </trkpt>
      <trkpt lat="45.90383" lon="6.55711">
        <ele>1969.88</ele>
        <time>2017-09-03T13:02:48Z</time>
      </trkpt>
      <trkpt lat="45.90402" lon="6.55713">
        <ele>1966.99</ele>
        <time>2017-09-03T13:02:58Z</time>
      </trkpt>
      <trkpt lat="45.90416" lon="6.55717">
        <ele>1963.63</ele>
        <time>2017-09-03T13:03:05Z</time>
      </trkpt>
      <trkpt lat="45.90432" lon="6.5572">
        <ele>1960.75</ele>
        <time>2017-09-03T13:03:13Z</time>
      </trkpt>
      <trkpt lat="45.90434" lon="6.55721">
        <ele>1960.27</ele>
        <time>2017-09-03T13:03:14Z</time>
      </trkpt>
      <trkpt lat="45.90436" lon="6.55722">
        <ele>1959.78</ele>
        <time>2017-09-03T13:03:15Z</time>
      </trkpt>
      <trkpt lat="45.90438" lon="6.55723">
        <ele>1959.3</ele>
        <time>2017-09-03T13:03:16Z</time>
      </trkpt>
      <trkpt lat="45.9044" lon="6.55724">
        <ele>1958.82</ele>
        <time>2017-09-03T13:03:17Z</time>
      </trkpt>
      <trkpt lat="45.90442" lon="6.55725">
        <ele>1958.34</ele>
        <time>2017-09-03T13:03:18Z</time>
      </trkpt>
      <trkpt lat="45.90444" lon="6.55726">
        <ele>1957.86</ele>
        <time>2017-09-03T13:03:19Z</time>
      </trkpt>
      <trkpt lat="45.90446" lon="6.55728">
        <ele>1957.38</ele>
        <time>2017-09-03T13:03:20Z</time>
      </trkpt>
      <trkpt lat="45.90462" lon="6.55737">
        <ele>1956.42</ele>
        <time>2017-09-03T13:03:26Z</time>
      </trkpt>
      <trkpt lat="45.90464" lon="6.55738">
        <ele>1956.42</ele>
        <time>2017-09-03T13:03:27Z</time>
      </trkpt>
      <trkpt lat="45.90466" lon="6.55739">
        <ele>1955.94</ele>
        <time>2017-09-03T13:03:28Z</time>
      </trkpt>
      <trkpt lat="45.90468" lon="6.55739">
        <ele>1955.46</ele>
        <time>2017-09-03T13:03:29Z</time>
      </trkpt>
      <trkpt lat="45.90471" lon="6.5574">
        <ele>1954.98</ele>
        <time>2017-09-03T13:03:30Z</time>
      </trkpt>
      <trkpt lat="45.90473" lon="6.55741">
        <ele>1954.98</ele>
        <time>2017-09-03T13:03:31Z</time>
      </trkpt>
      <trkpt lat="45.90475" lon="6.55742">
        <ele>1954.5</ele>
        <time>2017-09-03T13:03:32Z</time>
      </trkpt>
      <trkpt lat="45.90495" lon="6.5575">
        <ele>1953.54</ele>
        <time>2017-09-03T13:03:40Z</time>
      </trkpt>
      <trkpt lat="45.90514" lon="6.55746">
        <ele>1951.61</ele>
        <time>2017-09-03T13:03:49Z</time>
      </trkpt>
      <trkpt lat="45.90526" lon="6.55729">
        <ele>1948.73</ele>
        <time>2017-09-03T13:03:56Z</time>
      </trkpt>
      <trkpt lat="45.90529" lon="6.55723">
        <ele>1948.73</ele>
        <time>2017-09-03T13:03:58Z</time>
      </trkpt>
      <trkpt lat="45.9053" lon="6.5572">
        <ele>1948.25</ele>
        <time>2017-09-03T13:03:59Z</time>
      </trkpt>
      <trkpt lat="45.90531" lon="6.55718">
        <ele>1948.25</ele>
        <time>2017-09-03T13:04:00Z</time>
      </trkpt>
      <trkpt lat="45.90533" lon="6.55715">
        <ele>1947.77</ele>
        <time>2017-09-03T13:04:01Z</time>
      </trkpt>
      <trkpt lat="45.90534" lon="6.55713">
        <ele>1947.77</ele>
        <time>2017-09-03T13:04:02Z</time>
      </trkpt>
      <trkpt lat="45.90536" lon="6.55711">
        <ele>1947.77</ele>
        <time>2017-09-03T13:04:03Z</time>
      </trkpt>
      <trkpt lat="45.90542" lon="6.5569">
        <ele>1945.36</ele>
        <time>2017-09-03T13:04:10Z</time>
      </trkpt>
      <trkpt lat="45.90543" lon="6.55686">
        <ele>1945.36</ele>
        <time>2017-09-03T13:04:11Z</time>
      </trkpt>
      <trkpt lat="45.90544" lon="6.55683">
        <ele>1945.36</ele>
        <time>2017-09-03T13:04:12Z</time>
      </trkpt>
      <trkpt lat="45.90545" lon="6.5568">
        <ele>1944.88</ele>
        <time>2017-09-03T13:04:13Z</time>
      </trkpt>
      <trkpt lat="45.90547" lon="6.55678">
        <ele>1944.88</ele>
        <time>2017-09-03T13:04:14Z</time>
      </trkpt>
      <trkpt lat="45.90549" lon="6.55677">
        <ele>1944.88</ele>
        <time>2017-09-03T13:04:15Z</time>
      </trkpt>
      <trkpt lat="45.90556" lon="6.55661">
        <ele>1944.88</ele>
        <time>2017-09-03T13:04:23Z</time>
      </trkpt>
      <trkpt lat="45.90557" lon="6.5566">
        <ele>1944.88</ele>
        <time>2017-09-03T13:04:24Z</time>
      </trkpt>
      <trkpt lat="45.90559" lon="6.55658">
        <ele>1944.88</ele>
        <time>2017-09-03T13:04:25Z</time>
      </trkpt>
      <trkpt lat="45.90573" lon="6.55636">
        <ele>1943.44</ele>
        <time>2017-09-03T13:04:34Z</time>
      </trkpt>
      <trkpt lat="45.90591" lon="6.55622">
        <ele>1942</ele>
        <time>2017-09-03T13:04:42Z</time>
      </trkpt>
      <trkpt lat="45.90608" lon="6.55606">
        <ele>1943.44</ele>
        <time>2017-09-03T13:04:52Z</time>
      </trkpt>
      <trkpt lat="45.90619" lon="6.55583">
        <ele>1944.4</ele>
        <time>2017-09-03T13:05:02Z</time>
      </trkpt>
      <trkpt lat="45.90636" lon="6.55571">
        <ele>1945.36</ele>
        <time>2017-09-03T13:05:12Z</time>
      </trkpt>
      <trkpt lat="45.9065" lon="6.5556">
        <ele>1943.44</ele>
        <time>2017-09-03T13:05:25Z</time>
      </trkpt>
      <trkpt lat="45.9066" lon="6.55557">
        <ele>1940.08</ele>
        <time>2017-09-03T13:05:32Z</time>
      </trkpt>
      <trkpt lat="45.90664" lon="6.55555">
        <ele>1939.6</ele>
        <time>2017-09-03T13:05:34Z</time>
      </trkpt>
      <trkpt lat="45.90677" lon="6.55549">
        <ele>1936.23</ele>
        <time>2017-09-03T13:05:43Z</time>
      </trkpt>
      <trkpt lat="45.90679" lon="6.55549">
        <ele>1935.75</ele>
        <time>2017-09-03T13:05:44Z</time>
      </trkpt>
      <trkpt lat="45.90681" lon="6.5555">
        <ele>1935.27</ele>
        <time>2017-09-03T13:05:45Z</time>
      </trkpt>
      <trkpt lat="45.90683" lon="6.5555">
        <ele>1934.79</ele>
        <time>2017-09-03T13:05:46Z</time>
      </trkpt>
      <trkpt lat="45.90684" lon="6.55551">
        <ele>1934.79</ele>
        <time>2017-09-03T13:05:47Z</time>
      </trkpt>
      <trkpt lat="45.90686" lon="6.55551">
        <ele>1934.31</ele>
        <time>2017-09-03T13:05:48Z</time>
      </trkpt>
      <trkpt lat="45.90694" lon="6.5555">
        <ele>1932.39</ele>
        <time>2017-09-03T13:05:52Z</time>
      </trkpt>
      <trkpt lat="45.90696" lon="6.55551">
        <ele>1931.91</ele>
        <time>2017-09-03T13:05:53Z</time>
      </trkpt>
      <trkpt lat="45.90698" lon="6.55553">
        <ele>1931.43</ele>
        <time>2017-09-03T13:05:54Z</time>
      </trkpt>
      <trkpt lat="45.907" lon="6.55555">
        <ele>1931.43</ele>
        <time>2017-09-03T13:05:55Z</time>
      </trkpt>
      <trkpt lat="45.90702" lon="6.55556">
        <ele>1930.95</ele>
        <time>2017-09-03T13:05:56Z</time>
      </trkpt>
      <trkpt lat="45.90703" lon="6.55557">
        <ele>1930.46</ele>
        <time>2017-09-03T13:05:57Z</time>
      </trkpt>
      <trkpt lat="45.90705" lon="6.55558">
        <ele>1930.46</ele>
        <time>2017-09-03T13:05:58Z</time>
      </trkpt>
      <trkpt lat="45.90708" lon="6.55561">
        <ele>1930.46</ele>
        <time>2017-09-03T13:06:01Z</time>
      </trkpt>
      <trkpt lat="45.9071" lon="6.5556">
        <ele>1929.98</ele>
        <time>2017-09-03T13:06:02Z</time>
      </trkpt>
      <trkpt lat="45.90717" lon="6.55555">
        <ele>1927.58</ele>
        <time>2017-09-03T13:06:07Z</time>
      </trkpt>
      <trkpt lat="45.90718" lon="6.55554">
        <ele>1927.58</ele>
        <time>2017-09-03T13:06:08Z</time>
      </trkpt>
      <trkpt lat="45.90719" lon="6.55554">
        <ele>1926.62</ele>
        <time>2017-09-03T13:06:10Z</time>
      </trkpt>
      <trkpt lat="45.90721" lon="6.55555">
        <ele>1926.62</ele>
        <time>2017-09-03T13:06:12Z</time>
      </trkpt>
      <trkpt lat="45.90722" lon="6.55555">
        <ele>1926.62</ele>
        <time>2017-09-03T13:06:13Z</time>
      </trkpt>
      <trkpt lat="45.90723" lon="6.55555">
        <ele>1926.14</ele>
        <time>2017-09-03T13:06:14Z</time>
      </trkpt>
      <trkpt lat="45.90725" lon="6.55554">
        <ele>1925.66</ele>
        <time>2017-09-03T13:06:15Z</time>
      </trkpt>
      <trkpt lat="45.90726" lon="6.55554">
        <ele>1925.18</ele>
        <time>2017-09-03T13:06:16Z</time>
      </trkpt>
      <trkpt lat="45.90727" lon="6.55554">
        <ele>1924.22</ele>
        <time>2017-09-03T13:06:17Z</time>
      </trkpt>
      <trkpt lat="45.90729" lon="6.55555">
        <ele>1923.74</ele>
        <time>2017-09-03T13:06:18Z</time>
      </trkpt>
      <trkpt lat="45.90731" lon="6.55556">
        <ele>1923.25</ele>
        <time>2017-09-03T13:06:19Z</time>
      </trkpt>
      <trkpt lat="45.90732" lon="6.55557">
        <ele>1922.77</ele>
        <time>2017-09-03T13:06:20Z</time>
      </trkpt>
      <trkpt lat="45.90734" lon="6.55559">
        <ele>1922.29</ele>
        <time>2017-09-03T13:06:21Z</time>
      </trkpt>
      <trkpt lat="45.90739" lon="6.55563">
        <ele>1920.37</ele>
        <time>2017-09-03T13:06:24Z</time>
      </trkpt>
      <trkpt lat="45.90741" lon="6.55563">
        <ele>1920.37</ele>
        <time>2017-09-03T13:06:25Z</time>
      </trkpt>
      <trkpt lat="45.90743" lon="6.55563">
        <ele>1919.41</ele>
        <time>2017-09-03T13:06:26Z</time>
      </trkpt>
      <trkpt lat="45.90745" lon="6.55563">
        <ele>1919.41</ele>
        <time>2017-09-03T13:06:27Z</time>
      </trkpt>
      <trkpt lat="45.90747" lon="6.55563">
        <ele>1918.45</ele>
        <time>2017-09-03T13:06:28Z</time>
      </trkpt>
      <trkpt lat="45.90768" lon="6.55571">
        <ele>1917.01</ele>
        <time>2017-09-03T13:06:37Z</time>
      </trkpt>
      <trkpt lat="45.90773" lon="6.55575">
        <ele>1916.53</ele>
        <time>2017-09-03T13:06:40Z</time>
      </trkpt>
      <trkpt lat="45.90775" lon="6.55575">
        <ele>1916.04</ele>
        <time>2017-09-03T13:06:41Z</time>
      </trkpt>
      <trkpt lat="45.90777" lon="6.55574">
        <ele>1916.04</ele>
        <time>2017-09-03T13:06:42Z</time>
      </trkpt>
      <trkpt lat="45.90779" lon="6.55572">
        <ele>1916.04</ele>
        <time>2017-09-03T13:06:43Z</time>
      </trkpt>
      <trkpt lat="45.9078" lon="6.5557">
        <ele>1916.04</ele>
        <time>2017-09-03T13:06:44Z</time>
      </trkpt>
      <trkpt lat="45.9078" lon="6.55569">
        <ele>1916.04</ele>
        <time>2017-09-03T13:06:45Z</time>
      </trkpt>
      <trkpt lat="45.90781" lon="6.55568">
        <ele>1916.04</ele>
        <time>2017-09-03T13:06:46Z</time>
      </trkpt>
      <trkpt lat="45.90781" lon="6.5556">
        <ele>1916.04</ele>
        <time>2017-09-03T13:07:09Z</time>
      </trkpt>
      <trkpt lat="45.9078" lon="6.55557">
        <ele>1916.04</ele>
        <time>2017-09-03T13:07:16Z</time>
      </trkpt>
      <trkpt lat="45.90776" lon="6.5555">
        <ele>1917.01</ele>
        <time>2017-09-03T13:07:21Z</time>
      </trkpt>
      <trkpt lat="45.90766" lon="6.55539">
        <ele>1917.97</ele>
        <time>2017-09-03T13:07:29Z</time>
      </trkpt>
      <trkpt lat="45.90761" lon="6.55528">
        <ele>1918.93</ele>
        <time>2017-09-03T13:07:33Z</time>
      </trkpt>
      <trkpt lat="45.90757" lon="6.55512">
        <ele>1919.89</ele>
        <time>2017-09-03T13:07:38Z</time>
      </trkpt>
      <trkpt lat="45.90748" lon="6.5549">
        <ele>1920.37</ele>
        <time>2017-09-03T13:07:45Z</time>
      </trkpt>
      <trkpt lat="45.90738" lon="6.55466">
        <ele>1920.37</ele>
        <time>2017-09-03T13:07:53Z</time>
      </trkpt>
      <trkpt lat="45.90737" lon="6.55441">
        <ele>1921.81</ele>
        <time>2017-09-03T13:08:01Z</time>
      </trkpt>
      <trkpt lat="45.90733" lon="6.55426">
        <ele>1922.77</ele>
        <time>2017-09-03T13:08:07Z</time>
      </trkpt>
      <trkpt lat="45.90726" lon="6.55409">
        <ele>1922.29</ele>
        <time>2017-09-03T13:08:14Z</time>
      </trkpt>
      <trkpt lat="45.90718" lon="6.55387">
        <ele>1921.33</ele>
        <time>2017-09-03T13:08:27Z</time>
      </trkpt>
      <trkpt lat="45.90718" lon="6.55383">
        <ele>1921.81</ele>
        <time>2017-09-03T13:08:29Z</time>
      </trkpt>
      <trkpt lat="45.90718" lon="6.55382">
        <ele>1921.81</ele>
        <time>2017-09-03T13:08:30Z</time>
      </trkpt>
      <trkpt lat="45.90718" lon="6.5538">
        <ele>1921.81</ele>
        <time>2017-09-03T13:08:31Z</time>
      </trkpt>
      <trkpt lat="45.90718" lon="6.55379">
        <ele>1921.81</ele>
        <time>2017-09-03T13:08:32Z</time>
      </trkpt>
      <trkpt lat="45.90718" lon="6.55377">
        <ele>1922.29</ele>
        <time>2017-09-03T13:08:33Z</time>
      </trkpt>
      <trkpt lat="45.90718" lon="6.55375">
        <ele>1922.29</ele>
        <time>2017-09-03T13:08:34Z</time>
      </trkpt>
      <trkpt lat="45.90717" lon="6.55374">
        <ele>1922.29</ele>
        <time>2017-09-03T13:08:35Z</time>
      </trkpt>
      <trkpt lat="45.90717" lon="6.55373">
        <ele>1922.29</ele>
        <time>2017-09-03T13:08:36Z</time>
      </trkpt>
      <trkpt lat="45.90717" lon="6.55371">
        <ele>1922.77</ele>
        <time>2017-09-03T13:08:37Z</time>
      </trkpt>
      <trkpt lat="45.90717" lon="6.55369">
        <ele>1922.77</ele>
        <time>2017-09-03T13:08:38Z</time>
      </trkpt>
      <trkpt lat="45.90716" lon="6.55368">
        <ele>1922.77</ele>
        <time>2017-09-03T13:08:39Z</time>
      </trkpt>
      <trkpt lat="45.90716" lon="6.55367">
        <ele>1922.77</ele>
        <time>2017-09-03T13:08:40Z</time>
      </trkpt>
      <trkpt lat="45.90716" lon="6.55365">
        <ele>1922.77</ele>
        <time>2017-09-03T13:08:41Z</time>
      </trkpt>
      <trkpt lat="45.90715" lon="6.55363">
        <ele>1922.77</ele>
        <time>2017-09-03T13:08:42Z</time>
      </trkpt>
      <trkpt lat="45.90715" lon="6.55362">
        <ele>1922.77</ele>
        <time>2017-09-03T13:08:43Z</time>
      </trkpt>
      <trkpt lat="45.90713" lon="6.55347">
        <ele>1922.29</ele>
        <time>2017-09-03T13:08:51Z</time>
      </trkpt>
      <trkpt lat="45.9071" lon="6.55333">
        <ele>1922.29</ele>
        <time>2017-09-03T13:08:58Z</time>
      </trkpt>
      <trkpt lat="45.90709" lon="6.55328">
        <ele>1921.81</ele>
        <time>2017-09-03T13:09:02Z</time>
      </trkpt>
      <trkpt lat="45.90709" lon="6.55324">
        <ele>1921.81</ele>
        <time>2017-09-03T13:09:05Z</time>
      </trkpt>
      <trkpt lat="45.90709" lon="6.55323">
        <ele>1921.81</ele>
        <time>2017-09-03T13:09:09Z</time>
      </trkpt>
      <trkpt lat="45.90708" lon="6.55321">
        <ele>1921.81</ele>
        <time>2017-09-03T13:09:14Z</time>
      </trkpt>
      <trkpt lat="45.90708" lon="6.55319">
        <ele>1921.81</ele>
        <time>2017-09-03T13:09:15Z</time>
      </trkpt>
      <trkpt lat="45.90706" lon="6.55306">
        <ele>1921.81</ele>
        <time>2017-09-03T13:09:22Z</time>
      </trkpt>
      <trkpt lat="45.90706" lon="6.55304">
        <ele>1921.81</ele>
        <time>2017-09-03T13:09:23Z</time>
      </trkpt>
      <trkpt lat="45.90704" lon="6.55295">
        <ele>1921.81</ele>
        <time>2017-09-03T13:09:27Z</time>
      </trkpt>
      <trkpt lat="45.90702" lon="6.55288">
        <ele>1921.81</ele>
        <time>2017-09-03T13:09:31Z</time>
      </trkpt>
      <trkpt lat="45.90696" lon="6.55267">
        <ele>1924.22</ele>
        <time>2017-09-03T13:09:44Z</time>
      </trkpt>
      <trkpt lat="45.90695" lon="6.55265">
        <ele>1924.22</ele>
        <time>2017-09-03T13:09:45Z</time>
      </trkpt>
      <trkpt lat="45.90695" lon="6.55264">
        <ele>1924.22</ele>
        <time>2017-09-03T13:09:46Z</time>
      </trkpt>
      <trkpt lat="45.90695" lon="6.55263">
        <ele>1924.7</ele>
        <time>2017-09-03T13:09:47Z</time>
      </trkpt>
      <trkpt lat="45.90694" lon="6.55261">
        <ele>1924.7</ele>
        <time>2017-09-03T13:09:48Z</time>
      </trkpt>
      <trkpt lat="45.90694" lon="6.55259">
        <ele>1924.22</ele>
        <time>2017-09-03T13:09:49Z</time>
      </trkpt>
      <trkpt lat="45.90693" lon="6.55257">
        <ele>1924.22</ele>
        <time>2017-09-03T13:09:50Z</time>
      </trkpt>
      <trkpt lat="45.90692" lon="6.55255">
        <ele>1924.22</ele>
        <time>2017-09-03T13:09:51Z</time>
      </trkpt>
      <trkpt lat="45.90691" lon="6.55253">
        <ele>1924.22</ele>
        <time>2017-09-03T13:09:52Z</time>
      </trkpt>
      <trkpt lat="45.90689" lon="6.5525">
        <ele>1924.22</ele>
        <time>2017-09-03T13:09:53Z</time>
      </trkpt>
      <trkpt lat="45.90688" lon="6.55247">
        <ele>1923.74</ele>
        <time>2017-09-03T13:09:54Z</time>
      </trkpt>
      <trkpt lat="45.90688" lon="6.55243">
        <ele>1923.74</ele>
        <time>2017-09-03T13:09:55Z</time>
      </trkpt>
      <trkpt lat="45.90687" lon="6.5524">
        <ele>1923.74</ele>
        <time>2017-09-03T13:09:56Z</time>
      </trkpt>
      <trkpt lat="45.90687" lon="6.55237">
        <ele>1924.22</ele>
        <time>2017-09-03T13:09:57Z</time>
      </trkpt>
      <trkpt lat="45.90677" lon="6.5521">
        <ele>1922.77</ele>
        <time>2017-09-03T13:10:05Z</time>
      </trkpt>
      <trkpt lat="45.90675" lon="6.55181">
        <ele>1920.37</ele>
        <time>2017-09-03T13:10:13Z</time>
      </trkpt>
      <trkpt lat="45.90681" lon="6.55157">
        <ele>1917.49</ele>
        <time>2017-09-03T13:10:20Z</time>
      </trkpt>
      <trkpt lat="45.90682" lon="6.55127">
        <ele>1914.6</ele>
        <time>2017-09-03T13:10:29Z</time>
      </trkpt>
      <trkpt lat="45.90687" lon="6.55102">
        <ele>1912.68</ele>
        <time>2017-09-03T13:10:36Z</time>
      </trkpt>
      <trkpt lat="45.9069" lon="6.55081">
        <ele>1909.8</ele>
        <time>2017-09-03T13:10:42Z</time>
      </trkpt>
      <trkpt lat="45.90689" lon="6.55054">
        <ele>1906.43</ele>
        <time>2017-09-03T13:10:49Z</time>
      </trkpt>
      <trkpt lat="45.90687" lon="6.55046">
        <ele>1905.47</ele>
        <time>2017-09-03T13:10:51Z</time>
      </trkpt>
      <trkpt lat="45.90685" lon="6.55035">
        <ele>1904.03</ele>
        <time>2017-09-03T13:10:54Z</time>
      </trkpt>
      <trkpt lat="45.9068" lon="6.55013">
        <ele>1900.66</ele>
        <time>2017-09-03T13:11:01Z</time>
      </trkpt>
      <trkpt lat="45.90677" lon="6.54997">
        <ele>1897.78</ele>
        <time>2017-09-03T13:11:07Z</time>
      </trkpt>
      <trkpt lat="45.90674" lon="6.54988">
        <ele>1895.86</ele>
        <time>2017-09-03T13:11:11Z</time>
      </trkpt>
      <trkpt lat="45.90667" lon="6.54976">
        <ele>1892.97</ele>
        <time>2017-09-03T13:11:16Z</time>
      </trkpt>
      <trkpt lat="45.90663" lon="6.54961">
        <ele>1889.61</ele>
        <time>2017-09-03T13:11:21Z</time>
      </trkpt>
      <trkpt lat="45.90663" lon="6.54958">
        <ele>1889.61</ele>
        <time>2017-09-03T13:11:22Z</time>
      </trkpt>
      <trkpt lat="45.90661" lon="6.54944">
        <ele>1886.24</ele>
        <time>2017-09-03T13:11:27Z</time>
      </trkpt>
      <trkpt lat="45.90661" lon="6.54935">
        <ele>1884.8</ele>
        <time>2017-09-03T13:11:30Z</time>
      </trkpt>
      <trkpt lat="45.90662" lon="6.54919">
        <ele>1881.44</ele>
        <time>2017-09-03T13:11:36Z</time>
      </trkpt>
      <trkpt lat="45.9067" lon="6.54899">
        <ele>1878.55</ele>
        <time>2017-09-03T13:11:43Z</time>
      </trkpt>
      <trkpt lat="45.9068" lon="6.54884">
        <ele>1875.19</ele>
        <time>2017-09-03T13:11:50Z</time>
      </trkpt>
      <trkpt lat="45.90693" lon="6.54885">
        <ele>1871.82</ele>
        <time>2017-09-03T13:11:56Z</time>
      </trkpt>
      <trkpt lat="45.907" lon="6.54885">
        <ele>1870.38</ele>
        <time>2017-09-03T13:11:59Z</time>
      </trkpt>
      <trkpt lat="45.90714" lon="6.54888">
        <ele>1867.02</ele>
        <time>2017-09-03T13:12:05Z</time>
      </trkpt>
      <trkpt lat="45.90731" lon="6.54897">
        <ele>1864.13</ele>
        <time>2017-09-03T13:12:12Z</time>
      </trkpt>
      <trkpt lat="45.90745" lon="6.54899">
        <ele>1860.77</ele>
        <time>2017-09-03T13:12:19Z</time>
      </trkpt>
      <trkpt lat="45.90751" lon="6.54894">
        <ele>1859.81</ele>
        <time>2017-09-03T13:12:22Z</time>
      </trkpt>
      <trkpt lat="45.90751" lon="6.54892">
        <ele>1859.81</ele>
        <time>2017-09-03T13:12:23Z</time>
      </trkpt>
      <trkpt lat="45.90752" lon="6.54889">
        <ele>1858.85</ele>
        <time>2017-09-03T13:12:24Z</time>
      </trkpt>
      <trkpt lat="45.90755" lon="6.54869">
        <ele>1855.48</ele>
        <time>2017-09-03T13:12:30Z</time>
      </trkpt>
      <trkpt lat="45.90766" lon="6.54861">
        <ele>1852.6</ele>
        <time>2017-09-03T13:12:35Z</time>
      </trkpt>
      <trkpt lat="45.90783" lon="6.54857">
        <ele>1849.71</ele>
        <time>2017-09-03T13:12:42Z</time>
      </trkpt>
      <trkpt lat="45.90799" lon="6.54855">
        <ele>1846.35</ele>
        <time>2017-09-03T13:12:50Z</time>
      </trkpt>
      <trkpt lat="45.90808" lon="6.54857">
        <ele>1844.43</ele>
        <time>2017-09-03T13:12:54Z</time>
      </trkpt>
      <trkpt lat="45.90826" lon="6.54857">
        <ele>1841.06</ele>
        <time>2017-09-03T13:13:01Z</time>
      </trkpt>
      <trkpt lat="45.90845" lon="6.54857">
        <ele>1838.18</ele>
        <time>2017-09-03T13:13:09Z</time>
      </trkpt>
      <trkpt lat="45.90864" lon="6.54851">
        <ele>1837.22</ele>
        <time>2017-09-03T13:13:16Z</time>
      </trkpt>
      <trkpt lat="45.90872" lon="6.54827">
        <ele>1837.7</ele>
        <time>2017-09-03T13:13:24Z</time>
      </trkpt>
      <trkpt lat="45.90877" lon="6.54808">
        <ele>1838.66</ele>
        <time>2017-09-03T13:13:30Z</time>
      </trkpt>
      <trkpt lat="45.90882" lon="6.54787">
        <ele>1839.62</ele>
        <time>2017-09-03T13:13:37Z</time>
      </trkpt>
      <trkpt lat="45.90892" lon="6.54764">
        <ele>1838.18</ele>
        <time>2017-09-03T13:13:44Z</time>
      </trkpt>
      <trkpt lat="45.90901" lon="6.54755">
        <ele>1838.66</ele>
        <time>2017-09-03T13:13:49Z</time>
      </trkpt>
      <trkpt lat="45.90908" lon="6.54746">
        <ele>1841.06</ele>
        <time>2017-09-03T13:13:55Z</time>
      </trkpt>
      <trkpt lat="45.90916" lon="6.54732">
        <ele>1842.98</ele>
        <time>2017-09-03T13:14:02Z</time>
      </trkpt>
      <trkpt lat="45.90928" lon="6.54711">
        <ele>1844.43</ele>
        <time>2017-09-03T13:14:11Z</time>
      </trkpt>
      <trkpt lat="45.90938" lon="6.54691">
        <ele>1847.79</ele>
        <time>2017-09-03T13:14:21Z</time>
      </trkpt>
      <trkpt lat="45.90952" lon="6.54672">
        <ele>1849.71</ele>
        <time>2017-09-03T13:14:31Z</time>
      </trkpt>
      <trkpt lat="45.9097" lon="6.54671">
        <ele>1851.16</ele>
        <time>2017-09-03T13:14:41Z</time>
      </trkpt>
      <trkpt lat="45.9098" lon="6.54662">
        <ele>1854.52</ele>
        <time>2017-09-03T13:14:49Z</time>
      </trkpt>
      <trkpt lat="45.90996" lon="6.54648">
        <ele>1854.04</ele>
        <time>2017-09-03T13:14:58Z</time>
      </trkpt>
      <trkpt lat="45.91012" lon="6.54633">
        <ele>1853.56</ele>
        <time>2017-09-03T13:15:07Z</time>
      </trkpt>
      <trkpt lat="45.91026" lon="6.54612">
        <ele>1850.19</ele>
        <time>2017-09-03T13:15:17Z</time>
      </trkpt>
      <trkpt lat="45.91033" lon="6.54601">
        <ele>1848.27</ele>
        <time>2017-09-03T13:15:23Z</time>
      </trkpt>
      <trkpt lat="45.91039" lon="6.54578">
        <ele>1845.39</ele>
        <time>2017-09-03T13:15:31Z</time>
      </trkpt>
      <trkpt lat="45.91043" lon="6.54557">
        <ele>1842.98</ele>
        <time>2017-09-03T13:15:37Z</time>
      </trkpt>
      <trkpt lat="45.91046" lon="6.54548">
        <ele>1841.54</ele>
        <time>2017-09-03T13:15:40Z</time>
      </trkpt>
      <trkpt lat="45.91058" lon="6.54539">
        <ele>1838.18</ele>
        <time>2017-09-03T13:15:46Z</time>
      </trkpt>
      <trkpt lat="45.91059" lon="6.54537">
        <ele>1838.18</ele>
        <time>2017-09-03T13:15:47Z</time>
      </trkpt>
      <trkpt lat="45.91065" lon="6.54523">
        <ele>1835.29</ele>
        <time>2017-09-03T13:15:53Z</time>
      </trkpt>
      <trkpt lat="45.91071" lon="6.54513">
        <ele>1832.41</ele>
        <time>2017-09-03T13:15:58Z</time>
      </trkpt>
      <trkpt lat="45.91073" lon="6.54509">
        <ele>1831.45</ele>
        <time>2017-09-03T13:16:00Z</time>
      </trkpt>
      <trkpt lat="45.91079" lon="6.54497">
        <ele>1827.6</ele>
        <time>2017-09-03T13:16:05Z</time>
      </trkpt>
      <trkpt lat="45.91087" lon="6.54487">
        <ele>1824.24</ele>
        <time>2017-09-03T13:16:10Z</time>
      </trkpt>
      <trkpt lat="45.91096" lon="6.54478">
        <ele>1821.35</ele>
        <time>2017-09-03T13:16:15Z</time>
      </trkpt>
      <trkpt lat="45.91114" lon="6.54463">
        <ele>1819.43</ele>
        <time>2017-09-03T13:16:22Z</time>
      </trkpt>
      <trkpt lat="45.91124" lon="6.54451">
        <ele>1816.07</ele>
        <time>2017-09-03T13:16:26Z</time>
      </trkpt>
      <trkpt lat="45.91137" lon="6.54437">
        <ele>1813.66</ele>
        <time>2017-09-03T13:16:32Z</time>
      </trkpt>
      <trkpt lat="45.91156" lon="6.54421">
        <ele>1810.3</ele>
        <time>2017-09-03T13:16:40Z</time>
      </trkpt>
      <trkpt lat="45.91174" lon="6.5441">
        <ele>1807.42</ele>
        <time>2017-09-03T13:16:46Z</time>
      </trkpt>
      <trkpt lat="45.91192" lon="6.54397">
        <ele>1805.97</ele>
        <time>2017-09-03T13:16:53Z</time>
      </trkpt>
      <trkpt lat="45.91196" lon="6.54387">
        <ele>1805.01</ele>
        <time>2017-09-03T13:17:06Z</time>
      </trkpt>
      <trkpt lat="45.91196" lon="6.54388">
        <ele>1804.53</ele>
        <time>2017-09-03T13:17:27Z</time>
      </trkpt>
      <trkpt lat="45.91195" lon="6.54389">
        <ele>1805.01</ele>
        <time>2017-09-03T13:17:32Z</time>
      </trkpt>
      <trkpt lat="45.91195" lon="6.54389">
        <ele>1805.01</ele>
        <time>2017-09-03T13:17:40Z</time>
      </trkpt>
      <trkpt lat="45.91197" lon="6.54388">
        <ele>1805.49</ele>
        <time>2017-09-03T13:17:53Z</time>
      </trkpt>
      <trkpt lat="45.91197" lon="6.54388">
        <ele>1805.49</ele>
        <time>2017-09-03T13:18:02Z</time>
      </trkpt>
      <trkpt lat="45.91196" lon="6.54385">
        <ele>1805.01</ele>
        <time>2017-09-03T13:18:24Z</time>
      </trkpt>
      <trkpt lat="45.91197" lon="6.54388">
        <ele>1804.05</ele>
        <time>2017-09-03T13:18:34Z</time>
      </trkpt>
      <trkpt lat="45.91198" lon="6.54388">
        <ele>1805.01</ele>
        <time>2017-09-03T13:18:38Z</time>
      </trkpt>
      <trkpt lat="45.91198" lon="6.54387">
        <ele>1805.01</ele>
        <time>2017-09-03T13:18:43Z</time>
      </trkpt>
      <trkpt lat="45.91198" lon="6.54386">
        <ele>1805.01</ele>
        <time>2017-09-03T13:18:48Z</time>
      </trkpt>
      <trkpt lat="45.91199" lon="6.54385">
        <ele>1805.49</ele>
        <time>2017-09-03T13:19:04Z</time>
      </trkpt>
      <trkpt lat="45.91199" lon="6.54384">
        <ele>1804.53</ele>
        <time>2017-09-03T13:19:26Z</time>
      </trkpt>
      <trkpt lat="45.91199" lon="6.54383">
        <ele>1805.01</ele>
        <time>2017-09-03T13:19:35Z</time>
      </trkpt>
      <trkpt lat="45.91198" lon="6.54384">
        <ele>1805.49</ele>
        <time>2017-09-03T13:19:46Z</time>
      </trkpt>
      <trkpt lat="45.91193" lon="6.54385">
        <ele>1805.01</ele>
        <time>2017-09-03T13:19:53Z</time>
      </trkpt>
      <trkpt lat="45.91189" lon="6.54382">
        <ele>1804.53</ele>
        <time>2017-09-03T13:19:57Z</time>
      </trkpt>
      <trkpt lat="45.91186" lon="6.54378">
        <ele>1804.05</ele>
        <time>2017-09-03T13:20:01Z</time>
      </trkpt>
      <trkpt lat="45.91178" lon="6.54371">
        <ele>1803.57</ele>
        <time>2017-09-03T13:20:08Z</time>
      </trkpt>
      <trkpt lat="45.91177" lon="6.54369">
        <ele>1803.09</ele>
        <time>2017-09-03T13:20:10Z</time>
      </trkpt>
      <trkpt lat="45.91171" lon="6.54363">
        <ele>1802.61</ele>
        <time>2017-09-03T13:20:16Z</time>
      </trkpt>
      <trkpt lat="45.9117" lon="6.54362">
        <ele>1802.61</ele>
        <time>2017-09-03T13:20:17Z</time>
      </trkpt>
      <trkpt lat="45.91169" lon="6.54361">
        <ele>1802.61</ele>
        <time>2017-09-03T13:20:18Z</time>
      </trkpt>
      <trkpt lat="45.91168" lon="6.5436">
        <ele>1802.61</ele>
        <time>2017-09-03T13:20:19Z</time>
      </trkpt>
      <trkpt lat="45.91167" lon="6.54359">
        <ele>1802.61</ele>
        <time>2017-09-03T13:20:20Z</time>
      </trkpt>
      <trkpt lat="45.91166" lon="6.54357">
        <ele>1802.61</ele>
        <time>2017-09-03T13:20:21Z</time>
      </trkpt>
      <trkpt lat="45.91165" lon="6.54356">
        <ele>1802.61</ele>
        <time>2017-09-03T13:20:22Z</time>
      </trkpt>
      <trkpt lat="45.91151" lon="6.54336">
        <ele>1800.21</ele>
        <time>2017-09-03T13:20:36Z</time>
      </trkpt>
      <trkpt lat="45.9115" lon="6.54333">
        <ele>1799.73</ele>
        <time>2017-09-03T13:20:38Z</time>
      </trkpt>
      <trkpt lat="45.91146" lon="6.54323">
        <ele>1800.21</ele>
        <time>2017-09-03T13:20:49Z</time>
      </trkpt>
      <trkpt lat="45.91146" lon="6.54322">
        <ele>1800.21</ele>
        <time>2017-09-03T13:20:50Z</time>
      </trkpt>
      <trkpt lat="45.91142" lon="6.54311">
        <ele>1800.21</ele>
        <time>2017-09-03T13:20:56Z</time>
      </trkpt>
      <trkpt lat="45.9114" lon="6.54302">
        <ele>1799.73</ele>
        <time>2017-09-03T13:21:01Z</time>
      </trkpt>
      <trkpt lat="45.91133" lon="6.54282">
        <ele>1796.36</ele>
        <time>2017-09-03T13:21:12Z</time>
      </trkpt>
      <trkpt lat="45.91131" lon="6.54281">
        <ele>1796.36</ele>
        <time>2017-09-03T13:21:13Z</time>
      </trkpt>
      <trkpt lat="45.91129" lon="6.5428">
        <ele>1796.36</ele>
        <time>2017-09-03T13:21:14Z</time>
      </trkpt>
      <trkpt lat="45.91127" lon="6.54278">
        <ele>1796.36</ele>
        <time>2017-09-03T13:21:15Z</time>
      </trkpt>
      <trkpt lat="45.91124" lon="6.54276">
        <ele>1795.88</ele>
        <time>2017-09-03T13:21:16Z</time>
      </trkpt>
      <trkpt lat="45.91114" lon="6.54261">
        <ele>1794.92</ele>
        <time>2017-09-03T13:21:22Z</time>
      </trkpt>
      <trkpt lat="45.91103" lon="6.54252">
        <ele>1793.48</ele>
        <time>2017-09-03T13:21:27Z</time>
      </trkpt>
      <trkpt lat="45.9109" lon="6.54231">
        <ele>1793.96</ele>
        <time>2017-09-03T13:21:35Z</time>
      </trkpt>
      <trkpt lat="45.91077" lon="6.54213">
        <ele>1791.07</ele>
        <time>2017-09-03T13:21:43Z</time>
      </trkpt>
      <trkpt lat="45.91066" lon="6.542">
        <ele>1787.71</ele>
        <time>2017-09-03T13:21:49Z</time>
      </trkpt>
      <trkpt lat="45.91064" lon="6.542">
        <ele>1787.23</ele>
        <time>2017-09-03T13:21:50Z</time>
      </trkpt>
      <trkpt lat="45.91063" lon="6.54201">
        <ele>1787.23</ele>
        <time>2017-09-03T13:21:51Z</time>
      </trkpt>
      <trkpt lat="45.91059" lon="6.54202">
        <ele>1786.27</ele>
        <time>2017-09-03T13:21:53Z</time>
      </trkpt>
      <trkpt lat="45.91054" lon="6.542">
        <ele>1785.31</ele>
        <time>2017-09-03T13:21:56Z</time>
      </trkpt>
      <trkpt lat="45.91053" lon="6.54198">
        <ele>1784.82</ele>
        <time>2017-09-03T13:21:57Z</time>
      </trkpt>
      <trkpt lat="45.91052" lon="6.54196">
        <ele>1784.34</ele>
        <time>2017-09-03T13:21:58Z</time>
      </trkpt>
      <trkpt lat="45.9105" lon="6.54194">
        <ele>1783.38</ele>
        <time>2017-09-03T13:21:59Z</time>
      </trkpt>
      <trkpt lat="45.91049" lon="6.54193">
        <ele>1783.38</ele>
        <time>2017-09-03T13:22:00Z</time>
      </trkpt>
      <trkpt lat="45.91047" lon="6.54191">
        <ele>1782.42</ele>
        <time>2017-09-03T13:22:01Z</time>
      </trkpt>
      <trkpt lat="45.91046" lon="6.54189">
        <ele>1781.94</ele>
        <time>2017-09-03T13:22:02Z</time>
      </trkpt>
      <trkpt lat="45.91037" lon="6.54177">
        <ele>1779.06</ele>
        <time>2017-09-03T13:22:09Z</time>
      </trkpt>
      <trkpt lat="45.91029" lon="6.54168">
        <ele>1776.65</ele>
        <time>2017-09-03T13:22:14Z</time>
      </trkpt>
      <trkpt lat="45.91027" lon="6.54167">
        <ele>1776.17</ele>
        <time>2017-09-03T13:22:15Z</time>
      </trkpt>
      <trkpt lat="45.91013" lon="6.54161">
        <ele>1772.81</ele>
        <time>2017-09-03T13:22:22Z</time>
      </trkpt>
      <trkpt lat="45.91" lon="6.54155">
        <ele>1768.96</ele>
        <time>2017-09-03T13:22:29Z</time>
      </trkpt>
      <trkpt lat="45.90994" lon="6.54154">
        <ele>1767.52</ele>
        <time>2017-09-03T13:22:32Z</time>
      </trkpt>
      <trkpt lat="45.90985" lon="6.54145">
        <ele>1765.12</ele>
        <time>2017-09-03T13:22:38Z</time>
      </trkpt>
      <trkpt lat="45.90984" lon="6.54144">
        <ele>1764.64</ele>
        <time>2017-09-03T13:22:39Z</time>
      </trkpt>
      <trkpt lat="45.90982" lon="6.54143">
        <ele>1764.64</ele>
        <time>2017-09-03T13:22:40Z</time>
      </trkpt>
      <trkpt lat="45.90981" lon="6.54141">
        <ele>1764.16</ele>
        <time>2017-09-03T13:22:41Z</time>
      </trkpt>
      <trkpt lat="45.9098" lon="6.5414">
        <ele>1763.68</ele>
        <time>2017-09-03T13:22:42Z</time>
      </trkpt>
      <trkpt lat="45.90978" lon="6.54138">
        <ele>1763.2</ele>
        <time>2017-09-03T13:22:43Z</time>
      </trkpt>
      <trkpt lat="45.90977" lon="6.54137">
        <ele>1763.2</ele>
        <time>2017-09-03T13:22:44Z</time>
      </trkpt>
      <trkpt lat="45.90975" lon="6.54136">
        <ele>1762.71</ele>
        <time>2017-09-03T13:22:45Z</time>
      </trkpt>
      <trkpt lat="45.90974" lon="6.54135">
        <ele>1762.23</ele>
        <time>2017-09-03T13:22:46Z</time>
      </trkpt>
      <trkpt lat="45.90973" lon="6.54135">
        <ele>1762.23</ele>
        <time>2017-09-03T13:22:47Z</time>
      </trkpt>
      <trkpt lat="45.90969" lon="6.54133">
        <ele>1760.79</ele>
        <time>2017-09-03T13:22:51Z</time>
      </trkpt>
      <trkpt lat="45.90968" lon="6.54132">
        <ele>1760.79</ele>
        <time>2017-09-03T13:22:52Z</time>
      </trkpt>
      <trkpt lat="45.90967" lon="6.54132">
        <ele>1760.31</ele>
        <time>2017-09-03T13:22:53Z</time>
      </trkpt>
      <trkpt lat="45.90966" lon="6.54132">
        <ele>1759.83</ele>
        <time>2017-09-03T13:22:54Z</time>
      </trkpt>
      <trkpt lat="45.90965" lon="6.54132">
        <ele>1759.83</ele>
        <time>2017-09-03T13:22:55Z</time>
      </trkpt>
      <trkpt lat="45.90964" lon="6.54132">
        <ele>1759.35</ele>
        <time>2017-09-03T13:22:56Z</time>
      </trkpt>
      <trkpt lat="45.90963" lon="6.54132">
        <ele>1758.87</ele>
        <time>2017-09-03T13:22:57Z</time>
      </trkpt>
      <trkpt lat="45.90962" lon="6.54132">
        <ele>1758.39</ele>
        <time>2017-09-03T13:22:58Z</time>
      </trkpt>
      <trkpt lat="45.90961" lon="6.54132">
        <ele>1757.91</ele>
        <time>2017-09-03T13:22:59Z</time>
      </trkpt>
      <trkpt lat="45.9096" lon="6.54133">
        <ele>1757.43</ele>
        <time>2017-09-03T13:23:00Z</time>
      </trkpt>
      <trkpt lat="45.90958" lon="6.54133">
        <ele>1756.47</ele>
        <time>2017-09-03T13:23:02Z</time>
      </trkpt>
      <trkpt lat="45.90957" lon="6.54132">
        <ele>1755.99</ele>
        <time>2017-09-03T13:23:03Z</time>
      </trkpt>
      <trkpt lat="45.90955" lon="6.54131">
        <ele>1755.5</ele>
        <time>2017-09-03T13:23:04Z</time>
      </trkpt>
      <trkpt lat="45.90953" lon="6.5413">
        <ele>1755.02</ele>
        <time>2017-09-03T13:23:05Z</time>
      </trkpt>
      <trkpt lat="45.90951" lon="6.54129">
        <ele>1754.54</ele>
        <time>2017-09-03T13:23:06Z</time>
      </trkpt>
      <trkpt lat="45.9095" lon="6.54128">
        <ele>1753.58</ele>
        <time>2017-09-03T13:23:07Z</time>
      </trkpt>
      <trkpt lat="45.9094" lon="6.54124">
        <ele>1750.22</ele>
        <time>2017-09-03T13:23:13Z</time>
      </trkpt>
      <trkpt lat="45.9093" lon="6.54122">
        <ele>1747.33</ele>
        <time>2017-09-03T13:23:19Z</time>
      </trkpt>
      <trkpt lat="45.9092" lon="6.54116">
        <ele>1743.49</ele>
        <time>2017-09-03T13:23:25Z</time>
      </trkpt>
      <trkpt lat="45.90915" lon="6.54114">
        <ele>1742.05</ele>
        <time>2017-09-03T13:23:28Z</time>
      </trkpt>
      <trkpt lat="45.90908" lon="6.54109">
        <ele>1740.6</ele>
        <time>2017-09-03T13:23:32Z</time>
      </trkpt>
      <trkpt lat="45.90907" lon="6.54107">
        <ele>1740.12</ele>
        <time>2017-09-03T13:23:33Z</time>
      </trkpt>
      <trkpt lat="45.90907" lon="6.54105">
        <ele>1739.64</ele>
        <time>2017-09-03T13:23:34Z</time>
      </trkpt>
      <trkpt lat="45.90906" lon="6.54102">
        <ele>1739.16</ele>
        <time>2017-09-03T13:23:35Z</time>
      </trkpt>
      <trkpt lat="45.90907" lon="6.54099">
        <ele>1738.68</ele>
        <time>2017-09-03T13:23:36Z</time>
      </trkpt>
      <trkpt lat="45.90907" lon="6.54097">
        <ele>1738.2</ele>
        <time>2017-09-03T13:23:37Z</time>
      </trkpt>
      <trkpt lat="45.90908" lon="6.54084">
        <ele>1735.32</ele>
        <time>2017-09-03T13:23:42Z</time>
      </trkpt>
      <trkpt lat="45.90907" lon="6.54081">
        <ele>1734.84</ele>
        <time>2017-09-03T13:23:43Z</time>
      </trkpt>
      <trkpt lat="45.90907" lon="6.54079">
        <ele>1734.84</ele>
        <time>2017-09-03T13:23:44Z</time>
      </trkpt>
      <trkpt lat="45.90908" lon="6.54077">
        <ele>1734.36</ele>
        <time>2017-09-03T13:23:45Z</time>
      </trkpt>
      <trkpt lat="45.90908" lon="6.54075">
        <ele>1733.88</ele>
        <time>2017-09-03T13:23:46Z</time>
      </trkpt>
      <trkpt lat="45.9091" lon="6.54072">
        <ele>1733.39</ele>
        <time>2017-09-03T13:23:47Z</time>
      </trkpt>
      <trkpt lat="45.90911" lon="6.54071">
        <ele>1732.43</ele>
        <time>2017-09-03T13:23:48Z</time>
      </trkpt>
      <trkpt lat="45.90912" lon="6.5407">
        <ele>1732.43</ele>
        <time>2017-09-03T13:23:49Z</time>
      </trkpt>
      <trkpt lat="45.90913" lon="6.54068">
        <ele>1731.95</ele>
        <time>2017-09-03T13:23:50Z</time>
      </trkpt>
      <trkpt lat="45.90913" lon="6.54067">
        <ele>1730.99</ele>
        <time>2017-09-03T13:23:51Z</time>
      </trkpt>
      <trkpt lat="45.90912" lon="6.54065">
        <ele>1730.51</ele>
        <time>2017-09-03T13:23:52Z</time>
      </trkpt>
      <trkpt lat="45.90912" lon="6.54063">
        <ele>1730.03</ele>
        <time>2017-09-03T13:23:53Z</time>
      </trkpt>
      <trkpt lat="45.90911" lon="6.54062">
        <ele>1729.07</ele>
        <time>2017-09-03T13:23:54Z</time>
      </trkpt>
      <trkpt lat="45.90907" lon="6.54055">
        <ele>1727.63</ele>
        <time>2017-09-03T13:24:00Z</time>
      </trkpt>
      <trkpt lat="45.90905" lon="6.54054">
        <ele>1727.15</ele>
        <time>2017-09-03T13:24:01Z</time>
      </trkpt>
      <trkpt lat="45.90904" lon="6.54052">
        <ele>1726.67</ele>
        <time>2017-09-03T13:24:02Z</time>
      </trkpt>
      <trkpt lat="45.909" lon="6.54048">
        <ele>1725.22</ele>
        <time>2017-09-03T13:24:05Z</time>
      </trkpt>
      <trkpt lat="45.90899" lon="6.54048">
        <ele>1724.74</ele>
        <time>2017-09-03T13:24:06Z</time>
      </trkpt>
      <trkpt lat="45.90898" lon="6.54049">
        <ele>1724.26</ele>
        <time>2017-09-03T13:24:07Z</time>
      </trkpt>
      <trkpt lat="45.90896" lon="6.5405">
        <ele>1723.78</ele>
        <time>2017-09-03T13:24:08Z</time>
      </trkpt>
      <trkpt lat="45.90894" lon="6.54051">
        <ele>1723.3</ele>
        <time>2017-09-03T13:24:09Z</time>
      </trkpt>
      <trkpt lat="45.90892" lon="6.54052">
        <ele>1722.82</ele>
        <time>2017-09-03T13:24:10Z</time>
      </trkpt>
      <trkpt lat="45.9089" lon="6.54051">
        <ele>1721.86</ele>
        <time>2017-09-03T13:24:11Z</time>
      </trkpt>
      <trkpt lat="45.90889" lon="6.54049">
        <ele>1721.38</ele>
        <time>2017-09-03T13:24:12Z</time>
      </trkpt>
      <trkpt lat="45.90888" lon="6.54047">
        <ele>1721.38</ele>
        <time>2017-09-03T13:24:13Z</time>
      </trkpt>
      <trkpt lat="45.90888" lon="6.54045">
        <ele>1720.9</ele>
        <time>2017-09-03T13:24:14Z</time>
      </trkpt>
      <trkpt lat="45.90887" lon="6.54042">
        <ele>1720.42</ele>
        <time>2017-09-03T13:24:15Z</time>
      </trkpt>
      <trkpt lat="45.90887" lon="6.5404">
        <ele>1719.46</ele>
        <time>2017-09-03T13:24:16Z</time>
      </trkpt>
      <trkpt lat="45.90887" lon="6.54036">
        <ele>1718.01</ele>
        <time>2017-09-03T13:24:18Z</time>
      </trkpt>
      <trkpt lat="45.90888" lon="6.54034">
        <ele>1717.53</ele>
        <time>2017-09-03T13:24:19Z</time>
      </trkpt>
      <trkpt lat="45.90888" lon="6.54032">
        <ele>1717.05</ele>
        <time>2017-09-03T13:24:20Z</time>
      </trkpt>
      <trkpt lat="45.90889" lon="6.54029">
        <ele>1716.57</ele>
        <time>2017-09-03T13:24:21Z</time>
      </trkpt>
      <trkpt lat="45.9089" lon="6.54027">
        <ele>1716.09</ele>
        <time>2017-09-03T13:24:22Z</time>
      </trkpt>
      <trkpt lat="45.90891" lon="6.54026">
        <ele>1715.61</ele>
        <time>2017-09-03T13:24:23Z</time>
      </trkpt>
      <trkpt lat="45.90891" lon="6.54024">
        <ele>1715.61</ele>
        <time>2017-09-03T13:24:24Z</time>
      </trkpt>
      <trkpt lat="45.90892" lon="6.54023">
        <ele>1715.13</ele>
        <time>2017-09-03T13:24:25Z</time>
      </trkpt>
      <trkpt lat="45.90893" lon="6.54022">
        <ele>1715.13</ele>
        <time>2017-09-03T13:24:26Z</time>
      </trkpt>
      <trkpt lat="45.90894" lon="6.5402">
        <ele>1714.17</ele>
        <time>2017-09-03T13:24:27Z</time>
      </trkpt>
      <trkpt lat="45.90901" lon="6.54013">
        <ele>1710.8</ele>
        <time>2017-09-03T13:24:32Z</time>
      </trkpt>
      <trkpt lat="45.90908" lon="6.54006">
        <ele>1707.44</ele>
        <time>2017-09-03T13:24:37Z</time>
      </trkpt>
      <trkpt lat="45.90915" lon="6.54">
        <ele>1704.07</ele>
        <time>2017-09-03T13:24:42Z</time>
      </trkpt>
      <trkpt lat="45.90917" lon="6.53997">
        <ele>1703.11</ele>
        <time>2017-09-03T13:24:44Z</time>
      </trkpt>
      <trkpt lat="45.90921" lon="6.53988">
        <ele>1699.75</ele>
        <time>2017-09-03T13:24:48Z</time>
      </trkpt>
      <trkpt lat="45.90923" lon="6.53987">
        <ele>1699.27</ele>
        <time>2017-09-03T13:24:49Z</time>
      </trkpt>
      <trkpt lat="45.90924" lon="6.53986">
        <ele>1698.79</ele>
        <time>2017-09-03T13:24:50Z</time>
      </trkpt>
      <trkpt lat="45.90924" lon="6.53984">
        <ele>1698.31</ele>
        <time>2017-09-03T13:24:51Z</time>
      </trkpt>
      <trkpt lat="45.90923" lon="6.53983">
        <ele>1697.83</ele>
        <time>2017-09-03T13:24:52Z</time>
      </trkpt>
      <trkpt lat="45.90922" lon="6.53982">
        <ele>1697.34</ele>
        <time>2017-09-03T13:24:53Z</time>
      </trkpt>
      <trkpt lat="45.90921" lon="6.5398">
        <ele>1696.38</ele>
        <time>2017-09-03T13:24:54Z</time>
      </trkpt>
      <trkpt lat="45.9092" lon="6.53979">
        <ele>1695.9</ele>
        <time>2017-09-03T13:24:55Z</time>
      </trkpt>
      <trkpt lat="45.90918" lon="6.53978">
        <ele>1695.42</ele>
        <time>2017-09-03T13:24:56Z</time>
      </trkpt>
      <trkpt lat="45.90911" lon="6.53978">
        <ele>1693.5</ele>
        <time>2017-09-03T13:25:00Z</time>
      </trkpt>
      <trkpt lat="45.9091" lon="6.53978">
        <ele>1693.02</ele>
        <time>2017-09-03T13:25:01Z</time>
      </trkpt>
      <trkpt lat="45.90908" lon="6.53978">
        <ele>1692.06</ele>
        <time>2017-09-03T13:25:02Z</time>
      </trkpt>
      <trkpt lat="45.90907" lon="6.53977">
        <ele>1691.58</ele>
        <time>2017-09-03T13:25:03Z</time>
      </trkpt>
      <trkpt lat="45.90906" lon="6.53975">
        <ele>1691.58</ele>
        <time>2017-09-03T13:25:04Z</time>
      </trkpt>
      <trkpt lat="45.90904" lon="6.53968">
        <ele>1690.62</ele>
        <time>2017-09-03T13:25:07Z</time>
      </trkpt>
      <trkpt lat="45.90905" lon="6.53965">
        <ele>1690.14</ele>
        <time>2017-09-03T13:25:08Z</time>
      </trkpt>
      <trkpt lat="45.90905" lon="6.53962">
        <ele>1689.17</ele>
        <time>2017-09-03T13:25:09Z</time>
      </trkpt>
      <trkpt lat="45.9091" lon="6.53955">
        <ele>1686.77</ele>
        <time>2017-09-03T13:25:13Z</time>
      </trkpt>
      <trkpt lat="45.90912" lon="6.53954">
        <ele>1685.81</ele>
        <time>2017-09-03T13:25:14Z</time>
      </trkpt>
      <trkpt lat="45.90914" lon="6.53953">
        <ele>1685.33</ele>
        <time>2017-09-03T13:25:15Z</time>
      </trkpt>
      <trkpt lat="45.90915" lon="6.53952">
        <ele>1684.85</ele>
        <time>2017-09-03T13:25:16Z</time>
      </trkpt>
      <trkpt lat="45.90915" lon="6.53951">
        <ele>1684.85</ele>
        <time>2017-09-03T13:25:17Z</time>
      </trkpt>
      <trkpt lat="45.90914" lon="6.5395">
        <ele>1684.37</ele>
        <time>2017-09-03T13:25:18Z</time>
      </trkpt>
      <trkpt lat="45.90913" lon="6.53949">
        <ele>1684.37</ele>
        <time>2017-09-03T13:25:19Z</time>
      </trkpt>
      <trkpt lat="45.90911" lon="6.53949">
        <ele>1683.89</ele>
        <time>2017-09-03T13:25:20Z</time>
      </trkpt>
      <trkpt lat="45.9091" lon="6.53947">
        <ele>1683.41</ele>
        <time>2017-09-03T13:25:21Z</time>
      </trkpt>
      <trkpt lat="45.90909" lon="6.53944">
        <ele>1682.93</ele>
        <time>2017-09-03T13:25:22Z</time>
      </trkpt>
      <trkpt lat="45.9091" lon="6.53942">
        <ele>1681.96</ele>
        <time>2017-09-03T13:25:23Z</time>
      </trkpt>
      <trkpt lat="45.90911" lon="6.5394">
        <ele>1681.96</ele>
        <time>2017-09-03T13:25:24Z</time>
      </trkpt>
      <trkpt lat="45.90912" lon="6.53938">
        <ele>1681.48</ele>
        <time>2017-09-03T13:25:25Z</time>
      </trkpt>
      <trkpt lat="45.90914" lon="6.53937">
        <ele>1681</ele>
        <time>2017-09-03T13:25:26Z</time>
      </trkpt>
      <trkpt lat="45.90915" lon="6.53936">
        <ele>1681</ele>
        <time>2017-09-03T13:25:27Z</time>
      </trkpt>
      <trkpt lat="45.90919" lon="6.53933">
        <ele>1679.56</ele>
        <time>2017-09-03T13:25:30Z</time>
      </trkpt>
      <trkpt lat="45.90918" lon="6.53931">
        <ele>1679.56</ele>
        <time>2017-09-03T13:25:31Z</time>
      </trkpt>
      <trkpt lat="45.90917" lon="6.53929">
        <ele>1678.6</ele>
        <time>2017-09-03T13:25:32Z</time>
      </trkpt>
      <trkpt lat="45.90915" lon="6.53928">
        <ele>1678.12</ele>
        <time>2017-09-03T13:25:33Z</time>
      </trkpt>
      <trkpt lat="45.90913" lon="6.53927">
        <ele>1677.64</ele>
        <time>2017-09-03T13:25:34Z</time>
      </trkpt>
      <trkpt lat="45.90911" lon="6.53926">
        <ele>1677.64</ele>
        <time>2017-09-03T13:25:35Z</time>
      </trkpt>
      <trkpt lat="45.90906" lon="6.53922">
        <ele>1675.72</ele>
        <time>2017-09-03T13:25:38Z</time>
      </trkpt>
      <trkpt lat="45.90906" lon="6.5392">
        <ele>1675.23</ele>
        <time>2017-09-03T13:25:39Z</time>
      </trkpt>
      <trkpt lat="45.90907" lon="6.53918">
        <ele>1674.27</ele>
        <time>2017-09-03T13:25:40Z</time>
      </trkpt>
      <trkpt lat="45.90912" lon="6.5391">
        <ele>1673.79</ele>
        <time>2017-09-03T13:25:44Z</time>
      </trkpt>
      <trkpt lat="45.90911" lon="6.53908">
        <ele>1672.83</ele>
        <time>2017-09-03T13:25:45Z</time>
      </trkpt>
      <trkpt lat="45.90909" lon="6.53898">
        <ele>1671.39</ele>
        <time>2017-09-03T13:25:49Z</time>
      </trkpt>
      <trkpt lat="45.90908" lon="6.5389">
        <ele>1670.91</ele>
        <time>2017-09-03T13:25:52Z</time>
      </trkpt>
      <trkpt lat="45.90906" lon="6.53888">
        <ele>1670.43</ele>
        <time>2017-09-03T13:25:53Z</time>
      </trkpt>
      <trkpt lat="45.90905" lon="6.53885">
        <ele>1670.43</ele>
        <time>2017-09-03T13:25:54Z</time>
      </trkpt>
      <trkpt lat="45.90903" lon="6.53882">
        <ele>1669.95</ele>
        <time>2017-09-03T13:25:55Z</time>
      </trkpt>
      <trkpt lat="45.90901" lon="6.5388">
        <ele>1669.95</ele>
        <time>2017-09-03T13:25:56Z</time>
      </trkpt>
      <trkpt lat="45.90899" lon="6.53878">
        <ele>1669.47</ele>
        <time>2017-09-03T13:25:57Z</time>
      </trkpt>
      <trkpt lat="45.90898" lon="6.53876">
        <ele>1669.47</ele>
        <time>2017-09-03T13:25:58Z</time>
      </trkpt>
      <trkpt lat="45.90896" lon="6.53874">
        <ele>1668.99</ele>
        <time>2017-09-03T13:25:59Z</time>
      </trkpt>
      <trkpt lat="45.90894" lon="6.53872">
        <ele>1668.51</ele>
        <time>2017-09-03T13:26:00Z</time>
      </trkpt>
      <trkpt lat="45.90892" lon="6.53871">
        <ele>1668.51</ele>
        <time>2017-09-03T13:26:01Z</time>
      </trkpt>
      <trkpt lat="45.9089" lon="6.5387">
        <ele>1668.02</ele>
        <time>2017-09-03T13:26:02Z</time>
      </trkpt>
      <trkpt lat="45.90887" lon="6.53869">
        <ele>1668.02</ele>
        <time>2017-09-03T13:26:03Z</time>
      </trkpt>
      <trkpt lat="45.90885" lon="6.53868">
        <ele>1668.02</ele>
        <time>2017-09-03T13:26:04Z</time>
      </trkpt>
      <trkpt lat="45.90883" lon="6.53866">
        <ele>1667.54</ele>
        <time>2017-09-03T13:26:05Z</time>
      </trkpt>
      <trkpt lat="45.90881" lon="6.53865">
        <ele>1667.54</ele>
        <time>2017-09-03T13:26:06Z</time>
      </trkpt>
      <trkpt lat="45.90879" lon="6.53865">
        <ele>1667.54</ele>
        <time>2017-09-03T13:26:07Z</time>
      </trkpt>
      <trkpt lat="45.90869" lon="6.53861">
        <ele>1666.58</ele>
        <time>2017-09-03T13:26:12Z</time>
      </trkpt>
      <trkpt lat="45.90862" lon="6.53855">
        <ele>1665.14</ele>
        <time>2017-09-03T13:26:17Z</time>
      </trkpt>
      <trkpt lat="45.90861" lon="6.53855">
        <ele>1665.14</ele>
        <time>2017-09-03T13:26:18Z</time>
      </trkpt>
      <trkpt lat="45.9086" lon="6.53855">
        <ele>1664.18</ele>
        <time>2017-09-03T13:26:19Z</time>
      </trkpt>
      <trkpt lat="45.90858" lon="6.53855">
        <ele>1663.7</ele>
        <time>2017-09-03T13:26:20Z</time>
      </trkpt>
      <trkpt lat="45.90857" lon="6.53856">
        <ele>1663.22</ele>
        <time>2017-09-03T13:26:21Z</time>
      </trkpt>
      <trkpt lat="45.90855" lon="6.53856">
        <ele>1662.74</ele>
        <time>2017-09-03T13:26:22Z</time>
      </trkpt>
      <trkpt lat="45.90854" lon="6.53855">
        <ele>1662.26</ele>
        <time>2017-09-03T13:26:23Z</time>
      </trkpt>
      <trkpt lat="45.90852" lon="6.53855">
        <ele>1662.26</ele>
        <time>2017-09-03T13:26:24Z</time>
      </trkpt>
      <trkpt lat="45.90851" lon="6.53854">
        <ele>1661.78</ele>
        <time>2017-09-03T13:26:25Z</time>
      </trkpt>
      <trkpt lat="45.9085" lon="6.53853">
        <ele>1661.3</ele>
        <time>2017-09-03T13:26:26Z</time>
      </trkpt>
      <trkpt lat="45.90848" lon="6.53853">
        <ele>1660.81</ele>
        <time>2017-09-03T13:26:27Z</time>
      </trkpt>
      <trkpt lat="45.90847" lon="6.53852">
        <ele>1660.33</ele>
        <time>2017-09-03T13:26:28Z</time>
      </trkpt>
      <trkpt lat="45.90845" lon="6.53851">
        <ele>1659.85</ele>
        <time>2017-09-03T13:26:29Z</time>
      </trkpt>
      <trkpt lat="45.90844" lon="6.53851">
        <ele>1659.37</ele>
        <time>2017-09-03T13:26:30Z</time>
      </trkpt>
      <trkpt lat="45.90842" lon="6.53851">
        <ele>1658.89</ele>
        <time>2017-09-03T13:26:31Z</time>
      </trkpt>
      <trkpt lat="45.90841" lon="6.53851">
        <ele>1658.41</ele>
        <time>2017-09-03T13:26:32Z</time>
      </trkpt>
      <trkpt lat="45.9084" lon="6.53851">
        <ele>1658.41</ele>
        <time>2017-09-03T13:26:33Z</time>
      </trkpt>
      <trkpt lat="45.90839" lon="6.53851">
        <ele>1657.93</ele>
        <time>2017-09-03T13:26:34Z</time>
      </trkpt>
      <trkpt lat="45.90837" lon="6.53851">
        <ele>1656.97</ele>
        <time>2017-09-03T13:26:35Z</time>
      </trkpt>
      <trkpt lat="45.90835" lon="6.53851">
        <ele>1656.49</ele>
        <time>2017-09-03T13:26:36Z</time>
      </trkpt>
      <trkpt lat="45.90834" lon="6.5385">
        <ele>1656.01</ele>
        <time>2017-09-03T13:26:37Z</time>
      </trkpt>
      <trkpt lat="45.90833" lon="6.53848">
        <ele>1655.53</ele>
        <time>2017-09-03T13:26:38Z</time>
      </trkpt>
      <trkpt lat="45.90832" lon="6.53846">
        <ele>1654.57</ele>
        <time>2017-09-03T13:26:39Z</time>
      </trkpt>
      <trkpt lat="45.90825" lon="6.53834">
        <ele>1652.16</ele>
        <time>2017-09-03T13:26:44Z</time>
      </trkpt>
      <trkpt lat="45.90826" lon="6.53809">
        <ele>1650.72</ele>
        <time>2017-09-03T13:26:52Z</time>
      </trkpt>
      <trkpt lat="45.90825" lon="6.53808">
        <ele>1650.24</ele>
        <time>2017-09-03T13:26:53Z</time>
      </trkpt>
      <trkpt lat="45.90824" lon="6.53806">
        <ele>1650.24</ele>
        <time>2017-09-03T13:26:54Z</time>
      </trkpt>
      <trkpt lat="45.90824" lon="6.53804">
        <ele>1649.76</ele>
        <time>2017-09-03T13:26:55Z</time>
      </trkpt>
      <trkpt lat="45.90823" lon="6.53803">
        <ele>1648.8</ele>
        <time>2017-09-03T13:26:56Z</time>
      </trkpt>
      <trkpt lat="45.90822" lon="6.53803">
        <ele>1647.84</ele>
        <time>2017-09-03T13:26:57Z</time>
      </trkpt>
      <trkpt lat="45.9082" lon="6.53803">
        <ele>1647.36</ele>
        <time>2017-09-03T13:26:58Z</time>
      </trkpt>
      <trkpt lat="45.90818" lon="6.53804">
        <ele>1646.4</ele>
        <time>2017-09-03T13:26:59Z</time>
      </trkpt>
      <trkpt lat="45.90817" lon="6.53806">
        <ele>1646.4</ele>
        <time>2017-09-03T13:27:00Z</time>
      </trkpt>
      <trkpt lat="45.90816" lon="6.53807">
        <ele>1645.91</ele>
        <time>2017-09-03T13:27:01Z</time>
      </trkpt>
      <trkpt lat="45.90813" lon="6.53806">
        <ele>1645.43</ele>
        <time>2017-09-03T13:27:02Z</time>
      </trkpt>
      <trkpt lat="45.90812" lon="6.53804">
        <ele>1644.95</ele>
        <time>2017-09-03T13:27:03Z</time>
      </trkpt>
      <trkpt lat="45.90811" lon="6.53801">
        <ele>1644.47</ele>
        <time>2017-09-03T13:27:04Z</time>
      </trkpt>
      <trkpt lat="45.9081" lon="6.53798">
        <ele>1643.51</ele>
        <time>2017-09-03T13:27:05Z</time>
      </trkpt>
      <trkpt lat="45.90809" lon="6.53795">
        <ele>1643.03</ele>
        <time>2017-09-03T13:27:06Z</time>
      </trkpt>
      <trkpt lat="45.90808" lon="6.53793">
        <ele>1642.55</ele>
        <time>2017-09-03T13:27:07Z</time>
      </trkpt>
      <trkpt lat="45.90806" lon="6.53792">
        <ele>1642.55</ele>
        <time>2017-09-03T13:27:08Z</time>
      </trkpt>
      <trkpt lat="45.90805" lon="6.5379">
        <ele>1641.59</ele>
        <time>2017-09-03T13:27:09Z</time>
      </trkpt>
      <trkpt lat="45.90803" lon="6.53788">
        <ele>1641.59</ele>
        <time>2017-09-03T13:27:10Z</time>
      </trkpt>
      <trkpt lat="45.90802" lon="6.53786">
        <ele>1640.63</ele>
        <time>2017-09-03T13:27:11Z</time>
      </trkpt>
      <trkpt lat="45.908" lon="6.53784">
        <ele>1640.15</ele>
        <time>2017-09-03T13:27:12Z</time>
      </trkpt>
      <trkpt lat="45.90799" lon="6.53782">
        <ele>1639.67</ele>
        <time>2017-09-03T13:27:13Z</time>
      </trkpt>
      <trkpt lat="45.90798" lon="6.5378">
        <ele>1639.19</ele>
        <time>2017-09-03T13:27:14Z</time>
      </trkpt>
      <trkpt lat="45.90798" lon="6.53778">
        <ele>1638.7</ele>
        <time>2017-09-03T13:27:15Z</time>
      </trkpt>
      <trkpt lat="45.90798" lon="6.53776">
        <ele>1638.7</ele>
        <time>2017-09-03T13:27:16Z</time>
      </trkpt>
      <trkpt lat="45.90798" lon="6.53774">
        <ele>1638.22</ele>
        <time>2017-09-03T13:27:17Z</time>
      </trkpt>
      <trkpt lat="45.90797" lon="6.53771">
        <ele>1637.74</ele>
        <time>2017-09-03T13:27:18Z</time>
      </trkpt>
      <trkpt lat="45.90796" lon="6.53769">
        <ele>1637.26</ele>
        <time>2017-09-03T13:27:19Z</time>
      </trkpt>
      <trkpt lat="45.90795" lon="6.53767">
        <ele>1636.78</ele>
        <time>2017-09-03T13:27:20Z</time>
      </trkpt>
      <trkpt lat="45.90793" lon="6.53766">
        <ele>1636.3</ele>
        <time>2017-09-03T13:27:21Z</time>
      </trkpt>
      <trkpt lat="45.90791" lon="6.53765">
        <ele>1635.34</ele>
        <time>2017-09-03T13:27:22Z</time>
      </trkpt>
      <trkpt lat="45.90788" lon="6.53765">
        <ele>1634.38</ele>
        <time>2017-09-03T13:27:23Z</time>
      </trkpt>
      <trkpt lat="45.90785" lon="6.53764">
        <ele>1633.9</ele>
        <time>2017-09-03T13:27:24Z</time>
      </trkpt>
      <trkpt lat="45.90783" lon="6.53762">
        <ele>1632.94</ele>
        <time>2017-09-03T13:27:25Z</time>
      </trkpt>
      <trkpt lat="45.90781" lon="6.5376">
        <ele>1632.46</ele>
        <time>2017-09-03T13:27:26Z</time>
      </trkpt>
      <trkpt lat="45.90778" lon="6.53758">
        <ele>1631.98</ele>
        <time>2017-09-03T13:27:27Z</time>
      </trkpt>
      <trkpt lat="45.90771" lon="6.53752">
        <ele>1631.01</ele>
        <time>2017-09-03T13:27:30Z</time>
      </trkpt>
      <trkpt lat="45.90758" lon="6.53753">
        <ele>1627.65</ele>
        <time>2017-09-03T13:27:36Z</time>
      </trkpt>
      <trkpt lat="45.90757" lon="6.53751">
        <ele>1627.17</ele>
        <time>2017-09-03T13:27:37Z</time>
      </trkpt>
      <trkpt lat="45.90755" lon="6.53748">
        <ele>1626.69</ele>
        <time>2017-09-03T13:27:38Z</time>
      </trkpt>
      <trkpt lat="45.90754" lon="6.53746">
        <ele>1626.21</ele>
        <time>2017-09-03T13:27:39Z</time>
      </trkpt>
      <trkpt lat="45.90752" lon="6.53744">
        <ele>1625.73</ele>
        <time>2017-09-03T13:27:40Z</time>
      </trkpt>
      <trkpt lat="45.9075" lon="6.53741">
        <ele>1624.77</ele>
        <time>2017-09-03T13:27:41Z</time>
      </trkpt>
      <trkpt lat="45.90749" lon="6.53737">
        <ele>1624.28</ele>
        <time>2017-09-03T13:27:42Z</time>
      </trkpt>
      <trkpt lat="45.90749" lon="6.53733">
        <ele>1623.8</ele>
        <time>2017-09-03T13:27:43Z</time>
      </trkpt>
      <trkpt lat="45.90754" lon="6.53706">
        <ele>1621.88</ele>
        <time>2017-09-03T13:27:50Z</time>
      </trkpt>
      <trkpt lat="45.90755" lon="6.53676">
        <ele>1619.96</ele>
        <time>2017-09-03T13:27:58Z</time>
      </trkpt>
      <trkpt lat="45.90753" lon="6.53659">
        <ele>1618.52</ele>
        <time>2017-09-03T13:28:03Z</time>
      </trkpt>
      <trkpt lat="45.90752" lon="6.53656">
        <ele>1618.52</ele>
        <time>2017-09-03T13:28:04Z</time>
      </trkpt>
      <trkpt lat="45.90749" lon="6.53649">
        <ele>1617.56</ele>
        <time>2017-09-03T13:28:07Z</time>
      </trkpt>
      <trkpt lat="45.90749" lon="6.53647">
        <ele>1617.56</ele>
        <time>2017-09-03T13:28:08Z</time>
      </trkpt>
      <trkpt lat="45.9075" lon="6.53647">
        <ele>1617.07</ele>
        <time>2017-09-03T13:28:09Z</time>
      </trkpt>
      <trkpt lat="45.90752" lon="6.53646">
        <ele>1617.07</ele>
        <time>2017-09-03T13:28:10Z</time>
      </trkpt>
      <trkpt lat="45.90752" lon="6.53644">
        <ele>1616.59</ele>
        <time>2017-09-03T13:28:12Z</time>
      </trkpt>
      <trkpt lat="45.90751" lon="6.53642">
        <ele>1616.11</ele>
        <time>2017-09-03T13:28:13Z</time>
      </trkpt>
      <trkpt lat="45.90751" lon="6.53641">
        <ele>1615.63</ele>
        <time>2017-09-03T13:28:14Z</time>
      </trkpt>
      <trkpt lat="45.90751" lon="6.53639">
        <ele>1615.63</ele>
        <time>2017-09-03T13:28:15Z</time>
      </trkpt>
      <trkpt lat="45.9075" lon="6.53639">
        <ele>1615.15</ele>
        <time>2017-09-03T13:28:16Z</time>
      </trkpt>
      <trkpt lat="45.90749" lon="6.53638">
        <ele>1615.15</ele>
        <time>2017-09-03T13:28:17Z</time>
      </trkpt>
      <trkpt lat="45.90749" lon="6.53637">
        <ele>1615.15</ele>
        <time>2017-09-03T13:28:18Z</time>
      </trkpt>
      <trkpt lat="45.90748" lon="6.53635">
        <ele>1614.19</ele>
        <time>2017-09-03T13:28:19Z</time>
      </trkpt>
      <trkpt lat="45.90746" lon="6.53634">
        <ele>1613.71</ele>
        <time>2017-09-03T13:28:20Z</time>
      </trkpt>
      <trkpt lat="45.90744" lon="6.53633">
        <ele>1613.23</ele>
        <time>2017-09-03T13:28:21Z</time>
      </trkpt>
      <trkpt lat="45.90743" lon="6.53631">
        <ele>1613.23</ele>
        <time>2017-09-03T13:28:22Z</time>
      </trkpt>
      <trkpt lat="45.90742" lon="6.53628">
        <ele>1612.75</ele>
        <time>2017-09-03T13:28:23Z</time>
      </trkpt>
      <trkpt lat="45.90741" lon="6.53626">
        <ele>1612.27</ele>
        <time>2017-09-03T13:28:24Z</time>
      </trkpt>
      <trkpt lat="45.90741" lon="6.53624">
        <ele>1611.79</ele>
        <time>2017-09-03T13:28:25Z</time>
      </trkpt>
      <trkpt lat="45.90742" lon="6.53622">
        <ele>1611.79</ele>
        <time>2017-09-03T13:28:26Z</time>
      </trkpt>
      <trkpt lat="45.90742" lon="6.5362">
        <ele>1610.83</ele>
        <time>2017-09-03T13:28:27Z</time>
      </trkpt>
      <trkpt lat="45.90744" lon="6.53613">
        <ele>1609.86</ele>
        <time>2017-09-03T13:28:30Z</time>
      </trkpt>
      <trkpt lat="45.90748" lon="6.53589">
        <ele>1606.98</ele>
        <time>2017-09-03T13:28:38Z</time>
      </trkpt>
      <trkpt lat="45.90749" lon="6.53587">
        <ele>1606.98</ele>
        <time>2017-09-03T13:28:39Z</time>
      </trkpt>
      <trkpt lat="45.9075" lon="6.53585">
        <ele>1606.98</ele>
        <time>2017-09-03T13:28:40Z</time>
      </trkpt>
      <trkpt lat="45.90752" lon="6.53577">
        <ele>1606.02</ele>
        <time>2017-09-03T13:28:43Z</time>
      </trkpt>
      <trkpt lat="45.90752" lon="6.53574">
        <ele>1605.54</ele>
        <time>2017-09-03T13:28:44Z</time>
      </trkpt>
      <trkpt lat="45.90751" lon="6.53571">
        <ele>1605.54</ele>
        <time>2017-09-03T13:28:45Z</time>
      </trkpt>
      <trkpt lat="45.90742" lon="6.53558">
        <ele>1604.58</ele>
        <time>2017-09-03T13:28:52Z</time>
      </trkpt>
      <trkpt lat="45.9074" lon="6.53557">
        <ele>1604.1</ele>
        <time>2017-09-03T13:28:53Z</time>
      </trkpt>
      <trkpt lat="45.90739" lon="6.53555">
        <ele>1603.62</ele>
        <time>2017-09-03T13:28:54Z</time>
      </trkpt>
      <trkpt lat="45.90738" lon="6.53553">
        <ele>1603.14</ele>
        <time>2017-09-03T13:28:55Z</time>
      </trkpt>
      <trkpt lat="45.90736" lon="6.5355">
        <ele>1602.66</ele>
        <time>2017-09-03T13:28:56Z</time>
      </trkpt>
      <trkpt lat="45.90735" lon="6.53548">
        <ele>1602.17</ele>
        <time>2017-09-03T13:28:57Z</time>
      </trkpt>
      <trkpt lat="45.90733" lon="6.53541">
        <ele>1601.69</ele>
        <time>2017-09-03T13:28:59Z</time>
      </trkpt>
      <trkpt lat="45.90733" lon="6.53538">
        <ele>1601.21</ele>
        <time>2017-09-03T13:29:00Z</time>
      </trkpt>
      <trkpt lat="45.90734" lon="6.5351">
        <ele>1598.81</ele>
        <time>2017-09-03T13:29:10Z</time>
      </trkpt>
      <trkpt lat="45.90733" lon="6.53505">
        <ele>1598.81</ele>
        <time>2017-09-03T13:29:12Z</time>
      </trkpt>
      <trkpt lat="45.90732" lon="6.53503">
        <ele>1598.33</ele>
        <time>2017-09-03T13:29:13Z</time>
      </trkpt>
      <trkpt lat="45.90731" lon="6.53501">
        <ele>1598.33</ele>
        <time>2017-09-03T13:29:14Z</time>
      </trkpt>
      <trkpt lat="45.90729" lon="6.53496">
        <ele>1597.37</ele>
        <time>2017-09-03T13:29:16Z</time>
      </trkpt>
      <trkpt lat="45.90728" lon="6.53492">
        <ele>1596.89</ele>
        <time>2017-09-03T13:29:17Z</time>
      </trkpt>
      <trkpt lat="45.90728" lon="6.53489">
        <ele>1596.41</ele>
        <time>2017-09-03T13:29:18Z</time>
      </trkpt>
      <trkpt lat="45.90725" lon="6.53467">
        <ele>1594.96</ele>
        <time>2017-09-03T13:29:25Z</time>
      </trkpt>
      <trkpt lat="45.90725" lon="6.53464">
        <ele>1594.48</ele>
        <time>2017-09-03T13:29:26Z</time>
      </trkpt>
      <trkpt lat="45.90725" lon="6.5346">
        <ele>1594.48</ele>
        <time>2017-09-03T13:29:27Z</time>
      </trkpt>
      <trkpt lat="45.90727" lon="6.53438">
        <ele>1592.56</ele>
        <time>2017-09-03T13:29:35Z</time>
      </trkpt>
      <trkpt lat="45.90726" lon="6.53434">
        <ele>1592.56</ele>
        <time>2017-09-03T13:29:36Z</time>
      </trkpt>
      <trkpt lat="45.90726" lon="6.53431">
        <ele>1592.08</ele>
        <time>2017-09-03T13:29:37Z</time>
      </trkpt>
      <trkpt lat="45.90727" lon="6.53422">
        <ele>1591.6</ele>
        <time>2017-09-03T13:29:40Z</time>
      </trkpt>
      <trkpt lat="45.90728" lon="6.5342">
        <ele>1591.12</ele>
        <time>2017-09-03T13:29:41Z</time>
      </trkpt>
      <trkpt lat="45.90729" lon="6.53418">
        <ele>1591.12</ele>
        <time>2017-09-03T13:29:42Z</time>
      </trkpt>
      <trkpt lat="45.90729" lon="6.53415">
        <ele>1590.64</ele>
        <time>2017-09-03T13:29:43Z</time>
      </trkpt>
      <trkpt lat="45.9073" lon="6.53412">
        <ele>1590.16</ele>
        <time>2017-09-03T13:29:44Z</time>
      </trkpt>
      <trkpt lat="45.9073" lon="6.53409">
        <ele>1589.68</ele>
        <time>2017-09-03T13:29:45Z</time>
      </trkpt>
      <trkpt lat="45.9073" lon="6.53406">
        <ele>1589.68</ele>
        <time>2017-09-03T13:29:46Z</time>
      </trkpt>
      <trkpt lat="45.9073" lon="6.53403">
        <ele>1589.2</ele>
        <time>2017-09-03T13:29:47Z</time>
      </trkpt>
      <trkpt lat="45.90737" lon="6.53377">
        <ele>1588.24</ele>
        <time>2017-09-03T13:29:57Z</time>
      </trkpt>
      <trkpt lat="45.90738" lon="6.53351">
        <ele>1587.27</ele>
        <time>2017-09-03T13:30:06Z</time>
      </trkpt>
      <trkpt lat="45.90737" lon="6.5333">
        <ele>1585.83</ele>
        <time>2017-09-03T13:30:13Z</time>
      </trkpt>
      <trkpt lat="45.90738" lon="6.53327">
        <ele>1585.35</ele>
        <time>2017-09-03T13:30:14Z</time>
      </trkpt>
      <trkpt lat="45.90739" lon="6.53323">
        <ele>1584.87</ele>
        <time>2017-09-03T13:30:15Z</time>
      </trkpt>
      <trkpt lat="45.9074" lon="6.5332">
        <ele>1584.39</ele>
        <time>2017-09-03T13:30:16Z</time>
      </trkpt>
      <trkpt lat="45.90741" lon="6.53318">
        <ele>1584.39</ele>
        <time>2017-09-03T13:30:17Z</time>
      </trkpt>
      <trkpt lat="45.90743" lon="6.53315">
        <ele>1584.39</ele>
        <time>2017-09-03T13:30:18Z</time>
      </trkpt>
      <trkpt lat="45.90744" lon="6.53312">
        <ele>1584.39</ele>
        <time>2017-09-03T13:30:19Z</time>
      </trkpt>
      <trkpt lat="45.90746" lon="6.53309">
        <ele>1584.39</ele>
        <time>2017-09-03T13:30:20Z</time>
      </trkpt>
      <trkpt lat="45.90747" lon="6.53306">
        <ele>1584.39</ele>
        <time>2017-09-03T13:30:21Z</time>
      </trkpt>
      <trkpt lat="45.90753" lon="6.5328">
        <ele>1584.87</ele>
        <time>2017-09-03T13:30:29Z</time>
      </trkpt>
      <trkpt lat="45.90757" lon="6.53251">
        <ele>1584.39</ele>
        <time>2017-09-03T13:30:39Z</time>
      </trkpt>
      <trkpt lat="45.90762" lon="6.53226">
        <ele>1581.99</ele>
        <time>2017-09-03T13:30:48Z</time>
      </trkpt>
      <trkpt lat="45.90773" lon="6.53218">
        <ele>1582.95</ele>
        <time>2017-09-03T13:30:55Z</time>
      </trkpt>
      <trkpt lat="45.90775" lon="6.53218">
        <ele>1583.43</ele>
        <time>2017-09-03T13:30:56Z</time>
      </trkpt>
      <trkpt lat="45.90776" lon="6.53218">
        <ele>1583.43</ele>
        <time>2017-09-03T13:30:57Z</time>
      </trkpt>
      <trkpt lat="45.90777" lon="6.53218">
        <ele>1583.91</ele>
        <time>2017-09-03T13:30:58Z</time>
      </trkpt>
      <trkpt lat="45.90779" lon="6.53217">
        <ele>1583.91</ele>
        <time>2017-09-03T13:30:59Z</time>
      </trkpt>
      <trkpt lat="45.9078" lon="6.53216">
        <ele>1583.91</ele>
        <time>2017-09-03T13:31:00Z</time>
      </trkpt>
      <trkpt lat="45.90781" lon="6.53215">
        <ele>1583.91</ele>
        <time>2017-09-03T13:31:01Z</time>
      </trkpt>
      <trkpt lat="45.90781" lon="6.53213">
        <ele>1583.43</ele>
        <time>2017-09-03T13:31:02Z</time>
      </trkpt>
      <trkpt lat="45.90781" lon="6.5321">
        <ele>1583.43</ele>
        <time>2017-09-03T13:31:03Z</time>
      </trkpt>
      <trkpt lat="45.90781" lon="6.53208">
        <ele>1582.95</ele>
        <time>2017-09-03T13:31:04Z</time>
      </trkpt>
      <trkpt lat="45.90781" lon="6.53206">
        <ele>1582.47</ele>
        <time>2017-09-03T13:31:05Z</time>
      </trkpt>
      <trkpt lat="45.9078" lon="6.53204">
        <ele>1581.99</ele>
        <time>2017-09-03T13:31:06Z</time>
      </trkpt>
      <trkpt lat="45.9078" lon="6.53202">
        <ele>1581.51</ele>
        <time>2017-09-03T13:31:07Z</time>
      </trkpt>
      <trkpt lat="45.9078" lon="6.532">
        <ele>1581.03</ele>
        <time>2017-09-03T13:31:08Z</time>
      </trkpt>
      <trkpt lat="45.90781" lon="6.53199">
        <ele>1581.03</ele>
        <time>2017-09-03T13:31:09Z</time>
      </trkpt>
      <trkpt lat="45.90781" lon="6.53197">
        <ele>1580.54</ele>
        <time>2017-09-03T13:31:10Z</time>
      </trkpt>
      <trkpt lat="45.90782" lon="6.53195">
        <ele>1580.06</ele>
        <time>2017-09-03T13:31:11Z</time>
      </trkpt>
      <trkpt lat="45.90783" lon="6.53193">
        <ele>1580.06</ele>
        <time>2017-09-03T13:31:12Z</time>
      </trkpt>
      <trkpt lat="45.90784" lon="6.53191">
        <ele>1579.58</ele>
        <time>2017-09-03T13:31:13Z</time>
      </trkpt>
      <trkpt lat="45.90784" lon="6.53189">
        <ele>1579.1</ele>
        <time>2017-09-03T13:31:14Z</time>
      </trkpt>
      <trkpt lat="45.90785" lon="6.53186">
        <ele>1579.1</ele>
        <time>2017-09-03T13:31:15Z</time>
      </trkpt>
      <trkpt lat="45.90798" lon="6.53168">
        <ele>1576.22</ele>
        <time>2017-09-03T13:31:25Z</time>
      </trkpt>
      <trkpt lat="45.90797" lon="6.53166">
        <ele>1575.74</ele>
        <time>2017-09-03T13:31:26Z</time>
      </trkpt>
      <trkpt lat="45.90796" lon="6.53164">
        <ele>1575.74</ele>
        <time>2017-09-03T13:31:27Z</time>
      </trkpt>
      <trkpt lat="45.90796" lon="6.53162">
        <ele>1575.26</ele>
        <time>2017-09-03T13:31:28Z</time>
      </trkpt>
      <trkpt lat="45.90796" lon="6.5316">
        <ele>1575.26</ele>
        <time>2017-09-03T13:31:29Z</time>
      </trkpt>
      <trkpt lat="45.90797" lon="6.53158">
        <ele>1574.78</ele>
        <time>2017-09-03T13:31:30Z</time>
      </trkpt>
      <trkpt lat="45.90797" lon="6.53157">
        <ele>1574.78</ele>
        <time>2017-09-03T13:31:31Z</time>
      </trkpt>
      <trkpt lat="45.90797" lon="6.53147">
        <ele>1574.78</ele>
        <time>2017-09-03T13:31:38Z</time>
      </trkpt>
      <trkpt lat="45.90796" lon="6.53145">
        <ele>1574.78</ele>
        <time>2017-09-03T13:31:40Z</time>
      </trkpt>
      <trkpt lat="45.90796" lon="6.53144">
        <ele>1574.78</ele>
        <time>2017-09-03T13:31:41Z</time>
      </trkpt>
      <trkpt lat="45.90797" lon="6.53129">
        <ele>1576.22</ele>
        <time>2017-09-03T13:31:50Z</time>
      </trkpt>
      <trkpt lat="45.90798" lon="6.53127">
        <ele>1576.22</ele>
        <time>2017-09-03T13:31:51Z</time>
      </trkpt>
      <trkpt lat="45.90798" lon="6.53126">
        <ele>1576.22</ele>
        <time>2017-09-03T13:31:52Z</time>
      </trkpt>
      <trkpt lat="45.90798" lon="6.53124">
        <ele>1576.7</ele>
        <time>2017-09-03T13:31:53Z</time>
      </trkpt>
      <trkpt lat="45.90799" lon="6.53123">
        <ele>1576.7</ele>
        <time>2017-09-03T13:31:54Z</time>
      </trkpt>
      <trkpt lat="45.908" lon="6.53122">
        <ele>1576.7</ele>
        <time>2017-09-03T13:31:55Z</time>
      </trkpt>
      <trkpt lat="45.90801" lon="6.53121">
        <ele>1577.18</ele>
        <time>2017-09-03T13:31:56Z</time>
      </trkpt>
      <trkpt lat="45.90802" lon="6.5312">
        <ele>1577.18</ele>
        <time>2017-09-03T13:31:57Z</time>
      </trkpt>
      <trkpt lat="45.90803" lon="6.53119">
        <ele>1576.7</ele>
        <time>2017-09-03T13:31:58Z</time>
      </trkpt>
      <trkpt lat="45.90804" lon="6.53118">
        <ele>1576.7</ele>
        <time>2017-09-03T13:31:59Z</time>
      </trkpt>
      <trkpt lat="45.90816" lon="6.53106">
        <ele>1577.18</ele>
        <time>2017-09-03T13:32:11Z</time>
      </trkpt>
      <trkpt lat="45.90827" lon="6.53087">
        <ele>1577.66</ele>
        <time>2017-09-03T13:32:23Z</time>
      </trkpt>
      <trkpt lat="45.90833" lon="6.53074">
        <ele>1577.66</ele>
        <time>2017-09-03T13:32:31Z</time>
      </trkpt>
      <trkpt lat="45.90836" lon="6.53071">
        <ele>1577.18</ele>
        <time>2017-09-03T13:32:34Z</time>
      </trkpt>
      <trkpt lat="45.90838" lon="6.5307">
        <ele>1577.66</ele>
        <time>2017-09-03T13:32:35Z</time>
      </trkpt>
      <trkpt lat="45.90857" lon="6.53061">
        <ele>1576.22</ele>
        <time>2017-09-03T13:32:44Z</time>
      </trkpt>
      <trkpt lat="45.90869" lon="6.5305">
        <ele>1574.3</ele>
        <time>2017-09-03T13:32:49Z</time>
      </trkpt>
      <trkpt lat="45.90884" lon="6.53028">
        <ele>1573.33</ele>
        <time>2017-09-03T13:32:57Z</time>
      </trkpt>
      <trkpt lat="45.90898" lon="6.53007">
        <ele>1571.89</ele>
        <time>2017-09-03T13:33:04Z</time>
      </trkpt>
      <trkpt lat="45.90911" lon="6.5299">
        <ele>1571.41</ele>
        <time>2017-09-03T13:33:10Z</time>
      </trkpt>
      <trkpt lat="45.90921" lon="6.52975">
        <ele>1570.93</ele>
        <time>2017-09-03T13:33:16Z</time>
      </trkpt>
      <trkpt lat="45.90924" lon="6.52968">
        <ele>1570.45</ele>
        <time>2017-09-03T13:33:19Z</time>
      </trkpt>
      <trkpt lat="45.90924" lon="6.52966">
        <ele>1570.45</ele>
        <time>2017-09-03T13:33:20Z</time>
      </trkpt>
      <trkpt lat="45.90923" lon="6.52963">
        <ele>1570.45</ele>
        <time>2017-09-03T13:33:21Z</time>
      </trkpt>
      <trkpt lat="45.90922" lon="6.52961">
        <ele>1570.45</ele>
        <time>2017-09-03T13:33:22Z</time>
      </trkpt>
      <trkpt lat="45.90921" lon="6.52959">
        <ele>1570.45</ele>
        <time>2017-09-03T13:33:23Z</time>
      </trkpt>
      <trkpt lat="45.9092" lon="6.52957">
        <ele>1570.45</ele>
        <time>2017-09-03T13:33:24Z</time>
      </trkpt>
      <trkpt lat="45.90918" lon="6.52953">
        <ele>1570.93</ele>
        <time>2017-09-03T13:33:25Z</time>
      </trkpt>
      <trkpt lat="45.90915" lon="6.52951">
        <ele>1570.93</ele>
        <time>2017-09-03T13:33:26Z</time>
      </trkpt>
      <trkpt lat="45.90913" lon="6.5295">
        <ele>1570.93</ele>
        <time>2017-09-03T13:33:27Z</time>
      </trkpt>
      <trkpt lat="45.90911" lon="6.5295">
        <ele>1570.93</ele>
        <time>2017-09-03T13:33:28Z</time>
      </trkpt>
      <trkpt lat="45.90909" lon="6.5295">
        <ele>1570.93</ele>
        <time>2017-09-03T13:33:29Z</time>
      </trkpt>
      <trkpt lat="45.90907" lon="6.52949">
        <ele>1570.45</ele>
        <time>2017-09-03T13:33:30Z</time>
      </trkpt>
      <trkpt lat="45.90905" lon="6.52949">
        <ele>1570.45</ele>
        <time>2017-09-03T13:33:31Z</time>
      </trkpt>
      <trkpt lat="45.90902" lon="6.52948">
        <ele>1570.45</ele>
        <time>2017-09-03T13:33:32Z</time>
      </trkpt>
      <trkpt lat="45.90883" lon="6.52935">
        <ele>1569.49</ele>
        <time>2017-09-03T13:33:40Z</time>
      </trkpt>
      <trkpt lat="45.90863" lon="6.52929">
        <ele>1567.57</ele>
        <time>2017-09-03T13:33:48Z</time>
      </trkpt>
      <trkpt lat="45.90843" lon="6.52931">
        <ele>1565.64</ele>
        <time>2017-09-03T13:33:56Z</time>
      </trkpt>
      <trkpt lat="45.90823" lon="6.52934">
        <ele>1562.76</ele>
        <time>2017-09-03T13:34:04Z</time>
      </trkpt>
      <trkpt lat="45.90818" lon="6.52934">
        <ele>1561.8</ele>
        <time>2017-09-03T13:34:06Z</time>
      </trkpt>
      <trkpt lat="45.90799" lon="6.52939">
        <ele>1558.43</ele>
        <time>2017-09-03T13:34:13Z</time>
      </trkpt>
      <trkpt lat="45.90779" lon="6.52943">
        <ele>1555.07</ele>
        <time>2017-09-03T13:34:20Z</time>
      </trkpt>
      <trkpt lat="45.90761" lon="6.52943">
        <ele>1552.19</ele>
        <time>2017-09-03T13:34:27Z</time>
      </trkpt>
      <trkpt lat="45.9074" lon="6.5294">
        <ele>1549.3</ele>
        <time>2017-09-03T13:34:35Z</time>
      </trkpt>
      <trkpt lat="45.90718" lon="6.52937">
        <ele>1546.42</ele>
        <time>2017-09-03T13:34:43Z</time>
      </trkpt>
      <trkpt lat="45.90698" lon="6.52932">
        <ele>1544.5</ele>
        <time>2017-09-03T13:34:50Z</time>
      </trkpt>
      <trkpt lat="45.9068" lon="6.52917">
        <ele>1543.53</ele>
        <time>2017-09-03T13:34:57Z</time>
      </trkpt>
      <trkpt lat="45.90662" lon="6.52902">
        <ele>1542.57</ele>
        <time>2017-09-03T13:35:04Z</time>
      </trkpt>
      <trkpt lat="45.90643" lon="6.52892">
        <ele>1541.61</ele>
        <time>2017-09-03T13:35:12Z</time>
      </trkpt>
      <trkpt lat="45.90622" lon="6.52892">
        <ele>1539.21</ele>
        <time>2017-09-03T13:35:20Z</time>
      </trkpt>
      <trkpt lat="45.90602" lon="6.52905">
        <ele>1537.29</ele>
        <time>2017-09-03T13:35:28Z</time>
      </trkpt>
      <trkpt lat="45.90587" lon="6.52889">
        <ele>1536.8</ele>
        <time>2017-09-03T13:35:35Z</time>
      </trkpt>
      <trkpt lat="45.9058" lon="6.52861">
        <ele>1535.84</ele>
        <time>2017-09-03T13:35:42Z</time>
      </trkpt>
      <trkpt lat="45.9058" lon="6.52831">
        <ele>1534.4</ele>
        <time>2017-09-03T13:35:49Z</time>
      </trkpt>
      <trkpt lat="45.90572" lon="6.52803">
        <ele>1532.96</ele>
        <time>2017-09-03T13:35:57Z</time>
      </trkpt>
      <trkpt lat="45.90569" lon="6.528">
        <ele>1532.96</ele>
        <time>2017-09-03T13:35:58Z</time>
      </trkpt>
      <trkpt lat="45.90567" lon="6.52797">
        <ele>1532.48</ele>
        <time>2017-09-03T13:35:59Z</time>
      </trkpt>
      <trkpt lat="45.90564" lon="6.52795">
        <ele>1532</ele>
        <time>2017-09-03T13:36:00Z</time>
      </trkpt>
      <trkpt lat="45.90562" lon="6.52793">
        <ele>1532</ele>
        <time>2017-09-03T13:36:01Z</time>
      </trkpt>
      <trkpt lat="45.90559" lon="6.52791">
        <ele>1531.52</ele>
        <time>2017-09-03T13:36:02Z</time>
      </trkpt>
      <trkpt lat="45.90543" lon="6.52771">
        <ele>1530.56</ele>
        <time>2017-09-03T13:36:09Z</time>
      </trkpt>
      <trkpt lat="45.90525" lon="6.52762">
        <ele>1528.63</ele>
        <time>2017-09-03T13:36:16Z</time>
      </trkpt>
      <trkpt lat="45.90508" lon="6.52749">
        <ele>1528.15</ele>
        <time>2017-09-03T13:36:23Z</time>
      </trkpt>
      <trkpt lat="45.9049" lon="6.52731">
        <ele>1527.67</ele>
        <time>2017-09-03T13:36:31Z</time>
      </trkpt>
      <trkpt lat="45.90475" lon="6.52708">
        <ele>1528.15</ele>
        <time>2017-09-03T13:36:39Z</time>
      </trkpt>
      <trkpt lat="45.9046" lon="6.52687">
        <ele>1527.67</ele>
        <time>2017-09-03T13:36:46Z</time>
      </trkpt>
      <trkpt lat="45.90443" lon="6.52674">
        <ele>1527.67</ele>
        <time>2017-09-03T13:36:53Z</time>
      </trkpt>
      <trkpt lat="45.90432" lon="6.52665">
        <ele>1527.19</ele>
        <time>2017-09-03T13:36:58Z</time>
      </trkpt>
      <trkpt lat="45.9043" lon="6.52665">
        <ele>1527.19</ele>
        <time>2017-09-03T13:36:59Z</time>
      </trkpt>
      <trkpt lat="45.90409" lon="6.52663">
        <ele>1526.23</ele>
        <time>2017-09-03T13:37:07Z</time>
      </trkpt>
      <trkpt lat="45.90391" lon="6.52655">
        <ele>1524.79</ele>
        <time>2017-09-03T13:37:14Z</time>
      </trkpt>
      <trkpt lat="45.90372" lon="6.52643">
        <ele>1524.31</ele>
        <time>2017-09-03T13:37:22Z</time>
      </trkpt>
      <trkpt lat="45.90353" lon="6.52636">
        <ele>1523.35</ele>
        <time>2017-09-03T13:37:29Z</time>
      </trkpt>
      <trkpt lat="45.90333" lon="6.52635">
        <ele>1521.42</ele>
        <time>2017-09-03T13:37:36Z</time>
      </trkpt>
      <trkpt lat="45.90311" lon="6.52631">
        <ele>1519.98</ele>
        <time>2017-09-03T13:37:44Z</time>
      </trkpt>
      <trkpt lat="45.90289" lon="6.52627">
        <ele>1519.5</ele>
        <time>2017-09-03T13:37:52Z</time>
      </trkpt>
      <trkpt lat="45.90268" lon="6.52622">
        <ele>1518.54</ele>
        <time>2017-09-03T13:38:00Z</time>
      </trkpt>
      <trkpt lat="45.90246" lon="6.52618">
        <ele>1517.1</ele>
        <time>2017-09-03T13:38:08Z</time>
      </trkpt>
      <trkpt lat="45.90224" lon="6.52609">
        <ele>1515.18</ele>
        <time>2017-09-03T13:38:16Z</time>
      </trkpt>
      <trkpt lat="45.90204" lon="6.52601">
        <ele>1513.73</ele>
        <time>2017-09-03T13:38:23Z</time>
      </trkpt>
      <trkpt lat="45.90186" lon="6.5259">
        <ele>1512.77</ele>
        <time>2017-09-03T13:38:30Z</time>
      </trkpt>
      <trkpt lat="45.90168" lon="6.52578">
        <ele>1511.81</ele>
        <time>2017-09-03T13:38:37Z</time>
      </trkpt>
      <trkpt lat="45.90148" lon="6.52565">
        <ele>1510.37</ele>
        <time>2017-09-03T13:38:45Z</time>
      </trkpt>
      <trkpt lat="45.9013" lon="6.52552">
        <ele>1509.41</ele>
        <time>2017-09-03T13:38:52Z</time>
      </trkpt>
      <trkpt lat="45.90114" lon="6.52537">
        <ele>1508.45</ele>
        <time>2017-09-03T13:38:59Z</time>
      </trkpt>
      <trkpt lat="45.90099" lon="6.52515">
        <ele>1507.48</ele>
        <time>2017-09-03T13:39:07Z</time>
      </trkpt>
      <trkpt lat="45.9008" lon="6.52504">
        <ele>1507.48</ele>
        <time>2017-09-03T13:39:15Z</time>
      </trkpt>
      <trkpt lat="45.90072" lon="6.52507">
        <ele>1507</ele>
        <time>2017-09-03T13:39:19Z</time>
      </trkpt>
      <trkpt lat="45.9007" lon="6.52509">
        <ele>1507.48</ele>
        <time>2017-09-03T13:39:20Z</time>
      </trkpt>
      <trkpt lat="45.90069" lon="6.52511">
        <ele>1507.48</ele>
        <time>2017-09-03T13:39:21Z</time>
      </trkpt>
      <trkpt lat="45.90056" lon="6.52534">
        <ele>1509.41</ele>
        <time>2017-09-03T13:39:31Z</time>
      </trkpt>
      <trkpt lat="45.90036" lon="6.52536">
        <ele>1511.81</ele>
        <time>2017-09-03T13:39:42Z</time>
      </trkpt>
      <trkpt lat="45.90018" lon="6.52523">
        <ele>1512.77</ele>
        <time>2017-09-03T13:39:51Z</time>
      </trkpt>
      <trkpt lat="45.90007" lon="6.52516">
        <ele>1513.73</ele>
        <time>2017-09-03T13:39:57Z</time>
      </trkpt>
      <trkpt lat="45.89989" lon="6.52506">
        <ele>1515.18</ele>
        <time>2017-09-03T13:40:07Z</time>
      </trkpt>
      <trkpt lat="45.89971" lon="6.52492">
        <ele>1517.1</ele>
        <time>2017-09-03T13:40:17Z</time>
      </trkpt>
      <trkpt lat="45.89954" lon="6.52475">
        <ele>1518.54</ele>
        <time>2017-09-03T13:40:27Z</time>
      </trkpt>
      <trkpt lat="45.89936" lon="6.52466">
        <ele>1520.46</ele>
        <time>2017-09-03T13:40:37Z</time>
      </trkpt>
      <trkpt lat="45.89919" lon="6.52478">
        <ele>1522.39</ele>
        <time>2017-09-03T13:40:47Z</time>
      </trkpt>
      <trkpt lat="45.89904" lon="6.52496">
        <ele>1524.31</ele>
        <time>2017-09-03T13:40:58Z</time>
      </trkpt>
      <trkpt lat="45.89886" lon="6.5249">
        <ele>1525.27</ele>
        <time>2017-09-03T13:41:08Z</time>
      </trkpt>
      <trkpt lat="45.89877" lon="6.52463">
        <ele>1526.71</ele>
        <time>2017-09-03T13:41:18Z</time>
      </trkpt>
      <trkpt lat="45.89873" lon="6.52437">
        <ele>1528.15</ele>
        <time>2017-09-03T13:41:27Z</time>
      </trkpt>
      <trkpt lat="45.89861" lon="6.52415">
        <ele>1529.59</ele>
        <time>2017-09-03T13:41:37Z</time>
      </trkpt>
      <trkpt lat="45.89846" lon="6.52397">
        <ele>1530.56</ele>
        <time>2017-09-03T13:41:47Z</time>
      </trkpt>
      <trkpt lat="45.89828" lon="6.52392">
        <ele>1531.52</ele>
        <time>2017-09-03T13:41:57Z</time>
      </trkpt>
      <trkpt lat="45.89809" lon="6.52387">
        <ele>1532</ele>
        <time>2017-09-03T13:42:06Z</time>
      </trkpt>
      <trkpt lat="45.89792" lon="6.52372">
        <ele>1532.48</ele>
        <time>2017-09-03T13:42:15Z</time>
      </trkpt>
      <trkpt lat="45.89779" lon="6.52351">
        <ele>1533.44</ele>
        <time>2017-09-03T13:42:24Z</time>
      </trkpt>
      <trkpt lat="45.89772" lon="6.52327">
        <ele>1534.4</ele>
        <time>2017-09-03T13:42:33Z</time>
      </trkpt>
      <trkpt lat="45.89759" lon="6.52305">
        <ele>1537.29</ele>
        <time>2017-09-03T13:42:45Z</time>
      </trkpt>
      <trkpt lat="45.89745" lon="6.52284">
        <ele>1540.17</ele>
        <time>2017-09-03T13:42:57Z</time>
      </trkpt>
      <trkpt lat="45.89733" lon="6.52267">
        <ele>1543.53</ele>
        <time>2017-09-03T13:43:08Z</time>
      </trkpt>
      <trkpt lat="45.89727" lon="6.52252">
        <ele>1544.98</ele>
        <time>2017-09-03T13:43:15Z</time>
      </trkpt>
      <trkpt lat="45.89727" lon="6.5225">
        <ele>1544.98</ele>
        <time>2017-09-03T13:43:16Z</time>
      </trkpt>
      <trkpt lat="45.89727" lon="6.52247">
        <ele>1544.98</ele>
        <time>2017-09-03T13:43:17Z</time>
      </trkpt>
      <trkpt lat="45.89724" lon="6.52221">
        <ele>1546.42</ele>
        <time>2017-09-03T13:43:28Z</time>
      </trkpt>
      <trkpt lat="45.89707" lon="6.52221">
        <ele>1548.82</ele>
        <time>2017-09-03T13:43:40Z</time>
      </trkpt>
      <trkpt lat="45.8969" lon="6.52209">
        <ele>1549.78</ele>
        <time>2017-09-03T13:43:50Z</time>
      </trkpt>
      <trkpt lat="45.89671" lon="6.52205">
        <ele>1552.19</ele>
        <time>2017-09-03T13:44:02Z</time>
      </trkpt>
      <trkpt lat="45.89651" lon="6.52209">
        <ele>1554.59</ele>
        <time>2017-09-03T13:44:15Z</time>
      </trkpt>
      <trkpt lat="45.8965" lon="6.5221">
        <ele>1555.07</ele>
        <time>2017-09-03T13:44:16Z</time>
      </trkpt>
      <trkpt lat="45.89648" lon="6.52211">
        <ele>1555.55</ele>
        <time>2017-09-03T13:44:17Z</time>
      </trkpt>
      <trkpt lat="45.89646" lon="6.52212">
        <ele>1555.55</ele>
        <time>2017-09-03T13:44:18Z</time>
      </trkpt>
      <trkpt lat="45.89645" lon="6.52213">
        <ele>1556.03</ele>
        <time>2017-09-03T13:44:19Z</time>
      </trkpt>
      <trkpt lat="45.89644" lon="6.52215">
        <ele>1556.03</ele>
        <time>2017-09-03T13:44:20Z</time>
      </trkpt>
      <trkpt lat="45.8964" lon="6.52218">
        <ele>1556.99</ele>
        <time>2017-09-03T13:44:23Z</time>
      </trkpt>
      <trkpt lat="45.89621" lon="6.52234">
        <ele>1559.88</ele>
        <time>2017-09-03T13:44:38Z</time>
      </trkpt>
      <trkpt lat="45.89601" lon="6.52241">
        <ele>1562.28</ele>
        <time>2017-09-03T13:44:51Z</time>
      </trkpt>
      <trkpt lat="45.8958" lon="6.52246">
        <ele>1564.2</ele>
        <time>2017-09-03T13:45:04Z</time>
      </trkpt>
      <trkpt lat="45.89561" lon="6.52259">
        <ele>1566.61</ele>
        <time>2017-09-03T13:45:15Z</time>
      </trkpt>
      <trkpt lat="45.89546" lon="6.52281">
        <ele>1569.01</ele>
        <time>2017-09-03T13:45:28Z</time>
      </trkpt>
      <trkpt lat="45.89533" lon="6.52304">
        <ele>1570.93</ele>
        <time>2017-09-03T13:45:40Z</time>
      </trkpt>
      <trkpt lat="45.89523" lon="6.52327">
        <ele>1572.85</ele>
        <time>2017-09-03T13:45:51Z</time>
      </trkpt>
      <trkpt lat="45.8951" lon="6.52347">
        <ele>1575.26</ele>
        <time>2017-09-03T13:46:03Z</time>
      </trkpt>
      <trkpt lat="45.89492" lon="6.52339">
        <ele>1576.7</ele>
        <time>2017-09-03T13:46:14Z</time>
      </trkpt>
      <trkpt lat="45.89472" lon="6.52324">
        <ele>1578.14</ele>
        <time>2017-09-03T13:46:27Z</time>
      </trkpt>
      <trkpt lat="45.89455" lon="6.5231">
        <ele>1579.58</ele>
        <time>2017-09-03T13:46:37Z</time>
      </trkpt>
      <trkpt lat="45.89438" lon="6.5229">
        <ele>1580.06</ele>
        <time>2017-09-03T13:46:48Z</time>
      </trkpt>
      <trkpt lat="45.8943" lon="6.52264">
        <ele>1581.03</ele>
        <time>2017-09-03T13:46:58Z</time>
      </trkpt>
      <trkpt lat="45.89427" lon="6.52235">
        <ele>1581.03</ele>
        <time>2017-09-03T13:47:08Z</time>
      </trkpt>
      <trkpt lat="45.89428" lon="6.52224">
        <ele>1581.51</ele>
        <time>2017-09-03T13:47:12Z</time>
      </trkpt>
      <trkpt lat="45.89437" lon="6.52198">
        <ele>1582.47</ele>
        <time>2017-09-03T13:47:23Z</time>
      </trkpt>
      <trkpt lat="45.89446" lon="6.52172">
        <ele>1583.43</ele>
        <time>2017-09-03T13:47:33Z</time>
      </trkpt>
      <trkpt lat="45.89448" lon="6.52145">
        <ele>1584.39</ele>
        <time>2017-09-03T13:47:43Z</time>
      </trkpt>
      <trkpt lat="45.89446" lon="6.52115">
        <ele>1584.39</ele>
        <time>2017-09-03T13:47:53Z</time>
      </trkpt>
      <trkpt lat="45.89434" lon="6.52095">
        <ele>1583.43</ele>
        <time>2017-09-03T13:48:01Z</time>
      </trkpt>
      <trkpt lat="45.89425" lon="6.52071">
        <ele>1581.99</ele>
        <time>2017-09-03T13:48:09Z</time>
      </trkpt>
      <trkpt lat="45.89415" lon="6.52045">
        <ele>1581.03</ele>
        <time>2017-09-03T13:48:18Z</time>
      </trkpt>
      <trkpt lat="45.89406" lon="6.5202">
        <ele>1579.1</ele>
        <time>2017-09-03T13:48:26Z</time>
      </trkpt>
      <trkpt lat="45.89396" lon="6.51994">
        <ele>1578.14</ele>
        <time>2017-09-03T13:48:34Z</time>
      </trkpt>
      <trkpt lat="45.8938" lon="6.51974">
        <ele>1576.7</ele>
        <time>2017-09-03T13:48:42Z</time>
      </trkpt>
      <trkpt lat="45.89363" lon="6.51956">
        <ele>1575.26</ele>
        <time>2017-09-03T13:48:50Z</time>
      </trkpt>
      <trkpt lat="45.89347" lon="6.51939">
        <ele>1574.78</ele>
        <time>2017-09-03T13:48:58Z</time>
      </trkpt>
      <trkpt lat="45.89329" lon="6.51925">
        <ele>1574.3</ele>
        <time>2017-09-03T13:49:06Z</time>
      </trkpt>
      <trkpt lat="45.89313" lon="6.51906">
        <ele>1573.82</ele>
        <time>2017-09-03T13:49:14Z</time>
      </trkpt>
      <trkpt lat="45.89315" lon="6.51879">
        <ele>1573.82</ele>
        <time>2017-09-03T13:49:22Z</time>
      </trkpt>
      <trkpt lat="45.89326" lon="6.51856">
        <ele>1572.37</ele>
        <time>2017-09-03T13:49:30Z</time>
      </trkpt>
      <trkpt lat="45.89326" lon="6.51853">
        <ele>1572.37</ele>
        <time>2017-09-03T13:49:31Z</time>
      </trkpt>
      <trkpt lat="45.89325" lon="6.51849">
        <ele>1572.37</ele>
        <time>2017-09-03T13:49:32Z</time>
      </trkpt>
      <trkpt lat="45.89323" lon="6.51847">
        <ele>1572.37</ele>
        <time>2017-09-03T13:49:33Z</time>
      </trkpt>
      <trkpt lat="45.89321" lon="6.51845">
        <ele>1572.37</ele>
        <time>2017-09-03T13:49:34Z</time>
      </trkpt>
      <trkpt lat="45.89319" lon="6.51843">
        <ele>1571.89</ele>
        <time>2017-09-03T13:49:35Z</time>
      </trkpt>
      <trkpt lat="45.89309" lon="6.51834">
        <ele>1571.41</ele>
        <time>2017-09-03T13:49:40Z</time>
      </trkpt>
      <trkpt lat="45.89291" lon="6.51821">
        <ele>1570.45</ele>
        <time>2017-09-03T13:49:48Z</time>
      </trkpt>
      <trkpt lat="45.89276" lon="6.51805">
        <ele>1569.01</ele>
        <time>2017-09-03T13:49:55Z</time>
      </trkpt>
      <trkpt lat="45.89275" lon="6.51773">
        <ele>1567.57</ele>
        <time>2017-09-03T13:50:03Z</time>
      </trkpt>
      <trkpt lat="45.89275" lon="6.51744">
        <ele>1566.61</ele>
        <time>2017-09-03T13:50:11Z</time>
      </trkpt>
      <trkpt lat="45.89259" lon="6.51729">
        <ele>1566.61</ele>
        <time>2017-09-03T13:50:20Z</time>
      </trkpt>
      <trkpt lat="45.89244" lon="6.51709">
        <ele>1566.12</ele>
        <time>2017-09-03T13:50:28Z</time>
      </trkpt>
      <trkpt lat="45.89231" lon="6.51688">
        <ele>1565.16</ele>
        <time>2017-09-03T13:50:36Z</time>
      </trkpt>
      <trkpt lat="45.89217" lon="6.51667">
        <ele>1565.16</ele>
        <time>2017-09-03T13:50:45Z</time>
      </trkpt>
      <trkpt lat="45.89205" lon="6.51657">
        <ele>1566.61</ele>
        <time>2017-09-03T13:50:53Z</time>
      </trkpt>
      <trkpt lat="45.89191" lon="6.51657">
        <ele>1567.57</ele>
        <time>2017-09-03T13:51:01Z</time>
      </trkpt>
      <trkpt lat="45.89181" lon="6.5166">
        <ele>1568.53</ele>
        <time>2017-09-03T13:51:07Z</time>
      </trkpt>
      <trkpt lat="45.89162" lon="6.51668">
        <ele>1569.97</ele>
        <time>2017-09-03T13:51:18Z</time>
      </trkpt>
      <trkpt lat="45.89141" lon="6.51674">
        <ele>1571.41</ele>
        <time>2017-09-03T13:51:29Z</time>
      </trkpt>
      <trkpt lat="45.89122" lon="6.51684">
        <ele>1572.85</ele>
        <time>2017-09-03T13:51:39Z</time>
      </trkpt>
      <trkpt lat="45.89103" lon="6.51691">
        <ele>1574.78</ele>
        <time>2017-09-03T13:51:50Z</time>
      </trkpt>
      <trkpt lat="45.89082" lon="6.517">
        <ele>1576.22</ele>
        <time>2017-09-03T13:52:02Z</time>
      </trkpt>
      <trkpt lat="45.89061" lon="6.51703">
        <ele>1578.62</ele>
        <time>2017-09-03T13:52:14Z</time>
      </trkpt>
      <trkpt lat="45.89047" lon="6.51709">
        <ele>1580.06</ele>
        <time>2017-09-03T13:52:22Z</time>
      </trkpt>
      <trkpt lat="45.89045" lon="6.5171">
        <ele>1580.06</ele>
        <time>2017-09-03T13:52:23Z</time>
      </trkpt>
      <trkpt lat="45.89044" lon="6.51711">
        <ele>1580.06</ele>
        <time>2017-09-03T13:52:24Z</time>
      </trkpt>
      <trkpt lat="45.89022" lon="6.51718">
        <ele>1582.95</ele>
        <time>2017-09-03T13:52:37Z</time>
      </trkpt>
      <trkpt lat="45.89" lon="6.51724">
        <ele>1585.35</ele>
        <time>2017-09-03T13:52:50Z</time>
      </trkpt>
      <trkpt lat="45.88998" lon="6.51725">
        <ele>1585.35</ele>
        <time>2017-09-03T13:52:51Z</time>
      </trkpt>
      <trkpt lat="45.88997" lon="6.51725">
        <ele>1585.83</ele>
        <time>2017-09-03T13:52:52Z</time>
      </trkpt>
      <trkpt lat="45.88995" lon="6.51726">
        <ele>1585.83</ele>
        <time>2017-09-03T13:52:53Z</time>
      </trkpt>
      <trkpt lat="45.88994" lon="6.51727">
        <ele>1585.83</ele>
        <time>2017-09-03T13:52:54Z</time>
      </trkpt>
      <trkpt lat="45.88992" lon="6.51727">
        <ele>1586.31</ele>
        <time>2017-09-03T13:52:55Z</time>
      </trkpt>
      <trkpt lat="45.8899" lon="6.51727">
        <ele>1586.31</ele>
        <time>2017-09-03T13:52:56Z</time>
      </trkpt>
      <trkpt lat="45.88988" lon="6.51728">
        <ele>1586.79</ele>
        <time>2017-09-03T13:52:57Z</time>
      </trkpt>
      <trkpt lat="45.88966" lon="6.51732">
        <ele>1588.72</ele>
        <time>2017-09-03T13:53:09Z</time>
      </trkpt>
      <trkpt lat="45.88945" lon="6.51731">
        <ele>1591.12</ele>
        <time>2017-09-03T13:53:21Z</time>
      </trkpt>
      <trkpt lat="45.88927" lon="6.51717">
        <ele>1594</ele>
        <time>2017-09-03T13:53:32Z</time>
      </trkpt>
      <trkpt lat="45.8891" lon="6.51705">
        <ele>1595.45</ele>
        <time>2017-09-03T13:53:43Z</time>
      </trkpt>
      <trkpt lat="45.889" lon="6.51727">
        <ele>1596.89</ele>
        <time>2017-09-03T13:53:54Z</time>
      </trkpt>
      <trkpt lat="45.88899" lon="6.51755">
        <ele>1598.81</ele>
        <time>2017-09-03T13:54:05Z</time>
      </trkpt>
      <trkpt lat="45.88888" lon="6.51781">
        <ele>1600.73</ele>
        <time>2017-09-03T13:54:16Z</time>
      </trkpt>
      <trkpt lat="45.88872" lon="6.51798">
        <ele>1602.66</ele>
        <time>2017-09-03T13:54:27Z</time>
      </trkpt>
      <trkpt lat="45.88852" lon="6.518">
        <ele>1604.1</ele>
        <time>2017-09-03T13:54:38Z</time>
      </trkpt>
      <trkpt lat="45.88845" lon="6.51777">
        <ele>1606.02</ele>
        <time>2017-09-03T13:54:48Z</time>
      </trkpt>
      <trkpt lat="45.88858" lon="6.51754">
        <ele>1608.42</ele>
        <time>2017-09-03T13:54:59Z</time>
      </trkpt>
      <trkpt lat="45.88859" lon="6.51745">
        <ele>1608.9</ele>
        <time>2017-09-03T13:55:03Z</time>
      </trkpt>
      <trkpt lat="45.88859" lon="6.51742">
        <ele>1608.9</ele>
        <time>2017-09-03T13:55:04Z</time>
      </trkpt>
      <trkpt lat="45.88858" lon="6.5174">
        <ele>1608.9</ele>
        <time>2017-09-03T13:55:05Z</time>
      </trkpt>
      <trkpt lat="45.88857" lon="6.51738">
        <ele>1609.38</ele>
        <time>2017-09-03T13:55:06Z</time>
      </trkpt>
      <trkpt lat="45.88856" lon="6.51737">
        <ele>1609.38</ele>
        <time>2017-09-03T13:55:07Z</time>
      </trkpt>
      <trkpt lat="45.88855" lon="6.51736">
        <ele>1609.38</ele>
        <time>2017-09-03T13:55:08Z</time>
      </trkpt>
      <trkpt lat="45.88853" lon="6.51735">
        <ele>1609.38</ele>
        <time>2017-09-03T13:55:09Z</time>
      </trkpt>
      <trkpt lat="45.88852" lon="6.51735">
        <ele>1609.38</ele>
        <time>2017-09-03T13:55:10Z</time>
      </trkpt>
      <trkpt lat="45.88832" lon="6.51741">
        <ele>1611.79</ele>
        <time>2017-09-03T13:55:21Z</time>
      </trkpt>
      <trkpt lat="45.88813" lon="6.51742">
        <ele>1613.23</ele>
        <time>2017-09-03T13:55:32Z</time>
      </trkpt>
      <trkpt lat="45.88793" lon="6.51729">
        <ele>1614.67</ele>
        <time>2017-09-03T13:55:43Z</time>
      </trkpt>
      <trkpt lat="45.88774" lon="6.51716">
        <ele>1616.11</ele>
        <time>2017-09-03T13:55:53Z</time>
      </trkpt>
      <trkpt lat="45.88757" lon="6.51699">
        <ele>1617.56</ele>
        <time>2017-09-03T13:56:03Z</time>
      </trkpt>
      <trkpt lat="45.88742" lon="6.51679">
        <ele>1618.52</ele>
        <time>2017-09-03T13:56:13Z</time>
      </trkpt>
      <trkpt lat="45.88727" lon="6.51659">
        <ele>1619.96</ele>
        <time>2017-09-03T13:56:23Z</time>
      </trkpt>
      <trkpt lat="45.88711" lon="6.51641">
        <ele>1620.92</ele>
        <time>2017-09-03T13:56:33Z</time>
      </trkpt>
      <trkpt lat="45.88697" lon="6.51623">
        <ele>1622.36</ele>
        <time>2017-09-03T13:56:42Z</time>
      </trkpt>
      <trkpt lat="45.88685" lon="6.51599">
        <ele>1623.32</ele>
        <time>2017-09-03T13:56:52Z</time>
      </trkpt>
      <trkpt lat="45.88674" lon="6.51577">
        <ele>1623.8</ele>
        <time>2017-09-03T13:57:01Z</time>
      </trkpt>
      <trkpt lat="45.88662" lon="6.51555">
        <ele>1624.77</ele>
        <time>2017-09-03T13:57:10Z</time>
      </trkpt>
      <trkpt lat="45.88653" lon="6.51529">
        <ele>1626.21</ele>
        <time>2017-09-03T13:57:19Z</time>
      </trkpt>
      <trkpt lat="45.88647" lon="6.51501">
        <ele>1627.17</ele>
        <time>2017-09-03T13:57:28Z</time>
      </trkpt>
      <trkpt lat="45.88646" lon="6.51473">
        <ele>1627.17</ele>
        <time>2017-09-03T13:57:37Z</time>
      </trkpt>
      <trkpt lat="45.88631" lon="6.51462">
        <ele>1627.65</ele>
        <time>2017-09-03T13:57:46Z</time>
      </trkpt>
      <trkpt lat="45.88612" lon="6.51462">
        <ele>1627.65</ele>
        <time>2017-09-03T13:57:54Z</time>
      </trkpt>
      <trkpt lat="45.88594" lon="6.51446">
        <ele>1627.17</ele>
        <time>2017-09-03T13:58:03Z</time>
      </trkpt>
      <trkpt lat="45.88579" lon="6.51427">
        <ele>1627.65</ele>
        <time>2017-09-03T13:58:13Z</time>
      </trkpt>
      <trkpt lat="45.88569" lon="6.51416">
        <ele>1627.65</ele>
        <time>2017-09-03T13:58:21Z</time>
      </trkpt>
      <trkpt lat="45.88567" lon="6.51413">
        <ele>1627.65</ele>
        <time>2017-09-03T13:58:23Z</time>
      </trkpt>
      <trkpt lat="45.88565" lon="6.51411">
        <ele>1627.65</ele>
        <time>2017-09-03T13:58:24Z</time>
      </trkpt>
      <trkpt lat="45.88565" lon="6.51409">
        <ele>1627.65</ele>
        <time>2017-09-03T13:58:25Z</time>
      </trkpt>
      <trkpt lat="45.88564" lon="6.51407">
        <ele>1627.65</ele>
        <time>2017-09-03T13:58:26Z</time>
      </trkpt>
      <trkpt lat="45.88563" lon="6.51405">
        <ele>1627.65</ele>
        <time>2017-09-03T13:58:27Z</time>
      </trkpt>
      <trkpt lat="45.88562" lon="6.51403">
        <ele>1627.65</ele>
        <time>2017-09-03T13:58:28Z</time>
      </trkpt>
      <trkpt lat="45.88561" lon="6.51401">
        <ele>1627.65</ele>
        <time>2017-09-03T13:58:29Z</time>
      </trkpt>
      <trkpt lat="45.8856" lon="6.51399">
        <ele>1627.65</ele>
        <time>2017-09-03T13:58:30Z</time>
      </trkpt>
      <trkpt lat="45.88559" lon="6.51398">
        <ele>1627.65</ele>
        <time>2017-09-03T13:58:31Z</time>
      </trkpt>
      <trkpt lat="45.88558" lon="6.51396">
        <ele>1627.65</ele>
        <time>2017-09-03T13:58:32Z</time>
      </trkpt>
      <trkpt lat="45.88552" lon="6.51382">
        <ele>1627.17</ele>
        <time>2017-09-03T13:58:39Z</time>
      </trkpt>
      <trkpt lat="45.88547" lon="6.51372">
        <ele>1627.17</ele>
        <time>2017-09-03T13:58:44Z</time>
      </trkpt>
      <trkpt lat="45.88533" lon="6.51356">
        <ele>1626.69</ele>
        <time>2017-09-03T13:58:55Z</time>
      </trkpt>
      <trkpt lat="45.88525" lon="6.51347">
        <ele>1627.17</ele>
        <time>2017-09-03T13:59:03Z</time>
      </trkpt>
      <trkpt lat="45.88511" lon="6.51327">
        <ele>1626.21</ele>
        <time>2017-09-03T13:59:15Z</time>
      </trkpt>
      <trkpt lat="45.88498" lon="6.51301">
        <ele>1626.21</ele>
        <time>2017-09-03T13:59:28Z</time>
      </trkpt>
      <trkpt lat="45.88483" lon="6.51277">
        <ele>1625.73</ele>
        <time>2017-09-03T13:59:37Z</time>
      </trkpt>
      <trkpt lat="45.88466" lon="6.51258">
        <ele>1625.73</ele>
        <time>2017-09-03T13:59:45Z</time>
      </trkpt>
      <trkpt lat="45.88451" lon="6.51239">
        <ele>1625.73</ele>
        <time>2017-09-03T13:59:53Z</time>
      </trkpt>
      <trkpt lat="45.88436" lon="6.51225">
        <ele>1625.73</ele>
        <time>2017-09-03T14:00:01Z</time>
      </trkpt>
      <trkpt lat="45.88419" lon="6.51223">
        <ele>1625.25</ele>
        <time>2017-09-03T14:00:08Z</time>
      </trkpt>
      <trkpt lat="45.88405" lon="6.5123">
        <ele>1625.25</ele>
        <time>2017-09-03T14:00:14Z</time>
      </trkpt>
      <trkpt lat="45.88399" lon="6.51237">
        <ele>1625.25</ele>
        <time>2017-09-03T14:00:17Z</time>
      </trkpt>
      <trkpt lat="45.8839" lon="6.51262">
        <ele>1626.21</ele>
        <time>2017-09-03T14:00:26Z</time>
      </trkpt>
      <trkpt lat="45.88376" lon="6.51273">
        <ele>1625.73</ele>
        <time>2017-09-03T14:00:33Z</time>
      </trkpt>
      <trkpt lat="45.88353" lon="6.51276">
        <ele>1625.25</ele>
        <time>2017-09-03T14:00:43Z</time>
      </trkpt>
      <trkpt lat="45.88342" lon="6.51277">
        <ele>1624.28</ele>
        <time>2017-09-03T14:00:48Z</time>
      </trkpt>
      <trkpt lat="45.8832" lon="6.51275">
        <ele>1623.8</ele>
        <time>2017-09-03T14:00:57Z</time>
      </trkpt>
      <trkpt lat="45.88299" lon="6.51265">
        <ele>1622.36</ele>
        <time>2017-09-03T14:01:06Z</time>
      </trkpt>
      <trkpt lat="45.88279" lon="6.5125">
        <ele>1622.36</ele>
        <time>2017-09-03T14:01:15Z</time>
      </trkpt>
      <trkpt lat="45.88263" lon="6.51231">
        <ele>1621.4</ele>
        <time>2017-09-03T14:01:23Z</time>
      </trkpt>
      <trkpt lat="45.88248" lon="6.51211">
        <ele>1621.4</ele>
        <time>2017-09-03T14:01:31Z</time>
      </trkpt>
      <trkpt lat="45.88233" lon="6.51193">
        <ele>1620.44</ele>
        <time>2017-09-03T14:01:39Z</time>
      </trkpt>
      <trkpt lat="45.88215" lon="6.51181">
        <ele>1619.96</ele>
        <time>2017-09-03T14:01:47Z</time>
      </trkpt>
      <trkpt lat="45.88194" lon="6.51172">
        <ele>1619</ele>
        <time>2017-09-03T14:01:55Z</time>
      </trkpt>
      <trkpt lat="45.88176" lon="6.51155">
        <ele>1618.04</ele>
        <time>2017-09-03T14:02:03Z</time>
      </trkpt>
      <trkpt lat="45.88157" lon="6.51145">
        <ele>1617.56</ele>
        <time>2017-09-03T14:02:11Z</time>
      </trkpt>
      <trkpt lat="45.88143" lon="6.51122">
        <ele>1617.07</ele>
        <time>2017-09-03T14:02:19Z</time>
      </trkpt>
      <trkpt lat="45.88132" lon="6.51098">
        <ele>1616.11</ele>
        <time>2017-09-03T14:02:27Z</time>
      </trkpt>
      <trkpt lat="45.88125" lon="6.51069">
        <ele>1614.67</ele>
        <time>2017-09-03T14:02:35Z</time>
      </trkpt>
      <trkpt lat="45.8812" lon="6.5104">
        <ele>1613.23</ele>
        <time>2017-09-03T14:02:43Z</time>
      </trkpt>
      <trkpt lat="45.88115" lon="6.51011">
        <ele>1612.75</ele>
        <time>2017-09-03T14:02:51Z</time>
      </trkpt>
      <trkpt lat="45.88112" lon="6.5098">
        <ele>1611.79</ele>
        <time>2017-09-03T14:02:59Z</time>
      </trkpt>
      <trkpt lat="45.88111" lon="6.50952">
        <ele>1610.83</ele>
        <time>2017-09-03T14:03:06Z</time>
      </trkpt>
      <trkpt lat="45.88104" lon="6.50927">
        <ele>1609.38</ele>
        <time>2017-09-03T14:03:13Z</time>
      </trkpt>
      <trkpt lat="45.88087" lon="6.50917">
        <ele>1608.9</ele>
        <time>2017-09-03T14:03:21Z</time>
      </trkpt>
      <trkpt lat="45.88072" lon="6.509">
        <ele>1606.98</ele>
        <time>2017-09-03T14:03:29Z</time>
      </trkpt>
      <trkpt lat="45.88058" lon="6.50876">
        <ele>1604.58</ele>
        <time>2017-09-03T14:03:38Z</time>
      </trkpt>
      <trkpt lat="45.88048" lon="6.5086">
        <ele>1603.14</ele>
        <time>2017-09-03T14:03:48Z</time>
      </trkpt>
      <trkpt lat="45.88046" lon="6.50858">
        <ele>1602.66</ele>
        <time>2017-09-03T14:03:49Z</time>
      </trkpt>
      <trkpt lat="45.88046" lon="6.50854">
        <ele>1602.17</ele>
        <time>2017-09-03T14:03:50Z</time>
      </trkpt>
      <trkpt lat="45.88045" lon="6.5085">
        <ele>1602.17</ele>
        <time>2017-09-03T14:03:51Z</time>
      </trkpt>
      <trkpt lat="45.88045" lon="6.50847">
        <ele>1601.69</ele>
        <time>2017-09-03T14:03:52Z</time>
      </trkpt>
      <trkpt lat="45.88045" lon="6.50844">
        <ele>1601.69</ele>
        <time>2017-09-03T14:03:53Z</time>
      </trkpt>
      <trkpt lat="45.88045" lon="6.5084">
        <ele>1601.21</ele>
        <time>2017-09-03T14:03:54Z</time>
      </trkpt>
      <trkpt lat="45.88045" lon="6.50837">
        <ele>1600.73</ele>
        <time>2017-09-03T14:03:55Z</time>
      </trkpt>
      <trkpt lat="45.88044" lon="6.50834">
        <ele>1600.25</ele>
        <time>2017-09-03T14:03:56Z</time>
      </trkpt>
      <trkpt lat="45.88044" lon="6.50832">
        <ele>1600.73</ele>
        <time>2017-09-03T14:03:57Z</time>
      </trkpt>
      <trkpt lat="45.88043" lon="6.50831">
        <ele>1600.73</ele>
        <time>2017-09-03T14:03:58Z</time>
      </trkpt>
      <trkpt lat="45.88043" lon="6.50829">
        <ele>1600.73</ele>
        <time>2017-09-03T14:03:59Z</time>
      </trkpt>
      <trkpt lat="45.88039" lon="6.5082">
        <ele>1599.77</ele>
        <time>2017-09-03T14:04:05Z</time>
      </trkpt>
      <trkpt lat="45.88031" lon="6.50806">
        <ele>1597.37</ele>
        <time>2017-09-03T14:04:11Z</time>
      </trkpt>
      <trkpt lat="45.8802" lon="6.50783">
        <ele>1594.48</ele>
        <time>2017-09-03T14:04:19Z</time>
      </trkpt>
      <trkpt lat="45.88015" lon="6.50766">
        <ele>1592.56</ele>
        <time>2017-09-03T14:04:24Z</time>
      </trkpt>
      <trkpt lat="45.88003" lon="6.5074">
        <ele>1590.64</ele>
        <time>2017-09-03T14:04:33Z</time>
      </trkpt>
      <trkpt lat="45.87987" lon="6.50725">
        <ele>1589.2</ele>
        <time>2017-09-03T14:04:41Z</time>
      </trkpt>
      <trkpt lat="45.87968" lon="6.50718">
        <ele>1588.24</ele>
        <time>2017-09-03T14:04:49Z</time>
      </trkpt>
      <trkpt lat="45.87947" lon="6.50718">
        <ele>1584.87</ele>
        <time>2017-09-03T14:04:57Z</time>
      </trkpt>
      <trkpt lat="45.87927" lon="6.5072">
        <ele>1582.47</ele>
        <time>2017-09-03T14:05:04Z</time>
      </trkpt>
      <trkpt lat="45.87906" lon="6.50727">
        <ele>1580.54</ele>
        <time>2017-09-03T14:05:11Z</time>
      </trkpt>
      <trkpt lat="45.87883" lon="6.50731">
        <ele>1577.18</ele>
        <time>2017-09-03T14:05:19Z</time>
      </trkpt>
      <trkpt lat="45.87862" lon="6.50733">
        <ele>1574.78</ele>
        <time>2017-09-03T14:05:27Z</time>
      </trkpt>
      <trkpt lat="45.87849" lon="6.50727">
        <ele>1573.82</ele>
        <time>2017-09-03T14:05:32Z</time>
      </trkpt>
      <trkpt lat="45.87837" lon="6.50705">
        <ele>1570.45</ele>
        <time>2017-09-03T14:05:40Z</time>
      </trkpt>
      <trkpt lat="45.87834" lon="6.50702">
        <ele>1571.41</ele>
        <time>2017-09-03T14:05:45Z</time>
      </trkpt>
      <trkpt lat="45.87834" lon="6.50705">
        <ele>1571.41</ele>
        <time>2017-09-03T14:05:46Z</time>
      </trkpt>
      <trkpt lat="45.87834" lon="6.50706">
        <ele>1570.93</ele>
        <time>2017-09-03T14:05:47Z</time>
      </trkpt>
      <trkpt lat="45.87834" lon="6.50719">
        <ele>1569.97</ele>
        <time>2017-09-03T14:05:54Z</time>
      </trkpt>
      <trkpt lat="45.87835" lon="6.50721">
        <ele>1569.97</ele>
        <time>2017-09-03T14:05:55Z</time>
      </trkpt>
      <trkpt lat="45.87836" lon="6.50722">
        <ele>1569.97</ele>
        <time>2017-09-03T14:05:56Z</time>
      </trkpt>
      <trkpt lat="45.87836" lon="6.50724">
        <ele>1569.97</ele>
        <time>2017-09-03T14:05:57Z</time>
      </trkpt>
      <trkpt lat="45.87837" lon="6.50726">
        <ele>1569.97</ele>
        <time>2017-09-03T14:05:58Z</time>
      </trkpt>
      <trkpt lat="45.87837" lon="6.50727">
        <ele>1569.49</ele>
        <time>2017-09-03T14:05:59Z</time>
      </trkpt>
      <trkpt lat="45.87837" lon="6.50728">
        <ele>1568.53</ele>
        <time>2017-09-03T14:06:04Z</time>
      </trkpt>
      <trkpt lat="45.87837" lon="6.50728">
        <ele>1568.05</ele>
        <time>2017-09-03T14:06:09Z</time>
      </trkpt>
      <trkpt lat="45.87838" lon="6.50728">
        <ele>1568.05</ele>
        <time>2017-09-03T14:06:11Z</time>
      </trkpt>
      <trkpt lat="45.87837" lon="6.50729">
        <ele>1568.05</ele>
        <time>2017-09-03T14:06:15Z</time>
      </trkpt>
      <trkpt lat="45.87837" lon="6.50728">
        <ele>1568.53</ele>
        <time>2017-09-03T14:06:18Z</time>
      </trkpt>
      <trkpt lat="45.87838" lon="6.5073">
        <ele>1568.53</ele>
        <time>2017-09-03T14:06:31Z</time>
      </trkpt>
      <trkpt lat="45.87837" lon="6.50728">
        <ele>1569.01</ele>
        <time>2017-09-03T14:06:35Z</time>
      </trkpt>
      <trkpt lat="45.87837" lon="6.50726">
        <ele>1569.01</ele>
        <time>2017-09-03T14:06:36Z</time>
      </trkpt>
      <trkpt lat="45.87837" lon="6.50724">
        <ele>1569.01</ele>
        <time>2017-09-03T14:06:37Z</time>
      </trkpt>
      <trkpt lat="45.87837" lon="6.50721">
        <ele>1569.01</ele>
        <time>2017-09-03T14:06:39Z</time>
      </trkpt>
      <trkpt lat="45.87838" lon="6.50721">
        <ele>1569.49</ele>
        <time>2017-09-03T14:06:43Z</time>
      </trkpt>
      <trkpt lat="45.87838" lon="6.50722">
        <ele>1569.49</ele>
        <time>2017-09-03T14:06:44Z</time>
      </trkpt>
      <trkpt lat="45.87839" lon="6.50726">
        <ele>1569.01</ele>
        <time>2017-09-03T14:06:52Z</time>
      </trkpt>
      <trkpt lat="45.87838" lon="6.50728">
        <ele>1569.01</ele>
        <time>2017-09-03T14:06:55Z</time>
      </trkpt>
      <trkpt lat="45.87838" lon="6.5073">
        <ele>1569.01</ele>
        <time>2017-09-03T14:06:56Z</time>
      </trkpt>
      <trkpt lat="45.87838" lon="6.50733">
        <ele>1569.01</ele>
        <time>2017-09-03T14:06:57Z</time>
      </trkpt>
      <trkpt lat="45.87839" lon="6.50736">
        <ele>1569.01</ele>
        <time>2017-09-03T14:06:58Z</time>
      </trkpt>
      <trkpt lat="45.8784" lon="6.50739">
        <ele>1568.53</ele>
        <time>2017-09-03T14:06:59Z</time>
      </trkpt>
      <trkpt lat="45.87841" lon="6.50742">
        <ele>1568.53</ele>
        <time>2017-09-03T14:07:00Z</time>
      </trkpt>
      <trkpt lat="45.87843" lon="6.50744">
        <ele>1568.05</ele>
        <time>2017-09-03T14:07:01Z</time>
      </trkpt>
      <trkpt lat="45.87861" lon="6.50755">
        <ele>1566.61</ele>
        <time>2017-09-03T14:07:09Z</time>
      </trkpt>
      <trkpt lat="45.87879" lon="6.50775">
        <ele>1564.68</ele>
        <time>2017-09-03T14:07:17Z</time>
      </trkpt>
      <trkpt lat="45.87887" lon="6.50792">
        <ele>1564.2</ele>
        <time>2017-09-03T14:07:22Z</time>
      </trkpt>
      <trkpt lat="45.87891" lon="6.50811">
        <ele>1563.72</ele>
        <time>2017-09-03T14:07:27Z</time>
      </trkpt>
      <trkpt lat="45.87892" lon="6.50841">
        <ele>1563.24</ele>
        <time>2017-09-03T14:07:35Z</time>
      </trkpt>
      <trkpt lat="45.87894" lon="6.50871">
        <ele>1563.24</ele>
        <time>2017-09-03T14:07:43Z</time>
      </trkpt>
      <trkpt lat="45.87895" lon="6.5089">
        <ele>1563.24</ele>
        <time>2017-09-03T14:07:48Z</time>
      </trkpt>
      <trkpt lat="45.87897" lon="6.50909">
        <ele>1563.24</ele>
        <time>2017-09-03T14:07:53Z</time>
      </trkpt>
      <trkpt lat="45.87899" lon="6.50923">
        <ele>1563.72</ele>
        <time>2017-09-03T14:07:57Z</time>
      </trkpt>
      <trkpt lat="45.87899" lon="6.50945">
        <ele>1563.72</ele>
        <time>2017-09-03T14:08:03Z</time>
      </trkpt>
      <trkpt lat="45.879" lon="6.50972">
        <ele>1564.68</ele>
        <time>2017-09-03T14:08:11Z</time>
      </trkpt>
      <trkpt lat="45.87912" lon="6.50993">
        <ele>1564.2</ele>
        <time>2017-09-03T14:08:19Z</time>
      </trkpt>
      <trkpt lat="45.87924" lon="6.51016">
        <ele>1563.24</ele>
        <time>2017-09-03T14:08:27Z</time>
      </trkpt>
      <trkpt lat="45.87937" lon="6.51041">
        <ele>1562.76</ele>
        <time>2017-09-03T14:08:36Z</time>
      </trkpt>
      <trkpt lat="45.87941" lon="6.51051">
        <ele>1562.28</ele>
        <time>2017-09-03T14:08:39Z</time>
      </trkpt>
      <trkpt lat="45.87941" lon="6.51055">
        <ele>1561.8</ele>
        <time>2017-09-03T14:08:40Z</time>
      </trkpt>
      <trkpt lat="45.87939" lon="6.51058">
        <ele>1561.8</ele>
        <time>2017-09-03T14:08:41Z</time>
      </trkpt>
      <trkpt lat="45.87937" lon="6.51062">
        <ele>1561.8</ele>
        <time>2017-09-03T14:08:42Z</time>
      </trkpt>
      <trkpt lat="45.87935" lon="6.51064">
        <ele>1561.8</ele>
        <time>2017-09-03T14:08:43Z</time>
      </trkpt>
      <trkpt lat="45.87934" lon="6.51066">
        <ele>1561.8</ele>
        <time>2017-09-03T14:08:44Z</time>
      </trkpt>
      <trkpt lat="45.8792" lon="6.51089">
        <ele>1562.76</ele>
        <time>2017-09-03T14:08:53Z</time>
      </trkpt>
      <trkpt lat="45.87907" lon="6.51112">
        <ele>1562.28</ele>
        <time>2017-09-03T14:09:02Z</time>
      </trkpt>
      <trkpt lat="45.87902" lon="6.5114">
        <ele>1560.36</ele>
        <time>2017-09-03T14:09:10Z</time>
      </trkpt>
      <trkpt lat="45.87909" lon="6.51166">
        <ele>1560.84</ele>
        <time>2017-09-03T14:09:19Z</time>
      </trkpt>
      <trkpt lat="45.8792" lon="6.51189">
        <ele>1561.32</ele>
        <time>2017-09-03T14:09:28Z</time>
      </trkpt>
      <trkpt lat="45.87931" lon="6.51212">
        <ele>1562.28</ele>
        <time>2017-09-03T14:09:37Z</time>
      </trkpt>
      <trkpt lat="45.8794" lon="6.51239">
        <ele>1562.28</ele>
        <time>2017-09-03T14:09:46Z</time>
      </trkpt>
      <trkpt lat="45.87946" lon="6.51266">
        <ele>1561.8</ele>
        <time>2017-09-03T14:09:55Z</time>
      </trkpt>
      <trkpt lat="45.87956" lon="6.5129">
        <ele>1559.4</ele>
        <time>2017-09-03T14:10:04Z</time>
      </trkpt>
      <trkpt lat="45.87968" lon="6.51311">
        <ele>1556.99</ele>
        <time>2017-09-03T14:10:12Z</time>
      </trkpt>
      <trkpt lat="45.87972" lon="6.51339">
        <ele>1554.59</ele>
        <time>2017-09-03T14:10:20Z</time>
      </trkpt>
      <trkpt lat="45.87973" lon="6.51352">
        <ele>1552.19</ele>
        <time>2017-09-03T14:10:27Z</time>
      </trkpt>
      <trkpt lat="45.87974" lon="6.51353">
        <ele>1552.19</ele>
        <time>2017-09-03T14:10:28Z</time>
      </trkpt>
      <trkpt lat="45.87974" lon="6.51355">
        <ele>1551.71</ele>
        <time>2017-09-03T14:10:29Z</time>
      </trkpt>
      <trkpt lat="45.87975" lon="6.51358">
        <ele>1551.22</ele>
        <time>2017-09-03T14:10:33Z</time>
      </trkpt>
      <trkpt lat="45.8798" lon="6.51369">
        <ele>1549.78</ele>
        <time>2017-09-03T14:10:38Z</time>
      </trkpt>
      <trkpt lat="45.87993" lon="6.51389">
        <ele>1547.38</ele>
        <time>2017-09-03T14:10:47Z</time>
      </trkpt>
      <trkpt lat="45.87999" lon="6.51404">
        <ele>1544.01</ele>
        <time>2017-09-03T14:10:53Z</time>
      </trkpt>
      <trkpt lat="45.88002" lon="6.51409">
        <ele>1543.05</ele>
        <time>2017-09-03T14:10:55Z</time>
      </trkpt>
      <trkpt lat="45.88012" lon="6.51425">
        <ele>1539.69</ele>
        <time>2017-09-03T14:11:01Z</time>
      </trkpt>
      <trkpt lat="45.8802" lon="6.51439">
        <ele>1537.77</ele>
        <time>2017-09-03T14:11:06Z</time>
      </trkpt>
      <trkpt lat="45.8802" lon="6.51442">
        <ele>1537.29</ele>
        <time>2017-09-03T14:11:07Z</time>
      </trkpt>
      <trkpt lat="45.8802" lon="6.51446">
        <ele>1536.8</ele>
        <time>2017-09-03T14:11:08Z</time>
      </trkpt>
      <trkpt lat="45.88019" lon="6.51449">
        <ele>1535.84</ele>
        <time>2017-09-03T14:11:09Z</time>
      </trkpt>
      <trkpt lat="45.88017" lon="6.51452">
        <ele>1535.84</ele>
        <time>2017-09-03T14:11:10Z</time>
      </trkpt>
      <trkpt lat="45.88015" lon="6.51455">
        <ele>1535.84</ele>
        <time>2017-09-03T14:11:11Z</time>
      </trkpt>
      <trkpt lat="45.88013" lon="6.51456">
        <ele>1535.36</ele>
        <time>2017-09-03T14:11:12Z</time>
      </trkpt>
      <trkpt lat="45.88011" lon="6.51458">
        <ele>1534.88</ele>
        <time>2017-09-03T14:11:13Z</time>
      </trkpt>
      <trkpt lat="45.88009" lon="6.51459">
        <ele>1534.88</ele>
        <time>2017-09-03T14:11:14Z</time>
      </trkpt>
      <trkpt lat="45.88007" lon="6.51459">
        <ele>1534.88</ele>
        <time>2017-09-03T14:11:15Z</time>
      </trkpt>
      <trkpt lat="45.88005" lon="6.51459">
        <ele>1533.44</ele>
        <time>2017-09-03T14:11:23Z</time>
      </trkpt>
      <trkpt lat="45.88004" lon="6.51464">
        <ele>1532.96</ele>
        <time>2017-09-03T14:11:27Z</time>
      </trkpt>
      <trkpt lat="45.88004" lon="6.51465">
        <ele>1532.48</ele>
        <time>2017-09-03T14:11:28Z</time>
      </trkpt>
      <trkpt lat="45.88004" lon="6.51467">
        <ele>1532</ele>
        <time>2017-09-03T14:11:29Z</time>
      </trkpt>
      <trkpt lat="45.88003" lon="6.5147">
        <ele>1531.04</ele>
        <time>2017-09-03T14:11:30Z</time>
      </trkpt>
      <trkpt lat="45.88002" lon="6.51472">
        <ele>1530.56</ele>
        <time>2017-09-03T14:11:31Z</time>
      </trkpt>
      <trkpt lat="45.88" lon="6.51474">
        <ele>1530.56</ele>
        <time>2017-09-03T14:11:32Z</time>
      </trkpt>
      <trkpt lat="45.87999" lon="6.51475">
        <ele>1530.08</ele>
        <time>2017-09-03T14:11:33Z</time>
      </trkpt>
      <trkpt lat="45.87998" lon="6.51477">
        <ele>1529.59</ele>
        <time>2017-09-03T14:11:34Z</time>
      </trkpt>
      <trkpt lat="45.8799" lon="6.51484">
        <ele>1526.23</ele>
        <time>2017-09-03T14:11:39Z</time>
      </trkpt>
      <trkpt lat="45.8799" lon="6.51487">
        <ele>1525.75</ele>
        <time>2017-09-03T14:11:40Z</time>
      </trkpt>
      <trkpt lat="45.8799" lon="6.51489">
        <ele>1525.27</ele>
        <time>2017-09-03T14:11:41Z</time>
      </trkpt>
      <trkpt lat="45.87991" lon="6.51491">
        <ele>1524.79</ele>
        <time>2017-09-03T14:11:42Z</time>
      </trkpt>
      <trkpt lat="45.87993" lon="6.51493">
        <ele>1524.31</ele>
        <time>2017-09-03T14:11:43Z</time>
      </trkpt>
      <trkpt lat="45.87995" lon="6.51495">
        <ele>1523.83</ele>
        <time>2017-09-03T14:11:44Z</time>
      </trkpt>
      <trkpt lat="45.87997" lon="6.51498">
        <ele>1523.35</ele>
        <time>2017-09-03T14:11:45Z</time>
      </trkpt>
      <trkpt lat="45.87998" lon="6.515">
        <ele>1522.87</ele>
        <time>2017-09-03T14:11:46Z</time>
      </trkpt>
      <trkpt lat="45.87999" lon="6.51503">
        <ele>1522.39</ele>
        <time>2017-09-03T14:11:47Z</time>
      </trkpt>
      <trkpt lat="45.87999" lon="6.51506">
        <ele>1521.9</ele>
        <time>2017-09-03T14:11:48Z</time>
      </trkpt>
      <trkpt lat="45.87999" lon="6.51509">
        <ele>1521.42</ele>
        <time>2017-09-03T14:11:49Z</time>
      </trkpt>
      <trkpt lat="45.87999" lon="6.51512">
        <ele>1520.94</ele>
        <time>2017-09-03T14:11:50Z</time>
      </trkpt>
      <trkpt lat="45.87999" lon="6.51529">
        <ele>1517.58</ele>
        <time>2017-09-03T14:11:56Z</time>
      </trkpt>
      <trkpt lat="45.88" lon="6.51537">
        <ele>1516.14</ele>
        <time>2017-09-03T14:11:59Z</time>
      </trkpt>
      <trkpt lat="45.87997" lon="6.51548">
        <ele>1513.25</ele>
        <time>2017-09-03T14:12:06Z</time>
      </trkpt>
      <trkpt lat="45.87997" lon="6.51551">
        <ele>1512.77</ele>
        <time>2017-09-03T14:12:12Z</time>
      </trkpt>
      <trkpt lat="45.87997" lon="6.51554">
        <ele>1512.77</ele>
        <time>2017-09-03T14:12:13Z</time>
      </trkpt>
      <trkpt lat="45.87998" lon="6.51581">
        <ele>1510.37</ele>
        <time>2017-09-03T14:12:21Z</time>
      </trkpt>
      <trkpt lat="45.87995" lon="6.51605">
        <ele>1507.97</ele>
        <time>2017-09-03T14:12:30Z</time>
      </trkpt>
      <trkpt lat="45.87996" lon="6.51607">
        <ele>1507.48</ele>
        <time>2017-09-03T14:12:31Z</time>
      </trkpt>
      <trkpt lat="45.87996" lon="6.51609">
        <ele>1507</ele>
        <time>2017-09-03T14:12:32Z</time>
      </trkpt>
      <trkpt lat="45.87997" lon="6.51611">
        <ele>1506.52</ele>
        <time>2017-09-03T14:12:33Z</time>
      </trkpt>
      <trkpt lat="45.87996" lon="6.51614">
        <ele>1506.04</ele>
        <time>2017-09-03T14:12:34Z</time>
      </trkpt>
      <trkpt lat="45.87996" lon="6.51616">
        <ele>1505.56</ele>
        <time>2017-09-03T14:12:35Z</time>
      </trkpt>
      <trkpt lat="45.87993" lon="6.51612">
        <ele>1504.6</ele>
        <time>2017-09-03T14:12:40Z</time>
      </trkpt>
      <trkpt lat="45.87992" lon="6.51611">
        <ele>1504.6</ele>
        <time>2017-09-03T14:12:41Z</time>
      </trkpt>
      <trkpt lat="45.87991" lon="6.5161">
        <ele>1504.12</ele>
        <time>2017-09-03T14:12:42Z</time>
      </trkpt>
      <trkpt lat="45.87985" lon="6.51604">
        <ele>1501.24</ele>
        <time>2017-09-03T14:12:49Z</time>
      </trkpt>
      <trkpt lat="45.87983" lon="6.51602">
        <ele>1500.27</ele>
        <time>2017-09-03T14:12:59Z</time>
      </trkpt>
      <trkpt lat="45.87982" lon="6.51601">
        <ele>1499.79</ele>
        <time>2017-09-03T14:13:00Z</time>
      </trkpt>
      <trkpt lat="45.87981" lon="6.516">
        <ele>1499.31</ele>
        <time>2017-09-03T14:13:01Z</time>
      </trkpt>
      <trkpt lat="45.8798" lon="6.516">
        <ele>1498.83</ele>
        <time>2017-09-03T14:13:02Z</time>
      </trkpt>
      <trkpt lat="45.87979" lon="6.51599">
        <ele>1498.35</ele>
        <time>2017-09-03T14:13:03Z</time>
      </trkpt>
      <trkpt lat="45.87977" lon="6.51599">
        <ele>1498.35</ele>
        <time>2017-09-03T14:13:04Z</time>
      </trkpt>
      <trkpt lat="45.87976" lon="6.51599">
        <ele>1497.87</ele>
        <time>2017-09-03T14:13:05Z</time>
      </trkpt>
      <trkpt lat="45.87973" lon="6.51599">
        <ele>1497.39</ele>
        <time>2017-09-03T14:13:06Z</time>
      </trkpt>
      <trkpt lat="45.87972" lon="6.51599">
        <ele>1496.91</ele>
        <time>2017-09-03T14:13:07Z</time>
      </trkpt>
      <trkpt lat="45.8797" lon="6.51599">
        <ele>1496.43</ele>
        <time>2017-09-03T14:13:08Z</time>
      </trkpt>
      <trkpt lat="45.87969" lon="6.51598">
        <ele>1495.95</ele>
        <time>2017-09-03T14:13:09Z</time>
      </trkpt>
      <trkpt lat="45.87967" lon="6.51597">
        <ele>1495.95</ele>
        <time>2017-09-03T14:13:10Z</time>
      </trkpt>
      <trkpt lat="45.87966" lon="6.51595">
        <ele>1495.47</ele>
        <time>2017-09-03T14:13:11Z</time>
      </trkpt>
      <trkpt lat="45.87965" lon="6.51595">
        <ele>1494.51</ele>
        <time>2017-09-03T14:13:12Z</time>
      </trkpt>
      <trkpt lat="45.87963" lon="6.51594">
        <ele>1493.55</ele>
        <time>2017-09-03T14:13:13Z</time>
      </trkpt>
      <trkpt lat="45.87962" lon="6.51593">
        <ele>1493.55</ele>
        <time>2017-09-03T14:13:14Z</time>
      </trkpt>
      <trkpt lat="45.8796" lon="6.51591">
        <ele>1493.06</ele>
        <time>2017-09-03T14:13:15Z</time>
      </trkpt>
      <trkpt lat="45.87958" lon="6.5159">
        <ele>1493.06</ele>
        <time>2017-09-03T14:13:16Z</time>
      </trkpt>
      <trkpt lat="45.87951" lon="6.51582">
        <ele>1489.7</ele>
        <time>2017-09-03T14:13:21Z</time>
      </trkpt>
      <trkpt lat="45.8795" lon="6.5158">
        <ele>1489.22</ele>
        <time>2017-09-03T14:13:22Z</time>
      </trkpt>
      <trkpt lat="45.87942" lon="6.51572">
        <ele>1485.85</ele>
        <time>2017-09-03T14:13:27Z</time>
      </trkpt>
      <trkpt lat="45.87936" lon="6.51571">
        <ele>1483.93</ele>
        <time>2017-09-03T14:13:30Z</time>
      </trkpt>
      <trkpt lat="45.87934" lon="6.51573">
        <ele>1482.97</ele>
        <time>2017-09-03T14:13:31Z</time>
      </trkpt>
      <trkpt lat="45.87919" lon="6.51575">
        <ele>1480.09</ele>
        <time>2017-09-03T14:13:38Z</time>
      </trkpt>
      <trkpt lat="45.87904" lon="6.51568">
        <ele>1476.72</ele>
        <time>2017-09-03T14:13:46Z</time>
      </trkpt>
      <trkpt lat="45.87894" lon="6.51564">
        <ele>1473.84</ele>
        <time>2017-09-03T14:13:51Z</time>
      </trkpt>
      <trkpt lat="45.87887" lon="6.51561">
        <ele>1472.4</ele>
        <time>2017-09-03T14:13:54Z</time>
      </trkpt>
      <trkpt lat="45.87885" lon="6.51562">
        <ele>1472.4</ele>
        <time>2017-09-03T14:13:55Z</time>
      </trkpt>
      <trkpt lat="45.87882" lon="6.51562">
        <ele>1471.92</ele>
        <time>2017-09-03T14:13:56Z</time>
      </trkpt>
      <trkpt lat="45.87879" lon="6.51562">
        <ele>1471.44</ele>
        <time>2017-09-03T14:13:57Z</time>
      </trkpt>
      <trkpt lat="45.87877" lon="6.51564">
        <ele>1471.44</ele>
        <time>2017-09-03T14:13:58Z</time>
      </trkpt>
      <trkpt lat="45.87875" lon="6.51565">
        <ele>1470.95</ele>
        <time>2017-09-03T14:13:59Z</time>
      </trkpt>
      <trkpt lat="45.87873" lon="6.51566">
        <ele>1470.47</ele>
        <time>2017-09-03T14:14:00Z</time>
      </trkpt>
      <trkpt lat="45.87866" lon="6.5157">
        <ele>1469.99</ele>
        <time>2017-09-03T14:14:04Z</time>
      </trkpt>
      <trkpt lat="45.8786" lon="6.51572">
        <ele>1467.59</ele>
        <time>2017-09-03T14:14:09Z</time>
      </trkpt>
      <trkpt lat="45.87852" lon="6.51571">
        <ele>1465.67</ele>
        <time>2017-09-03T14:14:13Z</time>
      </trkpt>
      <trkpt lat="45.87842" lon="6.51566">
        <ele>1462.78</ele>
        <time>2017-09-03T14:14:18Z</time>
      </trkpt>
      <trkpt lat="45.87833" lon="6.51558">
        <ele>1461.34</ele>
        <time>2017-09-03T14:14:23Z</time>
      </trkpt>
      <trkpt lat="45.87828" lon="6.51558">
        <ele>1460.38</ele>
        <time>2017-09-03T14:14:32Z</time>
      </trkpt>
      <trkpt lat="45.87828" lon="6.51558">
        <ele>1459.9</ele>
        <time>2017-09-03T14:14:33Z</time>
      </trkpt>
      <trkpt lat="45.87826" lon="6.51558">
        <ele>1459.42</ele>
        <time>2017-09-03T14:14:34Z</time>
      </trkpt>
      <trkpt lat="45.87825" lon="6.51558">
        <ele>1458.94</ele>
        <time>2017-09-03T14:14:35Z</time>
      </trkpt>
      <trkpt lat="45.87825" lon="6.51558">
        <ele>1458.46</ele>
        <time>2017-09-03T14:14:36Z</time>
      </trkpt>
      <trkpt lat="45.87824" lon="6.51559">
        <ele>1457.98</ele>
        <time>2017-09-03T14:14:37Z</time>
      </trkpt>
      <trkpt lat="45.87822" lon="6.51559">
        <ele>1457.5</ele>
        <time>2017-09-03T14:14:38Z</time>
      </trkpt>
      <trkpt lat="45.87817" lon="6.51555">
        <ele>1454.61</ele>
        <time>2017-09-03T14:14:42Z</time>
      </trkpt>
      <trkpt lat="45.87815" lon="6.51554">
        <ele>1454.13</ele>
        <time>2017-09-03T14:14:43Z</time>
      </trkpt>
      <trkpt lat="45.87813" lon="6.51552">
        <ele>1453.65</ele>
        <time>2017-09-03T14:14:44Z</time>
      </trkpt>
      <trkpt lat="45.87812" lon="6.51549">
        <ele>1452.69</ele>
        <time>2017-09-03T14:14:45Z</time>
      </trkpt>
      <trkpt lat="45.8781" lon="6.51545">
        <ele>1452.21</ele>
        <time>2017-09-03T14:14:46Z</time>
      </trkpt>
      <trkpt lat="45.87809" lon="6.51542">
        <ele>1452.21</ele>
        <time>2017-09-03T14:14:47Z</time>
      </trkpt>
      <trkpt lat="45.87807" lon="6.51539">
        <ele>1451.73</ele>
        <time>2017-09-03T14:14:48Z</time>
      </trkpt>
      <trkpt lat="45.87803" lon="6.51525">
        <ele>1449.81</ele>
        <time>2017-09-03T14:14:53Z</time>
      </trkpt>
      <trkpt lat="45.87802" lon="6.51523">
        <ele>1448.84</ele>
        <time>2017-09-03T14:14:54Z</time>
      </trkpt>
      <trkpt lat="45.87802" lon="6.5152">
        <ele>1448.36</ele>
        <time>2017-09-03T14:14:55Z</time>
      </trkpt>
      <trkpt lat="45.87801" lon="6.51518">
        <ele>1447.4</ele>
        <time>2017-09-03T14:14:56Z</time>
      </trkpt>
      <trkpt lat="45.87801" lon="6.51515">
        <ele>1446.92</ele>
        <time>2017-09-03T14:14:57Z</time>
      </trkpt>
      <trkpt lat="45.87801" lon="6.51511">
        <ele>1445.96</ele>
        <time>2017-09-03T14:14:58Z</time>
      </trkpt>
      <trkpt lat="45.87801" lon="6.51508">
        <ele>1445.96</ele>
        <time>2017-09-03T14:14:59Z</time>
      </trkpt>
      <trkpt lat="45.87801" lon="6.51505">
        <ele>1445.48</ele>
        <time>2017-09-03T14:15:00Z</time>
      </trkpt>
      <trkpt lat="45.878" lon="6.51507">
        <ele>1444.04</ele>
        <time>2017-09-03T14:15:03Z</time>
      </trkpt>
      <trkpt lat="45.87798" lon="6.51509">
        <ele>1443.56</ele>
        <time>2017-09-03T14:15:04Z</time>
      </trkpt>
      <trkpt lat="45.87794" lon="6.51521">
        <ele>1440.67</ele>
        <time>2017-09-03T14:15:10Z</time>
      </trkpt>
      <trkpt lat="45.8779" lon="6.5153">
        <ele>1437.31</ele>
        <time>2017-09-03T14:15:14Z</time>
      </trkpt>
      <trkpt lat="45.87788" lon="6.51543">
        <ele>1434.42</ele>
        <time>2017-09-03T14:15:19Z</time>
      </trkpt>
      <trkpt lat="45.87789" lon="6.51555">
        <ele>1430.58</ele>
        <time>2017-09-03T14:15:24Z</time>
      </trkpt>
      <trkpt lat="45.87793" lon="6.51565">
        <ele>1427.7</ele>
        <time>2017-09-03T14:15:29Z</time>
      </trkpt>
      <trkpt lat="45.87795" lon="6.51573">
        <ele>1424.81</ele>
        <time>2017-09-03T14:15:33Z</time>
      </trkpt>
      <trkpt lat="45.87793" lon="6.51573">
        <ele>1423.85</ele>
        <time>2017-09-03T14:15:34Z</time>
      </trkpt>
      <trkpt lat="45.87788" lon="6.51571">
        <ele>1420.97</ele>
        <time>2017-09-03T14:15:38Z</time>
      </trkpt>
      <trkpt lat="45.87778" lon="6.51564">
        <ele>1417.6</ele>
        <time>2017-09-03T14:15:43Z</time>
      </trkpt>
      <trkpt lat="45.87774" lon="6.51554">
        <ele>1414.72</ele>
        <time>2017-09-03T14:15:48Z</time>
      </trkpt>
      <trkpt lat="45.87773" lon="6.5154">
        <ele>1412.79</ele>
        <time>2017-09-03T14:15:52Z</time>
      </trkpt>
      <trkpt lat="45.8777" lon="6.51526">
        <ele>1409.43</ele>
        <time>2017-09-03T14:15:59Z</time>
      </trkpt>
      <trkpt lat="45.87768" lon="6.51517">
        <ele>1406.55</ele>
        <time>2017-09-03T14:16:04Z</time>
      </trkpt>
      <trkpt lat="45.87767" lon="6.51516">
        <ele>1406.07</ele>
        <time>2017-09-03T14:16:05Z</time>
      </trkpt>
      <trkpt lat="45.87766" lon="6.51514">
        <ele>1405.1</ele>
        <time>2017-09-03T14:16:07Z</time>
      </trkpt>
      <trkpt lat="45.87765" lon="6.51512">
        <ele>1404.62</ele>
        <time>2017-09-03T14:16:08Z</time>
      </trkpt>
      <trkpt lat="45.87764" lon="6.5151">
        <ele>1403.66</ele>
        <time>2017-09-03T14:16:09Z</time>
      </trkpt>
      <trkpt lat="45.87761" lon="6.51506">
        <ele>1402.22</ele>
        <time>2017-09-03T14:16:11Z</time>
      </trkpt>
      <trkpt lat="45.8776" lon="6.51504">
        <ele>1401.74</ele>
        <time>2017-09-03T14:16:12Z</time>
      </trkpt>
      <trkpt lat="45.87759" lon="6.51502">
        <ele>1401.26</ele>
        <time>2017-09-03T14:16:13Z</time>
      </trkpt>
      <trkpt lat="45.87754" lon="6.51495">
        <ele>1398.37</ele>
        <time>2017-09-03T14:16:17Z</time>
      </trkpt>
      <trkpt lat="45.87751" lon="6.51495">
        <ele>1397.89</ele>
        <time>2017-09-03T14:16:18Z</time>
      </trkpt>
      <trkpt lat="45.87739" lon="6.51488">
        <ele>1395.01</ele>
        <time>2017-09-03T14:16:22Z</time>
      </trkpt>
      <trkpt lat="45.87722" lon="6.51475">
        <ele>1391.65</ele>
        <time>2017-09-03T14:16:29Z</time>
      </trkpt>
      <trkpt lat="45.87704" lon="6.51477">
        <ele>1389.72</ele>
        <time>2017-09-03T14:16:37Z</time>
      </trkpt>
      <trkpt lat="45.87702" lon="6.51478">
        <ele>1389.24</ele>
        <time>2017-09-03T14:16:38Z</time>
      </trkpt>
      <trkpt lat="45.87693" lon="6.51488">
        <ele>1385.88</ele>
        <time>2017-09-03T14:16:44Z</time>
      </trkpt>
      <trkpt lat="45.87685" lon="6.51497">
        <ele>1382.99</ele>
        <time>2017-09-03T14:16:50Z</time>
      </trkpt>
      <trkpt lat="45.87675" lon="6.51498">
        <ele>1380.11</ele>
        <time>2017-09-03T14:16:57Z</time>
      </trkpt>
      <trkpt lat="45.87674" lon="6.515">
        <ele>1380.11</ele>
        <time>2017-09-03T14:16:58Z</time>
      </trkpt>
      <trkpt lat="45.87673" lon="6.51502">
        <ele>1379.63</ele>
        <time>2017-09-03T14:16:59Z</time>
      </trkpt>
      <trkpt lat="45.87672" lon="6.51504">
        <ele>1378.19</ele>
        <time>2017-09-03T14:17:00Z</time>
      </trkpt>
      <trkpt lat="45.87671" lon="6.51506">
        <ele>1377.23</ele>
        <time>2017-09-03T14:17:01Z</time>
      </trkpt>
      <trkpt lat="45.87669" lon="6.51508">
        <ele>1376.75</ele>
        <time>2017-09-03T14:17:02Z</time>
      </trkpt>
      <trkpt lat="45.87668" lon="6.5151">
        <ele>1375.78</ele>
        <time>2017-09-03T14:17:03Z</time>
      </trkpt>
      <trkpt lat="45.87667" lon="6.51512">
        <ele>1375.3</ele>
        <time>2017-09-03T14:17:04Z</time>
      </trkpt>
      <trkpt lat="45.87666" lon="6.51515">
        <ele>1374.82</ele>
        <time>2017-09-03T14:17:05Z</time>
      </trkpt>
      <trkpt lat="45.87665" lon="6.51517">
        <ele>1374.34</ele>
        <time>2017-09-03T14:17:06Z</time>
      </trkpt>
      <trkpt lat="45.87665" lon="6.51519">
        <ele>1374.34</ele>
        <time>2017-09-03T14:17:07Z</time>
      </trkpt>
      <trkpt lat="45.87664" lon="6.51521">
        <ele>1374.34</ele>
        <time>2017-09-03T14:17:08Z</time>
      </trkpt>
      <trkpt lat="45.87664" lon="6.51523">
        <ele>1373.38</ele>
        <time>2017-09-03T14:17:09Z</time>
      </trkpt>
      <trkpt lat="45.87664" lon="6.51526">
        <ele>1373.38</ele>
        <time>2017-09-03T14:17:10Z</time>
      </trkpt>
      <trkpt lat="45.87662" lon="6.51536">
        <ele>1370.5</ele>
        <time>2017-09-03T14:17:15Z</time>
      </trkpt>
      <trkpt lat="45.87662" lon="6.51546">
        <ele>1366.65</ele>
        <time>2017-09-03T14:17:20Z</time>
      </trkpt>
      <trkpt lat="45.87662" lon="6.51549">
        <ele>1365.69</ele>
        <time>2017-09-03T14:17:22Z</time>
      </trkpt>
      <trkpt lat="45.87663" lon="6.51551">
        <ele>1365.21</ele>
        <time>2017-09-03T14:17:23Z</time>
      </trkpt>
      <trkpt lat="45.87663" lon="6.51553">
        <ele>1364.25</ele>
        <time>2017-09-03T14:17:24Z</time>
      </trkpt>
      <trkpt lat="45.87664" lon="6.51555">
        <ele>1363.77</ele>
        <time>2017-09-03T14:17:25Z</time>
      </trkpt>
      <trkpt lat="45.87665" lon="6.51557">
        <ele>1363.29</ele>
        <time>2017-09-03T14:17:26Z</time>
      </trkpt>
      <trkpt lat="45.87669" lon="6.5156">
        <ele>1361.84</ele>
        <time>2017-09-03T14:17:29Z</time>
      </trkpt>
      <trkpt lat="45.87672" lon="6.51559">
        <ele>1361.36</ele>
        <time>2017-09-03T14:17:30Z</time>
      </trkpt>
      <trkpt lat="45.87674" lon="6.51558">
        <ele>1360.88</ele>
        <time>2017-09-03T14:17:31Z</time>
      </trkpt>
      <trkpt lat="45.8769" lon="6.51552">
        <ele>1359.44</ele>
        <time>2017-09-03T14:17:37Z</time>
      </trkpt>
      <trkpt lat="45.87691" lon="6.51554">
        <ele>1358.96</ele>
        <time>2017-09-03T14:17:38Z</time>
      </trkpt>
      <trkpt lat="45.87693" lon="6.51556">
        <ele>1358.96</ele>
        <time>2017-09-03T14:17:39Z</time>
      </trkpt>
      <trkpt lat="45.87695" lon="6.51558">
        <ele>1358.48</ele>
        <time>2017-09-03T14:17:40Z</time>
      </trkpt>
      <trkpt lat="45.87696" lon="6.51561">
        <ele>1358</ele>
        <time>2017-09-03T14:17:41Z</time>
      </trkpt>
      <trkpt lat="45.87697" lon="6.51564">
        <ele>1357.52</ele>
        <time>2017-09-03T14:17:42Z</time>
      </trkpt>
      <trkpt lat="45.87698" lon="6.51567">
        <ele>1357.04</ele>
        <time>2017-09-03T14:17:43Z</time>
      </trkpt>
      <trkpt lat="45.87698" lon="6.51576">
        <ele>1356.56</ele>
        <time>2017-09-03T14:17:46Z</time>
      </trkpt>
      <trkpt lat="45.87693" lon="6.51598">
        <ele>1353.19</ele>
        <time>2017-09-03T14:17:54Z</time>
      </trkpt>
      <trkpt lat="45.87693" lon="6.51623">
        <ele>1349.35</ele>
        <time>2017-09-03T14:18:02Z</time>
      </trkpt>
      <trkpt lat="45.87698" lon="6.51641">
        <ele>1346.46</ele>
        <time>2017-09-03T14:18:07Z</time>
      </trkpt>
      <trkpt lat="45.87705" lon="6.51667">
        <ele>1343.1</ele>
        <time>2017-09-03T14:18:14Z</time>
      </trkpt>
      <trkpt lat="45.87703" lon="6.51693">
        <ele>1340.22</ele>
        <time>2017-09-03T14:18:20Z</time>
      </trkpt>
      <trkpt lat="45.87703" lon="6.51723">
        <ele>1337.33</ele>
        <time>2017-09-03T14:18:26Z</time>
      </trkpt>
      <trkpt lat="45.87709" lon="6.51752">
        <ele>1335.41</ele>
        <time>2017-09-03T14:18:33Z</time>
      </trkpt>
      <trkpt lat="45.87709" lon="6.51757">
        <ele>1334.93</ele>
        <time>2017-09-03T14:18:34Z</time>
      </trkpt>
      <trkpt lat="45.87714" lon="6.51784">
        <ele>1333.01</ele>
        <time>2017-09-03T14:18:41Z</time>
      </trkpt>
      <trkpt lat="45.87723" lon="6.51811">
        <ele>1332.04</ele>
        <time>2017-09-03T14:18:49Z</time>
      </trkpt>
      <trkpt lat="45.87736" lon="6.51831">
        <ele>1330.12</ele>
        <time>2017-09-03T14:18:56Z</time>
      </trkpt>
      <trkpt lat="45.87743" lon="6.51848">
        <ele>1329.16</ele>
        <time>2017-09-03T14:19:01Z</time>
      </trkpt>
      <trkpt lat="45.87744" lon="6.51852">
        <ele>1328.68</ele>
        <time>2017-09-03T14:19:02Z</time>
      </trkpt>
      <trkpt lat="45.87745" lon="6.51856">
        <ele>1328.68</ele>
        <time>2017-09-03T14:19:03Z</time>
      </trkpt>
      <trkpt lat="45.87746" lon="6.5186">
        <ele>1328.2</ele>
        <time>2017-09-03T14:19:04Z</time>
      </trkpt>
      <trkpt lat="45.87746" lon="6.51863">
        <ele>1327.72</ele>
        <time>2017-09-03T14:19:05Z</time>
      </trkpt>
      <trkpt lat="45.87746" lon="6.51872">
        <ele>1327.24</ele>
        <time>2017-09-03T14:19:08Z</time>
      </trkpt>
      <trkpt lat="45.87745" lon="6.51875">
        <ele>1327.24</ele>
        <time>2017-09-03T14:19:09Z</time>
      </trkpt>
      <trkpt lat="45.87743" lon="6.51877">
        <ele>1327.24</ele>
        <time>2017-09-03T14:19:10Z</time>
      </trkpt>
      <trkpt lat="45.87741" lon="6.51877">
        <ele>1326.76</ele>
        <time>2017-09-03T14:19:11Z</time>
      </trkpt>
      <trkpt lat="45.8774" lon="6.51877">
        <ele>1326.28</ele>
        <time>2017-09-03T14:19:12Z</time>
      </trkpt>
      <trkpt lat="45.87734" lon="6.5188">
        <ele>1325.8</ele>
        <time>2017-09-03T14:19:17Z</time>
      </trkpt>
      <trkpt lat="45.87735" lon="6.51882">
        <ele>1325.8</ele>
        <time>2017-09-03T14:19:18Z</time>
      </trkpt>
      <trkpt lat="45.87736" lon="6.51886">
        <ele>1325.31</ele>
        <time>2017-09-03T14:19:20Z</time>
      </trkpt>
      <trkpt lat="45.87738" lon="6.51896">
        <ele>1323.39</ele>
        <time>2017-09-03T14:19:24Z</time>
      </trkpt>
      <trkpt lat="45.87745" lon="6.51915">
        <ele>1320.51</ele>
        <time>2017-09-03T14:19:31Z</time>
      </trkpt>
      <trkpt lat="45.87749" lon="6.51924">
        <ele>1319.07</ele>
        <time>2017-09-03T14:19:34Z</time>
      </trkpt>
      <trkpt lat="45.87756" lon="6.51936">
        <ele>1317.62</ele>
        <time>2017-09-03T14:19:39Z</time>
      </trkpt>
      <trkpt lat="45.87757" lon="6.51936">
        <ele>1317.62</ele>
        <time>2017-09-03T14:19:40Z</time>
      </trkpt>
      <trkpt lat="45.8776" lon="6.51939">
        <ele>1317.62</ele>
        <time>2017-09-03T14:19:45Z</time>
      </trkpt>
      <trkpt lat="45.87761" lon="6.5194">
        <ele>1317.14</ele>
        <time>2017-09-03T14:19:46Z</time>
      </trkpt>
      <trkpt lat="45.87774" lon="6.51967">
        <ele>1315.22</ele>
        <time>2017-09-03T14:19:56Z</time>
      </trkpt>
      <trkpt lat="45.87787" lon="6.51989">
        <ele>1313.3</ele>
        <time>2017-09-03T14:20:04Z</time>
      </trkpt>
      <trkpt lat="45.87795" lon="6.52008">
        <ele>1311.38</ele>
        <time>2017-09-03T14:20:12Z</time>
      </trkpt>
      <trkpt lat="45.87795" lon="6.52009">
        <ele>1311.38</ele>
        <time>2017-09-03T14:20:13Z</time>
      </trkpt>
      <trkpt lat="45.87795" lon="6.52011">
        <ele>1311.38</ele>
        <time>2017-09-03T14:20:14Z</time>
      </trkpt>
      <trkpt lat="45.87788" lon="6.52023">
        <ele>1308.01</ele>
        <time>2017-09-03T14:20:22Z</time>
      </trkpt>
      <trkpt lat="45.8778" lon="6.52034">
        <ele>1304.65</ele>
        <time>2017-09-03T14:20:28Z</time>
      </trkpt>
      <trkpt lat="45.87775" lon="6.52046">
        <ele>1301.28</ele>
        <time>2017-09-03T14:20:34Z</time>
      </trkpt>
      <trkpt lat="45.8777" lon="6.52057">
        <ele>1297.92</ele>
        <time>2017-09-03T14:20:40Z</time>
      </trkpt>
      <trkpt lat="45.87768" lon="6.52056">
        <ele>1297.44</ele>
        <time>2017-09-03T14:20:41Z</time>
      </trkpt>
      <trkpt lat="45.87766" lon="6.52055">
        <ele>1296.96</ele>
        <time>2017-09-03T14:20:42Z</time>
      </trkpt>
      <trkpt lat="45.87764" lon="6.52053">
        <ele>1296.48</ele>
        <time>2017-09-03T14:20:43Z</time>
      </trkpt>
      <trkpt lat="45.87762" lon="6.52051">
        <ele>1296.48</ele>
        <time>2017-09-03T14:20:44Z</time>
      </trkpt>
      <trkpt lat="45.8776" lon="6.52049">
        <ele>1295.99</ele>
        <time>2017-09-03T14:20:45Z</time>
      </trkpt>
      <trkpt lat="45.87758" lon="6.52046">
        <ele>1295.99</ele>
        <time>2017-09-03T14:20:46Z</time>
      </trkpt>
      <trkpt lat="45.87756" lon="6.52044">
        <ele>1295.51</ele>
        <time>2017-09-03T14:20:47Z</time>
      </trkpt>
      <trkpt lat="45.87739" lon="6.52025">
        <ele>1294.07</ele>
        <time>2017-09-03T14:20:56Z</time>
      </trkpt>
      <trkpt lat="45.87723" lon="6.52007">
        <ele>1292.63</ele>
        <time>2017-09-03T14:21:05Z</time>
      </trkpt>
      <trkpt lat="45.87719" lon="6.52006">
        <ele>1292.15</ele>
        <time>2017-09-03T14:21:09Z</time>
      </trkpt>
      <trkpt lat="45.87717" lon="6.52007">
        <ele>1292.15</ele>
        <time>2017-09-03T14:21:10Z</time>
      </trkpt>
      <trkpt lat="45.87716" lon="6.52008">
        <ele>1291.67</ele>
        <time>2017-09-03T14:21:11Z</time>
      </trkpt>
      <trkpt lat="45.87713" lon="6.52011">
        <ele>1290.71</ele>
        <time>2017-09-03T14:21:13Z</time>
      </trkpt>
      <trkpt lat="45.87699" lon="6.52019">
        <ele>1287.82</ele>
        <time>2017-09-03T14:21:20Z</time>
      </trkpt>
      <trkpt lat="45.87697" lon="6.5202">
        <ele>1287.34</ele>
        <time>2017-09-03T14:21:21Z</time>
      </trkpt>
      <trkpt lat="45.87678" lon="6.52016">
        <ele>1285.42</ele>
        <time>2017-09-03T14:21:31Z</time>
      </trkpt>
      <trkpt lat="45.87669" lon="6.5202">
        <ele>1283.02</ele>
        <time>2017-09-03T14:21:37Z</time>
      </trkpt>
      <trkpt lat="45.87668" lon="6.52023">
        <ele>1282.06</ele>
        <time>2017-09-03T14:21:39Z</time>
      </trkpt>
      <trkpt lat="45.87668" lon="6.52025">
        <ele>1282.06</ele>
        <time>2017-09-03T14:21:40Z</time>
      </trkpt>
      <trkpt lat="45.87673" lon="6.52036">
        <ele>1279.17</ele>
        <time>2017-09-03T14:21:45Z</time>
      </trkpt>
      <trkpt lat="45.87674" lon="6.52038">
        <ele>1278.21</ele>
        <time>2017-09-03T14:21:46Z</time>
      </trkpt>
      <trkpt lat="45.87674" lon="6.52041">
        <ele>1277.25</ele>
        <time>2017-09-03T14:21:47Z</time>
      </trkpt>
      <trkpt lat="45.87674" lon="6.52044">
        <ele>1276.77</ele>
        <time>2017-09-03T14:21:48Z</time>
      </trkpt>
      <trkpt lat="45.87675" lon="6.52046">
        <ele>1276.77</ele>
        <time>2017-09-03T14:21:49Z</time>
      </trkpt>
      <trkpt lat="45.87676" lon="6.52048">
        <ele>1276.29</ele>
        <time>2017-09-03T14:21:50Z</time>
      </trkpt>
      <trkpt lat="45.87676" lon="6.5205">
        <ele>1275.33</ele>
        <time>2017-09-03T14:21:51Z</time>
      </trkpt>
      <trkpt lat="45.87676" lon="6.52052">
        <ele>1274.85</ele>
        <time>2017-09-03T14:21:52Z</time>
      </trkpt>
      <trkpt lat="45.87677" lon="6.52055">
        <ele>1274.36</ele>
        <time>2017-09-03T14:21:53Z</time>
      </trkpt>
      <trkpt lat="45.87677" lon="6.52057">
        <ele>1273.4</ele>
        <time>2017-09-03T14:21:54Z</time>
      </trkpt>
      <trkpt lat="45.87677" lon="6.5206">
        <ele>1272.92</ele>
        <time>2017-09-03T14:21:55Z</time>
      </trkpt>
      <trkpt lat="45.87678" lon="6.52063">
        <ele>1272.44</ele>
        <time>2017-09-03T14:21:56Z</time>
      </trkpt>
      <trkpt lat="45.87679" lon="6.52065">
        <ele>1272.44</ele>
        <time>2017-09-03T14:21:57Z</time>
      </trkpt>
      <trkpt lat="45.8768" lon="6.52067">
        <ele>1271.96</ele>
        <time>2017-09-03T14:21:58Z</time>
      </trkpt>
      <trkpt lat="45.87681" lon="6.5207">
        <ele>1271</ele>
        <time>2017-09-03T14:21:59Z</time>
      </trkpt>
      <trkpt lat="45.87682" lon="6.52072">
        <ele>1270.04</ele>
        <time>2017-09-03T14:22:00Z</time>
      </trkpt>
      <trkpt lat="45.87684" lon="6.52074">
        <ele>1270.04</ele>
        <time>2017-09-03T14:22:01Z</time>
      </trkpt>
      <trkpt lat="45.87685" lon="6.52077">
        <ele>1269.56</ele>
        <time>2017-09-03T14:22:02Z</time>
      </trkpt>
      <trkpt lat="45.87692" lon="6.52084">
        <ele>1268.12</ele>
        <time>2017-09-03T14:22:05Z</time>
      </trkpt>
      <trkpt lat="45.87712" lon="6.52103">
        <ele>1265.23</ele>
        <time>2017-09-03T14:22:13Z</time>
      </trkpt>
      <trkpt lat="45.87729" lon="6.52122">
        <ele>1263.79</ele>
        <time>2017-09-03T14:22:21Z</time>
      </trkpt>
      <trkpt lat="45.87729" lon="6.52125">
        <ele>1263.79</ele>
        <time>2017-09-03T14:22:22Z</time>
      </trkpt>
      <trkpt lat="45.8773" lon="6.52128">
        <ele>1263.79</ele>
        <time>2017-09-03T14:22:23Z</time>
      </trkpt>
      <trkpt lat="45.87731" lon="6.5213">
        <ele>1263.31</ele>
        <time>2017-09-03T14:22:24Z</time>
      </trkpt>
      <trkpt lat="45.87731" lon="6.52133">
        <ele>1262.83</ele>
        <time>2017-09-03T14:22:25Z</time>
      </trkpt>
      <trkpt lat="45.87732" lon="6.52136">
        <ele>1261.87</ele>
        <time>2017-09-03T14:22:26Z</time>
      </trkpt>
      <trkpt lat="45.87732" lon="6.5214">
        <ele>1261.39</ele>
        <time>2017-09-03T14:22:31Z</time>
      </trkpt>
      <trkpt lat="45.87732" lon="6.52141">
        <ele>1261.39</ele>
        <time>2017-09-03T14:22:32Z</time>
      </trkpt>
      <trkpt lat="45.87732" lon="6.52142">
        <ele>1260.91</ele>
        <time>2017-09-03T14:22:33Z</time>
      </trkpt>
      <trkpt lat="45.87732" lon="6.52143">
        <ele>1260.91</ele>
        <time>2017-09-03T14:22:34Z</time>
      </trkpt>
      <trkpt lat="45.87729" lon="6.52144">
        <ele>1260.43</ele>
        <time>2017-09-03T14:22:38Z</time>
      </trkpt>
      <trkpt lat="45.87728" lon="6.52145">
        <ele>1259.94</ele>
        <time>2017-09-03T14:22:39Z</time>
      </trkpt>
      <trkpt lat="45.87725" lon="6.5215">
        <ele>1258.02</ele>
        <time>2017-09-03T14:22:43Z</time>
      </trkpt>
      <trkpt lat="45.87722" lon="6.52157">
        <ele>1255.62</ele>
        <time>2017-09-03T14:22:48Z</time>
      </trkpt>
      <trkpt lat="45.8772" lon="6.52157">
        <ele>1254.66</ele>
        <time>2017-09-03T14:22:49Z</time>
      </trkpt>
      <trkpt lat="45.87719" lon="6.52155">
        <ele>1254.18</ele>
        <time>2017-09-03T14:22:50Z</time>
      </trkpt>
      <trkpt lat="45.87718" lon="6.52153">
        <ele>1253.7</ele>
        <time>2017-09-03T14:22:51Z</time>
      </trkpt>
      <trkpt lat="45.87717" lon="6.52151">
        <ele>1253.22</ele>
        <time>2017-09-03T14:22:52Z</time>
      </trkpt>
      <trkpt lat="45.87716" lon="6.52149">
        <ele>1253.22</ele>
        <time>2017-09-03T14:22:53Z</time>
      </trkpt>
      <trkpt lat="45.87716" lon="6.52148">
        <ele>1252.74</ele>
        <time>2017-09-03T14:22:55Z</time>
      </trkpt>
      <trkpt lat="45.87715" lon="6.52151">
        <ele>1252.25</ele>
        <time>2017-09-03T14:22:56Z</time>
      </trkpt>
      <trkpt lat="45.87714" lon="6.52154">
        <ele>1251.77</ele>
        <time>2017-09-03T14:22:57Z</time>
      </trkpt>
      <trkpt lat="45.87714" lon="6.52155">
        <ele>1251.29</ele>
        <time>2017-09-03T14:22:58Z</time>
      </trkpt>
      <trkpt lat="45.87713" lon="6.52155">
        <ele>1250.81</ele>
        <time>2017-09-03T14:22:59Z</time>
      </trkpt>
      <trkpt lat="45.87712" lon="6.52154">
        <ele>1250.81</ele>
        <time>2017-09-03T14:23:00Z</time>
      </trkpt>
      <trkpt lat="45.87711" lon="6.52153">
        <ele>1250.33</ele>
        <time>2017-09-03T14:23:01Z</time>
      </trkpt>
      <trkpt lat="45.87711" lon="6.52151">
        <ele>1249.85</ele>
        <time>2017-09-03T14:23:02Z</time>
      </trkpt>
      <trkpt lat="45.87711" lon="6.52151">
        <ele>1249.37</ele>
        <time>2017-09-03T14:23:03Z</time>
      </trkpt>
      <trkpt lat="45.87709" lon="6.52153">
        <ele>1248.89</ele>
        <time>2017-09-03T14:23:04Z</time>
      </trkpt>
      <trkpt lat="45.87708" lon="6.52156">
        <ele>1248.41</ele>
        <time>2017-09-03T14:23:05Z</time>
      </trkpt>
      <trkpt lat="45.87708" lon="6.52158">
        <ele>1247.93</ele>
        <time>2017-09-03T14:23:06Z</time>
      </trkpt>
      <trkpt lat="45.87709" lon="6.52161">
        <ele>1247.45</ele>
        <time>2017-09-03T14:23:07Z</time>
      </trkpt>
      <trkpt lat="45.8771" lon="6.52164">
        <ele>1247.45</ele>
        <time>2017-09-03T14:23:08Z</time>
      </trkpt>
      <trkpt lat="45.87711" lon="6.52166">
        <ele>1246.97</ele>
        <time>2017-09-03T14:23:09Z</time>
      </trkpt>
      <trkpt lat="45.87713" lon="6.52169">
        <ele>1247.45</ele>
        <time>2017-09-03T14:23:10Z</time>
      </trkpt>
      <trkpt lat="45.87715" lon="6.52172">
        <ele>1247.45</ele>
        <time>2017-09-03T14:23:11Z</time>
      </trkpt>
      <trkpt lat="45.87717" lon="6.52175">
        <ele>1247.45</ele>
        <time>2017-09-03T14:23:12Z</time>
      </trkpt>
      <trkpt lat="45.87719" lon="6.52177">
        <ele>1247.45</ele>
        <time>2017-09-03T14:23:13Z</time>
      </trkpt>
      <trkpt lat="45.87721" lon="6.5218">
        <ele>1246.97</ele>
        <time>2017-09-03T14:23:14Z</time>
      </trkpt>
      <trkpt lat="45.87722" lon="6.52184">
        <ele>1246.97</ele>
        <time>2017-09-03T14:23:15Z</time>
      </trkpt>
      <trkpt lat="45.87724" lon="6.52187">
        <ele>1246.97</ele>
        <time>2017-09-03T14:23:16Z</time>
      </trkpt>
      <trkpt lat="45.87726" lon="6.5219">
        <ele>1246.97</ele>
        <time>2017-09-03T14:23:17Z</time>
      </trkpt>
      <trkpt lat="45.87737" lon="6.52209">
        <ele>1246.97</ele>
        <time>2017-09-03T14:23:23Z</time>
      </trkpt>
      <trkpt lat="45.8775" lon="6.52222">
        <ele>1246.49</ele>
        <time>2017-09-03T14:23:29Z</time>
      </trkpt>
      <trkpt lat="45.8777" lon="6.5224">
        <ele>1246.49</ele>
        <time>2017-09-03T14:23:37Z</time>
      </trkpt>
      <trkpt lat="45.87787" lon="6.52256">
        <ele>1245.04</ele>
        <time>2017-09-03T14:23:44Z</time>
      </trkpt>
      <trkpt lat="45.87803" lon="6.52272">
        <ele>1244.56</ele>
        <time>2017-09-03T14:23:51Z</time>
      </trkpt>
      <trkpt lat="45.87821" lon="6.52287">
        <ele>1243.6</ele>
        <time>2017-09-03T14:23:58Z</time>
      </trkpt>
      <trkpt lat="45.8784" lon="6.52302">
        <ele>1242.64</ele>
        <time>2017-09-03T14:24:05Z</time>
      </trkpt>
      <trkpt lat="45.87859" lon="6.52318">
        <ele>1241.68</ele>
        <time>2017-09-03T14:24:12Z</time>
      </trkpt>
      <trkpt lat="45.87875" lon="6.52338">
        <ele>1241.2</ele>
        <time>2017-09-03T14:24:19Z</time>
      </trkpt>
      <trkpt lat="45.87879" lon="6.5235">
        <ele>1240.72</ele>
        <time>2017-09-03T14:24:22Z</time>
      </trkpt>
      <trkpt lat="45.87882" lon="6.52353">
        <ele>1240.24</ele>
        <time>2017-09-03T14:24:23Z</time>
      </trkpt>
      <trkpt lat="45.87897" lon="6.52373">
        <ele>1240.24</ele>
        <time>2017-09-03T14:24:30Z</time>
      </trkpt>
      <trkpt lat="45.87913" lon="6.52393">
        <ele>1240.24</ele>
        <time>2017-09-03T14:24:38Z</time>
      </trkpt>
      <trkpt lat="45.87929" lon="6.52412">
        <ele>1240.24</ele>
        <time>2017-09-03T14:24:46Z</time>
      </trkpt>
      <trkpt lat="45.87943" lon="6.52436">
        <ele>1240.24</ele>
        <time>2017-09-03T14:24:53Z</time>
      </trkpt>
      <trkpt lat="45.87949" lon="6.52462">
        <ele>1240.24</ele>
        <time>2017-09-03T14:25:00Z</time>
      </trkpt>
      <trkpt lat="45.8795" lon="6.52465">
        <ele>1240.24</ele>
        <time>2017-09-03T14:25:01Z</time>
      </trkpt>
      <trkpt lat="45.87952" lon="6.52467">
        <ele>1239.76</ele>
        <time>2017-09-03T14:25:02Z</time>
      </trkpt>
      <trkpt lat="45.87953" lon="6.52469">
        <ele>1239.76</ele>
        <time>2017-09-03T14:25:03Z</time>
      </trkpt>
      <trkpt lat="45.87954" lon="6.5247">
        <ele>1240.24</ele>
        <time>2017-09-03T14:25:04Z</time>
      </trkpt>
      <trkpt lat="45.87955" lon="6.52471">
        <ele>1240.24</ele>
        <time>2017-09-03T14:25:05Z</time>
      </trkpt>
      <trkpt lat="45.87957" lon="6.52472">
        <ele>1240.24</ele>
        <time>2017-09-03T14:25:06Z</time>
      </trkpt>
      <trkpt lat="45.87958" lon="6.52473">
        <ele>1239.76</ele>
        <time>2017-09-03T14:25:07Z</time>
      </trkpt>
    </trkseg>
  </trk>
</gpx>